<?xml version="1.0" encoding="UTF-8" standalone="no" ?>
<gpx xmlns="http://www.topografix.com/GPX/1/1" xmlns:xsi="http://www.w3.org/2001/XMLSchema-instance" xsi:schemaLocation="http://www.topografix.com/GPX/1/1 http://www.topografix.com/GPX/1/1/gpx.xsd" version="1.1" creator="VisuGPX - https://www.visugpx.com">
  <metadata>
    <name>GR223 Hermanville - Dives</name>
    <desc><![CDATA[Hermanville - Ouistréham - Fermenville - Cabourg - Dives]]></desc>
  </metadata>
  <trk>
    <name><![CDATA[2015-10-16]]></name>
    <trkseg>
      <trkpt lat="49.30178" lon="-0.31257">
        <ele>5.7</ele>
        <time>2015-10-16T07:46:55Z</time>
      </trkpt>
      <trkpt lat="49.30178" lon="-0.31257">
        <ele>5.7</ele>
        <time>2015-10-16T07:46:56Z</time>
      </trkpt>
      <trkpt lat="49.30178" lon="-0.31257">
        <ele>5.7</ele>
        <time>2015-10-16T07:46:57Z</time>
      </trkpt>
      <trkpt lat="49.30178" lon="-0.31256">
        <ele>5.7</ele>
        <time>2015-10-16T07:46:58Z</time>
      </trkpt>
      <trkpt lat="49.30179" lon="-0.31255">
        <ele>5.8</ele>
        <time>2015-10-16T07:46:59Z</time>
      </trkpt>
      <trkpt lat="49.30179" lon="-0.31253">
        <ele>5.8</ele>
        <time>2015-10-16T07:47:01Z</time>
      </trkpt>
      <trkpt lat="49.30178" lon="-0.31248">
        <ele>5.9</ele>
        <time>2015-10-16T07:47:04Z</time>
      </trkpt>
      <trkpt lat="49.30178" lon="-0.31244">
        <ele>6.1</ele>
        <time>2015-10-16T07:47:08Z</time>
      </trkpt>
      <trkpt lat="49.30179" lon="-0.31243">
        <ele>6.1</ele>
        <time>2015-10-16T07:47:09Z</time>
      </trkpt>
      <trkpt lat="49.30179" lon="-0.31242">
        <ele>6.2</ele>
        <time>2015-10-16T07:47:10Z</time>
      </trkpt>
      <trkpt lat="49.30178" lon="-0.31241">
        <ele>6.2</ele>
        <time>2015-10-16T07:47:11Z</time>
      </trkpt>
      <trkpt lat="49.30178" lon="-0.31239">
        <ele>6.2</ele>
        <time>2015-10-16T07:47:12Z</time>
      </trkpt>
      <trkpt lat="49.30178" lon="-0.31237">
        <ele>6.2</ele>
        <time>2015-10-16T07:47:14Z</time>
      </trkpt>
      <trkpt lat="49.30172" lon="-0.31221">
        <ele>6.3</ele>
        <time>2015-10-16T07:47:23Z</time>
      </trkpt>
      <trkpt lat="49.3012" lon="-0.31059">
        <ele>6.2</ele>
        <time>2015-10-16T07:48:46Z</time>
      </trkpt>
      <trkpt lat="49.30119" lon="-0.31057">
        <ele>6.2</ele>
        <time>2015-10-16T07:48:47Z</time>
      </trkpt>
      <trkpt lat="49.30111" lon="-0.31038">
        <ele>5.9</ele>
        <time>2015-10-16T07:48:57Z</time>
      </trkpt>
      <trkpt lat="49.30086" lon="-0.30979">
        <ele>4.4</ele>
        <time>2015-10-16T07:49:29Z</time>
      </trkpt>
      <trkpt lat="49.30086" lon="-0.30977">
        <ele>4.3</ele>
        <time>2015-10-16T07:49:30Z</time>
      </trkpt>
      <trkpt lat="49.30082" lon="-0.30959">
        <ele>4</ele>
        <time>2015-10-16T07:49:40Z</time>
      </trkpt>
      <trkpt lat="49.30082" lon="-0.30959">
        <ele>3.9</ele>
        <time>2015-10-16T07:49:41Z</time>
      </trkpt>
      <trkpt lat="49.30082" lon="-0.30959">
        <ele>3.9</ele>
        <time>2015-10-16T07:49:42Z</time>
      </trkpt>
      <trkpt lat="49.30082" lon="-0.30959">
        <ele>3.9</ele>
        <time>2015-10-16T07:49:43Z</time>
      </trkpt>
      <trkpt lat="49.30082" lon="-0.30959">
        <ele>3.9</ele>
        <time>2015-10-16T07:49:44Z</time>
      </trkpt>
      <trkpt lat="49.30082" lon="-0.30959">
        <ele>3.9</ele>
        <time>2015-10-16T07:49:45Z</time>
      </trkpt>
      <trkpt lat="49.30082" lon="-0.30959">
        <ele>3.9</ele>
        <time>2015-10-16T07:49:46Z</time>
      </trkpt>
      <trkpt lat="49.30082" lon="-0.30958">
        <ele>3.9</ele>
        <time>2015-10-16T07:49:47Z</time>
      </trkpt>
      <trkpt lat="49.30082" lon="-0.30957">
        <ele>3.9</ele>
        <time>2015-10-16T07:49:48Z</time>
      </trkpt>
      <trkpt lat="49.30076" lon="-0.30945">
        <ele>4</ele>
        <time>2015-10-16T07:49:55Z</time>
      </trkpt>
      <trkpt lat="49.30058" lon="-0.30906">
        <ele>4.3</ele>
        <time>2015-10-16T07:50:16Z</time>
      </trkpt>
      <trkpt lat="49.30057" lon="-0.30905">
        <ele>4.3</ele>
        <time>2015-10-16T07:50:17Z</time>
      </trkpt>
      <trkpt lat="49.3005" lon="-0.30899">
        <ele>4.3</ele>
        <time>2015-10-16T07:50:23Z</time>
      </trkpt>
      <trkpt lat="49.30049" lon="-0.30897">
        <ele>4.3</ele>
        <time>2015-10-16T07:50:24Z</time>
      </trkpt>
      <trkpt lat="49.30039" lon="-0.30874">
        <ele>4.3</ele>
        <time>2015-10-16T07:50:36Z</time>
      </trkpt>
      <trkpt lat="49.30002" lon="-0.30779">
        <ele>4.3</ele>
        <time>2015-10-16T07:51:28Z</time>
      </trkpt>
      <trkpt lat="49.30002" lon="-0.30777">
        <ele>4.3</ele>
        <time>2015-10-16T07:51:29Z</time>
      </trkpt>
      <trkpt lat="49.30002" lon="-0.30776">
        <ele>4.4</ele>
        <time>2015-10-16T07:51:30Z</time>
      </trkpt>
      <trkpt lat="49.30002" lon="-0.30776">
        <ele>4.4</ele>
        <time>2015-10-16T07:51:31Z</time>
      </trkpt>
      <trkpt lat="49.30003" lon="-0.30775">
        <ele>4.4</ele>
        <time>2015-10-16T07:51:32Z</time>
      </trkpt>
      <trkpt lat="49.30003" lon="-0.30776">
        <ele>4.4</ele>
        <time>2015-10-16T07:51:33Z</time>
      </trkpt>
      <trkpt lat="49.30003" lon="-0.30776">
        <ele>4.4</ele>
        <time>2015-10-16T07:51:34Z</time>
      </trkpt>
      <trkpt lat="49.30003" lon="-0.30776">
        <ele>4.4</ele>
        <time>2015-10-16T07:51:35Z</time>
      </trkpt>
      <trkpt lat="49.30003" lon="-0.30776">
        <ele>4.4</ele>
        <time>2015-10-16T07:51:36Z</time>
      </trkpt>
      <trkpt lat="49.30003" lon="-0.30776">
        <ele>4.4</ele>
        <time>2015-10-16T07:51:37Z</time>
      </trkpt>
      <trkpt lat="49.30003" lon="-0.30776">
        <ele>4.4</ele>
        <time>2015-10-16T07:51:38Z</time>
      </trkpt>
      <trkpt lat="49.30003" lon="-0.30776">
        <ele>4.5</ele>
        <time>2015-10-16T07:51:39Z</time>
      </trkpt>
      <trkpt lat="49.29999" lon="-0.30777">
        <ele>4.5</ele>
        <time>2015-10-16T07:51:42Z</time>
      </trkpt>
      <trkpt lat="49.29998" lon="-0.30776">
        <ele>4.6</ele>
        <time>2015-10-16T07:51:43Z</time>
      </trkpt>
      <trkpt lat="49.29996" lon="-0.30773">
        <ele>4.6</ele>
        <time>2015-10-16T07:51:45Z</time>
      </trkpt>
      <trkpt lat="49.29994" lon="-0.30767">
        <ele>4.7</ele>
        <time>2015-10-16T07:51:48Z</time>
      </trkpt>
      <trkpt lat="49.29993" lon="-0.30764">
        <ele>4.8</ele>
        <time>2015-10-16T07:51:49Z</time>
      </trkpt>
      <trkpt lat="49.29993" lon="-0.30762">
        <ele>4.8</ele>
        <time>2015-10-16T07:51:50Z</time>
      </trkpt>
      <trkpt lat="49.29992" lon="-0.3076">
        <ele>4.8</ele>
        <time>2015-10-16T07:51:51Z</time>
      </trkpt>
      <trkpt lat="49.29991" lon="-0.30758">
        <ele>4.9</ele>
        <time>2015-10-16T07:51:52Z</time>
      </trkpt>
      <trkpt lat="49.29826" lon="-0.30232">
        <ele>2.2</ele>
        <time>2015-10-16T07:56:17Z</time>
      </trkpt>
      <trkpt lat="49.29824" lon="-0.30232">
        <ele>2.4</ele>
        <time>2015-10-16T07:56:18Z</time>
      </trkpt>
      <trkpt lat="49.29823" lon="-0.30231">
        <ele>2.6</ele>
        <time>2015-10-16T07:56:19Z</time>
      </trkpt>
      <trkpt lat="49.29822" lon="-0.30232">
        <ele>3.1</ele>
        <time>2015-10-16T07:56:20Z</time>
      </trkpt>
      <trkpt lat="49.2982" lon="-0.30232">
        <ele>3.5</ele>
        <time>2015-10-16T07:56:21Z</time>
      </trkpt>
      <trkpt lat="49.29819" lon="-0.30233">
        <ele>3.8</ele>
        <time>2015-10-16T07:56:22Z</time>
      </trkpt>
      <trkpt lat="49.29817" lon="-0.30234">
        <ele>5.1</ele>
        <time>2015-10-16T07:56:23Z</time>
      </trkpt>
      <trkpt lat="49.29816" lon="-0.30234">
        <ele>6</ele>
        <time>2015-10-16T07:56:24Z</time>
      </trkpt>
      <trkpt lat="49.29814" lon="-0.30235">
        <ele>6.7</ele>
        <time>2015-10-16T07:56:25Z</time>
      </trkpt>
      <trkpt lat="49.29813" lon="-0.30235">
        <ele>6.6</ele>
        <time>2015-10-16T07:56:26Z</time>
      </trkpt>
      <trkpt lat="49.29812" lon="-0.30235">
        <ele>6.6</ele>
        <time>2015-10-16T07:56:27Z</time>
      </trkpt>
      <trkpt lat="49.2981" lon="-0.30235">
        <ele>6.5</ele>
        <time>2015-10-16T07:56:29Z</time>
      </trkpt>
      <trkpt lat="49.29808" lon="-0.30235">
        <ele>6.5</ele>
        <time>2015-10-16T07:56:30Z</time>
      </trkpt>
      <trkpt lat="49.29806" lon="-0.30232">
        <ele>5.3</ele>
        <time>2015-10-16T07:56:33Z</time>
      </trkpt>
      <trkpt lat="49.29806" lon="-0.30229">
        <ele>5</ele>
        <time>2015-10-16T07:56:34Z</time>
      </trkpt>
      <trkpt lat="49.29806" lon="-0.30227">
        <ele>5.9</ele>
        <time>2015-10-16T07:56:35Z</time>
      </trkpt>
      <trkpt lat="49.29806" lon="-0.30224">
        <ele>6.7</ele>
        <time>2015-10-16T07:56:36Z</time>
      </trkpt>
      <trkpt lat="49.29807" lon="-0.30222">
        <ele>7.2</ele>
        <time>2015-10-16T07:56:37Z</time>
      </trkpt>
      <trkpt lat="49.29808" lon="-0.30219">
        <ele>6.6</ele>
        <time>2015-10-16T07:56:38Z</time>
      </trkpt>
      <trkpt lat="49.29809" lon="-0.30217">
        <ele>6.1</ele>
        <time>2015-10-16T07:56:39Z</time>
      </trkpt>
      <trkpt lat="49.2981" lon="-0.30216">
        <ele>5.8</ele>
        <time>2015-10-16T07:56:40Z</time>
      </trkpt>
      <trkpt lat="49.29811" lon="-0.30216">
        <ele>5.7</ele>
        <time>2015-10-16T07:56:41Z</time>
      </trkpt>
      <trkpt lat="49.29812" lon="-0.30215">
        <ele>5.7</ele>
        <time>2015-10-16T07:56:42Z</time>
      </trkpt>
      <trkpt lat="49.29812" lon="-0.30214">
        <ele>5.6</ele>
        <time>2015-10-16T07:56:43Z</time>
      </trkpt>
      <trkpt lat="49.29813" lon="-0.30213">
        <ele>5.8</ele>
        <time>2015-10-16T07:56:44Z</time>
      </trkpt>
      <trkpt lat="49.29814" lon="-0.30212">
        <ele>6</ele>
        <time>2015-10-16T07:56:45Z</time>
      </trkpt>
      <trkpt lat="49.29815" lon="-0.30211">
        <ele>6.1</ele>
        <time>2015-10-16T07:56:46Z</time>
      </trkpt>
      <trkpt lat="49.29817" lon="-0.3021">
        <ele>5.1</ele>
        <time>2015-10-16T07:56:47Z</time>
      </trkpt>
      <trkpt lat="49.29818" lon="-0.30209">
        <ele>4.4</ele>
        <time>2015-10-16T07:56:48Z</time>
      </trkpt>
      <trkpt lat="49.29819" lon="-0.30208">
        <ele>3.8</ele>
        <time>2015-10-16T07:56:49Z</time>
      </trkpt>
      <trkpt lat="49.2982" lon="-0.30207">
        <ele>4.7</ele>
        <time>2015-10-16T07:56:50Z</time>
      </trkpt>
      <trkpt lat="49.29821" lon="-0.30206">
        <ele>5.3</ele>
        <time>2015-10-16T07:56:51Z</time>
      </trkpt>
      <trkpt lat="49.29821" lon="-0.30205">
        <ele>5.8</ele>
        <time>2015-10-16T07:56:52Z</time>
      </trkpt>
      <trkpt lat="49.29822" lon="-0.30205">
        <ele>5.5</ele>
        <time>2015-10-16T07:56:53Z</time>
      </trkpt>
      <trkpt lat="49.29822" lon="-0.30205">
        <ele>5.3</ele>
        <time>2015-10-16T07:56:54Z</time>
      </trkpt>
      <trkpt lat="49.29822" lon="-0.30206">
        <ele>5.2</ele>
        <time>2015-10-16T07:56:55Z</time>
      </trkpt>
      <trkpt lat="49.29822" lon="-0.30206">
        <ele>4.6</ele>
        <time>2015-10-16T07:56:56Z</time>
      </trkpt>
      <trkpt lat="49.29822" lon="-0.30206">
        <ele>4.2</ele>
        <time>2015-10-16T07:56:57Z</time>
      </trkpt>
      <trkpt lat="49.29822" lon="-0.30206">
        <ele>3.9</ele>
        <time>2015-10-16T07:56:58Z</time>
      </trkpt>
      <trkpt lat="49.29823" lon="-0.30207">
        <ele>3.9</ele>
        <time>2015-10-16T07:56:59Z</time>
      </trkpt>
      <trkpt lat="49.29823" lon="-0.30207">
        <ele>3.9</ele>
        <time>2015-10-16T07:57:00Z</time>
      </trkpt>
      <trkpt lat="49.29823" lon="-0.30207">
        <ele>3.9</ele>
        <time>2015-10-16T07:57:01Z</time>
      </trkpt>
      <trkpt lat="49.29822" lon="-0.30207">
        <ele>3.9</ele>
        <time>2015-10-16T07:57:02Z</time>
      </trkpt>
      <trkpt lat="49.29822" lon="-0.30207">
        <ele>3.9</ele>
        <time>2015-10-16T07:57:03Z</time>
      </trkpt>
      <trkpt lat="49.29822" lon="-0.30207">
        <ele>3.9</ele>
        <time>2015-10-16T07:57:04Z</time>
      </trkpt>
      <trkpt lat="49.29822" lon="-0.30207">
        <ele>3.7</ele>
        <time>2015-10-16T07:57:05Z</time>
      </trkpt>
      <trkpt lat="49.29822" lon="-0.30207">
        <ele>3.5</ele>
        <time>2015-10-16T07:57:06Z</time>
      </trkpt>
      <trkpt lat="49.29822" lon="-0.30207">
        <ele>3.4</ele>
        <time>2015-10-16T07:57:07Z</time>
      </trkpt>
      <trkpt lat="49.29822" lon="-0.30207">
        <ele>3.7</ele>
        <time>2015-10-16T07:57:08Z</time>
      </trkpt>
      <trkpt lat="49.29822" lon="-0.30207">
        <ele>4</ele>
        <time>2015-10-16T07:57:09Z</time>
      </trkpt>
      <trkpt lat="49.29822" lon="-0.30207">
        <ele>4.2</ele>
        <time>2015-10-16T07:57:10Z</time>
      </trkpt>
      <trkpt lat="49.29822" lon="-0.30207">
        <ele>4.1</ele>
        <time>2015-10-16T07:57:11Z</time>
      </trkpt>
      <trkpt lat="49.29822" lon="-0.30207">
        <ele>4</ele>
        <time>2015-10-16T07:57:12Z</time>
      </trkpt>
      <trkpt lat="49.29822" lon="-0.30207">
        <ele>4</ele>
        <time>2015-10-16T07:57:13Z</time>
      </trkpt>
      <trkpt lat="49.29822" lon="-0.30208">
        <ele>4.4</ele>
        <time>2015-10-16T07:57:14Z</time>
      </trkpt>
      <trkpt lat="49.29822" lon="-0.30208">
        <ele>4.7</ele>
        <time>2015-10-16T07:57:15Z</time>
      </trkpt>
      <trkpt lat="49.29822" lon="-0.30208">
        <ele>4.9</ele>
        <time>2015-10-16T07:57:16Z</time>
      </trkpt>
      <trkpt lat="49.29822" lon="-0.30208">
        <ele>4.9</ele>
        <time>2015-10-16T07:57:17Z</time>
      </trkpt>
      <trkpt lat="49.29822" lon="-0.30208">
        <ele>4.8</ele>
        <time>2015-10-16T07:57:18Z</time>
      </trkpt>
      <trkpt lat="49.29822" lon="-0.30208">
        <ele>4.8</ele>
        <time>2015-10-16T07:57:19Z</time>
      </trkpt>
      <trkpt lat="49.29822" lon="-0.30208">
        <ele>4.8</ele>
        <time>2015-10-16T07:57:21Z</time>
      </trkpt>
      <trkpt lat="49.29821" lon="-0.30207">
        <ele>4.7</ele>
        <time>2015-10-16T07:57:22Z</time>
      </trkpt>
      <trkpt lat="49.29819" lon="-0.30204">
        <ele>3.3</ele>
        <time>2015-10-16T07:57:24Z</time>
      </trkpt>
      <trkpt lat="49.29818" lon="-0.30201">
        <ele>3.7</ele>
        <time>2015-10-16T07:57:26Z</time>
      </trkpt>
      <trkpt lat="49.29816" lon="-0.30194">
        <ele>4.8</ele>
        <time>2015-10-16T07:57:30Z</time>
      </trkpt>
      <trkpt lat="49.29761" lon="-0.29991">
        <ele>2.4</ele>
        <time>2015-10-16T07:59:12Z</time>
      </trkpt>
      <trkpt lat="49.29761" lon="-0.2999">
        <ele>2.2</ele>
        <time>2015-10-16T07:59:13Z</time>
      </trkpt>
      <trkpt lat="49.2964" lon="-0.29526">
        <ele>6.7</ele>
        <time>2015-10-16T08:03:03Z</time>
      </trkpt>
      <trkpt lat="49.2964" lon="-0.29523">
        <ele>5.7</ele>
        <time>2015-10-16T08:03:05Z</time>
      </trkpt>
      <trkpt lat="49.2964" lon="-0.2952">
        <ele>4.3</ele>
        <time>2015-10-16T08:03:08Z</time>
      </trkpt>
      <trkpt lat="49.29641" lon="-0.29519">
        <ele>4.4</ele>
        <time>2015-10-16T08:03:09Z</time>
      </trkpt>
      <trkpt lat="49.29641" lon="-0.29519">
        <ele>4.5</ele>
        <time>2015-10-16T08:03:10Z</time>
      </trkpt>
      <trkpt lat="49.29642" lon="-0.29518">
        <ele>5</ele>
        <time>2015-10-16T08:03:11Z</time>
      </trkpt>
      <trkpt lat="49.29642" lon="-0.29517">
        <ele>5.3</ele>
        <time>2015-10-16T08:03:12Z</time>
      </trkpt>
      <trkpt lat="49.29643" lon="-0.29517">
        <ele>5.6</ele>
        <time>2015-10-16T08:03:13Z</time>
      </trkpt>
      <trkpt lat="49.29643" lon="-0.29516">
        <ele>5.4</ele>
        <time>2015-10-16T08:03:14Z</time>
      </trkpt>
      <trkpt lat="49.29643" lon="-0.29516">
        <ele>5.2</ele>
        <time>2015-10-16T08:03:15Z</time>
      </trkpt>
      <trkpt lat="49.29643" lon="-0.29516">
        <ele>5.1</ele>
        <time>2015-10-16T08:03:16Z</time>
      </trkpt>
      <trkpt lat="49.29643" lon="-0.29516">
        <ele>5.8</ele>
        <time>2015-10-16T08:03:17Z</time>
      </trkpt>
      <trkpt lat="49.29644" lon="-0.29516">
        <ele>6.4</ele>
        <time>2015-10-16T08:03:18Z</time>
      </trkpt>
      <trkpt lat="49.29645" lon="-0.29518">
        <ele>5.4</ele>
        <time>2015-10-16T08:03:20Z</time>
      </trkpt>
      <trkpt lat="49.29646" lon="-0.29519">
        <ele>4.4</ele>
        <time>2015-10-16T08:03:21Z</time>
      </trkpt>
      <trkpt lat="49.29646" lon="-0.29521">
        <ele>3.7</ele>
        <time>2015-10-16T08:03:22Z</time>
      </trkpt>
      <trkpt lat="49.29647" lon="-0.29523">
        <ele>3.5</ele>
        <time>2015-10-16T08:03:23Z</time>
      </trkpt>
      <trkpt lat="49.29647" lon="-0.29525">
        <ele>3.4</ele>
        <time>2015-10-16T08:03:24Z</time>
      </trkpt>
      <trkpt lat="49.29648" lon="-0.29526">
        <ele>3.3</ele>
        <time>2015-10-16T08:03:25Z</time>
      </trkpt>
      <trkpt lat="49.29648" lon="-0.29528">
        <ele>3.3</ele>
        <time>2015-10-16T08:03:26Z</time>
      </trkpt>
      <trkpt lat="49.29649" lon="-0.2953">
        <ele>3.2</ele>
        <time>2015-10-16T08:03:27Z</time>
      </trkpt>
      <trkpt lat="49.29649" lon="-0.29531">
        <ele>3.2</ele>
        <time>2015-10-16T08:03:28Z</time>
      </trkpt>
      <trkpt lat="49.29649" lon="-0.29532">
        <ele>2.9</ele>
        <time>2015-10-16T08:03:29Z</time>
      </trkpt>
      <trkpt lat="49.29648" lon="-0.29532">
        <ele>2.8</ele>
        <time>2015-10-16T08:03:30Z</time>
      </trkpt>
      <trkpt lat="49.29648" lon="-0.29532">
        <ele>2.6</ele>
        <time>2015-10-16T08:03:31Z</time>
      </trkpt>
      <trkpt lat="49.29648" lon="-0.29532">
        <ele>2.7</ele>
        <time>2015-10-16T08:03:32Z</time>
      </trkpt>
      <trkpt lat="49.29648" lon="-0.29532">
        <ele>2.8</ele>
        <time>2015-10-16T08:03:33Z</time>
      </trkpt>
      <trkpt lat="49.29648" lon="-0.29532">
        <ele>2.9</ele>
        <time>2015-10-16T08:03:34Z</time>
      </trkpt>
      <trkpt lat="49.29648" lon="-0.29532">
        <ele>2.5</ele>
        <time>2015-10-16T08:03:35Z</time>
      </trkpt>
      <trkpt lat="49.29648" lon="-0.29533">
        <ele>2.2</ele>
        <time>2015-10-16T08:03:36Z</time>
      </trkpt>
      <trkpt lat="49.29648" lon="-0.29534">
        <ele>2</ele>
        <time>2015-10-16T08:03:37Z</time>
      </trkpt>
      <trkpt lat="49.29647" lon="-0.29538">
        <ele>5.5</ele>
        <time>2015-10-16T08:03:40Z</time>
      </trkpt>
      <trkpt lat="49.29646" lon="-0.29538">
        <ele>5.9</ele>
        <time>2015-10-16T08:03:41Z</time>
      </trkpt>
      <trkpt lat="49.29644" lon="-0.29539">
        <ele>6.2</ele>
        <time>2015-10-16T08:03:42Z</time>
      </trkpt>
      <trkpt lat="49.29643" lon="-0.29539">
        <ele>6.5</ele>
        <time>2015-10-16T08:03:43Z</time>
      </trkpt>
      <trkpt lat="49.29642" lon="-0.29538">
        <ele>5.2</ele>
        <time>2015-10-16T08:03:44Z</time>
      </trkpt>
      <trkpt lat="49.2964" lon="-0.29537">
        <ele>4.3</ele>
        <time>2015-10-16T08:03:45Z</time>
      </trkpt>
      <trkpt lat="49.29639" lon="-0.29535">
        <ele>3.5</ele>
        <time>2015-10-16T08:03:46Z</time>
      </trkpt>
      <trkpt lat="49.29638" lon="-0.29533">
        <ele>2.8</ele>
        <time>2015-10-16T08:03:47Z</time>
      </trkpt>
      <trkpt lat="49.29637" lon="-0.29531">
        <ele>2.2</ele>
        <time>2015-10-16T08:03:48Z</time>
      </trkpt>
      <trkpt lat="49.29636" lon="-0.29529">
        <ele>1.8</ele>
        <time>2015-10-16T08:03:49Z</time>
      </trkpt>
      <trkpt lat="49.29636" lon="-0.29526">
        <ele>1.7</ele>
        <time>2015-10-16T08:03:50Z</time>
      </trkpt>
      <trkpt lat="49.29635" lon="-0.29523">
        <ele>1.6</ele>
        <time>2015-10-16T08:03:51Z</time>
      </trkpt>
      <trkpt lat="49.29635" lon="-0.29521">
        <ele>1.6</ele>
        <time>2015-10-16T08:03:52Z</time>
      </trkpt>
      <trkpt lat="49.29634" lon="-0.29518">
        <ele>2.6</ele>
        <time>2015-10-16T08:03:53Z</time>
      </trkpt>
      <trkpt lat="49.29634" lon="-0.29516">
        <ele>3.3</ele>
        <time>2015-10-16T08:03:54Z</time>
      </trkpt>
      <trkpt lat="49.29634" lon="-0.29514">
        <ele>3.9</ele>
        <time>2015-10-16T08:03:55Z</time>
      </trkpt>
      <trkpt lat="49.29634" lon="-0.29512">
        <ele>4.3</ele>
        <time>2015-10-16T08:03:56Z</time>
      </trkpt>
      <trkpt lat="49.29633" lon="-0.29509">
        <ele>4.6</ele>
        <time>2015-10-16T08:03:57Z</time>
      </trkpt>
      <trkpt lat="49.29633" lon="-0.29507">
        <ele>4.8</ele>
        <time>2015-10-16T08:03:58Z</time>
      </trkpt>
      <trkpt lat="49.29632" lon="-0.29505">
        <ele>5.4</ele>
        <time>2015-10-16T08:03:59Z</time>
      </trkpt>
      <trkpt lat="49.29632" lon="-0.29503">
        <ele>5.9</ele>
        <time>2015-10-16T08:04:00Z</time>
      </trkpt>
      <trkpt lat="49.29551" lon="-0.29207">
        <ele>5.4</ele>
        <time>2015-10-16T08:06:28Z</time>
      </trkpt>
      <trkpt lat="49.2955" lon="-0.29206">
        <ele>5</ele>
        <time>2015-10-16T08:06:29Z</time>
      </trkpt>
      <trkpt lat="49.29544" lon="-0.2919">
        <ele>3.8</ele>
        <time>2015-10-16T08:06:38Z</time>
      </trkpt>
      <trkpt lat="49.29537" lon="-0.29171">
        <ele>7.6</ele>
        <time>2015-10-16T08:06:48Z</time>
      </trkpt>
      <trkpt lat="49.29514" lon="-0.29096">
        <ele>3.9</ele>
        <time>2015-10-16T08:07:26Z</time>
      </trkpt>
      <trkpt lat="49.29474" lon="-0.28942">
        <ele>6.4</ele>
        <time>2015-10-16T08:08:43Z</time>
      </trkpt>
      <trkpt lat="49.29474" lon="-0.2894">
        <ele>6.2</ele>
        <time>2015-10-16T08:08:44Z</time>
      </trkpt>
      <trkpt lat="49.29474" lon="-0.28913">
        <ele>3.6</ele>
        <time>2015-10-16T08:08:56Z</time>
      </trkpt>
      <trkpt lat="49.29471" lon="-0.28867">
        <ele>5.7</ele>
        <time>2015-10-16T08:09:17Z</time>
      </trkpt>
      <trkpt lat="49.2947" lon="-0.28865">
        <ele>5.7</ele>
        <time>2015-10-16T08:09:18Z</time>
      </trkpt>
      <trkpt lat="49.29447" lon="-0.28763">
        <ele>1.5</ele>
        <time>2015-10-16T08:10:07Z</time>
      </trkpt>
      <trkpt lat="49.29446" lon="-0.28761">
        <ele>0.9</ele>
        <time>2015-10-16T08:10:08Z</time>
      </trkpt>
      <trkpt lat="49.29435" lon="-0.28713">
        <ele>5.3</ele>
        <time>2015-10-16T08:10:32Z</time>
      </trkpt>
      <trkpt lat="49.29436" lon="-0.28707">
        <ele>3.8</ele>
        <time>2015-10-16T08:10:36Z</time>
      </trkpt>
      <trkpt lat="49.29437" lon="-0.28702">
        <ele>2.5</ele>
        <time>2015-10-16T08:10:40Z</time>
      </trkpt>
      <trkpt lat="49.29437" lon="-0.287">
        <ele>3.7</ele>
        <time>2015-10-16T08:10:41Z</time>
      </trkpt>
      <trkpt lat="49.29435" lon="-0.2869">
        <ele>5.9</ele>
        <time>2015-10-16T08:10:46Z</time>
      </trkpt>
      <trkpt lat="49.29346" lon="-0.28305">
        <ele>6.4</ele>
        <time>2015-10-16T08:14:03Z</time>
      </trkpt>
      <trkpt lat="49.29346" lon="-0.28303">
        <ele>7.4</ele>
        <time>2015-10-16T08:14:04Z</time>
      </trkpt>
      <trkpt lat="49.29341" lon="-0.28289">
        <ele>8</ele>
        <time>2015-10-16T08:14:12Z</time>
      </trkpt>
      <trkpt lat="49.29339" lon="-0.28283">
        <ele>4.6</ele>
        <time>2015-10-16T08:14:15Z</time>
      </trkpt>
      <trkpt lat="49.29338" lon="-0.28277">
        <ele>4.7</ele>
        <time>2015-10-16T08:14:18Z</time>
      </trkpt>
      <trkpt lat="49.29336" lon="-0.28264">
        <ele>6.9</ele>
        <time>2015-10-16T08:14:24Z</time>
      </trkpt>
      <trkpt lat="49.29334" lon="-0.28254">
        <ele>7.9</ele>
        <time>2015-10-16T08:14:29Z</time>
      </trkpt>
      <trkpt lat="49.29321" lon="-0.28156">
        <ele>4.3</ele>
        <time>2015-10-16T08:15:16Z</time>
      </trkpt>
      <trkpt lat="49.29321" lon="-0.28154">
        <ele>5.2</ele>
        <time>2015-10-16T08:15:17Z</time>
      </trkpt>
      <trkpt lat="49.29307" lon="-0.28073">
        <ele>5.7</ele>
        <time>2015-10-16T08:15:57Z</time>
      </trkpt>
      <trkpt lat="49.29301" lon="-0.28053">
        <ele>5.9</ele>
        <time>2015-10-16T08:16:07Z</time>
      </trkpt>
      <trkpt lat="49.29301" lon="-0.28051">
        <ele>6</ele>
        <time>2015-10-16T08:16:08Z</time>
      </trkpt>
      <trkpt lat="49.29276" lon="-0.2791">
        <ele>5.8</ele>
        <time>2015-10-16T08:17:19Z</time>
      </trkpt>
      <trkpt lat="49.29276" lon="-0.27908">
        <ele>5.1</ele>
        <time>2015-10-16T08:17:20Z</time>
      </trkpt>
      <trkpt lat="49.29275" lon="-0.27895">
        <ele>4</ele>
        <time>2015-10-16T08:17:26Z</time>
      </trkpt>
      <trkpt lat="49.29264" lon="-0.27804">
        <ele>3</ele>
        <time>2015-10-16T08:18:10Z</time>
      </trkpt>
      <trkpt lat="49.29257" lon="-0.27749">
        <ele>2.3</ele>
        <time>2015-10-16T08:18:36Z</time>
      </trkpt>
      <trkpt lat="49.29257" lon="-0.27747">
        <ele>2.5</ele>
        <time>2015-10-16T08:18:37Z</time>
      </trkpt>
      <trkpt lat="49.29258" lon="-0.27745">
        <ele>2.8</ele>
        <time>2015-10-16T08:18:38Z</time>
      </trkpt>
      <trkpt lat="49.29264" lon="-0.27701">
        <ele>5.9</ele>
        <time>2015-10-16T08:19:00Z</time>
      </trkpt>
      <trkpt lat="49.29264" lon="-0.27699">
        <ele>5.4</ele>
        <time>2015-10-16T08:19:01Z</time>
      </trkpt>
      <trkpt lat="49.29263" lon="-0.27698">
        <ele>5.1</ele>
        <time>2015-10-16T08:19:02Z</time>
      </trkpt>
      <trkpt lat="49.29262" lon="-0.27695">
        <ele>5.4</ele>
        <time>2015-10-16T08:19:04Z</time>
      </trkpt>
      <trkpt lat="49.29257" lon="-0.27685">
        <ele>9</ele>
        <time>2015-10-16T08:19:10Z</time>
      </trkpt>
      <trkpt lat="49.29257" lon="-0.27683">
        <ele>9.3</ele>
        <time>2015-10-16T08:19:11Z</time>
      </trkpt>
      <trkpt lat="49.29254" lon="-0.27662">
        <ele>6.3</ele>
        <time>2015-10-16T08:19:22Z</time>
      </trkpt>
      <trkpt lat="49.29201" lon="-0.273">
        <ele>5.2</ele>
        <time>2015-10-16T08:22:22Z</time>
      </trkpt>
      <trkpt lat="49.29201" lon="-0.27298">
        <ele>5.7</ele>
        <time>2015-10-16T08:22:23Z</time>
      </trkpt>
      <trkpt lat="49.29201" lon="-0.27293">
        <ele>8.7</ele>
        <time>2015-10-16T08:22:26Z</time>
      </trkpt>
      <trkpt lat="49.292" lon="-0.27287">
        <ele>8.9</ele>
        <time>2015-10-16T08:22:29Z</time>
      </trkpt>
      <trkpt lat="49.292" lon="-0.27286">
        <ele>9.1</ele>
        <time>2015-10-16T08:22:30Z</time>
      </trkpt>
      <trkpt lat="49.29194" lon="-0.27252">
        <ele>7.8</ele>
        <time>2015-10-16T08:22:47Z</time>
      </trkpt>
      <trkpt lat="49.29189" lon="-0.27223">
        <ele>6.5</ele>
        <time>2015-10-16T08:23:01Z</time>
      </trkpt>
      <trkpt lat="49.29188" lon="-0.27217">
        <ele>6.7</ele>
        <time>2015-10-16T08:23:06Z</time>
      </trkpt>
      <trkpt lat="49.29187" lon="-0.27216">
        <ele>6.9</ele>
        <time>2015-10-16T08:23:07Z</time>
      </trkpt>
      <trkpt lat="49.29187" lon="-0.27216">
        <ele>6.3</ele>
        <time>2015-10-16T08:23:08Z</time>
      </trkpt>
      <trkpt lat="49.29187" lon="-0.27216">
        <ele>6</ele>
        <time>2015-10-16T08:23:09Z</time>
      </trkpt>
      <trkpt lat="49.29187" lon="-0.27215">
        <ele>5.8</ele>
        <time>2015-10-16T08:23:10Z</time>
      </trkpt>
      <trkpt lat="49.29186" lon="-0.27215">
        <ele>6</ele>
        <time>2015-10-16T08:23:11Z</time>
      </trkpt>
      <trkpt lat="49.29186" lon="-0.27215">
        <ele>6.2</ele>
        <time>2015-10-16T08:23:12Z</time>
      </trkpt>
      <trkpt lat="49.29186" lon="-0.27216">
        <ele>6.3</ele>
        <time>2015-10-16T08:23:13Z</time>
      </trkpt>
      <trkpt lat="49.29186" lon="-0.27216">
        <ele>6.3</ele>
        <time>2015-10-16T08:23:14Z</time>
      </trkpt>
      <trkpt lat="49.29185" lon="-0.27217">
        <ele>6.4</ele>
        <time>2015-10-16T08:23:16Z</time>
      </trkpt>
      <trkpt lat="49.29185" lon="-0.27217">
        <ele>6</ele>
        <time>2015-10-16T08:23:17Z</time>
      </trkpt>
      <trkpt lat="49.29185" lon="-0.27217">
        <ele>5.8</ele>
        <time>2015-10-16T08:23:18Z</time>
      </trkpt>
      <trkpt lat="49.29185" lon="-0.27218">
        <ele>5.7</ele>
        <time>2015-10-16T08:23:19Z</time>
      </trkpt>
      <trkpt lat="49.29185" lon="-0.27218">
        <ele>7.1</ele>
        <time>2015-10-16T08:23:20Z</time>
      </trkpt>
      <trkpt lat="49.29185" lon="-0.27218">
        <ele>7.9</ele>
        <time>2015-10-16T08:23:21Z</time>
      </trkpt>
      <trkpt lat="49.29185" lon="-0.27218">
        <ele>8.3</ele>
        <time>2015-10-16T08:23:22Z</time>
      </trkpt>
      <trkpt lat="49.29185" lon="-0.27218">
        <ele>7.1</ele>
        <time>2015-10-16T08:23:23Z</time>
      </trkpt>
      <trkpt lat="49.29185" lon="-0.27219">
        <ele>6.7</ele>
        <time>2015-10-16T08:23:24Z</time>
      </trkpt>
      <trkpt lat="49.29184" lon="-0.27219">
        <ele>6</ele>
        <time>2015-10-16T08:23:25Z</time>
      </trkpt>
      <trkpt lat="49.29184" lon="-0.27219">
        <ele>3.3</ele>
        <time>2015-10-16T08:23:26Z</time>
      </trkpt>
      <trkpt lat="49.29184" lon="-0.27219">
        <ele>1.7</ele>
        <time>2015-10-16T08:23:27Z</time>
      </trkpt>
      <trkpt lat="49.29184" lon="-0.27219">
        <ele>0.9</ele>
        <time>2015-10-16T08:23:28Z</time>
      </trkpt>
      <trkpt lat="49.29184" lon="-0.27219">
        <ele>2.6</ele>
        <time>2015-10-16T08:23:29Z</time>
      </trkpt>
      <trkpt lat="49.29184" lon="-0.27219">
        <ele>3.5</ele>
        <time>2015-10-16T08:23:30Z</time>
      </trkpt>
      <trkpt lat="49.29184" lon="-0.27219">
        <ele>4</ele>
        <time>2015-10-16T08:23:31Z</time>
      </trkpt>
      <trkpt lat="49.29184" lon="-0.2722">
        <ele>4.7</ele>
        <time>2015-10-16T08:23:32Z</time>
      </trkpt>
      <trkpt lat="49.29184" lon="-0.2722">
        <ele>5.1</ele>
        <time>2015-10-16T08:23:33Z</time>
      </trkpt>
      <trkpt lat="49.29184" lon="-0.2722">
        <ele>5.3</ele>
        <time>2015-10-16T08:23:34Z</time>
      </trkpt>
      <trkpt lat="49.29184" lon="-0.2722">
        <ele>4.7</ele>
        <time>2015-10-16T08:23:35Z</time>
      </trkpt>
      <trkpt lat="49.29184" lon="-0.2722">
        <ele>4.3</ele>
        <time>2015-10-16T08:23:36Z</time>
      </trkpt>
      <trkpt lat="49.29184" lon="-0.2722">
        <ele>4.1</ele>
        <time>2015-10-16T08:23:37Z</time>
      </trkpt>
      <trkpt lat="49.29184" lon="-0.2722">
        <ele>4.4</ele>
        <time>2015-10-16T08:23:38Z</time>
      </trkpt>
      <trkpt lat="49.29184" lon="-0.2722">
        <ele>4.5</ele>
        <time>2015-10-16T08:23:39Z</time>
      </trkpt>
      <trkpt lat="49.29183" lon="-0.2722">
        <ele>4.6</ele>
        <time>2015-10-16T08:23:40Z</time>
      </trkpt>
      <trkpt lat="49.29183" lon="-0.2722">
        <ele>5</ele>
        <time>2015-10-16T08:23:41Z</time>
      </trkpt>
      <trkpt lat="49.29183" lon="-0.2722">
        <ele>5.2</ele>
        <time>2015-10-16T08:23:42Z</time>
      </trkpt>
      <trkpt lat="49.29183" lon="-0.2722">
        <ele>5.4</ele>
        <time>2015-10-16T08:23:43Z</time>
      </trkpt>
      <trkpt lat="49.29183" lon="-0.2722">
        <ele>5.5</ele>
        <time>2015-10-16T08:23:44Z</time>
      </trkpt>
      <trkpt lat="49.29183" lon="-0.2722">
        <ele>5.5</ele>
        <time>2015-10-16T08:23:45Z</time>
      </trkpt>
      <trkpt lat="49.29183" lon="-0.2722">
        <ele>5.5</ele>
        <time>2015-10-16T08:23:46Z</time>
      </trkpt>
      <trkpt lat="49.29183" lon="-0.2722">
        <ele>5.5</ele>
        <time>2015-10-16T08:23:47Z</time>
      </trkpt>
      <trkpt lat="49.29183" lon="-0.2722">
        <ele>5.5</ele>
        <time>2015-10-16T08:23:48Z</time>
      </trkpt>
      <trkpt lat="49.29183" lon="-0.2722">
        <ele>5.5</ele>
        <time>2015-10-16T08:23:49Z</time>
      </trkpt>
      <trkpt lat="49.29183" lon="-0.2722">
        <ele>4.8</ele>
        <time>2015-10-16T08:23:50Z</time>
      </trkpt>
      <trkpt lat="49.29182" lon="-0.2722">
        <ele>4.4</ele>
        <time>2015-10-16T08:23:51Z</time>
      </trkpt>
      <trkpt lat="49.29182" lon="-0.2722">
        <ele>4.2</ele>
        <time>2015-10-16T08:23:52Z</time>
      </trkpt>
      <trkpt lat="49.29182" lon="-0.2722">
        <ele>4.1</ele>
        <time>2015-10-16T08:23:53Z</time>
      </trkpt>
      <trkpt lat="49.29182" lon="-0.2722">
        <ele>4</ele>
        <time>2015-10-16T08:23:54Z</time>
      </trkpt>
      <trkpt lat="49.29182" lon="-0.2722">
        <ele>3.9</ele>
        <time>2015-10-16T08:23:55Z</time>
      </trkpt>
      <trkpt lat="49.29182" lon="-0.2722">
        <ele>4.3</ele>
        <time>2015-10-16T08:23:56Z</time>
      </trkpt>
      <trkpt lat="49.29182" lon="-0.2722">
        <ele>4.5</ele>
        <time>2015-10-16T08:23:57Z</time>
      </trkpt>
      <trkpt lat="49.29182" lon="-0.2722">
        <ele>4.6</ele>
        <time>2015-10-16T08:23:58Z</time>
      </trkpt>
      <trkpt lat="49.29182" lon="-0.2722">
        <ele>4.6</ele>
        <time>2015-10-16T08:23:59Z</time>
      </trkpt>
      <trkpt lat="49.29182" lon="-0.2722">
        <ele>4.7</ele>
        <time>2015-10-16T08:24:00Z</time>
      </trkpt>
      <trkpt lat="49.29182" lon="-0.27219">
        <ele>4.7</ele>
        <time>2015-10-16T08:24:01Z</time>
      </trkpt>
      <trkpt lat="49.29182" lon="-0.27219">
        <ele>4.3</ele>
        <time>2015-10-16T08:24:02Z</time>
      </trkpt>
      <trkpt lat="49.29182" lon="-0.27219">
        <ele>4.1</ele>
        <time>2015-10-16T08:24:03Z</time>
      </trkpt>
      <trkpt lat="49.29182" lon="-0.27219">
        <ele>4</ele>
        <time>2015-10-16T08:24:04Z</time>
      </trkpt>
      <trkpt lat="49.29182" lon="-0.27219">
        <ele>3.6</ele>
        <time>2015-10-16T08:24:05Z</time>
      </trkpt>
      <trkpt lat="49.29182" lon="-0.27219">
        <ele>3.4</ele>
        <time>2015-10-16T08:24:06Z</time>
      </trkpt>
      <trkpt lat="49.29182" lon="-0.27219">
        <ele>3.2</ele>
        <time>2015-10-16T08:24:07Z</time>
      </trkpt>
      <trkpt lat="49.29182" lon="-0.27219">
        <ele>3.9</ele>
        <time>2015-10-16T08:24:08Z</time>
      </trkpt>
      <trkpt lat="49.29182" lon="-0.27219">
        <ele>4.2</ele>
        <time>2015-10-16T08:24:09Z</time>
      </trkpt>
      <trkpt lat="49.29182" lon="-0.2722">
        <ele>4.5</ele>
        <time>2015-10-16T08:24:10Z</time>
      </trkpt>
      <trkpt lat="49.29182" lon="-0.2722">
        <ele>4.6</ele>
        <time>2015-10-16T08:24:11Z</time>
      </trkpt>
      <trkpt lat="49.29181" lon="-0.2722">
        <ele>4.6</ele>
        <time>2015-10-16T08:24:12Z</time>
      </trkpt>
      <trkpt lat="49.29181" lon="-0.2722">
        <ele>4.7</ele>
        <time>2015-10-16T08:24:13Z</time>
      </trkpt>
      <trkpt lat="49.29181" lon="-0.2722">
        <ele>4.3</ele>
        <time>2015-10-16T08:24:14Z</time>
      </trkpt>
      <trkpt lat="49.29181" lon="-0.2722">
        <ele>4.1</ele>
        <time>2015-10-16T08:24:15Z</time>
      </trkpt>
      <trkpt lat="49.29181" lon="-0.2722">
        <ele>4</ele>
        <time>2015-10-16T08:24:16Z</time>
      </trkpt>
      <trkpt lat="49.29181" lon="-0.2722">
        <ele>4.3</ele>
        <time>2015-10-16T08:24:17Z</time>
      </trkpt>
      <trkpt lat="49.29181" lon="-0.2722">
        <ele>4.5</ele>
        <time>2015-10-16T08:24:18Z</time>
      </trkpt>
      <trkpt lat="49.29181" lon="-0.2722">
        <ele>4.6</ele>
        <time>2015-10-16T08:24:19Z</time>
      </trkpt>
      <trkpt lat="49.29181" lon="-0.2722">
        <ele>4.6</ele>
        <time>2015-10-16T08:24:20Z</time>
      </trkpt>
      <trkpt lat="49.29181" lon="-0.2722">
        <ele>4.7</ele>
        <time>2015-10-16T08:24:21Z</time>
      </trkpt>
      <trkpt lat="49.29181" lon="-0.27221">
        <ele>4.7</ele>
        <time>2015-10-16T08:24:22Z</time>
      </trkpt>
      <trkpt lat="49.29181" lon="-0.27221">
        <ele>3.3</ele>
        <time>2015-10-16T08:24:23Z</time>
      </trkpt>
      <trkpt lat="49.29181" lon="-0.27221">
        <ele>2.4</ele>
        <time>2015-10-16T08:24:24Z</time>
      </trkpt>
      <trkpt lat="49.2918" lon="-0.27221">
        <ele>2.2</ele>
        <time>2015-10-16T08:24:25Z</time>
      </trkpt>
      <trkpt lat="49.2918" lon="-0.27221">
        <ele>1.7</ele>
        <time>2015-10-16T08:24:26Z</time>
      </trkpt>
      <trkpt lat="49.2918" lon="-0.27221">
        <ele>1.6</ele>
        <time>2015-10-16T08:24:27Z</time>
      </trkpt>
      <trkpt lat="49.2918" lon="-0.27221">
        <ele>3</ele>
        <time>2015-10-16T08:24:28Z</time>
      </trkpt>
      <trkpt lat="49.29181" lon="-0.27221">
        <ele>3.7</ele>
        <time>2015-10-16T08:24:29Z</time>
      </trkpt>
      <trkpt lat="49.29181" lon="-0.27221">
        <ele>4.4</ele>
        <time>2015-10-16T08:24:30Z</time>
      </trkpt>
      <trkpt lat="49.29181" lon="-0.27221">
        <ele>4.9</ele>
        <time>2015-10-16T08:24:31Z</time>
      </trkpt>
      <trkpt lat="49.29181" lon="-0.27222">
        <ele>5.2</ele>
        <time>2015-10-16T08:24:32Z</time>
      </trkpt>
      <trkpt lat="49.29181" lon="-0.27222">
        <ele>5.3</ele>
        <time>2015-10-16T08:24:33Z</time>
      </trkpt>
      <trkpt lat="49.29182" lon="-0.27222">
        <ele>5.4</ele>
        <time>2015-10-16T08:24:34Z</time>
      </trkpt>
      <trkpt lat="49.29182" lon="-0.27222">
        <ele>5.5</ele>
        <time>2015-10-16T08:24:35Z</time>
      </trkpt>
      <trkpt lat="49.29182" lon="-0.27221">
        <ele>4.1</ele>
        <time>2015-10-16T08:24:36Z</time>
      </trkpt>
      <trkpt lat="49.29182" lon="-0.27221">
        <ele>3.3</ele>
        <time>2015-10-16T08:24:37Z</time>
      </trkpt>
      <trkpt lat="49.29182" lon="-0.27221">
        <ele>2.8</ele>
        <time>2015-10-16T08:24:38Z</time>
      </trkpt>
      <trkpt lat="49.29183" lon="-0.27221">
        <ele>5.5</ele>
        <time>2015-10-16T08:24:39Z</time>
      </trkpt>
      <trkpt lat="49.29183" lon="-0.27221">
        <ele>6.9</ele>
        <time>2015-10-16T08:24:40Z</time>
      </trkpt>
      <trkpt lat="49.29184" lon="-0.2722">
        <ele>7.8</ele>
        <time>2015-10-16T08:24:41Z</time>
      </trkpt>
      <trkpt lat="49.29187" lon="-0.27217">
        <ele>6.8</ele>
        <time>2015-10-16T08:24:43Z</time>
      </trkpt>
      <trkpt lat="49.29188" lon="-0.27213">
        <ele>6.9</ele>
        <time>2015-10-16T08:24:45Z</time>
      </trkpt>
      <trkpt lat="49.29189" lon="-0.27207">
        <ele>7.1</ele>
        <time>2015-10-16T08:24:47Z</time>
      </trkpt>
      <trkpt lat="49.29188" lon="-0.27204">
        <ele>6.1</ele>
        <time>2015-10-16T08:24:48Z</time>
      </trkpt>
      <trkpt lat="49.29188" lon="-0.27201">
        <ele>5.5</ele>
        <time>2015-10-16T08:24:49Z</time>
      </trkpt>
      <trkpt lat="49.29187" lon="-0.27199">
        <ele>5.1</ele>
        <time>2015-10-16T08:24:50Z</time>
      </trkpt>
      <trkpt lat="49.29187" lon="-0.27196">
        <ele>5.7</ele>
        <time>2015-10-16T08:24:51Z</time>
      </trkpt>
      <trkpt lat="49.29186" lon="-0.27194">
        <ele>6</ele>
        <time>2015-10-16T08:24:52Z</time>
      </trkpt>
      <trkpt lat="49.29186" lon="-0.27192">
        <ele>6.2</ele>
        <time>2015-10-16T08:24:53Z</time>
      </trkpt>
      <trkpt lat="49.29185" lon="-0.2719">
        <ele>7.7</ele>
        <time>2015-10-16T08:24:54Z</time>
      </trkpt>
      <trkpt lat="49.29185" lon="-0.27187">
        <ele>8.6</ele>
        <time>2015-10-16T08:24:55Z</time>
      </trkpt>
      <trkpt lat="49.29184" lon="-0.27185">
        <ele>9.1</ele>
        <time>2015-10-16T08:24:56Z</time>
      </trkpt>
      <trkpt lat="49.29184" lon="-0.27183">
        <ele>9.7</ele>
        <time>2015-10-16T08:24:57Z</time>
      </trkpt>
      <trkpt lat="49.29183" lon="-0.27181">
        <ele>10.1</ele>
        <time>2015-10-16T08:24:58Z</time>
      </trkpt>
      <trkpt lat="49.29183" lon="-0.27178">
        <ele>10.3</ele>
        <time>2015-10-16T08:24:59Z</time>
      </trkpt>
      <trkpt lat="49.29183" lon="-0.27176">
        <ele>10</ele>
        <time>2015-10-16T08:25:00Z</time>
      </trkpt>
      <trkpt lat="49.2917" lon="-0.27088">
        <ele>8.5</ele>
        <time>2015-10-16T08:25:40Z</time>
      </trkpt>
      <trkpt lat="49.2917" lon="-0.27086">
        <ele>8.6</ele>
        <time>2015-10-16T08:25:41Z</time>
      </trkpt>
      <trkpt lat="49.29133" lon="-0.26663">
        <ele>9.9</ele>
        <time>2015-10-16T08:28:54Z</time>
      </trkpt>
      <trkpt lat="49.29132" lon="-0.26661">
        <ele>10.2</ele>
        <time>2015-10-16T08:28:55Z</time>
      </trkpt>
      <trkpt lat="49.29109" lon="-0.26496">
        <ele>2.2</ele>
        <time>2015-10-16T08:30:10Z</time>
      </trkpt>
      <trkpt lat="49.29109" lon="-0.26494">
        <ele>3</ele>
        <time>2015-10-16T08:30:11Z</time>
      </trkpt>
      <trkpt lat="49.29106" lon="-0.26471">
        <ele>8.2</ele>
        <time>2015-10-16T08:30:22Z</time>
      </trkpt>
      <trkpt lat="49.29096" lon="-0.26372">
        <ele>5.4</ele>
        <time>2015-10-16T08:31:06Z</time>
      </trkpt>
      <trkpt lat="49.29078" lon="-0.26201">
        <ele>4.3</ele>
        <time>2015-10-16T08:32:27Z</time>
      </trkpt>
      <trkpt lat="49.29077" lon="-0.26201">
        <ele>4.6</ele>
        <time>2015-10-16T08:32:28Z</time>
      </trkpt>
      <trkpt lat="49.29076" lon="-0.26201">
        <ele>4.8</ele>
        <time>2015-10-16T08:32:29Z</time>
      </trkpt>
      <trkpt lat="49.29075" lon="-0.26202">
        <ele>5</ele>
        <time>2015-10-16T08:32:30Z</time>
      </trkpt>
      <trkpt lat="49.29074" lon="-0.26203">
        <ele>4.5</ele>
        <time>2015-10-16T08:32:31Z</time>
      </trkpt>
      <trkpt lat="49.29073" lon="-0.26204">
        <ele>4.2</ele>
        <time>2015-10-16T08:32:32Z</time>
      </trkpt>
      <trkpt lat="49.29072" lon="-0.26205">
        <ele>3.9</ele>
        <time>2015-10-16T08:32:33Z</time>
      </trkpt>
      <trkpt lat="49.2907" lon="-0.26206">
        <ele>5.3</ele>
        <time>2015-10-16T08:32:34Z</time>
      </trkpt>
      <trkpt lat="49.29069" lon="-0.26207">
        <ele>6.4</ele>
        <time>2015-10-16T08:32:35Z</time>
      </trkpt>
      <trkpt lat="49.29068" lon="-0.26209">
        <ele>7.2</ele>
        <time>2015-10-16T08:32:36Z</time>
      </trkpt>
      <trkpt lat="49.29067" lon="-0.2621">
        <ele>7</ele>
        <time>2015-10-16T08:32:37Z</time>
      </trkpt>
      <trkpt lat="49.29067" lon="-0.26211">
        <ele>6.9</ele>
        <time>2015-10-16T08:32:38Z</time>
      </trkpt>
      <trkpt lat="49.29066" lon="-0.26212">
        <ele>6.7</ele>
        <time>2015-10-16T08:32:39Z</time>
      </trkpt>
      <trkpt lat="49.29065" lon="-0.26213">
        <ele>7.1</ele>
        <time>2015-10-16T08:32:40Z</time>
      </trkpt>
      <trkpt lat="49.29065" lon="-0.26213">
        <ele>7.3</ele>
        <time>2015-10-16T08:32:41Z</time>
      </trkpt>
      <trkpt lat="49.29065" lon="-0.26214">
        <ele>7.5</ele>
        <time>2015-10-16T08:32:42Z</time>
      </trkpt>
      <trkpt lat="49.29064" lon="-0.26215">
        <ele>7.6</ele>
        <time>2015-10-16T08:32:43Z</time>
      </trkpt>
      <trkpt lat="49.29064" lon="-0.26216">
        <ele>7.7</ele>
        <time>2015-10-16T08:32:44Z</time>
      </trkpt>
      <trkpt lat="49.29063" lon="-0.26217">
        <ele>7.8</ele>
        <time>2015-10-16T08:32:45Z</time>
      </trkpt>
      <trkpt lat="49.29063" lon="-0.26218">
        <ele>6.2</ele>
        <time>2015-10-16T08:32:46Z</time>
      </trkpt>
      <trkpt lat="49.29063" lon="-0.26219">
        <ele>5</ele>
        <time>2015-10-16T08:32:47Z</time>
      </trkpt>
      <trkpt lat="49.29062" lon="-0.2622">
        <ele>4.1</ele>
        <time>2015-10-16T08:32:48Z</time>
      </trkpt>
      <trkpt lat="49.29062" lon="-0.26221">
        <ele>5.1</ele>
        <time>2015-10-16T08:32:49Z</time>
      </trkpt>
      <trkpt lat="49.29061" lon="-0.26222">
        <ele>5.8</ele>
        <time>2015-10-16T08:32:50Z</time>
      </trkpt>
      <trkpt lat="49.2906" lon="-0.26222">
        <ele>6.4</ele>
        <time>2015-10-16T08:32:51Z</time>
      </trkpt>
      <trkpt lat="49.29057" lon="-0.26224">
        <ele>7.8</ele>
        <time>2015-10-16T08:32:54Z</time>
      </trkpt>
      <trkpt lat="49.29053" lon="-0.26226">
        <ele>6.4</ele>
        <time>2015-10-16T08:32:59Z</time>
      </trkpt>
      <trkpt lat="49.29052" lon="-0.26226">
        <ele>6.1</ele>
        <time>2015-10-16T08:33:00Z</time>
      </trkpt>
      <trkpt lat="49.2905" lon="-0.26229">
        <ele>8.6</ele>
        <time>2015-10-16T08:33:06Z</time>
      </trkpt>
      <trkpt lat="49.2905" lon="-0.26229">
        <ele>8.2</ele>
        <time>2015-10-16T08:33:07Z</time>
      </trkpt>
      <trkpt lat="49.29049" lon="-0.2623">
        <ele>8</ele>
        <time>2015-10-16T08:33:08Z</time>
      </trkpt>
      <trkpt lat="49.29049" lon="-0.26231">
        <ele>7.8</ele>
        <time>2015-10-16T08:33:09Z</time>
      </trkpt>
      <trkpt lat="49.2905" lon="-0.26233">
        <ele>8.3</ele>
        <time>2015-10-16T08:33:10Z</time>
      </trkpt>
      <trkpt lat="49.2905" lon="-0.26234">
        <ele>8.6</ele>
        <time>2015-10-16T08:33:11Z</time>
      </trkpt>
      <trkpt lat="49.2905" lon="-0.26236">
        <ele>8.9</ele>
        <time>2015-10-16T08:33:12Z</time>
      </trkpt>
      <trkpt lat="49.29051" lon="-0.26237">
        <ele>10.1</ele>
        <time>2015-10-16T08:33:13Z</time>
      </trkpt>
      <trkpt lat="49.29051" lon="-0.26238">
        <ele>11</ele>
        <time>2015-10-16T08:33:14Z</time>
      </trkpt>
      <trkpt lat="49.29051" lon="-0.26239">
        <ele>11.7</ele>
        <time>2015-10-16T08:33:15Z</time>
      </trkpt>
      <trkpt lat="49.29052" lon="-0.26239">
        <ele>11.6</ele>
        <time>2015-10-16T08:33:16Z</time>
      </trkpt>
      <trkpt lat="49.29052" lon="-0.26239">
        <ele>11.6</ele>
        <time>2015-10-16T08:33:17Z</time>
      </trkpt>
      <trkpt lat="49.29052" lon="-0.2624">
        <ele>11.5</ele>
        <time>2015-10-16T08:33:18Z</time>
      </trkpt>
      <trkpt lat="49.29052" lon="-0.26241">
        <ele>10.4</ele>
        <time>2015-10-16T08:33:19Z</time>
      </trkpt>
      <trkpt lat="49.29053" lon="-0.26242">
        <ele>9.6</ele>
        <time>2015-10-16T08:33:20Z</time>
      </trkpt>
      <trkpt lat="49.29053" lon="-0.26243">
        <ele>9</ele>
        <time>2015-10-16T08:33:21Z</time>
      </trkpt>
      <trkpt lat="49.29053" lon="-0.26244">
        <ele>8.8</ele>
        <time>2015-10-16T08:33:22Z</time>
      </trkpt>
      <trkpt lat="49.29053" lon="-0.26245">
        <ele>8.6</ele>
        <time>2015-10-16T08:33:23Z</time>
      </trkpt>
      <trkpt lat="49.29053" lon="-0.26245">
        <ele>8.3</ele>
        <time>2015-10-16T08:33:25Z</time>
      </trkpt>
      <trkpt lat="49.29053" lon="-0.26245">
        <ele>8.3</ele>
        <time>2015-10-16T08:33:26Z</time>
      </trkpt>
      <trkpt lat="49.29053" lon="-0.26245">
        <ele>8.2</ele>
        <time>2015-10-16T08:33:27Z</time>
      </trkpt>
      <trkpt lat="49.29053" lon="-0.26245">
        <ele>8.8</ele>
        <time>2015-10-16T08:33:28Z</time>
      </trkpt>
      <trkpt lat="49.29053" lon="-0.26245">
        <ele>9.2</ele>
        <time>2015-10-16T08:33:29Z</time>
      </trkpt>
      <trkpt lat="49.29053" lon="-0.26245">
        <ele>9.5</ele>
        <time>2015-10-16T08:33:30Z</time>
      </trkpt>
      <trkpt lat="49.29054" lon="-0.26245">
        <ele>9.6</ele>
        <time>2015-10-16T08:33:31Z</time>
      </trkpt>
      <trkpt lat="49.29054" lon="-0.26245">
        <ele>9.6</ele>
        <time>2015-10-16T08:33:32Z</time>
      </trkpt>
      <trkpt lat="49.29054" lon="-0.26245">
        <ele>9.6</ele>
        <time>2015-10-16T08:33:33Z</time>
      </trkpt>
      <trkpt lat="49.29054" lon="-0.26245">
        <ele>9.4</ele>
        <time>2015-10-16T08:33:34Z</time>
      </trkpt>
      <trkpt lat="49.29054" lon="-0.26245">
        <ele>9.3</ele>
        <time>2015-10-16T08:33:35Z</time>
      </trkpt>
      <trkpt lat="49.29054" lon="-0.26245">
        <ele>9.2</ele>
        <time>2015-10-16T08:33:36Z</time>
      </trkpt>
      <trkpt lat="49.29055" lon="-0.26242">
        <ele>9.4</ele>
        <time>2015-10-16T08:33:38Z</time>
      </trkpt>
      <trkpt lat="49.29056" lon="-0.26236">
        <ele>8.1</ele>
        <time>2015-10-16T08:33:41Z</time>
      </trkpt>
      <trkpt lat="49.29056" lon="-0.26233">
        <ele>7.7</ele>
        <time>2015-10-16T08:33:42Z</time>
      </trkpt>
      <trkpt lat="49.29056" lon="-0.26231">
        <ele>8.8</ele>
        <time>2015-10-16T08:33:43Z</time>
      </trkpt>
      <trkpt lat="49.29056" lon="-0.26229">
        <ele>9.6</ele>
        <time>2015-10-16T08:33:44Z</time>
      </trkpt>
      <trkpt lat="49.29058" lon="-0.26226">
        <ele>10.5</ele>
        <time>2015-10-16T08:33:46Z</time>
      </trkpt>
      <trkpt lat="49.29061" lon="-0.26222">
        <ele>10.8</ele>
        <time>2015-10-16T08:33:49Z</time>
      </trkpt>
      <trkpt lat="49.29067" lon="-0.26214">
        <ele>12.5</ele>
        <time>2015-10-16T08:33:57Z</time>
      </trkpt>
      <trkpt lat="49.29068" lon="-0.26213">
        <ele>12.4</ele>
        <time>2015-10-16T08:33:58Z</time>
      </trkpt>
      <trkpt lat="49.29072" lon="-0.26204">
        <ele>10.3</ele>
        <time>2015-10-16T08:34:03Z</time>
      </trkpt>
      <trkpt lat="49.29075" lon="-0.26197">
        <ele>8.6</ele>
        <time>2015-10-16T08:34:07Z</time>
      </trkpt>
      <trkpt lat="49.29076" lon="-0.26194">
        <ele>6.9</ele>
        <time>2015-10-16T08:34:09Z</time>
      </trkpt>
      <trkpt lat="49.29078" lon="-0.2618">
        <ele>5.4</ele>
        <time>2015-10-16T08:34:15Z</time>
      </trkpt>
      <trkpt lat="49.29078" lon="-0.26175">
        <ele>4.7</ele>
        <time>2015-10-16T08:34:17Z</time>
      </trkpt>
      <trkpt lat="49.29064" lon="-0.26045">
        <ele>3.3</ele>
        <time>2015-10-16T08:35:17Z</time>
      </trkpt>
      <trkpt lat="49.29064" lon="-0.26043">
        <ele>2.4</ele>
        <time>2015-10-16T08:35:18Z</time>
      </trkpt>
      <trkpt lat="49.29057" lon="-0.25993">
        <ele>2.2</ele>
        <time>2015-10-16T08:35:43Z</time>
      </trkpt>
      <trkpt lat="49.29057" lon="-0.25991">
        <ele>1.8</ele>
        <time>2015-10-16T08:35:44Z</time>
      </trkpt>
      <trkpt lat="49.29057" lon="-0.25989">
        <ele>1.5</ele>
        <time>2015-10-16T08:35:45Z</time>
      </trkpt>
      <trkpt lat="49.29057" lon="-0.25972">
        <ele>4.3</ele>
        <time>2015-10-16T08:35:53Z</time>
      </trkpt>
      <trkpt lat="49.29055" lon="-0.25966">
        <ele>4.3</ele>
        <time>2015-10-16T08:35:56Z</time>
      </trkpt>
      <trkpt lat="49.29049" lon="-0.25914">
        <ele>6.1</ele>
        <time>2015-10-16T08:36:21Z</time>
      </trkpt>
      <trkpt lat="49.29049" lon="-0.25912">
        <ele>6.8</ele>
        <time>2015-10-16T08:36:22Z</time>
      </trkpt>
      <trkpt lat="49.29041" lon="-0.25828">
        <ele>4.4</ele>
        <time>2015-10-16T08:37:06Z</time>
      </trkpt>
      <trkpt lat="49.29041" lon="-0.25828">
        <ele>4.3</ele>
        <time>2015-10-16T08:37:07Z</time>
      </trkpt>
      <trkpt lat="49.29041" lon="-0.25828">
        <ele>4.2</ele>
        <time>2015-10-16T08:37:08Z</time>
      </trkpt>
      <trkpt lat="49.29041" lon="-0.25828">
        <ele>4.1</ele>
        <time>2015-10-16T08:37:09Z</time>
      </trkpt>
      <trkpt lat="49.29041" lon="-0.25828">
        <ele>4.3</ele>
        <time>2015-10-16T08:37:10Z</time>
      </trkpt>
      <trkpt lat="49.29041" lon="-0.25828">
        <ele>4.4</ele>
        <time>2015-10-16T08:37:11Z</time>
      </trkpt>
      <trkpt lat="49.29041" lon="-0.25828">
        <ele>4.5</ele>
        <time>2015-10-16T08:37:12Z</time>
      </trkpt>
      <trkpt lat="49.29041" lon="-0.25827">
        <ele>4.7</ele>
        <time>2015-10-16T08:37:13Z</time>
      </trkpt>
      <trkpt lat="49.29025" lon="-0.25724">
        <ele>8.5</ele>
        <time>2015-10-16T08:38:01Z</time>
      </trkpt>
      <trkpt lat="49.29025" lon="-0.25722">
        <ele>8.8</ele>
        <time>2015-10-16T08:38:02Z</time>
      </trkpt>
      <trkpt lat="49.29021" lon="-0.25686">
        <ele>6.1</ele>
        <time>2015-10-16T08:38:20Z</time>
      </trkpt>
      <trkpt lat="49.29021" lon="-0.25686">
        <ele>6.2</ele>
        <time>2015-10-16T08:38:21Z</time>
      </trkpt>
      <trkpt lat="49.29021" lon="-0.25686">
        <ele>6</ele>
        <time>2015-10-16T08:38:22Z</time>
      </trkpt>
      <trkpt lat="49.29021" lon="-0.25685">
        <ele>5.9</ele>
        <time>2015-10-16T08:38:23Z</time>
      </trkpt>
      <trkpt lat="49.29019" lon="-0.25686">
        <ele>5.5</ele>
        <time>2015-10-16T08:38:25Z</time>
      </trkpt>
      <trkpt lat="49.29019" lon="-0.25687">
        <ele>5.3</ele>
        <time>2015-10-16T08:38:26Z</time>
      </trkpt>
      <trkpt lat="49.29018" lon="-0.25688">
        <ele>5.2</ele>
        <time>2015-10-16T08:38:27Z</time>
      </trkpt>
      <trkpt lat="49.29017" lon="-0.2569">
        <ele>5.1</ele>
        <time>2015-10-16T08:38:28Z</time>
      </trkpt>
      <trkpt lat="49.29017" lon="-0.25692">
        <ele>5</ele>
        <time>2015-10-16T08:38:29Z</time>
      </trkpt>
      <trkpt lat="49.29016" lon="-0.25694">
        <ele>4.9</ele>
        <time>2015-10-16T08:38:30Z</time>
      </trkpt>
      <trkpt lat="49.29015" lon="-0.25696">
        <ele>4.9</ele>
        <time>2015-10-16T08:38:31Z</time>
      </trkpt>
      <trkpt lat="49.29014" lon="-0.25698">
        <ele>4.8</ele>
        <time>2015-10-16T08:38:32Z</time>
      </trkpt>
      <trkpt lat="49.29013" lon="-0.25699">
        <ele>4.8</ele>
        <time>2015-10-16T08:38:33Z</time>
      </trkpt>
      <trkpt lat="49.29012" lon="-0.257">
        <ele>4.8</ele>
        <time>2015-10-16T08:38:34Z</time>
      </trkpt>
      <trkpt lat="49.2901" lon="-0.25701">
        <ele>4.8</ele>
        <time>2015-10-16T08:38:35Z</time>
      </trkpt>
      <trkpt lat="49.29008" lon="-0.25703">
        <ele>4.3</ele>
        <time>2015-10-16T08:38:37Z</time>
      </trkpt>
      <trkpt lat="49.2897" lon="-0.25727">
        <ele>3.2</ele>
        <time>2015-10-16T08:39:07Z</time>
      </trkpt>
      <trkpt lat="49.28968" lon="-0.25727">
        <ele>3.4</ele>
        <time>2015-10-16T08:39:08Z</time>
      </trkpt>
      <trkpt lat="49.2893" lon="-0.25749">
        <ele>3.9</ele>
        <time>2015-10-16T08:39:38Z</time>
      </trkpt>
      <trkpt lat="49.28923" lon="-0.25756">
        <ele>0.3</ele>
        <time>2015-10-16T08:39:45Z</time>
      </trkpt>
      <trkpt lat="49.28908" lon="-0.25772">
        <ele>4.7</ele>
        <time>2015-10-16T08:40:02Z</time>
      </trkpt>
      <trkpt lat="49.28908" lon="-0.25773">
        <ele>4.9</ele>
        <time>2015-10-16T08:40:03Z</time>
      </trkpt>
      <trkpt lat="49.28907" lon="-0.25773">
        <ele>5</ele>
        <time>2015-10-16T08:40:04Z</time>
      </trkpt>
      <trkpt lat="49.28907" lon="-0.25774">
        <ele>5.2</ele>
        <time>2015-10-16T08:40:05Z</time>
      </trkpt>
      <trkpt lat="49.28907" lon="-0.25774">
        <ele>5.3</ele>
        <time>2015-10-16T08:40:06Z</time>
      </trkpt>
      <trkpt lat="49.28907" lon="-0.25774">
        <ele>5.3</ele>
        <time>2015-10-16T08:40:07Z</time>
      </trkpt>
      <trkpt lat="49.28908" lon="-0.25774">
        <ele>5.4</ele>
        <time>2015-10-16T08:40:08Z</time>
      </trkpt>
      <trkpt lat="49.28908" lon="-0.25775">
        <ele>5.4</ele>
        <time>2015-10-16T08:40:09Z</time>
      </trkpt>
      <trkpt lat="49.28908" lon="-0.25775">
        <ele>5.7</ele>
        <time>2015-10-16T08:40:10Z</time>
      </trkpt>
      <trkpt lat="49.28908" lon="-0.25775">
        <ele>5.8</ele>
        <time>2015-10-16T08:40:11Z</time>
      </trkpt>
      <trkpt lat="49.28908" lon="-0.25776">
        <ele>6</ele>
        <time>2015-10-16T08:40:12Z</time>
      </trkpt>
      <trkpt lat="49.28908" lon="-0.25776">
        <ele>5.7</ele>
        <time>2015-10-16T08:40:13Z</time>
      </trkpt>
      <trkpt lat="49.28908" lon="-0.25776">
        <ele>5.4</ele>
        <time>2015-10-16T08:40:14Z</time>
      </trkpt>
      <trkpt lat="49.28908" lon="-0.25777">
        <ele>5.2</ele>
        <time>2015-10-16T08:40:15Z</time>
      </trkpt>
      <trkpt lat="49.28909" lon="-0.25778">
        <ele>5.5</ele>
        <time>2015-10-16T08:40:16Z</time>
      </trkpt>
      <trkpt lat="49.28909" lon="-0.25778">
        <ele>5.7</ele>
        <time>2015-10-16T08:40:17Z</time>
      </trkpt>
      <trkpt lat="49.28909" lon="-0.25778">
        <ele>5.9</ele>
        <time>2015-10-16T08:40:18Z</time>
      </trkpt>
      <trkpt lat="49.28909" lon="-0.25779">
        <ele>6.4</ele>
        <time>2015-10-16T08:40:19Z</time>
      </trkpt>
      <trkpt lat="49.28909" lon="-0.25779">
        <ele>6.8</ele>
        <time>2015-10-16T08:40:20Z</time>
      </trkpt>
      <trkpt lat="49.28912" lon="-0.2578">
        <ele>6.7</ele>
        <time>2015-10-16T08:41:54Z</time>
      </trkpt>
      <trkpt lat="49.28908" lon="-0.25763">
        <ele>4.3</ele>
        <time>2015-10-16T08:41:58Z</time>
      </trkpt>
      <trkpt lat="49.28909" lon="-0.25761">
        <ele>3.6</ele>
        <time>2015-10-16T08:41:59Z</time>
      </trkpt>
      <trkpt lat="49.2891" lon="-0.25762">
        <ele>4.5</ele>
        <time>2015-10-16T08:42:00Z</time>
      </trkpt>
      <trkpt lat="49.28911" lon="-0.25763">
        <ele>5.2</ele>
        <time>2015-10-16T08:42:01Z</time>
      </trkpt>
      <trkpt lat="49.28912" lon="-0.25763">
        <ele>5.7</ele>
        <time>2015-10-16T08:42:02Z</time>
      </trkpt>
      <trkpt lat="49.28912" lon="-0.25763">
        <ele>5</ele>
        <time>2015-10-16T08:42:03Z</time>
      </trkpt>
      <trkpt lat="49.28913" lon="-0.25761">
        <ele>4.5</ele>
        <time>2015-10-16T08:42:04Z</time>
      </trkpt>
      <trkpt lat="49.28915" lon="-0.25758">
        <ele>3.9</ele>
        <time>2015-10-16T08:42:06Z</time>
      </trkpt>
      <trkpt lat="49.28915" lon="-0.25756">
        <ele>3.7</ele>
        <time>2015-10-16T08:42:07Z</time>
      </trkpt>
      <trkpt lat="49.28918" lon="-0.25754">
        <ele>2.8</ele>
        <time>2015-10-16T08:42:09Z</time>
      </trkpt>
      <trkpt lat="49.28925" lon="-0.25749">
        <ele>2.6</ele>
        <time>2015-10-16T08:42:15Z</time>
      </trkpt>
      <trkpt lat="49.28932" lon="-0.25745">
        <ele>6.8</ele>
        <time>2015-10-16T08:42:20Z</time>
      </trkpt>
      <trkpt lat="49.29013" lon="-0.25697">
        <ele>4.5</ele>
        <time>2015-10-16T08:43:19Z</time>
      </trkpt>
      <trkpt lat="49.29014" lon="-0.25695">
        <ele>4.3</ele>
        <time>2015-10-16T08:43:20Z</time>
      </trkpt>
      <trkpt lat="49.29019" lon="-0.25687">
        <ele>4.6</ele>
        <time>2015-10-16T08:43:25Z</time>
      </trkpt>
      <trkpt lat="49.29021" lon="-0.25684">
        <ele>4.3</ele>
        <time>2015-10-16T08:43:27Z</time>
      </trkpt>
      <trkpt lat="49.29022" lon="-0.25676">
        <ele>3.5</ele>
        <time>2015-10-16T08:43:30Z</time>
      </trkpt>
      <trkpt lat="49.29022" lon="-0.25666">
        <ele>1.8</ele>
        <time>2015-10-16T08:43:34Z</time>
      </trkpt>
      <trkpt lat="49.29011" lon="-0.25599">
        <ele>-0.4</ele>
        <time>2015-10-16T08:44:04Z</time>
      </trkpt>
      <trkpt lat="49.28967" lon="-0.25298">
        <ele>5.5</ele>
        <time>2015-10-16T08:46:21Z</time>
      </trkpt>
      <trkpt lat="49.28966" lon="-0.25296">
        <ele>4.3</ele>
        <time>2015-10-16T08:46:22Z</time>
      </trkpt>
      <trkpt lat="49.28962" lon="-0.25291">
        <ele>2.5</ele>
        <time>2015-10-16T08:46:25Z</time>
      </trkpt>
      <trkpt lat="49.28959" lon="-0.25289">
        <ele>2.4</ele>
        <time>2015-10-16T08:46:27Z</time>
      </trkpt>
      <trkpt lat="49.28952" lon="-0.25287">
        <ele>4.3</ele>
        <time>2015-10-16T08:46:32Z</time>
      </trkpt>
      <trkpt lat="49.28948" lon="-0.25287">
        <ele>5</ele>
        <time>2015-10-16T08:46:35Z</time>
      </trkpt>
      <trkpt lat="49.28941" lon="-0.25287">
        <ele>0.1</ele>
        <time>2015-10-16T08:46:40Z</time>
      </trkpt>
      <trkpt lat="49.2894" lon="-0.25287">
        <ele>-0.1</ele>
        <time>2015-10-16T08:46:41Z</time>
      </trkpt>
      <trkpt lat="49.28932" lon="-0.25286">
        <ele>2.8</ele>
        <time>2015-10-16T08:46:47Z</time>
      </trkpt>
      <trkpt lat="49.28931" lon="-0.25284">
        <ele>3.7</ele>
        <time>2015-10-16T08:46:48Z</time>
      </trkpt>
      <trkpt lat="49.2893" lon="-0.25283">
        <ele>4.4</ele>
        <time>2015-10-16T08:46:49Z</time>
      </trkpt>
      <trkpt lat="49.28929" lon="-0.25282">
        <ele>4.9</ele>
        <time>2015-10-16T08:46:50Z</time>
      </trkpt>
      <trkpt lat="49.28928" lon="-0.2528">
        <ele>3.4</ele>
        <time>2015-10-16T08:46:51Z</time>
      </trkpt>
      <trkpt lat="49.28927" lon="-0.25279">
        <ele>2.3</ele>
        <time>2015-10-16T08:46:52Z</time>
      </trkpt>
      <trkpt lat="49.28926" lon="-0.25278">
        <ele>1.4</ele>
        <time>2015-10-16T08:46:53Z</time>
      </trkpt>
      <trkpt lat="49.28917" lon="-0.2526">
        <ele>1.9</ele>
        <time>2015-10-16T08:47:05Z</time>
      </trkpt>
      <trkpt lat="49.28896" lon="-0.25224">
        <ele>3.9</ele>
        <time>2015-10-16T08:47:27Z</time>
      </trkpt>
      <trkpt lat="49.28895" lon="-0.25223">
        <ele>4.3</ele>
        <time>2015-10-16T08:47:28Z</time>
      </trkpt>
      <trkpt lat="49.28856" lon="-0.2518">
        <ele>0.9</ele>
        <time>2015-10-16T08:48:01Z</time>
      </trkpt>
      <trkpt lat="49.28855" lon="-0.25178">
        <ele>1.2</ele>
        <time>2015-10-16T08:48:02Z</time>
      </trkpt>
      <trkpt lat="49.28844" lon="-0.2516">
        <ele>6.8</ele>
        <time>2015-10-16T08:48:13Z</time>
      </trkpt>
      <trkpt lat="49.28844" lon="-0.25158">
        <ele>7.3</ele>
        <time>2015-10-16T08:48:14Z</time>
      </trkpt>
      <trkpt lat="49.28839" lon="-0.25149">
        <ele>9.1</ele>
        <time>2015-10-16T08:48:19Z</time>
      </trkpt>
      <trkpt lat="49.28824" lon="-0.25124">
        <ele>10</ele>
        <time>2015-10-16T08:48:34Z</time>
      </trkpt>
      <trkpt lat="49.28823" lon="-0.25123">
        <ele>9.9</ele>
        <time>2015-10-16T08:48:35Z</time>
      </trkpt>
      <trkpt lat="49.28798" lon="-0.25074">
        <ele>3.6</ele>
        <time>2015-10-16T08:49:04Z</time>
      </trkpt>
      <trkpt lat="49.28793" lon="-0.25061">
        <ele>1.7</ele>
        <time>2015-10-16T08:49:11Z</time>
      </trkpt>
      <trkpt lat="49.28793" lon="-0.25056">
        <ele>3</ele>
        <time>2015-10-16T08:49:13Z</time>
      </trkpt>
      <trkpt lat="49.28793" lon="-0.2505">
        <ele>5.8</ele>
        <time>2015-10-16T08:49:16Z</time>
      </trkpt>
      <trkpt lat="49.28798" lon="-0.25037">
        <ele>5.4</ele>
        <time>2015-10-16T08:49:22Z</time>
      </trkpt>
      <trkpt lat="49.28799" lon="-0.25034">
        <ele>4.6</ele>
        <time>2015-10-16T08:49:23Z</time>
      </trkpt>
      <trkpt lat="49.288" lon="-0.25032">
        <ele>4.6</ele>
        <time>2015-10-16T08:49:24Z</time>
      </trkpt>
      <trkpt lat="49.288" lon="-0.2503">
        <ele>4.7</ele>
        <time>2015-10-16T08:49:25Z</time>
      </trkpt>
      <trkpt lat="49.28801" lon="-0.25028">
        <ele>4.7</ele>
        <time>2015-10-16T08:49:26Z</time>
      </trkpt>
      <trkpt lat="49.28802" lon="-0.25026">
        <ele>5.5</ele>
        <time>2015-10-16T08:49:27Z</time>
      </trkpt>
      <trkpt lat="49.28803" lon="-0.25024">
        <ele>6.1</ele>
        <time>2015-10-16T08:49:28Z</time>
      </trkpt>
      <trkpt lat="49.28804" lon="-0.25023">
        <ele>6.6</ele>
        <time>2015-10-16T08:49:29Z</time>
      </trkpt>
      <trkpt lat="49.28804" lon="-0.25021">
        <ele>6.6</ele>
        <time>2015-10-16T08:49:30Z</time>
      </trkpt>
      <trkpt lat="49.28805" lon="-0.25019">
        <ele>6.5</ele>
        <time>2015-10-16T08:49:31Z</time>
      </trkpt>
      <trkpt lat="49.28806" lon="-0.25018">
        <ele>6.5</ele>
        <time>2015-10-16T08:49:32Z</time>
      </trkpt>
      <trkpt lat="49.28806" lon="-0.25016">
        <ele>7.7</ele>
        <time>2015-10-16T08:49:33Z</time>
      </trkpt>
      <trkpt lat="49.28807" lon="-0.25015">
        <ele>8.6</ele>
        <time>2015-10-16T08:49:34Z</time>
      </trkpt>
      <trkpt lat="49.28808" lon="-0.25013">
        <ele>9.3</ele>
        <time>2015-10-16T08:49:35Z</time>
      </trkpt>
      <trkpt lat="49.28809" lon="-0.25012">
        <ele>9</ele>
        <time>2015-10-16T08:49:36Z</time>
      </trkpt>
      <trkpt lat="49.28809" lon="-0.2501">
        <ele>8.7</ele>
        <time>2015-10-16T08:49:37Z</time>
      </trkpt>
      <trkpt lat="49.2881" lon="-0.25008">
        <ele>8.6</ele>
        <time>2015-10-16T08:49:38Z</time>
      </trkpt>
      <trkpt lat="49.28814" lon="-0.25003">
        <ele>10.8</ele>
        <time>2015-10-16T08:49:42Z</time>
      </trkpt>
      <trkpt lat="49.28819" lon="-0.24997">
        <ele>11</ele>
        <time>2015-10-16T08:49:48Z</time>
      </trkpt>
      <trkpt lat="49.2882" lon="-0.24997">
        <ele>10.9</ele>
        <time>2015-10-16T08:49:49Z</time>
      </trkpt>
      <trkpt lat="49.2882" lon="-0.24997">
        <ele>10.8</ele>
        <time>2015-10-16T08:49:50Z</time>
      </trkpt>
      <trkpt lat="49.2882" lon="-0.24997">
        <ele>10.7</ele>
        <time>2015-10-16T08:49:51Z</time>
      </trkpt>
      <trkpt lat="49.28821" lon="-0.24996">
        <ele>10.7</ele>
        <time>2015-10-16T08:49:52Z</time>
      </trkpt>
      <trkpt lat="49.28821" lon="-0.24996">
        <ele>10.6</ele>
        <time>2015-10-16T08:49:53Z</time>
      </trkpt>
      <trkpt lat="49.28821" lon="-0.24996">
        <ele>10.4</ele>
        <time>2015-10-16T08:49:54Z</time>
      </trkpt>
      <trkpt lat="49.28822" lon="-0.24995">
        <ele>10.2</ele>
        <time>2015-10-16T08:49:55Z</time>
      </trkpt>
      <trkpt lat="49.28822" lon="-0.24995">
        <ele>10.1</ele>
        <time>2015-10-16T08:49:56Z</time>
      </trkpt>
      <trkpt lat="49.28822" lon="-0.24995">
        <ele>10.8</ele>
        <time>2015-10-16T08:49:57Z</time>
      </trkpt>
      <trkpt lat="49.28822" lon="-0.24995">
        <ele>11.4</ele>
        <time>2015-10-16T08:49:58Z</time>
      </trkpt>
      <trkpt lat="49.28822" lon="-0.24995">
        <ele>11.8</ele>
        <time>2015-10-16T08:49:59Z</time>
      </trkpt>
      <trkpt lat="49.28822" lon="-0.24994">
        <ele>11.7</ele>
        <time>2015-10-16T08:50:00Z</time>
      </trkpt>
      <trkpt lat="49.28822" lon="-0.24994">
        <ele>11.6</ele>
        <time>2015-10-16T08:50:01Z</time>
      </trkpt>
      <trkpt lat="49.28822" lon="-0.24994">
        <ele>11.5</ele>
        <time>2015-10-16T08:50:02Z</time>
      </trkpt>
      <trkpt lat="49.28822" lon="-0.24994">
        <ele>11.7</ele>
        <time>2015-10-16T08:50:03Z</time>
      </trkpt>
      <trkpt lat="49.28823" lon="-0.24994">
        <ele>11.8</ele>
        <time>2015-10-16T08:50:04Z</time>
      </trkpt>
      <trkpt lat="49.28823" lon="-0.24994">
        <ele>11.9</ele>
        <time>2015-10-16T08:50:05Z</time>
      </trkpt>
      <trkpt lat="49.28823" lon="-0.24994">
        <ele>12</ele>
        <time>2015-10-16T08:50:06Z</time>
      </trkpt>
      <trkpt lat="49.28822" lon="-0.24994">
        <ele>12</ele>
        <time>2015-10-16T08:50:07Z</time>
      </trkpt>
      <trkpt lat="49.28822" lon="-0.24994">
        <ele>12.1</ele>
        <time>2015-10-16T08:50:08Z</time>
      </trkpt>
      <trkpt lat="49.28822" lon="-0.24994">
        <ele>11.9</ele>
        <time>2015-10-16T08:50:09Z</time>
      </trkpt>
      <trkpt lat="49.28822" lon="-0.24994">
        <ele>11.7</ele>
        <time>2015-10-16T08:50:10Z</time>
      </trkpt>
      <trkpt lat="49.28822" lon="-0.24994">
        <ele>11.6</ele>
        <time>2015-10-16T08:50:11Z</time>
      </trkpt>
      <trkpt lat="49.28822" lon="-0.24994">
        <ele>12</ele>
        <time>2015-10-16T08:50:12Z</time>
      </trkpt>
      <trkpt lat="49.28823" lon="-0.24994">
        <ele>12.2</ele>
        <time>2015-10-16T08:50:13Z</time>
      </trkpt>
      <trkpt lat="49.28823" lon="-0.24993">
        <ele>12.4</ele>
        <time>2015-10-16T08:50:14Z</time>
      </trkpt>
      <trkpt lat="49.28823" lon="-0.24993">
        <ele>12.8</ele>
        <time>2015-10-16T08:50:15Z</time>
      </trkpt>
      <trkpt lat="49.28823" lon="-0.24993">
        <ele>13</ele>
        <time>2015-10-16T08:50:16Z</time>
      </trkpt>
      <trkpt lat="49.28823" lon="-0.24993">
        <ele>13.2</ele>
        <time>2015-10-16T08:50:17Z</time>
      </trkpt>
      <trkpt lat="49.28823" lon="-0.24993">
        <ele>13</ele>
        <time>2015-10-16T08:50:18Z</time>
      </trkpt>
      <trkpt lat="49.28823" lon="-0.24993">
        <ele>12.8</ele>
        <time>2015-10-16T08:50:19Z</time>
      </trkpt>
      <trkpt lat="49.28823" lon="-0.24993">
        <ele>12.6</ele>
        <time>2015-10-16T08:50:20Z</time>
      </trkpt>
      <trkpt lat="49.28823" lon="-0.24993">
        <ele>12.9</ele>
        <time>2015-10-16T08:50:21Z</time>
      </trkpt>
      <trkpt lat="49.28823" lon="-0.24993">
        <ele>13.1</ele>
        <time>2015-10-16T08:50:22Z</time>
      </trkpt>
      <trkpt lat="49.28823" lon="-0.24993">
        <ele>13.3</ele>
        <time>2015-10-16T08:50:23Z</time>
      </trkpt>
      <trkpt lat="49.28823" lon="-0.24993">
        <ele>12.6</ele>
        <time>2015-10-16T08:50:24Z</time>
      </trkpt>
      <trkpt lat="49.28823" lon="-0.24993">
        <ele>12.1</ele>
        <time>2015-10-16T08:50:25Z</time>
      </trkpt>
      <trkpt lat="49.28824" lon="-0.24994">
        <ele>11.7</ele>
        <time>2015-10-16T08:50:26Z</time>
      </trkpt>
      <trkpt lat="49.28824" lon="-0.24994">
        <ele>11.2</ele>
        <time>2015-10-16T08:50:27Z</time>
      </trkpt>
      <trkpt lat="49.28824" lon="-0.24994">
        <ele>10.8</ele>
        <time>2015-10-16T08:50:28Z</time>
      </trkpt>
      <trkpt lat="49.28824" lon="-0.24994">
        <ele>10.5</ele>
        <time>2015-10-16T08:50:29Z</time>
      </trkpt>
      <trkpt lat="49.28824" lon="-0.24994">
        <ele>10.9</ele>
        <time>2015-10-16T08:50:30Z</time>
      </trkpt>
      <trkpt lat="49.28823" lon="-0.24994">
        <ele>11.3</ele>
        <time>2015-10-16T08:50:31Z</time>
      </trkpt>
      <trkpt lat="49.28823" lon="-0.24993">
        <ele>11.5</ele>
        <time>2015-10-16T08:50:32Z</time>
      </trkpt>
      <trkpt lat="49.28823" lon="-0.24993">
        <ele>11.2</ele>
        <time>2015-10-16T08:50:33Z</time>
      </trkpt>
      <trkpt lat="49.28823" lon="-0.24993">
        <ele>11.1</ele>
        <time>2015-10-16T08:50:34Z</time>
      </trkpt>
      <trkpt lat="49.28823" lon="-0.24993">
        <ele>10.9</ele>
        <time>2015-10-16T08:50:35Z</time>
      </trkpt>
      <trkpt lat="49.28822" lon="-0.24993">
        <ele>10.2</ele>
        <time>2015-10-16T08:50:36Z</time>
      </trkpt>
      <trkpt lat="49.28822" lon="-0.24994">
        <ele>9.7</ele>
        <time>2015-10-16T08:50:37Z</time>
      </trkpt>
      <trkpt lat="49.28822" lon="-0.24994">
        <ele>9.2</ele>
        <time>2015-10-16T08:50:38Z</time>
      </trkpt>
      <trkpt lat="49.28822" lon="-0.24994">
        <ele>9.8</ele>
        <time>2015-10-16T08:50:39Z</time>
      </trkpt>
      <trkpt lat="49.28822" lon="-0.24994">
        <ele>10.2</ele>
        <time>2015-10-16T08:50:40Z</time>
      </trkpt>
      <trkpt lat="49.28822" lon="-0.24994">
        <ele>10.5</ele>
        <time>2015-10-16T08:50:41Z</time>
      </trkpt>
      <trkpt lat="49.28822" lon="-0.24994">
        <ele>10.5</ele>
        <time>2015-10-16T08:50:42Z</time>
      </trkpt>
      <trkpt lat="49.28822" lon="-0.24994">
        <ele>10.5</ele>
        <time>2015-10-16T08:50:43Z</time>
      </trkpt>
      <trkpt lat="49.28822" lon="-0.24994">
        <ele>10.5</ele>
        <time>2015-10-16T08:50:44Z</time>
      </trkpt>
      <trkpt lat="49.28823" lon="-0.24994">
        <ele>9.9</ele>
        <time>2015-10-16T08:50:45Z</time>
      </trkpt>
      <trkpt lat="49.28823" lon="-0.24994">
        <ele>9.4</ele>
        <time>2015-10-16T08:50:46Z</time>
      </trkpt>
      <trkpt lat="49.28823" lon="-0.24994">
        <ele>9.1</ele>
        <time>2015-10-16T08:50:47Z</time>
      </trkpt>
      <trkpt lat="49.28824" lon="-0.24994">
        <ele>10.1</ele>
        <time>2015-10-16T08:50:48Z</time>
      </trkpt>
      <trkpt lat="49.28824" lon="-0.24994">
        <ele>10.8</ele>
        <time>2015-10-16T08:50:49Z</time>
      </trkpt>
      <trkpt lat="49.28824" lon="-0.24993">
        <ele>11.3</ele>
        <time>2015-10-16T08:50:50Z</time>
      </trkpt>
      <trkpt lat="49.28824" lon="-0.24993">
        <ele>11.5</ele>
        <time>2015-10-16T08:50:51Z</time>
      </trkpt>
      <trkpt lat="49.28824" lon="-0.24993">
        <ele>11.7</ele>
        <time>2015-10-16T08:50:52Z</time>
      </trkpt>
      <trkpt lat="49.28824" lon="-0.24993">
        <ele>11.8</ele>
        <time>2015-10-16T08:50:53Z</time>
      </trkpt>
      <trkpt lat="49.28824" lon="-0.24993">
        <ele>12.3</ele>
        <time>2015-10-16T08:50:54Z</time>
      </trkpt>
      <trkpt lat="49.28824" lon="-0.24994">
        <ele>12.4</ele>
        <time>2015-10-16T08:50:57Z</time>
      </trkpt>
      <trkpt lat="49.28823" lon="-0.24994">
        <ele>11.9</ele>
        <time>2015-10-16T08:50:58Z</time>
      </trkpt>
      <trkpt lat="49.28823" lon="-0.24995">
        <ele>11.6</ele>
        <time>2015-10-16T08:50:59Z</time>
      </trkpt>
      <trkpt lat="49.28822" lon="-0.24995">
        <ele>11.9</ele>
        <time>2015-10-16T08:51:00Z</time>
      </trkpt>
      <trkpt lat="49.28822" lon="-0.24995">
        <ele>12.2</ele>
        <time>2015-10-16T08:51:01Z</time>
      </trkpt>
      <trkpt lat="49.2882" lon="-0.24995">
        <ele>12.4</ele>
        <time>2015-10-16T08:51:02Z</time>
      </trkpt>
      <trkpt lat="49.28818" lon="-0.24994">
        <ele>10.8</ele>
        <time>2015-10-16T08:51:04Z</time>
      </trkpt>
      <trkpt lat="49.28816" lon="-0.24991">
        <ele>11.2</ele>
        <time>2015-10-16T08:51:06Z</time>
      </trkpt>
      <trkpt lat="49.28816" lon="-0.24989">
        <ele>11.9</ele>
        <time>2015-10-16T08:51:07Z</time>
      </trkpt>
      <trkpt lat="49.28816" lon="-0.24987">
        <ele>12.4</ele>
        <time>2015-10-16T08:51:08Z</time>
      </trkpt>
      <trkpt lat="49.28816" lon="-0.24985">
        <ele>11.5</ele>
        <time>2015-10-16T08:51:09Z</time>
      </trkpt>
      <trkpt lat="49.28816" lon="-0.24982">
        <ele>10.8</ele>
        <time>2015-10-16T08:51:10Z</time>
      </trkpt>
      <trkpt lat="49.28816" lon="-0.2498">
        <ele>10.3</ele>
        <time>2015-10-16T08:51:11Z</time>
      </trkpt>
      <trkpt lat="49.28816" lon="-0.24977">
        <ele>9.1</ele>
        <time>2015-10-16T08:51:12Z</time>
      </trkpt>
      <trkpt lat="49.28815" lon="-0.24966">
        <ele>5.9</ele>
        <time>2015-10-16T08:51:17Z</time>
      </trkpt>
      <trkpt lat="49.28815" lon="-0.24962">
        <ele>7.9</ele>
        <time>2015-10-16T08:51:19Z</time>
      </trkpt>
      <trkpt lat="49.28814" lon="-0.2495">
        <ele>8</ele>
        <time>2015-10-16T08:51:27Z</time>
      </trkpt>
      <trkpt lat="49.28815" lon="-0.24951">
        <ele>9.1</ele>
        <time>2015-10-16T08:51:29Z</time>
      </trkpt>
      <trkpt lat="49.28815" lon="-0.24951">
        <ele>8.6</ele>
        <time>2015-10-16T08:51:30Z</time>
      </trkpt>
      <trkpt lat="49.28815" lon="-0.24951">
        <ele>8.3</ele>
        <time>2015-10-16T08:51:31Z</time>
      </trkpt>
      <trkpt lat="49.28816" lon="-0.24952">
        <ele>8</ele>
        <time>2015-10-16T08:51:32Z</time>
      </trkpt>
      <trkpt lat="49.28816" lon="-0.24952">
        <ele>7.6</ele>
        <time>2015-10-16T08:51:33Z</time>
      </trkpt>
      <trkpt lat="49.28816" lon="-0.24952">
        <ele>7.3</ele>
        <time>2015-10-16T08:51:34Z</time>
      </trkpt>
      <trkpt lat="49.28816" lon="-0.24952">
        <ele>7.1</ele>
        <time>2015-10-16T08:51:35Z</time>
      </trkpt>
      <trkpt lat="49.28816" lon="-0.24953">
        <ele>6.9</ele>
        <time>2015-10-16T08:51:36Z</time>
      </trkpt>
      <trkpt lat="49.28817" lon="-0.24953">
        <ele>6.8</ele>
        <time>2015-10-16T08:51:37Z</time>
      </trkpt>
      <trkpt lat="49.28817" lon="-0.24953">
        <ele>6.7</ele>
        <time>2015-10-16T08:51:38Z</time>
      </trkpt>
      <trkpt lat="49.28817" lon="-0.24953">
        <ele>7</ele>
        <time>2015-10-16T08:51:39Z</time>
      </trkpt>
      <trkpt lat="49.28817" lon="-0.24953">
        <ele>7.3</ele>
        <time>2015-10-16T08:51:40Z</time>
      </trkpt>
      <trkpt lat="49.28817" lon="-0.24953">
        <ele>7.5</ele>
        <time>2015-10-16T08:51:41Z</time>
      </trkpt>
      <trkpt lat="49.28817" lon="-0.24953">
        <ele>7.4</ele>
        <time>2015-10-16T08:51:42Z</time>
      </trkpt>
      <trkpt lat="49.28817" lon="-0.24954">
        <ele>7.3</ele>
        <time>2015-10-16T08:51:43Z</time>
      </trkpt>
      <trkpt lat="49.28818" lon="-0.24954">
        <ele>7.3</ele>
        <time>2015-10-16T08:51:44Z</time>
      </trkpt>
      <trkpt lat="49.28818" lon="-0.24954">
        <ele>7.3</ele>
        <time>2015-10-16T08:51:45Z</time>
      </trkpt>
      <trkpt lat="49.28818" lon="-0.24954">
        <ele>7.3</ele>
        <time>2015-10-16T08:51:46Z</time>
      </trkpt>
      <trkpt lat="49.28818" lon="-0.24955">
        <ele>7.2</ele>
        <time>2015-10-16T08:51:47Z</time>
      </trkpt>
      <trkpt lat="49.28819" lon="-0.24955">
        <ele>6.6</ele>
        <time>2015-10-16T08:51:48Z</time>
      </trkpt>
      <trkpt lat="49.28819" lon="-0.24955">
        <ele>6.1</ele>
        <time>2015-10-16T08:51:49Z</time>
      </trkpt>
      <trkpt lat="49.28819" lon="-0.24955">
        <ele>5.8</ele>
        <time>2015-10-16T08:51:50Z</time>
      </trkpt>
      <trkpt lat="49.28818" lon="-0.24954">
        <ele>6.1</ele>
        <time>2015-10-16T08:51:51Z</time>
      </trkpt>
      <trkpt lat="49.28817" lon="-0.24953">
        <ele>6.4</ele>
        <time>2015-10-16T08:51:52Z</time>
      </trkpt>
      <trkpt lat="49.28816" lon="-0.24952">
        <ele>6.6</ele>
        <time>2015-10-16T08:51:53Z</time>
      </trkpt>
      <trkpt lat="49.28815" lon="-0.24951">
        <ele>5.7</ele>
        <time>2015-10-16T08:51:54Z</time>
      </trkpt>
      <trkpt lat="49.28814" lon="-0.24949">
        <ele>5.1</ele>
        <time>2015-10-16T08:51:55Z</time>
      </trkpt>
      <trkpt lat="49.28804" lon="-0.24941">
        <ele>7.3</ele>
        <time>2015-10-16T08:52:02Z</time>
      </trkpt>
      <trkpt lat="49.28802" lon="-0.24941">
        <ele>7.3</ele>
        <time>2015-10-16T08:52:04Z</time>
      </trkpt>
      <trkpt lat="49.28796" lon="-0.24941">
        <ele>8.2</ele>
        <time>2015-10-16T08:52:08Z</time>
      </trkpt>
      <trkpt lat="49.28749" lon="-0.24948">
        <ele>8.4</ele>
        <time>2015-10-16T08:52:48Z</time>
      </trkpt>
      <trkpt lat="49.28748" lon="-0.24948">
        <ele>8.9</ele>
        <time>2015-10-16T08:52:49Z</time>
      </trkpt>
      <trkpt lat="49.28738" lon="-0.2495">
        <ele>4.2</ele>
        <time>2015-10-16T08:52:56Z</time>
      </trkpt>
      <trkpt lat="49.2872" lon="-0.24955">
        <ele>3.7</ele>
        <time>2015-10-16T08:53:06Z</time>
      </trkpt>
      <trkpt lat="49.28718" lon="-0.24955">
        <ele>4.2</ele>
        <time>2015-10-16T08:53:07Z</time>
      </trkpt>
      <trkpt lat="49.28716" lon="-0.24956">
        <ele>4.5</ele>
        <time>2015-10-16T08:53:08Z</time>
      </trkpt>
      <trkpt lat="49.28715" lon="-0.24956">
        <ele>4.2</ele>
        <time>2015-10-16T08:53:09Z</time>
      </trkpt>
      <trkpt lat="49.287" lon="-0.24965">
        <ele>3.6</ele>
        <time>2015-10-16T08:53:19Z</time>
      </trkpt>
      <trkpt lat="49.28695" lon="-0.24969">
        <ele>3.6</ele>
        <time>2015-10-16T08:53:23Z</time>
      </trkpt>
      <trkpt lat="49.28692" lon="-0.24973">
        <ele>3.8</ele>
        <time>2015-10-16T08:53:26Z</time>
      </trkpt>
      <trkpt lat="49.28685" lon="-0.24982">
        <ele>6</ele>
        <time>2015-10-16T08:53:34Z</time>
      </trkpt>
      <trkpt lat="49.28684" lon="-0.24983">
        <ele>5.9</ele>
        <time>2015-10-16T08:53:35Z</time>
      </trkpt>
      <trkpt lat="49.28679" lon="-0.24986">
        <ele>2.4</ele>
        <time>2015-10-16T08:53:39Z</time>
      </trkpt>
      <trkpt lat="49.28677" lon="-0.24987">
        <ele>1.7</ele>
        <time>2015-10-16T08:53:40Z</time>
      </trkpt>
      <trkpt lat="49.28675" lon="-0.24994">
        <ele>3.8</ele>
        <time>2015-10-16T08:53:43Z</time>
      </trkpt>
      <trkpt lat="49.28673" lon="-0.25001">
        <ele>5.8</ele>
        <time>2015-10-16T08:53:46Z</time>
      </trkpt>
      <trkpt lat="49.28673" lon="-0.25003">
        <ele>6.1</ele>
        <time>2015-10-16T08:53:47Z</time>
      </trkpt>
      <trkpt lat="49.28672" lon="-0.25007">
        <ele>5.2</ele>
        <time>2015-10-16T08:53:49Z</time>
      </trkpt>
      <trkpt lat="49.28672" lon="-0.2501">
        <ele>4.8</ele>
        <time>2015-10-16T08:53:50Z</time>
      </trkpt>
      <trkpt lat="49.28673" lon="-0.25016">
        <ele>5.2</ele>
        <time>2015-10-16T08:53:53Z</time>
      </trkpt>
      <trkpt lat="49.28674" lon="-0.25018">
        <ele>5.5</ele>
        <time>2015-10-16T08:53:54Z</time>
      </trkpt>
      <trkpt lat="49.28675" lon="-0.2502">
        <ele>5.7</ele>
        <time>2015-10-16T08:53:55Z</time>
      </trkpt>
      <trkpt lat="49.28675" lon="-0.25023">
        <ele>5.9</ele>
        <time>2015-10-16T08:53:56Z</time>
      </trkpt>
      <trkpt lat="49.28676" lon="-0.25025">
        <ele>6</ele>
        <time>2015-10-16T08:53:57Z</time>
      </trkpt>
      <trkpt lat="49.28676" lon="-0.25027">
        <ele>6.1</ele>
        <time>2015-10-16T08:53:58Z</time>
      </trkpt>
      <trkpt lat="49.28677" lon="-0.25033">
        <ele>6.6</ele>
        <time>2015-10-16T08:54:01Z</time>
      </trkpt>
      <trkpt lat="49.28718" lon="-0.25214">
        <ele>5.8</ele>
        <time>2015-10-16T08:55:26Z</time>
      </trkpt>
      <trkpt lat="49.28718" lon="-0.25216">
        <ele>5.7</ele>
        <time>2015-10-16T08:55:27Z</time>
      </trkpt>
      <trkpt lat="49.28724" lon="-0.25238">
        <ele>6.2</ele>
        <time>2015-10-16T08:55:39Z</time>
      </trkpt>
      <trkpt lat="49.28724" lon="-0.25244">
        <ele>4.6</ele>
        <time>2015-10-16T08:55:42Z</time>
      </trkpt>
      <trkpt lat="49.28729" lon="-0.2526">
        <ele>1.4</ele>
        <time>2015-10-16T08:55:53Z</time>
      </trkpt>
      <trkpt lat="49.28731" lon="-0.2526">
        <ele>2.2</ele>
        <time>2015-10-16T08:55:54Z</time>
      </trkpt>
      <trkpt lat="49.28732" lon="-0.2526">
        <ele>2.9</ele>
        <time>2015-10-16T08:55:55Z</time>
      </trkpt>
      <trkpt lat="49.28733" lon="-0.25259">
        <ele>3.3</ele>
        <time>2015-10-16T08:55:56Z</time>
      </trkpt>
      <trkpt lat="49.28733" lon="-0.25258">
        <ele>3.9</ele>
        <time>2015-10-16T08:55:57Z</time>
      </trkpt>
      <trkpt lat="49.28734" lon="-0.25257">
        <ele>4.3</ele>
        <time>2015-10-16T08:55:58Z</time>
      </trkpt>
      <trkpt lat="49.28735" lon="-0.25256">
        <ele>4.6</ele>
        <time>2015-10-16T08:55:59Z</time>
      </trkpt>
      <trkpt lat="49.28736" lon="-0.25254">
        <ele>3.8</ele>
        <time>2015-10-16T08:56:00Z</time>
      </trkpt>
      <trkpt lat="49.28737" lon="-0.25252">
        <ele>3.2</ele>
        <time>2015-10-16T08:56:01Z</time>
      </trkpt>
      <trkpt lat="49.28737" lon="-0.2525">
        <ele>2.8</ele>
        <time>2015-10-16T08:56:02Z</time>
      </trkpt>
      <trkpt lat="49.28738" lon="-0.25249">
        <ele>3.7</ele>
        <time>2015-10-16T08:56:03Z</time>
      </trkpt>
      <trkpt lat="49.28739" lon="-0.25247">
        <ele>4.3</ele>
        <time>2015-10-16T08:56:04Z</time>
      </trkpt>
      <trkpt lat="49.28739" lon="-0.25245">
        <ele>4.8</ele>
        <time>2015-10-16T08:56:05Z</time>
      </trkpt>
      <trkpt lat="49.2874" lon="-0.25244">
        <ele>4.6</ele>
        <time>2015-10-16T08:56:06Z</time>
      </trkpt>
      <trkpt lat="49.2874" lon="-0.25243">
        <ele>4.4</ele>
        <time>2015-10-16T08:56:07Z</time>
      </trkpt>
      <trkpt lat="49.28739" lon="-0.25242">
        <ele>5</ele>
        <time>2015-10-16T08:56:09Z</time>
      </trkpt>
      <trkpt lat="49.2874" lon="-0.25239">
        <ele>7.6</ele>
        <time>2015-10-16T08:56:14Z</time>
      </trkpt>
      <trkpt lat="49.2874" lon="-0.25239">
        <ele>7.9</ele>
        <time>2015-10-16T08:56:15Z</time>
      </trkpt>
      <trkpt lat="49.2874" lon="-0.25239">
        <ele>8.2</ele>
        <time>2015-10-16T08:56:16Z</time>
      </trkpt>
      <trkpt lat="49.2874" lon="-0.25239">
        <ele>8.3</ele>
        <time>2015-10-16T08:56:17Z</time>
      </trkpt>
      <trkpt lat="49.2874" lon="-0.25239">
        <ele>8.3</ele>
        <time>2015-10-16T08:56:18Z</time>
      </trkpt>
      <trkpt lat="49.2874" lon="-0.25239">
        <ele>8.2</ele>
        <time>2015-10-16T08:56:19Z</time>
      </trkpt>
      <trkpt lat="49.2874" lon="-0.25239">
        <ele>8.2</ele>
        <time>2015-10-16T08:56:20Z</time>
      </trkpt>
      <trkpt lat="49.2874" lon="-0.25239">
        <ele>7.5</ele>
        <time>2015-10-16T08:56:21Z</time>
      </trkpt>
      <trkpt lat="49.2874" lon="-0.25239">
        <ele>7</ele>
        <time>2015-10-16T08:56:22Z</time>
      </trkpt>
      <trkpt lat="49.2874" lon="-0.25238">
        <ele>6.6</ele>
        <time>2015-10-16T08:56:23Z</time>
      </trkpt>
      <trkpt lat="49.2874" lon="-0.25238">
        <ele>6.4</ele>
        <time>2015-10-16T08:56:24Z</time>
      </trkpt>
      <trkpt lat="49.2874" lon="-0.25238">
        <ele>6.2</ele>
        <time>2015-10-16T08:56:25Z</time>
      </trkpt>
      <trkpt lat="49.2874" lon="-0.25238">
        <ele>6</ele>
        <time>2015-10-16T08:56:26Z</time>
      </trkpt>
      <trkpt lat="49.2874" lon="-0.25238">
        <ele>5.9</ele>
        <time>2015-10-16T08:56:27Z</time>
      </trkpt>
      <trkpt lat="49.2874" lon="-0.25238">
        <ele>5.8</ele>
        <time>2015-10-16T08:56:28Z</time>
      </trkpt>
      <trkpt lat="49.2874" lon="-0.25238">
        <ele>5.7</ele>
        <time>2015-10-16T08:56:29Z</time>
      </trkpt>
      <trkpt lat="49.2874" lon="-0.25237">
        <ele>5.3</ele>
        <time>2015-10-16T08:56:30Z</time>
      </trkpt>
      <trkpt lat="49.2874" lon="-0.25237">
        <ele>4.9</ele>
        <time>2015-10-16T08:56:31Z</time>
      </trkpt>
      <trkpt lat="49.2874" lon="-0.25237">
        <ele>4.7</ele>
        <time>2015-10-16T08:56:32Z</time>
      </trkpt>
      <trkpt lat="49.2874" lon="-0.25237">
        <ele>4.5</ele>
        <time>2015-10-16T08:56:33Z</time>
      </trkpt>
      <trkpt lat="49.2874" lon="-0.25237">
        <ele>4.3</ele>
        <time>2015-10-16T08:56:34Z</time>
      </trkpt>
      <trkpt lat="49.2874" lon="-0.25237">
        <ele>4.2</ele>
        <time>2015-10-16T08:56:35Z</time>
      </trkpt>
      <trkpt lat="49.2874" lon="-0.25237">
        <ele>3.9</ele>
        <time>2015-10-16T08:56:36Z</time>
      </trkpt>
      <trkpt lat="49.2874" lon="-0.25237">
        <ele>3.7</ele>
        <time>2015-10-16T08:56:37Z</time>
      </trkpt>
      <trkpt lat="49.2874" lon="-0.25237">
        <ele>3.5</ele>
        <time>2015-10-16T08:56:38Z</time>
      </trkpt>
      <trkpt lat="49.2874" lon="-0.25237">
        <ele>3.4</ele>
        <time>2015-10-16T08:56:39Z</time>
      </trkpt>
      <trkpt lat="49.2874" lon="-0.25237">
        <ele>3.3</ele>
        <time>2015-10-16T08:56:40Z</time>
      </trkpt>
      <trkpt lat="49.2874" lon="-0.25237">
        <ele>3.3</ele>
        <time>2015-10-16T08:56:41Z</time>
      </trkpt>
      <trkpt lat="49.2874" lon="-0.25237">
        <ele>3</ele>
        <time>2015-10-16T08:56:42Z</time>
      </trkpt>
      <trkpt lat="49.2874" lon="-0.25236">
        <ele>2.8</ele>
        <time>2015-10-16T08:56:43Z</time>
      </trkpt>
      <trkpt lat="49.2874" lon="-0.25236">
        <ele>2.7</ele>
        <time>2015-10-16T08:56:44Z</time>
      </trkpt>
      <trkpt lat="49.2874" lon="-0.25236">
        <ele>3.2</ele>
        <time>2015-10-16T08:56:45Z</time>
      </trkpt>
      <trkpt lat="49.2874" lon="-0.25236">
        <ele>3.6</ele>
        <time>2015-10-16T08:56:47Z</time>
      </trkpt>
      <trkpt lat="49.2874" lon="-0.25236">
        <ele>3.4</ele>
        <time>2015-10-16T08:56:48Z</time>
      </trkpt>
      <trkpt lat="49.28741" lon="-0.25236">
        <ele>3.4</ele>
        <time>2015-10-16T08:56:51Z</time>
      </trkpt>
      <trkpt lat="49.28712" lon="-0.25224">
        <ele>7.3</ele>
        <time>2015-10-16T09:55:49Z</time>
      </trkpt>
      <trkpt lat="49.28712" lon="-0.25224">
        <ele>7.3</ele>
        <time>2015-10-16T09:55:50Z</time>
      </trkpt>
      <trkpt lat="49.28709" lon="-0.25215">
        <ele>7.7</ele>
        <time>2015-10-16T09:55:51Z</time>
      </trkpt>
      <trkpt lat="49.28709" lon="-0.25215">
        <ele>8</ele>
        <time>2015-10-16T09:55:52Z</time>
      </trkpt>
      <trkpt lat="49.28709" lon="-0.25215">
        <ele>8.2</ele>
        <time>2015-10-16T09:55:53Z</time>
      </trkpt>
      <trkpt lat="49.28709" lon="-0.25215">
        <ele>8.4</ele>
        <time>2015-10-16T09:55:54Z</time>
      </trkpt>
      <trkpt lat="49.28705" lon="-0.25203">
        <ele>8.3</ele>
        <time>2015-10-16T09:55:55Z</time>
      </trkpt>
      <trkpt lat="49.28702" lon="-0.25191">
        <ele>7.4</ele>
        <time>2015-10-16T09:55:59Z</time>
      </trkpt>
      <trkpt lat="49.28701" lon="-0.25184">
        <ele>7.6</ele>
        <time>2015-10-16T09:56:03Z</time>
      </trkpt>
      <trkpt lat="49.287" lon="-0.25177">
        <ele>7.8</ele>
        <time>2015-10-16T09:56:07Z</time>
      </trkpt>
      <trkpt lat="49.287" lon="-0.25175">
        <ele>7.8</ele>
        <time>2015-10-16T09:56:08Z</time>
      </trkpt>
      <trkpt lat="49.28691" lon="-0.25136">
        <ele>8.2</ele>
        <time>2015-10-16T09:56:33Z</time>
      </trkpt>
      <trkpt lat="49.28691" lon="-0.25135">
        <ele>8.3</ele>
        <time>2015-10-16T09:56:34Z</time>
      </trkpt>
      <trkpt lat="49.28689" lon="-0.25133">
        <ele>8.3</ele>
        <time>2015-10-16T09:56:36Z</time>
      </trkpt>
      <trkpt lat="49.28689" lon="-0.25131">
        <ele>8.3</ele>
        <time>2015-10-16T09:56:37Z</time>
      </trkpt>
      <trkpt lat="49.28687" lon="-0.25125">
        <ele>8.3</ele>
        <time>2015-10-16T09:56:41Z</time>
      </trkpt>
      <trkpt lat="49.28687" lon="-0.25122">
        <ele>8.3</ele>
        <time>2015-10-16T09:56:43Z</time>
      </trkpt>
      <trkpt lat="49.28687" lon="-0.25112">
        <ele>8.3</ele>
        <time>2015-10-16T09:56:50Z</time>
      </trkpt>
      <trkpt lat="49.28687" lon="-0.25108">
        <ele>8.3</ele>
        <time>2015-10-16T09:56:53Z</time>
      </trkpt>
      <trkpt lat="49.28686" lon="-0.25107">
        <ele>8.3</ele>
        <time>2015-10-16T09:56:55Z</time>
      </trkpt>
      <trkpt lat="49.28686" lon="-0.25107">
        <ele>8.3</ele>
        <time>2015-10-16T09:56:56Z</time>
      </trkpt>
      <trkpt lat="49.28686" lon="-0.25107">
        <ele>8.3</ele>
        <time>2015-10-16T09:56:57Z</time>
      </trkpt>
      <trkpt lat="49.28686" lon="-0.25107">
        <ele>8.3</ele>
        <time>2015-10-16T09:56:58Z</time>
      </trkpt>
      <trkpt lat="49.28686" lon="-0.25107">
        <ele>8.3</ele>
        <time>2015-10-16T09:56:59Z</time>
      </trkpt>
      <trkpt lat="49.28686" lon="-0.25107">
        <ele>8.3</ele>
        <time>2015-10-16T09:57:00Z</time>
      </trkpt>
      <trkpt lat="49.28685" lon="-0.25107">
        <ele>8.3</ele>
        <time>2015-10-16T09:57:01Z</time>
      </trkpt>
      <trkpt lat="49.28685" lon="-0.25106">
        <ele>8.3</ele>
        <time>2015-10-16T09:57:05Z</time>
      </trkpt>
      <trkpt lat="49.28684" lon="-0.25104">
        <ele>8.3</ele>
        <time>2015-10-16T09:57:07Z</time>
      </trkpt>
      <trkpt lat="49.28683" lon="-0.25099">
        <ele>8.3</ele>
        <time>2015-10-16T09:57:11Z</time>
      </trkpt>
      <trkpt lat="49.28682" lon="-0.25098">
        <ele>8.3</ele>
        <time>2015-10-16T09:57:12Z</time>
      </trkpt>
      <trkpt lat="49.28673" lon="-0.2505">
        <ele>8.5</ele>
        <time>2015-10-16T09:57:46Z</time>
      </trkpt>
      <trkpt lat="49.28673" lon="-0.25048">
        <ele>8.5</ele>
        <time>2015-10-16T09:57:47Z</time>
      </trkpt>
      <trkpt lat="49.28671" lon="-0.2503">
        <ele>8.6</ele>
        <time>2015-10-16T09:57:58Z</time>
      </trkpt>
      <trkpt lat="49.28671" lon="-0.25023">
        <ele>8.6</ele>
        <time>2015-10-16T09:58:03Z</time>
      </trkpt>
      <trkpt lat="49.28671" lon="-0.25022">
        <ele>8.6</ele>
        <time>2015-10-16T09:58:04Z</time>
      </trkpt>
      <trkpt lat="49.2867" lon="-0.25022">
        <ele>8.6</ele>
        <time>2015-10-16T09:58:05Z</time>
      </trkpt>
      <trkpt lat="49.2867" lon="-0.25022">
        <ele>8.6</ele>
        <time>2015-10-16T09:58:06Z</time>
      </trkpt>
      <trkpt lat="49.2867" lon="-0.25022">
        <ele>8.6</ele>
        <time>2015-10-16T09:58:07Z</time>
      </trkpt>
      <trkpt lat="49.2867" lon="-0.25022">
        <ele>8.6</ele>
        <time>2015-10-16T09:58:08Z</time>
      </trkpt>
      <trkpt lat="49.2867" lon="-0.25022">
        <ele>8.6</ele>
        <time>2015-10-16T09:58:09Z</time>
      </trkpt>
      <trkpt lat="49.2867" lon="-0.25022">
        <ele>8.6</ele>
        <time>2015-10-16T09:58:10Z</time>
      </trkpt>
      <trkpt lat="49.2867" lon="-0.25022">
        <ele>8.6</ele>
        <time>2015-10-16T09:58:16Z</time>
      </trkpt>
      <trkpt lat="49.28671" lon="-0.25021">
        <ele>8.6</ele>
        <time>2015-10-16T09:58:25Z</time>
      </trkpt>
      <trkpt lat="49.28672" lon="-0.25002">
        <ele>8.7</ele>
        <time>2015-10-16T09:58:37Z</time>
      </trkpt>
      <trkpt lat="49.28672" lon="-0.24999">
        <ele>8.7</ele>
        <time>2015-10-16T09:58:39Z</time>
      </trkpt>
      <trkpt lat="49.28671" lon="-0.24996">
        <ele>8.7</ele>
        <time>2015-10-16T09:58:41Z</time>
      </trkpt>
      <trkpt lat="49.28668" lon="-0.24993">
        <ele>8.7</ele>
        <time>2015-10-16T09:58:44Z</time>
      </trkpt>
      <trkpt lat="49.28666" lon="-0.24992">
        <ele>8.6</ele>
        <time>2015-10-16T09:58:47Z</time>
      </trkpt>
      <trkpt lat="49.28664" lon="-0.24992">
        <ele>8.6</ele>
        <time>2015-10-16T09:58:48Z</time>
      </trkpt>
      <trkpt lat="49.28663" lon="-0.24992">
        <ele>8.6</ele>
        <time>2015-10-16T09:58:49Z</time>
      </trkpt>
      <trkpt lat="49.28662" lon="-0.24992">
        <ele>8.6</ele>
        <time>2015-10-16T09:58:50Z</time>
      </trkpt>
      <trkpt lat="49.28661" lon="-0.24991">
        <ele>8.5</ele>
        <time>2015-10-16T09:58:51Z</time>
      </trkpt>
      <trkpt lat="49.28653" lon="-0.24992">
        <ele>8.4</ele>
        <time>2015-10-16T09:58:58Z</time>
      </trkpt>
      <trkpt lat="49.28642" lon="-0.24994">
        <ele>8.2</ele>
        <time>2015-10-16T09:59:07Z</time>
      </trkpt>
      <trkpt lat="49.28641" lon="-0.24993">
        <ele>8.2</ele>
        <time>2015-10-16T09:59:08Z</time>
      </trkpt>
      <trkpt lat="49.2864" lon="-0.24991">
        <ele>8.1</ele>
        <time>2015-10-16T09:59:09Z</time>
      </trkpt>
      <trkpt lat="49.28639" lon="-0.2499">
        <ele>8.1</ele>
        <time>2015-10-16T09:59:10Z</time>
      </trkpt>
      <trkpt lat="49.28638" lon="-0.24988">
        <ele>8.1</ele>
        <time>2015-10-16T09:59:11Z</time>
      </trkpt>
      <trkpt lat="49.28638" lon="-0.24986">
        <ele>8</ele>
        <time>2015-10-16T09:59:12Z</time>
      </trkpt>
      <trkpt lat="49.28637" lon="-0.24984">
        <ele>8</ele>
        <time>2015-10-16T09:59:13Z</time>
      </trkpt>
      <trkpt lat="49.28637" lon="-0.24982">
        <ele>8</ele>
        <time>2015-10-16T09:59:14Z</time>
      </trkpt>
      <trkpt lat="49.28636" lon="-0.24981">
        <ele>7.9</ele>
        <time>2015-10-16T09:59:15Z</time>
      </trkpt>
      <trkpt lat="49.28635" lon="-0.24979">
        <ele>7.9</ele>
        <time>2015-10-16T09:59:16Z</time>
      </trkpt>
      <trkpt lat="49.2863" lon="-0.24973">
        <ele>7.7</ele>
        <time>2015-10-16T09:59:21Z</time>
      </trkpt>
      <trkpt lat="49.28626" lon="-0.24969">
        <ele>7.5</ele>
        <time>2015-10-16T09:59:25Z</time>
      </trkpt>
      <trkpt lat="49.28622" lon="-0.24967">
        <ele>7.2</ele>
        <time>2015-10-16T09:59:29Z</time>
      </trkpt>
      <trkpt lat="49.28614" lon="-0.24964">
        <ele>6.8</ele>
        <time>2015-10-16T09:59:36Z</time>
      </trkpt>
      <trkpt lat="49.28612" lon="-0.24964">
        <ele>6.7</ele>
        <time>2015-10-16T09:59:37Z</time>
      </trkpt>
      <trkpt lat="49.28606" lon="-0.24967">
        <ele>6.5</ele>
        <time>2015-10-16T09:59:42Z</time>
      </trkpt>
      <trkpt lat="49.28563" lon="-0.24988">
        <ele>4.5</ele>
        <time>2015-10-16T10:00:15Z</time>
      </trkpt>
      <trkpt lat="49.28562" lon="-0.24988">
        <ele>4.4</ele>
        <time>2015-10-16T10:00:16Z</time>
      </trkpt>
      <trkpt lat="49.28551" lon="-0.24994">
        <ele>3.5</ele>
        <time>2015-10-16T10:00:24Z</time>
      </trkpt>
      <trkpt lat="49.28517" lon="-0.25006">
        <ele>1.1</ele>
        <time>2015-10-16T10:00:52Z</time>
      </trkpt>
      <trkpt lat="49.28517" lon="-0.25006">
        <ele>1.1</ele>
        <time>2015-10-16T10:00:53Z</time>
      </trkpt>
      <trkpt lat="49.28517" lon="-0.25006">
        <ele>1</ele>
        <time>2015-10-16T10:00:54Z</time>
      </trkpt>
      <trkpt lat="49.28517" lon="-0.25006">
        <ele>1</ele>
        <time>2015-10-16T10:00:55Z</time>
      </trkpt>
      <trkpt lat="49.28517" lon="-0.25005">
        <ele>1</ele>
        <time>2015-10-16T10:00:56Z</time>
      </trkpt>
      <trkpt lat="49.28517" lon="-0.25005">
        <ele>1</ele>
        <time>2015-10-16T10:00:57Z</time>
      </trkpt>
      <trkpt lat="49.28517" lon="-0.25005">
        <ele>1</ele>
        <time>2015-10-16T10:00:58Z</time>
      </trkpt>
      <trkpt lat="49.28516" lon="-0.25005">
        <ele>0.9</ele>
        <time>2015-10-16T10:00:59Z</time>
      </trkpt>
      <trkpt lat="49.28515" lon="-0.25005">
        <ele>0.9</ele>
        <time>2015-10-16T10:01:00Z</time>
      </trkpt>
      <trkpt lat="49.28501" lon="-0.25007">
        <ele>0.7</ele>
        <time>2015-10-16T10:01:11Z</time>
      </trkpt>
      <trkpt lat="49.28392" lon="-0.25033">
        <ele>3.4</ele>
        <time>2015-10-16T10:02:34Z</time>
      </trkpt>
      <trkpt lat="49.28391" lon="-0.25033">
        <ele>3.5</ele>
        <time>2015-10-16T10:02:35Z</time>
      </trkpt>
      <trkpt lat="49.28294" lon="-0.25053">
        <ele>3.9</ele>
        <time>2015-10-16T10:03:51Z</time>
      </trkpt>
      <trkpt lat="49.28277" lon="-0.25047">
        <ele>3.9</ele>
        <time>2015-10-16T10:04:05Z</time>
      </trkpt>
      <trkpt lat="49.28276" lon="-0.25045">
        <ele>5.1</ele>
        <time>2015-10-16T10:04:06Z</time>
      </trkpt>
      <trkpt lat="49.28275" lon="-0.25044">
        <ele>6.1</ele>
        <time>2015-10-16T10:04:07Z</time>
      </trkpt>
      <trkpt lat="49.28273" lon="-0.25038">
        <ele>7.3</ele>
        <time>2015-10-16T10:04:10Z</time>
      </trkpt>
      <trkpt lat="49.28271" lon="-0.25026">
        <ele>7.3</ele>
        <time>2015-10-16T10:04:16Z</time>
      </trkpt>
      <trkpt lat="49.28266" lon="-0.25006">
        <ele>7.2</ele>
        <time>2015-10-16T10:04:26Z</time>
      </trkpt>
      <trkpt lat="49.28266" lon="-0.25005">
        <ele>7.2</ele>
        <time>2015-10-16T10:04:27Z</time>
      </trkpt>
      <trkpt lat="49.28245" lon="-0.24953">
        <ele>6.5</ele>
        <time>2015-10-16T10:04:58Z</time>
      </trkpt>
      <trkpt lat="49.28243" lon="-0.24951">
        <ele>6.7</ele>
        <time>2015-10-16T10:04:59Z</time>
      </trkpt>
      <trkpt lat="49.28223" lon="-0.24932">
        <ele>6.9</ele>
        <time>2015-10-16T10:05:21Z</time>
      </trkpt>
      <trkpt lat="49.28223" lon="-0.24932">
        <ele>6.3</ele>
        <time>2015-10-16T10:05:23Z</time>
      </trkpt>
      <trkpt lat="49.28223" lon="-0.24932">
        <ele>7.2</ele>
        <time>2015-10-16T10:05:24Z</time>
      </trkpt>
      <trkpt lat="49.28223" lon="-0.24932">
        <ele>7.8</ele>
        <time>2015-10-16T10:05:25Z</time>
      </trkpt>
      <trkpt lat="49.28223" lon="-0.24932">
        <ele>8.3</ele>
        <time>2015-10-16T10:05:26Z</time>
      </trkpt>
      <trkpt lat="49.28223" lon="-0.24932">
        <ele>8.6</ele>
        <time>2015-10-16T10:05:27Z</time>
      </trkpt>
      <trkpt lat="49.28223" lon="-0.24932">
        <ele>8.9</ele>
        <time>2015-10-16T10:05:28Z</time>
      </trkpt>
      <trkpt lat="49.28223" lon="-0.24932">
        <ele>9.1</ele>
        <time>2015-10-16T10:05:29Z</time>
      </trkpt>
      <trkpt lat="49.28223" lon="-0.24932">
        <ele>8.8</ele>
        <time>2015-10-16T10:05:30Z</time>
      </trkpt>
      <trkpt lat="49.28223" lon="-0.24931">
        <ele>8.6</ele>
        <time>2015-10-16T10:05:31Z</time>
      </trkpt>
      <trkpt lat="49.28223" lon="-0.24931">
        <ele>8.5</ele>
        <time>2015-10-16T10:05:32Z</time>
      </trkpt>
      <trkpt lat="49.28223" lon="-0.24931">
        <ele>8.4</ele>
        <time>2015-10-16T10:05:33Z</time>
      </trkpt>
      <trkpt lat="49.28223" lon="-0.24932">
        <ele>8.3</ele>
        <time>2015-10-16T10:05:34Z</time>
      </trkpt>
      <trkpt lat="49.28223" lon="-0.24932">
        <ele>8.2</ele>
        <time>2015-10-16T10:05:35Z</time>
      </trkpt>
      <trkpt lat="49.28223" lon="-0.24932">
        <ele>8</ele>
        <time>2015-10-16T10:05:36Z</time>
      </trkpt>
      <trkpt lat="49.28223" lon="-0.24932">
        <ele>7.8</ele>
        <time>2015-10-16T10:05:37Z</time>
      </trkpt>
      <trkpt lat="49.28223" lon="-0.24932">
        <ele>7.6</ele>
        <time>2015-10-16T10:05:38Z</time>
      </trkpt>
      <trkpt lat="49.28223" lon="-0.24932">
        <ele>7.5</ele>
        <time>2015-10-16T10:05:39Z</time>
      </trkpt>
      <trkpt lat="49.28223" lon="-0.24932">
        <ele>7.4</ele>
        <time>2015-10-16T10:05:40Z</time>
      </trkpt>
      <trkpt lat="49.28223" lon="-0.24932">
        <ele>7.4</ele>
        <time>2015-10-16T10:05:41Z</time>
      </trkpt>
      <trkpt lat="49.28223" lon="-0.24932">
        <ele>7.1</ele>
        <time>2015-10-16T10:05:42Z</time>
      </trkpt>
      <trkpt lat="49.28223" lon="-0.24932">
        <ele>6.9</ele>
        <time>2015-10-16T10:05:43Z</time>
      </trkpt>
      <trkpt lat="49.28223" lon="-0.24932">
        <ele>6.8</ele>
        <time>2015-10-16T10:05:44Z</time>
      </trkpt>
      <trkpt lat="49.28223" lon="-0.24932">
        <ele>6.7</ele>
        <time>2015-10-16T10:05:45Z</time>
      </trkpt>
      <trkpt lat="49.28223" lon="-0.24932">
        <ele>6.6</ele>
        <time>2015-10-16T10:05:46Z</time>
      </trkpt>
      <trkpt lat="49.28223" lon="-0.24932">
        <ele>6.6</ele>
        <time>2015-10-16T10:05:47Z</time>
      </trkpt>
      <trkpt lat="49.28223" lon="-0.24932">
        <ele>6.7</ele>
        <time>2015-10-16T10:05:48Z</time>
      </trkpt>
      <trkpt lat="49.28223" lon="-0.24932">
        <ele>6.8</ele>
        <time>2015-10-16T10:05:49Z</time>
      </trkpt>
      <trkpt lat="49.28224" lon="-0.24932">
        <ele>6.9</ele>
        <time>2015-10-16T10:05:50Z</time>
      </trkpt>
      <trkpt lat="49.28224" lon="-0.24932">
        <ele>6.8</ele>
        <time>2015-10-16T10:05:51Z</time>
      </trkpt>
      <trkpt lat="49.28224" lon="-0.24932">
        <ele>6.7</ele>
        <time>2015-10-16T10:05:52Z</time>
      </trkpt>
      <trkpt lat="49.28224" lon="-0.24932">
        <ele>6.6</ele>
        <time>2015-10-16T10:05:53Z</time>
      </trkpt>
      <trkpt lat="49.28223" lon="-0.24932">
        <ele>7.2</ele>
        <time>2015-10-16T10:05:54Z</time>
      </trkpt>
      <trkpt lat="49.28223" lon="-0.24932">
        <ele>7.6</ele>
        <time>2015-10-16T10:05:55Z</time>
      </trkpt>
      <trkpt lat="49.28222" lon="-0.24932">
        <ele>7.9</ele>
        <time>2015-10-16T10:05:56Z</time>
      </trkpt>
      <trkpt lat="49.28219" lon="-0.24932">
        <ele>8</ele>
        <time>2015-10-16T10:05:59Z</time>
      </trkpt>
      <trkpt lat="49.28218" lon="-0.24933">
        <ele>7.8</ele>
        <time>2015-10-16T10:06:00Z</time>
      </trkpt>
      <trkpt lat="49.28204" lon="-0.24936">
        <ele>6.3</ele>
        <time>2015-10-16T10:06:16Z</time>
      </trkpt>
      <trkpt lat="49.28204" lon="-0.24936">
        <ele>6.1</ele>
        <time>2015-10-16T10:06:17Z</time>
      </trkpt>
      <trkpt lat="49.28204" lon="-0.24936">
        <ele>6</ele>
        <time>2015-10-16T10:06:18Z</time>
      </trkpt>
      <trkpt lat="49.28204" lon="-0.24936">
        <ele>5.9</ele>
        <time>2015-10-16T10:06:19Z</time>
      </trkpt>
      <trkpt lat="49.28204" lon="-0.24936">
        <ele>5.8</ele>
        <time>2015-10-16T10:06:20Z</time>
      </trkpt>
      <trkpt lat="49.28204" lon="-0.24936">
        <ele>5.9</ele>
        <time>2015-10-16T10:06:21Z</time>
      </trkpt>
      <trkpt lat="49.28204" lon="-0.24936">
        <ele>6</ele>
        <time>2015-10-16T10:06:22Z</time>
      </trkpt>
      <trkpt lat="49.28204" lon="-0.24936">
        <ele>6.1</ele>
        <time>2015-10-16T10:06:23Z</time>
      </trkpt>
      <trkpt lat="49.28203" lon="-0.24937">
        <ele>6.8</ele>
        <time>2015-10-16T10:06:24Z</time>
      </trkpt>
      <trkpt lat="49.28203" lon="-0.24937">
        <ele>7.3</ele>
        <time>2015-10-16T10:06:25Z</time>
      </trkpt>
      <trkpt lat="49.28203" lon="-0.24938">
        <ele>7.7</ele>
        <time>2015-10-16T10:06:26Z</time>
      </trkpt>
      <trkpt lat="49.28203" lon="-0.24938">
        <ele>7.8</ele>
        <time>2015-10-16T10:06:27Z</time>
      </trkpt>
      <trkpt lat="49.28201" lon="-0.2494">
        <ele>7.9</ele>
        <time>2015-10-16T10:06:29Z</time>
      </trkpt>
      <trkpt lat="49.28195" lon="-0.24943">
        <ele>7</ele>
        <time>2015-10-16T10:06:34Z</time>
      </trkpt>
      <trkpt lat="49.28134" lon="-0.24969">
        <ele>6.7</ele>
        <time>2015-10-16T10:07:23Z</time>
      </trkpt>
      <trkpt lat="49.28133" lon="-0.24969">
        <ele>6</ele>
        <time>2015-10-16T10:07:24Z</time>
      </trkpt>
      <trkpt lat="49.28134" lon="-0.24968">
        <ele>5.1</ele>
        <time>2015-10-16T10:07:26Z</time>
      </trkpt>
      <trkpt lat="49.28134" lon="-0.24968">
        <ele>4.8</ele>
        <time>2015-10-16T10:07:27Z</time>
      </trkpt>
      <trkpt lat="49.28134" lon="-0.24967">
        <ele>4.6</ele>
        <time>2015-10-16T10:07:28Z</time>
      </trkpt>
      <trkpt lat="49.28134" lon="-0.24967">
        <ele>4.4</ele>
        <time>2015-10-16T10:07:29Z</time>
      </trkpt>
      <trkpt lat="49.28134" lon="-0.24967">
        <ele>4.7</ele>
        <time>2015-10-16T10:07:30Z</time>
      </trkpt>
      <trkpt lat="49.28134" lon="-0.24967">
        <ele>4.9</ele>
        <time>2015-10-16T10:07:31Z</time>
      </trkpt>
      <trkpt lat="49.28134" lon="-0.24968">
        <ele>5.1</ele>
        <time>2015-10-16T10:07:32Z</time>
      </trkpt>
      <trkpt lat="49.28133" lon="-0.24968">
        <ele>5.2</ele>
        <time>2015-10-16T10:07:33Z</time>
      </trkpt>
      <trkpt lat="49.28133" lon="-0.24968">
        <ele>5.3</ele>
        <time>2015-10-16T10:07:34Z</time>
      </trkpt>
      <trkpt lat="49.28133" lon="-0.24968">
        <ele>5.3</ele>
        <time>2015-10-16T10:07:35Z</time>
      </trkpt>
      <trkpt lat="49.28133" lon="-0.24968">
        <ele>5.6</ele>
        <time>2015-10-16T10:07:36Z</time>
      </trkpt>
      <trkpt lat="49.28133" lon="-0.24968">
        <ele>5.8</ele>
        <time>2015-10-16T10:07:37Z</time>
      </trkpt>
      <trkpt lat="49.28133" lon="-0.24968">
        <ele>5.9</ele>
        <time>2015-10-16T10:07:38Z</time>
      </trkpt>
      <trkpt lat="49.28133" lon="-0.24968">
        <ele>6</ele>
        <time>2015-10-16T10:07:39Z</time>
      </trkpt>
      <trkpt lat="49.28133" lon="-0.24969">
        <ele>6.1</ele>
        <time>2015-10-16T10:07:40Z</time>
      </trkpt>
      <trkpt lat="49.28133" lon="-0.24969">
        <ele>6.2</ele>
        <time>2015-10-16T10:07:41Z</time>
      </trkpt>
      <trkpt lat="49.28134" lon="-0.24969">
        <ele>7.3</ele>
        <time>2015-10-16T10:07:42Z</time>
      </trkpt>
      <trkpt lat="49.28133" lon="-0.24969">
        <ele>8.1</ele>
        <time>2015-10-16T10:07:43Z</time>
      </trkpt>
      <trkpt lat="49.28133" lon="-0.2497">
        <ele>8.7</ele>
        <time>2015-10-16T10:07:44Z</time>
      </trkpt>
      <trkpt lat="49.28133" lon="-0.2497">
        <ele>8.3</ele>
        <time>2015-10-16T10:07:45Z</time>
      </trkpt>
      <trkpt lat="49.28132" lon="-0.2497">
        <ele>8</ele>
        <time>2015-10-16T10:07:46Z</time>
      </trkpt>
      <trkpt lat="49.28131" lon="-0.2497">
        <ele>7.8</ele>
        <time>2015-10-16T10:07:47Z</time>
      </trkpt>
      <trkpt lat="49.2813" lon="-0.24971">
        <ele>7.7</ele>
        <time>2015-10-16T10:07:48Z</time>
      </trkpt>
      <trkpt lat="49.28129" lon="-0.24971">
        <ele>7.6</ele>
        <time>2015-10-16T10:07:49Z</time>
      </trkpt>
      <trkpt lat="49.28128" lon="-0.24971">
        <ele>7.5</ele>
        <time>2015-10-16T10:07:50Z</time>
      </trkpt>
      <trkpt lat="49.28126" lon="-0.24971">
        <ele>7.2</ele>
        <time>2015-10-16T10:07:51Z</time>
      </trkpt>
      <trkpt lat="49.28125" lon="-0.24972">
        <ele>7</ele>
        <time>2015-10-16T10:07:52Z</time>
      </trkpt>
      <trkpt lat="49.28124" lon="-0.24972">
        <ele>6.8</ele>
        <time>2015-10-16T10:07:53Z</time>
      </trkpt>
      <trkpt lat="49.28123" lon="-0.24972">
        <ele>6.7</ele>
        <time>2015-10-16T10:07:54Z</time>
      </trkpt>
      <trkpt lat="49.28122" lon="-0.24972">
        <ele>6.6</ele>
        <time>2015-10-16T10:07:55Z</time>
      </trkpt>
      <trkpt lat="49.28121" lon="-0.24972">
        <ele>6.6</ele>
        <time>2015-10-16T10:07:56Z</time>
      </trkpt>
      <trkpt lat="49.28114" lon="-0.24976">
        <ele>5.7</ele>
        <time>2015-10-16T10:08:02Z</time>
      </trkpt>
      <trkpt lat="49.28096" lon="-0.24981">
        <ele>4.5</ele>
        <time>2015-10-16T10:08:18Z</time>
      </trkpt>
      <trkpt lat="49.28094" lon="-0.24981">
        <ele>4.9</ele>
        <time>2015-10-16T10:08:20Z</time>
      </trkpt>
      <trkpt lat="49.28087" lon="-0.24982">
        <ele>5.1</ele>
        <time>2015-10-16T10:08:27Z</time>
      </trkpt>
      <trkpt lat="49.28086" lon="-0.24982">
        <ele>5</ele>
        <time>2015-10-16T10:08:28Z</time>
      </trkpt>
      <trkpt lat="49.28085" lon="-0.24981">
        <ele>4.9</ele>
        <time>2015-10-16T10:08:29Z</time>
      </trkpt>
      <trkpt lat="49.28085" lon="-0.2498">
        <ele>5.2</ele>
        <time>2015-10-16T10:08:31Z</time>
      </trkpt>
      <trkpt lat="49.28084" lon="-0.2498">
        <ele>5.3</ele>
        <time>2015-10-16T10:08:32Z</time>
      </trkpt>
      <trkpt lat="49.28084" lon="-0.2498">
        <ele>5.3</ele>
        <time>2015-10-16T10:08:33Z</time>
      </trkpt>
      <trkpt lat="49.28084" lon="-0.2498">
        <ele>5.4</ele>
        <time>2015-10-16T10:08:34Z</time>
      </trkpt>
      <trkpt lat="49.28084" lon="-0.2498">
        <ele>5.4</ele>
        <time>2015-10-16T10:08:35Z</time>
      </trkpt>
      <trkpt lat="49.28083" lon="-0.2498">
        <ele>5.5</ele>
        <time>2015-10-16T10:08:36Z</time>
      </trkpt>
      <trkpt lat="49.28082" lon="-0.24979">
        <ele>5.3</ele>
        <time>2015-10-16T10:08:39Z</time>
      </trkpt>
      <trkpt lat="49.28081" lon="-0.24978">
        <ele>5.2</ele>
        <time>2015-10-16T10:08:40Z</time>
      </trkpt>
      <trkpt lat="49.28081" lon="-0.24978">
        <ele>5</ele>
        <time>2015-10-16T10:08:41Z</time>
      </trkpt>
      <trkpt lat="49.2808" lon="-0.24978">
        <ele>5</ele>
        <time>2015-10-16T10:08:42Z</time>
      </trkpt>
      <trkpt lat="49.2808" lon="-0.24977">
        <ele>4.9</ele>
        <time>2015-10-16T10:08:43Z</time>
      </trkpt>
      <trkpt lat="49.2808" lon="-0.24977">
        <ele>4.9</ele>
        <time>2015-10-16T10:08:44Z</time>
      </trkpt>
      <trkpt lat="49.28079" lon="-0.24977">
        <ele>4.4</ele>
        <time>2015-10-16T10:08:45Z</time>
      </trkpt>
      <trkpt lat="49.28079" lon="-0.24976">
        <ele>3.8</ele>
        <time>2015-10-16T10:08:47Z</time>
      </trkpt>
      <trkpt lat="49.28079" lon="-0.24976">
        <ele>4.7</ele>
        <time>2015-10-16T10:08:48Z</time>
      </trkpt>
      <trkpt lat="49.28078" lon="-0.24975">
        <ele>5.3</ele>
        <time>2015-10-16T10:08:49Z</time>
      </trkpt>
      <trkpt lat="49.28078" lon="-0.24975">
        <ele>5.8</ele>
        <time>2015-10-16T10:08:50Z</time>
      </trkpt>
      <trkpt lat="49.28078" lon="-0.24975">
        <ele>5.9</ele>
        <time>2015-10-16T10:08:51Z</time>
      </trkpt>
      <trkpt lat="49.28078" lon="-0.24975">
        <ele>6</ele>
        <time>2015-10-16T10:08:52Z</time>
      </trkpt>
      <trkpt lat="49.28078" lon="-0.24974">
        <ele>6.1</ele>
        <time>2015-10-16T10:08:53Z</time>
      </trkpt>
      <trkpt lat="49.28078" lon="-0.24974">
        <ele>6.2</ele>
        <time>2015-10-16T10:08:54Z</time>
      </trkpt>
      <trkpt lat="49.28078" lon="-0.24974">
        <ele>6.2</ele>
        <time>2015-10-16T10:08:55Z</time>
      </trkpt>
      <trkpt lat="49.28077" lon="-0.24974">
        <ele>6.3</ele>
        <time>2015-10-16T10:08:56Z</time>
      </trkpt>
      <trkpt lat="49.28077" lon="-0.24974">
        <ele>6.3</ele>
        <time>2015-10-16T10:08:57Z</time>
      </trkpt>
      <trkpt lat="49.28077" lon="-0.24973">
        <ele>6.3</ele>
        <time>2015-10-16T10:08:58Z</time>
      </trkpt>
      <trkpt lat="49.28077" lon="-0.24973">
        <ele>6.3</ele>
        <time>2015-10-16T10:08:59Z</time>
      </trkpt>
      <trkpt lat="49.28077" lon="-0.24973">
        <ele>5.7</ele>
        <time>2015-10-16T10:09:00Z</time>
      </trkpt>
      <trkpt lat="49.28077" lon="-0.24973">
        <ele>5.3</ele>
        <time>2015-10-16T10:09:01Z</time>
      </trkpt>
      <trkpt lat="49.28077" lon="-0.24973">
        <ele>4.9</ele>
        <time>2015-10-16T10:09:02Z</time>
      </trkpt>
      <trkpt lat="49.28076" lon="-0.24973">
        <ele>5.9</ele>
        <time>2015-10-16T10:09:04Z</time>
      </trkpt>
      <trkpt lat="49.28076" lon="-0.24973">
        <ele>6.2</ele>
        <time>2015-10-16T10:09:05Z</time>
      </trkpt>
      <trkpt lat="49.28076" lon="-0.24973">
        <ele>6.3</ele>
        <time>2015-10-16T10:09:06Z</time>
      </trkpt>
      <trkpt lat="49.28075" lon="-0.24973">
        <ele>6.3</ele>
        <time>2015-10-16T10:09:07Z</time>
      </trkpt>
      <trkpt lat="49.28075" lon="-0.24973">
        <ele>6.3</ele>
        <time>2015-10-16T10:09:08Z</time>
      </trkpt>
      <trkpt lat="49.28074" lon="-0.24973">
        <ele>4.9</ele>
        <time>2015-10-16T10:09:11Z</time>
      </trkpt>
      <trkpt lat="49.28073" lon="-0.24974">
        <ele>5.5</ele>
        <time>2015-10-16T10:09:12Z</time>
      </trkpt>
      <trkpt lat="49.28072" lon="-0.24974">
        <ele>5.9</ele>
        <time>2015-10-16T10:09:13Z</time>
      </trkpt>
      <trkpt lat="49.28071" lon="-0.24974">
        <ele>6.2</ele>
        <time>2015-10-16T10:09:14Z</time>
      </trkpt>
      <trkpt lat="49.28069" lon="-0.24974">
        <ele>6.1</ele>
        <time>2015-10-16T10:09:15Z</time>
      </trkpt>
      <trkpt lat="49.28067" lon="-0.24974">
        <ele>5.9</ele>
        <time>2015-10-16T10:09:16Z</time>
      </trkpt>
      <trkpt lat="49.28065" lon="-0.24974">
        <ele>5.8</ele>
        <time>2015-10-16T10:09:17Z</time>
      </trkpt>
      <trkpt lat="49.28062" lon="-0.24975">
        <ele>5.8</ele>
        <time>2015-10-16T10:09:18Z</time>
      </trkpt>
      <trkpt lat="49.28059" lon="-0.24976">
        <ele>5.7</ele>
        <time>2015-10-16T10:09:19Z</time>
      </trkpt>
      <trkpt lat="49.28055" lon="-0.24977">
        <ele>5.7</ele>
        <time>2015-10-16T10:09:20Z</time>
      </trkpt>
      <trkpt lat="49.28052" lon="-0.24979">
        <ele>5.8</ele>
        <time>2015-10-16T10:09:21Z</time>
      </trkpt>
      <trkpt lat="49.28048" lon="-0.2498">
        <ele>6</ele>
        <time>2015-10-16T10:09:22Z</time>
      </trkpt>
      <trkpt lat="49.28045" lon="-0.24982">
        <ele>6.1</ele>
        <time>2015-10-16T10:09:23Z</time>
      </trkpt>
      <trkpt lat="49.28043" lon="-0.24982">
        <ele>5.5</ele>
        <time>2015-10-16T10:09:24Z</time>
      </trkpt>
      <trkpt lat="49.28041" lon="-0.24983">
        <ele>5.1</ele>
        <time>2015-10-16T10:09:25Z</time>
      </trkpt>
      <trkpt lat="49.28039" lon="-0.24982">
        <ele>4.8</ele>
        <time>2015-10-16T10:09:26Z</time>
      </trkpt>
      <trkpt lat="49.28037" lon="-0.24982">
        <ele>4.4</ele>
        <time>2015-10-16T10:09:27Z</time>
      </trkpt>
      <trkpt lat="49.28035" lon="-0.24981">
        <ele>4</ele>
        <time>2015-10-16T10:09:28Z</time>
      </trkpt>
      <trkpt lat="49.28034" lon="-0.24981">
        <ele>3.8</ele>
        <time>2015-10-16T10:09:29Z</time>
      </trkpt>
      <trkpt lat="49.28032" lon="-0.2498">
        <ele>4.4</ele>
        <time>2015-10-16T10:09:30Z</time>
      </trkpt>
      <trkpt lat="49.28031" lon="-0.24979">
        <ele>4.9</ele>
        <time>2015-10-16T10:09:31Z</time>
      </trkpt>
      <trkpt lat="49.2803" lon="-0.24978">
        <ele>5.3</ele>
        <time>2015-10-16T10:09:32Z</time>
      </trkpt>
      <trkpt lat="49.28029" lon="-0.24976">
        <ele>4.7</ele>
        <time>2015-10-16T10:09:33Z</time>
      </trkpt>
      <trkpt lat="49.28026" lon="-0.24973">
        <ele>4.4</ele>
        <time>2015-10-16T10:09:36Z</time>
      </trkpt>
      <trkpt lat="49.28026" lon="-0.24972">
        <ele>4.7</ele>
        <time>2015-10-16T10:09:37Z</time>
      </trkpt>
      <trkpt lat="49.28023" lon="-0.24964">
        <ele>5.2</ele>
        <time>2015-10-16T10:09:51Z</time>
      </trkpt>
      <trkpt lat="49.28023" lon="-0.24964">
        <ele>5.1</ele>
        <time>2015-10-16T10:09:52Z</time>
      </trkpt>
      <trkpt lat="49.28022" lon="-0.24964">
        <ele>5</ele>
        <time>2015-10-16T10:09:53Z</time>
      </trkpt>
      <trkpt lat="49.28023" lon="-0.24961">
        <ele>5.8</ele>
        <time>2015-10-16T10:09:57Z</time>
      </trkpt>
      <trkpt lat="49.28023" lon="-0.24961">
        <ele>6.1</ele>
        <time>2015-10-16T10:09:58Z</time>
      </trkpt>
      <trkpt lat="49.28024" lon="-0.2496">
        <ele>6.4</ele>
        <time>2015-10-16T10:09:59Z</time>
      </trkpt>
      <trkpt lat="49.28024" lon="-0.2496">
        <ele>6.6</ele>
        <time>2015-10-16T10:10:00Z</time>
      </trkpt>
      <trkpt lat="49.28024" lon="-0.24959">
        <ele>6.7</ele>
        <time>2015-10-16T10:10:01Z</time>
      </trkpt>
      <trkpt lat="49.28024" lon="-0.24959">
        <ele>6.9</ele>
        <time>2015-10-16T10:10:02Z</time>
      </trkpt>
      <trkpt lat="49.28024" lon="-0.24958">
        <ele>6.9</ele>
        <time>2015-10-16T10:10:03Z</time>
      </trkpt>
      <trkpt lat="49.28024" lon="-0.24958">
        <ele>7</ele>
        <time>2015-10-16T10:10:04Z</time>
      </trkpt>
      <trkpt lat="49.28024" lon="-0.24958">
        <ele>7.1</ele>
        <time>2015-10-16T10:10:05Z</time>
      </trkpt>
      <trkpt lat="49.28023" lon="-0.24957">
        <ele>6.9</ele>
        <time>2015-10-16T10:10:06Z</time>
      </trkpt>
      <trkpt lat="49.28023" lon="-0.24957">
        <ele>6.8</ele>
        <time>2015-10-16T10:10:07Z</time>
      </trkpt>
      <trkpt lat="49.28022" lon="-0.24956">
        <ele>6.7</ele>
        <time>2015-10-16T10:10:08Z</time>
      </trkpt>
      <trkpt lat="49.2802" lon="-0.24956">
        <ele>6.9</ele>
        <time>2015-10-16T10:10:10Z</time>
      </trkpt>
      <trkpt lat="49.28014" lon="-0.24957">
        <ele>6</ele>
        <time>2015-10-16T10:10:15Z</time>
      </trkpt>
      <trkpt lat="49.27995" lon="-0.24966">
        <ele>6.2</ele>
        <time>2015-10-16T10:10:32Z</time>
      </trkpt>
      <trkpt lat="49.27994" lon="-0.24965">
        <ele>5.6</ele>
        <time>2015-10-16T10:10:33Z</time>
      </trkpt>
      <trkpt lat="49.27994" lon="-0.24966">
        <ele>5.2</ele>
        <time>2015-10-16T10:10:34Z</time>
      </trkpt>
      <trkpt lat="49.27994" lon="-0.24966">
        <ele>4.9</ele>
        <time>2015-10-16T10:10:35Z</time>
      </trkpt>
      <trkpt lat="49.27994" lon="-0.24966">
        <ele>4.8</ele>
        <time>2015-10-16T10:10:36Z</time>
      </trkpt>
      <trkpt lat="49.27993" lon="-0.24966">
        <ele>4.8</ele>
        <time>2015-10-16T10:10:37Z</time>
      </trkpt>
      <trkpt lat="49.27992" lon="-0.24966">
        <ele>4.8</ele>
        <time>2015-10-16T10:10:38Z</time>
      </trkpt>
      <trkpt lat="49.27992" lon="-0.24967">
        <ele>5</ele>
        <time>2015-10-16T10:10:39Z</time>
      </trkpt>
      <trkpt lat="49.27991" lon="-0.24967">
        <ele>5.1</ele>
        <time>2015-10-16T10:10:40Z</time>
      </trkpt>
      <trkpt lat="49.27991" lon="-0.24967">
        <ele>5.2</ele>
        <time>2015-10-16T10:10:41Z</time>
      </trkpt>
      <trkpt lat="49.27991" lon="-0.24968">
        <ele>5.3</ele>
        <time>2015-10-16T10:10:42Z</time>
      </trkpt>
      <trkpt lat="49.2799" lon="-0.24968">
        <ele>5.4</ele>
        <time>2015-10-16T10:10:43Z</time>
      </trkpt>
      <trkpt lat="49.2799" lon="-0.24968">
        <ele>5.4</ele>
        <time>2015-10-16T10:10:44Z</time>
      </trkpt>
      <trkpt lat="49.2799" lon="-0.24968">
        <ele>6.5</ele>
        <time>2015-10-16T10:10:45Z</time>
      </trkpt>
      <trkpt lat="49.27988" lon="-0.24969">
        <ele>7.1</ele>
        <time>2015-10-16T10:10:48Z</time>
      </trkpt>
      <trkpt lat="49.27985" lon="-0.24971">
        <ele>6.5</ele>
        <time>2015-10-16T10:10:51Z</time>
      </trkpt>
      <trkpt lat="49.27981" lon="-0.24973">
        <ele>6.8</ele>
        <time>2015-10-16T10:10:54Z</time>
      </trkpt>
      <trkpt lat="49.27978" lon="-0.24975">
        <ele>6.2</ele>
        <time>2015-10-16T10:10:56Z</time>
      </trkpt>
      <trkpt lat="49.27951" lon="-0.24982">
        <ele>6.5</ele>
        <time>2015-10-16T10:11:17Z</time>
      </trkpt>
      <trkpt lat="49.27851" lon="-0.2501">
        <ele>5.8</ele>
        <time>2015-10-16T10:12:32Z</time>
      </trkpt>
      <trkpt lat="49.2785" lon="-0.2501">
        <ele>6</ele>
        <time>2015-10-16T10:12:33Z</time>
      </trkpt>
      <trkpt lat="49.27846" lon="-0.2501">
        <ele>6.2</ele>
        <time>2015-10-16T10:12:36Z</time>
      </trkpt>
      <trkpt lat="49.27843" lon="-0.25009">
        <ele>6.3</ele>
        <time>2015-10-16T10:12:38Z</time>
      </trkpt>
      <trkpt lat="49.27837" lon="-0.25007">
        <ele>5</ele>
        <time>2015-10-16T10:12:43Z</time>
      </trkpt>
      <trkpt lat="49.27836" lon="-0.25007">
        <ele>5.3</ele>
        <time>2015-10-16T10:12:44Z</time>
      </trkpt>
      <trkpt lat="49.27834" lon="-0.25006">
        <ele>4.8</ele>
        <time>2015-10-16T10:12:45Z</time>
      </trkpt>
      <trkpt lat="49.27833" lon="-0.25005">
        <ele>4.3</ele>
        <time>2015-10-16T10:12:46Z</time>
      </trkpt>
      <trkpt lat="49.27832" lon="-0.25004">
        <ele>4</ele>
        <time>2015-10-16T10:12:47Z</time>
      </trkpt>
      <trkpt lat="49.27831" lon="-0.25003">
        <ele>4.6</ele>
        <time>2015-10-16T10:12:48Z</time>
      </trkpt>
      <trkpt lat="49.2783" lon="-0.25003">
        <ele>5.1</ele>
        <time>2015-10-16T10:12:49Z</time>
      </trkpt>
      <trkpt lat="49.27829" lon="-0.25002">
        <ele>5.4</ele>
        <time>2015-10-16T10:12:50Z</time>
      </trkpt>
      <trkpt lat="49.27828" lon="-0.25001">
        <ele>5.6</ele>
        <time>2015-10-16T10:12:51Z</time>
      </trkpt>
      <trkpt lat="49.27827" lon="-0.25001">
        <ele>5.8</ele>
        <time>2015-10-16T10:12:52Z</time>
      </trkpt>
      <trkpt lat="49.27827" lon="-0.25">
        <ele>6</ele>
        <time>2015-10-16T10:12:53Z</time>
      </trkpt>
      <trkpt lat="49.27826" lon="-0.25">
        <ele>6.3</ele>
        <time>2015-10-16T10:12:54Z</time>
      </trkpt>
      <trkpt lat="49.27826" lon="-0.25">
        <ele>6.5</ele>
        <time>2015-10-16T10:12:55Z</time>
      </trkpt>
      <trkpt lat="49.27826" lon="-0.24999">
        <ele>6.7</ele>
        <time>2015-10-16T10:12:56Z</time>
      </trkpt>
      <trkpt lat="49.27826" lon="-0.24999">
        <ele>6.4</ele>
        <time>2015-10-16T10:12:57Z</time>
      </trkpt>
      <trkpt lat="49.27826" lon="-0.24999">
        <ele>6.2</ele>
        <time>2015-10-16T10:12:58Z</time>
      </trkpt>
      <trkpt lat="49.27825" lon="-0.24999">
        <ele>6</ele>
        <time>2015-10-16T10:12:59Z</time>
      </trkpt>
      <trkpt lat="49.27825" lon="-0.24998">
        <ele>6.1</ele>
        <time>2015-10-16T10:13:00Z</time>
      </trkpt>
      <trkpt lat="49.27825" lon="-0.24998">
        <ele>6.2</ele>
        <time>2015-10-16T10:13:01Z</time>
      </trkpt>
      <trkpt lat="49.27825" lon="-0.24998">
        <ele>6.2</ele>
        <time>2015-10-16T10:13:02Z</time>
      </trkpt>
      <trkpt lat="49.27825" lon="-0.24998">
        <ele>6.1</ele>
        <time>2015-10-16T10:13:03Z</time>
      </trkpt>
      <trkpt lat="49.27825" lon="-0.24997">
        <ele>5.8</ele>
        <time>2015-10-16T10:13:05Z</time>
      </trkpt>
      <trkpt lat="49.27825" lon="-0.24997">
        <ele>5.6</ele>
        <time>2015-10-16T10:13:06Z</time>
      </trkpt>
      <trkpt lat="49.27824" lon="-0.24997">
        <ele>5.3</ele>
        <time>2015-10-16T10:13:07Z</time>
      </trkpt>
      <trkpt lat="49.27824" lon="-0.24997">
        <ele>5.2</ele>
        <time>2015-10-16T10:13:08Z</time>
      </trkpt>
      <trkpt lat="49.27824" lon="-0.24996">
        <ele>5.3</ele>
        <time>2015-10-16T10:13:09Z</time>
      </trkpt>
      <trkpt lat="49.27824" lon="-0.24995">
        <ele>5.3</ele>
        <time>2015-10-16T10:13:10Z</time>
      </trkpt>
      <trkpt lat="49.27823" lon="-0.24995">
        <ele>5.4</ele>
        <time>2015-10-16T10:13:11Z</time>
      </trkpt>
      <trkpt lat="49.27823" lon="-0.24994">
        <ele>5.4</ele>
        <time>2015-10-16T10:13:12Z</time>
      </trkpt>
      <trkpt lat="49.27823" lon="-0.24993">
        <ele>5.5</ele>
        <time>2015-10-16T10:13:13Z</time>
      </trkpt>
      <trkpt lat="49.27822" lon="-0.24992">
        <ele>6.1</ele>
        <time>2015-10-16T10:13:15Z</time>
      </trkpt>
      <trkpt lat="49.27822" lon="-0.24992">
        <ele>6.6</ele>
        <time>2015-10-16T10:13:16Z</time>
      </trkpt>
      <trkpt lat="49.27822" lon="-0.24991">
        <ele>7</ele>
        <time>2015-10-16T10:13:17Z</time>
      </trkpt>
      <trkpt lat="49.27822" lon="-0.24991">
        <ele>6.6</ele>
        <time>2015-10-16T10:13:18Z</time>
      </trkpt>
      <trkpt lat="49.27821" lon="-0.2499">
        <ele>6.3</ele>
        <time>2015-10-16T10:13:19Z</time>
      </trkpt>
      <trkpt lat="49.27821" lon="-0.2499">
        <ele>6.1</ele>
        <time>2015-10-16T10:13:20Z</time>
      </trkpt>
      <trkpt lat="49.27821" lon="-0.2499">
        <ele>6.2</ele>
        <time>2015-10-16T10:13:21Z</time>
      </trkpt>
      <trkpt lat="49.27821" lon="-0.2499">
        <ele>6.2</ele>
        <time>2015-10-16T10:13:22Z</time>
      </trkpt>
      <trkpt lat="49.27821" lon="-0.2499">
        <ele>6.3</ele>
        <time>2015-10-16T10:13:23Z</time>
      </trkpt>
      <trkpt lat="49.27821" lon="-0.2499">
        <ele>6.3</ele>
        <time>2015-10-16T10:13:24Z</time>
      </trkpt>
      <trkpt lat="49.27821" lon="-0.24991">
        <ele>6.3</ele>
        <time>2015-10-16T10:13:26Z</time>
      </trkpt>
      <trkpt lat="49.27822" lon="-0.24991">
        <ele>6.8</ele>
        <time>2015-10-16T10:13:27Z</time>
      </trkpt>
      <trkpt lat="49.27822" lon="-0.24992">
        <ele>7.1</ele>
        <time>2015-10-16T10:13:28Z</time>
      </trkpt>
      <trkpt lat="49.27822" lon="-0.24995">
        <ele>7.1</ele>
        <time>2015-10-16T10:13:30Z</time>
      </trkpt>
      <trkpt lat="49.27823" lon="-0.24997">
        <ele>6.8</ele>
        <time>2015-10-16T10:13:32Z</time>
      </trkpt>
      <trkpt lat="49.27824" lon="-0.25007">
        <ele>5.7</ele>
        <time>2015-10-16T10:13:39Z</time>
      </trkpt>
      <trkpt lat="49.27824" lon="-0.25008">
        <ele>5.3</ele>
        <time>2015-10-16T10:13:40Z</time>
      </trkpt>
      <trkpt lat="49.27825" lon="-0.2501">
        <ele>4.9</ele>
        <time>2015-10-16T10:13:41Z</time>
      </trkpt>
      <trkpt lat="49.27825" lon="-0.25011">
        <ele>5.3</ele>
        <time>2015-10-16T10:13:42Z</time>
      </trkpt>
      <trkpt lat="49.27825" lon="-0.25012">
        <ele>5.6</ele>
        <time>2015-10-16T10:13:43Z</time>
      </trkpt>
      <trkpt lat="49.27825" lon="-0.25014">
        <ele>5.8</ele>
        <time>2015-10-16T10:13:44Z</time>
      </trkpt>
      <trkpt lat="49.27824" lon="-0.25016">
        <ele>6.4</ele>
        <time>2015-10-16T10:13:46Z</time>
      </trkpt>
      <trkpt lat="49.27823" lon="-0.25017">
        <ele>6.6</ele>
        <time>2015-10-16T10:13:47Z</time>
      </trkpt>
      <trkpt lat="49.2782" lon="-0.2502">
        <ele>7.9</ele>
        <time>2015-10-16T10:13:50Z</time>
      </trkpt>
      <trkpt lat="49.27818" lon="-0.25021">
        <ele>6.1</ele>
        <time>2015-10-16T10:13:52Z</time>
      </trkpt>
      <trkpt lat="49.27817" lon="-0.25022">
        <ele>5.6</ele>
        <time>2015-10-16T10:13:53Z</time>
      </trkpt>
      <trkpt lat="49.27816" lon="-0.25023">
        <ele>5.8</ele>
        <time>2015-10-16T10:13:54Z</time>
      </trkpt>
      <trkpt lat="49.27815" lon="-0.25023">
        <ele>5.9</ele>
        <time>2015-10-16T10:13:55Z</time>
      </trkpt>
      <trkpt lat="49.27814" lon="-0.25024">
        <ele>6</ele>
        <time>2015-10-16T10:13:56Z</time>
      </trkpt>
      <trkpt lat="49.27812" lon="-0.25024">
        <ele>6.3</ele>
        <time>2015-10-16T10:13:57Z</time>
      </trkpt>
      <trkpt lat="49.27811" lon="-0.25025">
        <ele>6.5</ele>
        <time>2015-10-16T10:13:58Z</time>
      </trkpt>
      <trkpt lat="49.27805" lon="-0.25029">
        <ele>6.7</ele>
        <time>2015-10-16T10:14:03Z</time>
      </trkpt>
      <trkpt lat="49.27804" lon="-0.2503">
        <ele>6.8</ele>
        <time>2015-10-16T10:14:04Z</time>
      </trkpt>
      <trkpt lat="49.27804" lon="-0.25031">
        <ele>6.9</ele>
        <time>2015-10-16T10:14:05Z</time>
      </trkpt>
      <trkpt lat="49.27803" lon="-0.25031">
        <ele>7.2</ele>
        <time>2015-10-16T10:14:06Z</time>
      </trkpt>
      <trkpt lat="49.27803" lon="-0.25031">
        <ele>7.4</ele>
        <time>2015-10-16T10:14:07Z</time>
      </trkpt>
      <trkpt lat="49.27802" lon="-0.25032">
        <ele>7.6</ele>
        <time>2015-10-16T10:14:08Z</time>
      </trkpt>
      <trkpt lat="49.27802" lon="-0.25032">
        <ele>7.9</ele>
        <time>2015-10-16T10:14:09Z</time>
      </trkpt>
      <trkpt lat="49.27802" lon="-0.25032">
        <ele>8.1</ele>
        <time>2015-10-16T10:14:10Z</time>
      </trkpt>
      <trkpt lat="49.27802" lon="-0.25032">
        <ele>8.3</ele>
        <time>2015-10-16T10:14:11Z</time>
      </trkpt>
      <trkpt lat="49.27801" lon="-0.25032">
        <ele>8.2</ele>
        <time>2015-10-16T10:14:12Z</time>
      </trkpt>
      <trkpt lat="49.27801" lon="-0.25032">
        <ele>8.2</ele>
        <time>2015-10-16T10:14:13Z</time>
      </trkpt>
      <trkpt lat="49.27801" lon="-0.25032">
        <ele>8.1</ele>
        <time>2015-10-16T10:14:14Z</time>
      </trkpt>
      <trkpt lat="49.27801" lon="-0.25033">
        <ele>7.1</ele>
        <time>2015-10-16T10:14:15Z</time>
      </trkpt>
      <trkpt lat="49.278" lon="-0.25033">
        <ele>6.3</ele>
        <time>2015-10-16T10:14:16Z</time>
      </trkpt>
      <trkpt lat="49.278" lon="-0.25033">
        <ele>6.7</ele>
        <time>2015-10-16T10:14:17Z</time>
      </trkpt>
      <trkpt lat="49.278" lon="-0.25033">
        <ele>7</ele>
        <time>2015-10-16T10:14:18Z</time>
      </trkpt>
      <trkpt lat="49.278" lon="-0.25033">
        <ele>7.3</ele>
        <time>2015-10-16T10:14:19Z</time>
      </trkpt>
      <trkpt lat="49.278" lon="-0.25033">
        <ele>6.6</ele>
        <time>2015-10-16T10:14:20Z</time>
      </trkpt>
      <trkpt lat="49.278" lon="-0.25033">
        <ele>6.2</ele>
        <time>2015-10-16T10:14:21Z</time>
      </trkpt>
      <trkpt lat="49.278" lon="-0.25033">
        <ele>5.8</ele>
        <time>2015-10-16T10:14:22Z</time>
      </trkpt>
      <trkpt lat="49.278" lon="-0.25034">
        <ele>6.4</ele>
        <time>2015-10-16T10:14:23Z</time>
      </trkpt>
      <trkpt lat="49.278" lon="-0.25034">
        <ele>6.8</ele>
        <time>2015-10-16T10:14:24Z</time>
      </trkpt>
      <trkpt lat="49.278" lon="-0.25034">
        <ele>7.1</ele>
        <time>2015-10-16T10:14:25Z</time>
      </trkpt>
      <trkpt lat="49.27799" lon="-0.25034">
        <ele>7.1</ele>
        <time>2015-10-16T10:14:26Z</time>
      </trkpt>
      <trkpt lat="49.27799" lon="-0.25034">
        <ele>7.1</ele>
        <time>2015-10-16T10:14:27Z</time>
      </trkpt>
      <trkpt lat="49.27799" lon="-0.25034">
        <ele>7.2</ele>
        <time>2015-10-16T10:14:28Z</time>
      </trkpt>
      <trkpt lat="49.27799" lon="-0.25034">
        <ele>7.4</ele>
        <time>2015-10-16T10:14:29Z</time>
      </trkpt>
      <trkpt lat="49.27799" lon="-0.25034">
        <ele>7.5</ele>
        <time>2015-10-16T10:14:30Z</time>
      </trkpt>
      <trkpt lat="49.27799" lon="-0.25034">
        <ele>7.7</ele>
        <time>2015-10-16T10:14:31Z</time>
      </trkpt>
      <trkpt lat="49.278" lon="-0.25034">
        <ele>7.1</ele>
        <time>2015-10-16T10:14:32Z</time>
      </trkpt>
      <trkpt lat="49.278" lon="-0.25034">
        <ele>6.7</ele>
        <time>2015-10-16T10:14:33Z</time>
      </trkpt>
      <trkpt lat="49.278" lon="-0.25034">
        <ele>6.4</ele>
        <time>2015-10-16T10:14:34Z</time>
      </trkpt>
      <trkpt lat="49.278" lon="-0.25034">
        <ele>5.6</ele>
        <time>2015-10-16T10:14:35Z</time>
      </trkpt>
      <trkpt lat="49.278" lon="-0.25034">
        <ele>5</ele>
        <time>2015-10-16T10:14:36Z</time>
      </trkpt>
      <trkpt lat="49.278" lon="-0.25034">
        <ele>4.5</ele>
        <time>2015-10-16T10:14:37Z</time>
      </trkpt>
      <trkpt lat="49.278" lon="-0.25034">
        <ele>5</ele>
        <time>2015-10-16T10:14:38Z</time>
      </trkpt>
      <trkpt lat="49.278" lon="-0.25034">
        <ele>5.3</ele>
        <time>2015-10-16T10:14:39Z</time>
      </trkpt>
      <trkpt lat="49.278" lon="-0.25034">
        <ele>5.6</ele>
        <time>2015-10-16T10:14:40Z</time>
      </trkpt>
      <trkpt lat="49.278" lon="-0.25034">
        <ele>6.4</ele>
        <time>2015-10-16T10:14:41Z</time>
      </trkpt>
      <trkpt lat="49.27801" lon="-0.25034">
        <ele>7</ele>
        <time>2015-10-16T10:14:42Z</time>
      </trkpt>
      <trkpt lat="49.27806" lon="-0.25032">
        <ele>7.1</ele>
        <time>2015-10-16T10:14:47Z</time>
      </trkpt>
      <trkpt lat="49.27808" lon="-0.25032">
        <ele>6.8</ele>
        <time>2015-10-16T10:14:49Z</time>
      </trkpt>
      <trkpt lat="49.27821" lon="-0.25028">
        <ele>5.2</ele>
        <time>2015-10-16T10:15:01Z</time>
      </trkpt>
      <trkpt lat="49.27822" lon="-0.25027">
        <ele>5.3</ele>
        <time>2015-10-16T10:15:02Z</time>
      </trkpt>
      <trkpt lat="49.27825" lon="-0.25025">
        <ele>5.4</ele>
        <time>2015-10-16T10:15:05Z</time>
      </trkpt>
      <trkpt lat="49.27826" lon="-0.25025">
        <ele>5.5</ele>
        <time>2015-10-16T10:15:06Z</time>
      </trkpt>
      <trkpt lat="49.27826" lon="-0.25024">
        <ele>5.5</ele>
        <time>2015-10-16T10:15:07Z</time>
      </trkpt>
      <trkpt lat="49.27829" lon="-0.25025">
        <ele>5</ele>
        <time>2015-10-16T10:15:10Z</time>
      </trkpt>
      <trkpt lat="49.2783" lon="-0.25026">
        <ele>5.7</ele>
        <time>2015-10-16T10:15:15Z</time>
      </trkpt>
      <trkpt lat="49.27831" lon="-0.25026">
        <ele>5.7</ele>
        <time>2015-10-16T10:15:16Z</time>
      </trkpt>
      <trkpt lat="49.27831" lon="-0.25026">
        <ele>5.6</ele>
        <time>2015-10-16T10:15:17Z</time>
      </trkpt>
      <trkpt lat="49.27831" lon="-0.25026">
        <ele>5.6</ele>
        <time>2015-10-16T10:15:18Z</time>
      </trkpt>
      <trkpt lat="49.27831" lon="-0.25027">
        <ele>5.6</ele>
        <time>2015-10-16T10:15:19Z</time>
      </trkpt>
      <trkpt lat="49.27832" lon="-0.25027">
        <ele>5.8</ele>
        <time>2015-10-16T10:15:20Z</time>
      </trkpt>
      <trkpt lat="49.27832" lon="-0.25027">
        <ele>5.9</ele>
        <time>2015-10-16T10:15:21Z</time>
      </trkpt>
      <trkpt lat="49.27832" lon="-0.25027">
        <ele>6</ele>
        <time>2015-10-16T10:15:22Z</time>
      </trkpt>
      <trkpt lat="49.27833" lon="-0.25028">
        <ele>6.1</ele>
        <time>2015-10-16T10:15:23Z</time>
      </trkpt>
      <trkpt lat="49.27838" lon="-0.25034">
        <ele>5.6</ele>
        <time>2015-10-16T10:15:29Z</time>
      </trkpt>
      <trkpt lat="49.27839" lon="-0.25035">
        <ele>5.8</ele>
        <time>2015-10-16T10:15:30Z</time>
      </trkpt>
      <trkpt lat="49.27842" lon="-0.25035">
        <ele>6.1</ele>
        <time>2015-10-16T10:15:32Z</time>
      </trkpt>
      <trkpt lat="49.27846" lon="-0.25035">
        <ele>5.4</ele>
        <time>2015-10-16T10:15:35Z</time>
      </trkpt>
      <trkpt lat="49.27853" lon="-0.25033">
        <ele>4.6</ele>
        <time>2015-10-16T10:15:40Z</time>
      </trkpt>
      <trkpt lat="49.27866" lon="-0.25031">
        <ele>6.7</ele>
        <time>2015-10-16T10:15:51Z</time>
      </trkpt>
      <trkpt lat="49.27867" lon="-0.25032">
        <ele>7</ele>
        <time>2015-10-16T10:15:52Z</time>
      </trkpt>
      <trkpt lat="49.27868" lon="-0.25033">
        <ele>6.7</ele>
        <time>2015-10-16T10:15:53Z</time>
      </trkpt>
      <trkpt lat="49.27869" lon="-0.25034">
        <ele>6.4</ele>
        <time>2015-10-16T10:15:54Z</time>
      </trkpt>
      <trkpt lat="49.2787" lon="-0.25036">
        <ele>4.7</ele>
        <time>2015-10-16T10:15:56Z</time>
      </trkpt>
      <trkpt lat="49.27871" lon="-0.25037">
        <ele>4</ele>
        <time>2015-10-16T10:15:57Z</time>
      </trkpt>
      <trkpt lat="49.27872" lon="-0.25039">
        <ele>4.2</ele>
        <time>2015-10-16T10:15:58Z</time>
      </trkpt>
      <trkpt lat="49.27873" lon="-0.25043">
        <ele>4.6</ele>
        <time>2015-10-16T10:16:01Z</time>
      </trkpt>
      <trkpt lat="49.27873" lon="-0.25045">
        <ele>4.3</ele>
        <time>2015-10-16T10:16:02Z</time>
      </trkpt>
      <trkpt lat="49.27873" lon="-0.25046">
        <ele>4.1</ele>
        <time>2015-10-16T10:16:03Z</time>
      </trkpt>
      <trkpt lat="49.27873" lon="-0.25048">
        <ele>4.4</ele>
        <time>2015-10-16T10:16:04Z</time>
      </trkpt>
      <trkpt lat="49.2788" lon="-0.25082">
        <ele>6.2</ele>
        <time>2015-10-16T10:16:25Z</time>
      </trkpt>
      <trkpt lat="49.27881" lon="-0.25082">
        <ele>6.3</ele>
        <time>2015-10-16T10:16:26Z</time>
      </trkpt>
      <trkpt lat="49.27884" lon="-0.25089">
        <ele>6.5</ele>
        <time>2015-10-16T10:16:35Z</time>
      </trkpt>
      <trkpt lat="49.27885" lon="-0.2509">
        <ele>6.4</ele>
        <time>2015-10-16T10:16:36Z</time>
      </trkpt>
      <trkpt lat="49.27885" lon="-0.2509">
        <ele>6.4</ele>
        <time>2015-10-16T10:16:37Z</time>
      </trkpt>
      <trkpt lat="49.27885" lon="-0.25091">
        <ele>6.4</ele>
        <time>2015-10-16T10:16:38Z</time>
      </trkpt>
      <trkpt lat="49.27886" lon="-0.25091">
        <ele>6</ele>
        <time>2015-10-16T10:16:39Z</time>
      </trkpt>
      <trkpt lat="49.27886" lon="-0.25092">
        <ele>5.8</ele>
        <time>2015-10-16T10:16:40Z</time>
      </trkpt>
      <trkpt lat="49.27886" lon="-0.25092">
        <ele>5.7</ele>
        <time>2015-10-16T10:16:41Z</time>
      </trkpt>
      <trkpt lat="49.27886" lon="-0.25093">
        <ele>5.6</ele>
        <time>2015-10-16T10:16:42Z</time>
      </trkpt>
      <trkpt lat="49.27887" lon="-0.25093">
        <ele>5.6</ele>
        <time>2015-10-16T10:16:43Z</time>
      </trkpt>
      <trkpt lat="49.27887" lon="-0.25093">
        <ele>5.6</ele>
        <time>2015-10-16T10:16:44Z</time>
      </trkpt>
      <trkpt lat="49.27887" lon="-0.25093">
        <ele>5.6</ele>
        <time>2015-10-16T10:16:45Z</time>
      </trkpt>
      <trkpt lat="49.27887" lon="-0.25094">
        <ele>5.6</ele>
        <time>2015-10-16T10:16:46Z</time>
      </trkpt>
      <trkpt lat="49.27887" lon="-0.25094">
        <ele>5.5</ele>
        <time>2015-10-16T10:16:47Z</time>
      </trkpt>
      <trkpt lat="49.27888" lon="-0.25095">
        <ele>6.1</ele>
        <time>2015-10-16T10:16:49Z</time>
      </trkpt>
      <trkpt lat="49.27888" lon="-0.25095">
        <ele>6.2</ele>
        <time>2015-10-16T10:16:50Z</time>
      </trkpt>
      <trkpt lat="49.27888" lon="-0.25095">
        <ele>5.6</ele>
        <time>2015-10-16T10:16:51Z</time>
      </trkpt>
      <trkpt lat="49.27888" lon="-0.25095">
        <ele>5.2</ele>
        <time>2015-10-16T10:16:52Z</time>
      </trkpt>
      <trkpt lat="49.27889" lon="-0.25095">
        <ele>5.1</ele>
        <time>2015-10-16T10:16:53Z</time>
      </trkpt>
      <trkpt lat="49.27888" lon="-0.25094">
        <ele>5.2</ele>
        <time>2015-10-16T10:16:54Z</time>
      </trkpt>
      <trkpt lat="49.27888" lon="-0.25094">
        <ele>5.4</ele>
        <time>2015-10-16T10:16:55Z</time>
      </trkpt>
      <trkpt lat="49.27888" lon="-0.25094">
        <ele>5.4</ele>
        <time>2015-10-16T10:16:56Z</time>
      </trkpt>
      <trkpt lat="49.27889" lon="-0.25094">
        <ele>5.5</ele>
        <time>2015-10-16T10:16:57Z</time>
      </trkpt>
      <trkpt lat="49.27889" lon="-0.25094">
        <ele>5.5</ele>
        <time>2015-10-16T10:16:58Z</time>
      </trkpt>
      <trkpt lat="49.2789" lon="-0.25094">
        <ele>5.5</ele>
        <time>2015-10-16T10:16:59Z</time>
      </trkpt>
      <trkpt lat="49.2789" lon="-0.25093">
        <ele>5.5</ele>
        <time>2015-10-16T10:17:00Z</time>
      </trkpt>
      <trkpt lat="49.27891" lon="-0.25093">
        <ele>5.5</ele>
        <time>2015-10-16T10:17:01Z</time>
      </trkpt>
      <trkpt lat="49.27891" lon="-0.25092">
        <ele>5.5</ele>
        <time>2015-10-16T10:17:02Z</time>
      </trkpt>
      <trkpt lat="49.27892" lon="-0.25092">
        <ele>5.9</ele>
        <time>2015-10-16T10:17:03Z</time>
      </trkpt>
      <trkpt lat="49.27892" lon="-0.25092">
        <ele>6.1</ele>
        <time>2015-10-16T10:17:04Z</time>
      </trkpt>
      <trkpt lat="49.27893" lon="-0.25091">
        <ele>6.2</ele>
        <time>2015-10-16T10:17:05Z</time>
      </trkpt>
      <trkpt lat="49.27893" lon="-0.25091">
        <ele>6.7</ele>
        <time>2015-10-16T10:17:06Z</time>
      </trkpt>
      <trkpt lat="49.27894" lon="-0.25091">
        <ele>6.9</ele>
        <time>2015-10-16T10:17:07Z</time>
      </trkpt>
      <trkpt lat="49.27895" lon="-0.25091">
        <ele>7</ele>
        <time>2015-10-16T10:17:08Z</time>
      </trkpt>
      <trkpt lat="49.27896" lon="-0.25091">
        <ele>6.7</ele>
        <time>2015-10-16T10:17:09Z</time>
      </trkpt>
      <trkpt lat="49.27896" lon="-0.25091">
        <ele>6.6</ele>
        <time>2015-10-16T10:17:10Z</time>
      </trkpt>
      <trkpt lat="49.27897" lon="-0.25092">
        <ele>6.5</ele>
        <time>2015-10-16T10:17:11Z</time>
      </trkpt>
      <trkpt lat="49.27898" lon="-0.25092">
        <ele>6.8</ele>
        <time>2015-10-16T10:17:12Z</time>
      </trkpt>
      <trkpt lat="49.27899" lon="-0.25093">
        <ele>7</ele>
        <time>2015-10-16T10:17:13Z</time>
      </trkpt>
      <trkpt lat="49.27899" lon="-0.25094">
        <ele>7.1</ele>
        <time>2015-10-16T10:17:14Z</time>
      </trkpt>
      <trkpt lat="49.279" lon="-0.25095">
        <ele>7.1</ele>
        <time>2015-10-16T10:17:15Z</time>
      </trkpt>
      <trkpt lat="49.27901" lon="-0.25096">
        <ele>7.2</ele>
        <time>2015-10-16T10:17:16Z</time>
      </trkpt>
      <trkpt lat="49.27903" lon="-0.25099">
        <ele>6.8</ele>
        <time>2015-10-16T10:17:18Z</time>
      </trkpt>
      <trkpt lat="49.27906" lon="-0.25106">
        <ele>7.1</ele>
        <time>2015-10-16T10:17:23Z</time>
      </trkpt>
      <trkpt lat="49.27906" lon="-0.25107">
        <ele>6.4</ele>
        <time>2015-10-16T10:17:24Z</time>
      </trkpt>
      <trkpt lat="49.27908" lon="-0.25108">
        <ele>5.8</ele>
        <time>2015-10-16T10:17:26Z</time>
      </trkpt>
      <trkpt lat="49.27909" lon="-0.25109">
        <ele>5.7</ele>
        <time>2015-10-16T10:17:27Z</time>
      </trkpt>
      <trkpt lat="49.2791" lon="-0.25109">
        <ele>5.6</ele>
        <time>2015-10-16T10:17:28Z</time>
      </trkpt>
      <trkpt lat="49.27912" lon="-0.25109">
        <ele>5.6</ele>
        <time>2015-10-16T10:17:29Z</time>
      </trkpt>
      <trkpt lat="49.27913" lon="-0.25109">
        <ele>5.9</ele>
        <time>2015-10-16T10:17:30Z</time>
      </trkpt>
      <trkpt lat="49.27914" lon="-0.25109">
        <ele>6.1</ele>
        <time>2015-10-16T10:17:31Z</time>
      </trkpt>
      <trkpt lat="49.27916" lon="-0.25109">
        <ele>6.2</ele>
        <time>2015-10-16T10:17:32Z</time>
      </trkpt>
      <trkpt lat="49.27918" lon="-0.25108">
        <ele>6.3</ele>
        <time>2015-10-16T10:17:34Z</time>
      </trkpt>
      <trkpt lat="49.27927" lon="-0.25105">
        <ele>6.2</ele>
        <time>2015-10-16T10:17:43Z</time>
      </trkpt>
      <trkpt lat="49.27927" lon="-0.25105">
        <ele>6.3</ele>
        <time>2015-10-16T10:17:44Z</time>
      </trkpt>
      <trkpt lat="49.27929" lon="-0.25104">
        <ele>6.9</ele>
        <time>2015-10-16T10:17:46Z</time>
      </trkpt>
      <trkpt lat="49.27929" lon="-0.25103">
        <ele>7</ele>
        <time>2015-10-16T10:17:47Z</time>
      </trkpt>
      <trkpt lat="49.2793" lon="-0.25102">
        <ele>6.7</ele>
        <time>2015-10-16T10:17:48Z</time>
      </trkpt>
      <trkpt lat="49.2793" lon="-0.25101">
        <ele>6.6</ele>
        <time>2015-10-16T10:17:49Z</time>
      </trkpt>
      <trkpt lat="49.27931" lon="-0.251">
        <ele>6.5</ele>
        <time>2015-10-16T10:17:50Z</time>
      </trkpt>
      <trkpt lat="49.27932" lon="-0.25099">
        <ele>6.1</ele>
        <time>2015-10-16T10:17:51Z</time>
      </trkpt>
      <trkpt lat="49.27933" lon="-0.25098">
        <ele>5.8</ele>
        <time>2015-10-16T10:17:52Z</time>
      </trkpt>
      <trkpt lat="49.27934" lon="-0.25098">
        <ele>5.7</ele>
        <time>2015-10-16T10:17:53Z</time>
      </trkpt>
      <trkpt lat="49.27935" lon="-0.25097">
        <ele>6.3</ele>
        <time>2015-10-16T10:17:54Z</time>
      </trkpt>
      <trkpt lat="49.27941" lon="-0.25094">
        <ele>5</ele>
        <time>2015-10-16T10:18:00Z</time>
      </trkpt>
      <trkpt lat="49.27943" lon="-0.25094">
        <ele>3.7</ele>
        <time>2015-10-16T10:18:02Z</time>
      </trkpt>
      <trkpt lat="49.27973" lon="-0.25094">
        <ele>5.6</ele>
        <time>2015-10-16T10:18:27Z</time>
      </trkpt>
      <trkpt lat="49.27973" lon="-0.25093">
        <ele>5.6</ele>
        <time>2015-10-16T10:18:28Z</time>
      </trkpt>
      <trkpt lat="49.27973" lon="-0.25093">
        <ele>5.5</ele>
        <time>2015-10-16T10:18:29Z</time>
      </trkpt>
      <trkpt lat="49.27974" lon="-0.25093">
        <ele>5.9</ele>
        <time>2015-10-16T10:18:30Z</time>
      </trkpt>
      <trkpt lat="49.27974" lon="-0.25094">
        <ele>6.1</ele>
        <time>2015-10-16T10:18:31Z</time>
      </trkpt>
      <trkpt lat="49.27974" lon="-0.25094">
        <ele>6.2</ele>
        <time>2015-10-16T10:18:32Z</time>
      </trkpt>
      <trkpt lat="49.27974" lon="-0.25094">
        <ele>7</ele>
        <time>2015-10-16T10:18:33Z</time>
      </trkpt>
      <trkpt lat="49.27974" lon="-0.25094">
        <ele>7.5</ele>
        <time>2015-10-16T10:18:34Z</time>
      </trkpt>
      <trkpt lat="49.27974" lon="-0.25095">
        <ele>7.7</ele>
        <time>2015-10-16T10:18:35Z</time>
      </trkpt>
      <trkpt lat="49.27974" lon="-0.25095">
        <ele>7.5</ele>
        <time>2015-10-16T10:18:36Z</time>
      </trkpt>
      <trkpt lat="49.27974" lon="-0.25095">
        <ele>7.4</ele>
        <time>2015-10-16T10:18:37Z</time>
      </trkpt>
      <trkpt lat="49.27975" lon="-0.25096">
        <ele>7.3</ele>
        <time>2015-10-16T10:18:38Z</time>
      </trkpt>
      <trkpt lat="49.27975" lon="-0.25096">
        <ele>6.9</ele>
        <time>2015-10-16T10:18:39Z</time>
      </trkpt>
      <trkpt lat="49.27975" lon="-0.25097">
        <ele>6.7</ele>
        <time>2015-10-16T10:18:40Z</time>
      </trkpt>
      <trkpt lat="49.27975" lon="-0.25097">
        <ele>6.5</ele>
        <time>2015-10-16T10:18:41Z</time>
      </trkpt>
      <trkpt lat="49.27974" lon="-0.25097">
        <ele>6.5</ele>
        <time>2015-10-16T10:18:42Z</time>
      </trkpt>
      <trkpt lat="49.27974" lon="-0.25097">
        <ele>6.4</ele>
        <time>2015-10-16T10:18:43Z</time>
      </trkpt>
      <trkpt lat="49.27974" lon="-0.25097">
        <ele>6.4</ele>
        <time>2015-10-16T10:18:44Z</time>
      </trkpt>
      <trkpt lat="49.27974" lon="-0.25097">
        <ele>6.8</ele>
        <time>2015-10-16T10:18:45Z</time>
      </trkpt>
      <trkpt lat="49.27974" lon="-0.25098">
        <ele>6.9</ele>
        <time>2015-10-16T10:18:46Z</time>
      </trkpt>
      <trkpt lat="49.27974" lon="-0.25098">
        <ele>7.1</ele>
        <time>2015-10-16T10:18:47Z</time>
      </trkpt>
      <trkpt lat="49.27974" lon="-0.25099">
        <ele>6.8</ele>
        <time>2015-10-16T10:18:48Z</time>
      </trkpt>
      <trkpt lat="49.27974" lon="-0.25099">
        <ele>6.6</ele>
        <time>2015-10-16T10:18:49Z</time>
      </trkpt>
      <trkpt lat="49.27974" lon="-0.25099">
        <ele>6.5</ele>
        <time>2015-10-16T10:18:50Z</time>
      </trkpt>
      <trkpt lat="49.27974" lon="-0.251">
        <ele>6.1</ele>
        <time>2015-10-16T10:18:51Z</time>
      </trkpt>
      <trkpt lat="49.27974" lon="-0.251">
        <ele>5.8</ele>
        <time>2015-10-16T10:18:52Z</time>
      </trkpt>
      <trkpt lat="49.27974" lon="-0.251">
        <ele>5.7</ele>
        <time>2015-10-16T10:18:53Z</time>
      </trkpt>
      <trkpt lat="49.27974" lon="-0.251">
        <ele>5.6</ele>
        <time>2015-10-16T10:18:54Z</time>
      </trkpt>
      <trkpt lat="49.27974" lon="-0.251">
        <ele>5.6</ele>
        <time>2015-10-16T10:18:55Z</time>
      </trkpt>
      <trkpt lat="49.27975" lon="-0.251">
        <ele>5.6</ele>
        <time>2015-10-16T10:18:56Z</time>
      </trkpt>
      <trkpt lat="49.27975" lon="-0.251">
        <ele>6.3</ele>
        <time>2015-10-16T10:18:57Z</time>
      </trkpt>
      <trkpt lat="49.27975" lon="-0.251">
        <ele>6.7</ele>
        <time>2015-10-16T10:18:58Z</time>
      </trkpt>
      <trkpt lat="49.27975" lon="-0.251">
        <ele>6.9</ele>
        <time>2015-10-16T10:18:59Z</time>
      </trkpt>
      <trkpt lat="49.27975" lon="-0.251">
        <ele>6.7</ele>
        <time>2015-10-16T10:19:00Z</time>
      </trkpt>
      <trkpt lat="49.27975" lon="-0.251">
        <ele>6.5</ele>
        <time>2015-10-16T10:19:01Z</time>
      </trkpt>
      <trkpt lat="49.27975" lon="-0.251">
        <ele>6.5</ele>
        <time>2015-10-16T10:19:02Z</time>
      </trkpt>
      <trkpt lat="49.27975" lon="-0.251">
        <ele>7.2</ele>
        <time>2015-10-16T10:19:03Z</time>
      </trkpt>
      <trkpt lat="49.27975" lon="-0.251">
        <ele>7.5</ele>
        <time>2015-10-16T10:19:04Z</time>
      </trkpt>
      <trkpt lat="49.27975" lon="-0.251">
        <ele>7.8</ele>
        <time>2015-10-16T10:19:05Z</time>
      </trkpt>
      <trkpt lat="49.27975" lon="-0.25099">
        <ele>8.2</ele>
        <time>2015-10-16T10:19:06Z</time>
      </trkpt>
      <trkpt lat="49.27975" lon="-0.25099">
        <ele>8.5</ele>
        <time>2015-10-16T10:19:07Z</time>
      </trkpt>
      <trkpt lat="49.27974" lon="-0.25099">
        <ele>8.7</ele>
        <time>2015-10-16T10:19:08Z</time>
      </trkpt>
      <trkpt lat="49.27974" lon="-0.25099">
        <ele>8</ele>
        <time>2015-10-16T10:19:09Z</time>
      </trkpt>
      <trkpt lat="49.27972" lon="-0.25099">
        <ele>6.3</ele>
        <time>2015-10-16T10:19:12Z</time>
      </trkpt>
      <trkpt lat="49.27972" lon="-0.25099">
        <ele>5.6</ele>
        <time>2015-10-16T10:19:13Z</time>
      </trkpt>
      <trkpt lat="49.27971" lon="-0.25099">
        <ele>5.2</ele>
        <time>2015-10-16T10:19:14Z</time>
      </trkpt>
      <trkpt lat="49.2797" lon="-0.25099">
        <ele>6.1</ele>
        <time>2015-10-16T10:19:15Z</time>
      </trkpt>
      <trkpt lat="49.27949" lon="-0.25095">
        <ele>6.7</ele>
        <time>2015-10-16T10:19:33Z</time>
      </trkpt>
      <trkpt lat="49.27945" lon="-0.25093">
        <ele>6.1</ele>
        <time>2015-10-16T10:19:36Z</time>
      </trkpt>
      <trkpt lat="49.27943" lon="-0.25092">
        <ele>6.2</ele>
        <time>2015-10-16T10:19:37Z</time>
      </trkpt>
      <trkpt lat="49.27941" lon="-0.25091">
        <ele>6.3</ele>
        <time>2015-10-16T10:19:38Z</time>
      </trkpt>
      <trkpt lat="49.2794" lon="-0.25091">
        <ele>6</ele>
        <time>2015-10-16T10:19:39Z</time>
      </trkpt>
      <trkpt lat="49.27939" lon="-0.25091">
        <ele>5.8</ele>
        <time>2015-10-16T10:19:40Z</time>
      </trkpt>
      <trkpt lat="49.27937" lon="-0.25091">
        <ele>5.7</ele>
        <time>2015-10-16T10:19:41Z</time>
      </trkpt>
      <trkpt lat="49.27936" lon="-0.25091">
        <ele>6</ele>
        <time>2015-10-16T10:19:42Z</time>
      </trkpt>
      <trkpt lat="49.27935" lon="-0.25091">
        <ele>6.2</ele>
        <time>2015-10-16T10:19:43Z</time>
      </trkpt>
      <trkpt lat="49.27934" lon="-0.25091">
        <ele>6.2</ele>
        <time>2015-10-16T10:19:44Z</time>
      </trkpt>
      <trkpt lat="49.27932" lon="-0.25091">
        <ele>7</ele>
        <time>2015-10-16T10:19:47Z</time>
      </trkpt>
      <trkpt lat="49.27932" lon="-0.25092">
        <ele>6.4</ele>
        <time>2015-10-16T10:19:48Z</time>
      </trkpt>
      <trkpt lat="49.27932" lon="-0.25092">
        <ele>6</ele>
        <time>2015-10-16T10:19:49Z</time>
      </trkpt>
      <trkpt lat="49.27932" lon="-0.25092">
        <ele>5.8</ele>
        <time>2015-10-16T10:19:50Z</time>
      </trkpt>
      <trkpt lat="49.27932" lon="-0.25092">
        <ele>6.1</ele>
        <time>2015-10-16T10:19:51Z</time>
      </trkpt>
      <trkpt lat="49.27931" lon="-0.25092">
        <ele>6.2</ele>
        <time>2015-10-16T10:19:52Z</time>
      </trkpt>
      <trkpt lat="49.27931" lon="-0.25092">
        <ele>6.3</ele>
        <time>2015-10-16T10:19:53Z</time>
      </trkpt>
      <trkpt lat="49.27931" lon="-0.25093">
        <ele>6.3</ele>
        <time>2015-10-16T10:19:54Z</time>
      </trkpt>
      <trkpt lat="49.27931" lon="-0.25093">
        <ele>6.3</ele>
        <time>2015-10-16T10:19:55Z</time>
      </trkpt>
      <trkpt lat="49.27931" lon="-0.25093">
        <ele>6.3</ele>
        <time>2015-10-16T10:19:56Z</time>
      </trkpt>
      <trkpt lat="49.27931" lon="-0.25093">
        <ele>6.4</ele>
        <time>2015-10-16T10:19:57Z</time>
      </trkpt>
      <trkpt lat="49.2793" lon="-0.25093">
        <ele>6.4</ele>
        <time>2015-10-16T10:19:58Z</time>
      </trkpt>
      <trkpt lat="49.2793" lon="-0.25093">
        <ele>6.6</ele>
        <time>2015-10-16T10:19:59Z</time>
      </trkpt>
      <trkpt lat="49.2793" lon="-0.25093">
        <ele>6.8</ele>
        <time>2015-10-16T10:20:00Z</time>
      </trkpt>
      <trkpt lat="49.2793" lon="-0.25093">
        <ele>7</ele>
        <time>2015-10-16T10:20:01Z</time>
      </trkpt>
      <trkpt lat="49.2793" lon="-0.25093">
        <ele>6.7</ele>
        <time>2015-10-16T10:20:02Z</time>
      </trkpt>
      <trkpt lat="49.2793" lon="-0.25094">
        <ele>6.6</ele>
        <time>2015-10-16T10:20:03Z</time>
      </trkpt>
      <trkpt lat="49.27929" lon="-0.25094">
        <ele>6.5</ele>
        <time>2015-10-16T10:20:04Z</time>
      </trkpt>
      <trkpt lat="49.27929" lon="-0.25094">
        <ele>6.1</ele>
        <time>2015-10-16T10:20:05Z</time>
      </trkpt>
      <trkpt lat="49.27929" lon="-0.25094">
        <ele>5.8</ele>
        <time>2015-10-16T10:20:06Z</time>
      </trkpt>
      <trkpt lat="49.27928" lon="-0.25095">
        <ele>5.7</ele>
        <time>2015-10-16T10:20:07Z</time>
      </trkpt>
      <trkpt lat="49.27928" lon="-0.25095">
        <ele>6</ele>
        <time>2015-10-16T10:20:08Z</time>
      </trkpt>
      <trkpt lat="49.27928" lon="-0.25095">
        <ele>6.2</ele>
        <time>2015-10-16T10:20:09Z</time>
      </trkpt>
      <trkpt lat="49.27928" lon="-0.25095">
        <ele>6.3</ele>
        <time>2015-10-16T10:20:10Z</time>
      </trkpt>
      <trkpt lat="49.27928" lon="-0.25095">
        <ele>6.7</ele>
        <time>2015-10-16T10:20:11Z</time>
      </trkpt>
      <trkpt lat="49.27927" lon="-0.25095">
        <ele>6.9</ele>
        <time>2015-10-16T10:20:12Z</time>
      </trkpt>
      <trkpt lat="49.27927" lon="-0.25095">
        <ele>7</ele>
        <time>2015-10-16T10:20:13Z</time>
      </trkpt>
      <trkpt lat="49.27927" lon="-0.25096">
        <ele>7.5</ele>
        <time>2015-10-16T10:20:14Z</time>
      </trkpt>
      <trkpt lat="49.27926" lon="-0.25096">
        <ele>7.7</ele>
        <time>2015-10-16T10:20:15Z</time>
      </trkpt>
      <trkpt lat="49.27926" lon="-0.25097">
        <ele>7.9</ele>
        <time>2015-10-16T10:20:16Z</time>
      </trkpt>
      <trkpt lat="49.27925" lon="-0.25097">
        <ele>6.5</ele>
        <time>2015-10-16T10:20:17Z</time>
      </trkpt>
      <trkpt lat="49.27925" lon="-0.25098">
        <ele>5.3</ele>
        <time>2015-10-16T10:20:19Z</time>
      </trkpt>
      <trkpt lat="49.27924" lon="-0.25098">
        <ele>5.4</ele>
        <time>2015-10-16T10:20:20Z</time>
      </trkpt>
      <trkpt lat="49.27924" lon="-0.25098">
        <ele>5.5</ele>
        <time>2015-10-16T10:20:21Z</time>
      </trkpt>
      <trkpt lat="49.27924" lon="-0.25099">
        <ele>5.5</ele>
        <time>2015-10-16T10:20:22Z</time>
      </trkpt>
      <trkpt lat="49.27924" lon="-0.25099">
        <ele>5.9</ele>
        <time>2015-10-16T10:20:23Z</time>
      </trkpt>
      <trkpt lat="49.27924" lon="-0.25099">
        <ele>6.1</ele>
        <time>2015-10-16T10:20:24Z</time>
      </trkpt>
      <trkpt lat="49.27924" lon="-0.25099">
        <ele>6.2</ele>
        <time>2015-10-16T10:20:25Z</time>
      </trkpt>
      <trkpt lat="49.27923" lon="-0.251">
        <ele>5.9</ele>
        <time>2015-10-16T10:20:26Z</time>
      </trkpt>
      <trkpt lat="49.27923" lon="-0.251">
        <ele>5.8</ele>
        <time>2015-10-16T10:20:27Z</time>
      </trkpt>
      <trkpt lat="49.27923" lon="-0.251">
        <ele>5.7</ele>
        <time>2015-10-16T10:20:28Z</time>
      </trkpt>
      <trkpt lat="49.27923" lon="-0.251">
        <ele>6.3</ele>
        <time>2015-10-16T10:20:29Z</time>
      </trkpt>
      <trkpt lat="49.27923" lon="-0.251">
        <ele>6.7</ele>
        <time>2015-10-16T10:20:30Z</time>
      </trkpt>
      <trkpt lat="49.27923" lon="-0.25101">
        <ele>6.9</ele>
        <time>2015-10-16T10:20:31Z</time>
      </trkpt>
      <trkpt lat="49.27923" lon="-0.25101">
        <ele>7</ele>
        <time>2015-10-16T10:20:32Z</time>
      </trkpt>
      <trkpt lat="49.27923" lon="-0.25101">
        <ele>7.1</ele>
        <time>2015-10-16T10:20:33Z</time>
      </trkpt>
      <trkpt lat="49.27923" lon="-0.25102">
        <ele>7.2</ele>
        <time>2015-10-16T10:20:34Z</time>
      </trkpt>
      <trkpt lat="49.27923" lon="-0.25102">
        <ele>7.5</ele>
        <time>2015-10-16T10:20:35Z</time>
      </trkpt>
      <trkpt lat="49.27923" lon="-0.25102">
        <ele>7.8</ele>
        <time>2015-10-16T10:20:36Z</time>
      </trkpt>
      <trkpt lat="49.27923" lon="-0.25102">
        <ele>7.9</ele>
        <time>2015-10-16T10:20:37Z</time>
      </trkpt>
      <trkpt lat="49.27923" lon="-0.25102">
        <ele>7.2</ele>
        <time>2015-10-16T10:20:38Z</time>
      </trkpt>
      <trkpt lat="49.27923" lon="-0.25102">
        <ele>6.8</ele>
        <time>2015-10-16T10:20:39Z</time>
      </trkpt>
      <trkpt lat="49.27924" lon="-0.25102">
        <ele>6.6</ele>
        <time>2015-10-16T10:20:40Z</time>
      </trkpt>
      <trkpt lat="49.27924" lon="-0.25102">
        <ele>6.9</ele>
        <time>2015-10-16T10:20:41Z</time>
      </trkpt>
      <trkpt lat="49.27924" lon="-0.25102">
        <ele>7</ele>
        <time>2015-10-16T10:20:42Z</time>
      </trkpt>
      <trkpt lat="49.27924" lon="-0.25102">
        <ele>7.1</ele>
        <time>2015-10-16T10:20:43Z</time>
      </trkpt>
      <trkpt lat="49.27924" lon="-0.25102">
        <ele>6.4</ele>
        <time>2015-10-16T10:20:44Z</time>
      </trkpt>
      <trkpt lat="49.27924" lon="-0.25102">
        <ele>6</ele>
        <time>2015-10-16T10:20:45Z</time>
      </trkpt>
      <trkpt lat="49.27924" lon="-0.25102">
        <ele>5.8</ele>
        <time>2015-10-16T10:20:46Z</time>
      </trkpt>
      <trkpt lat="49.27925" lon="-0.25102">
        <ele>6.8</ele>
        <time>2015-10-16T10:20:47Z</time>
      </trkpt>
      <trkpt lat="49.27925" lon="-0.25102">
        <ele>7.3</ele>
        <time>2015-10-16T10:20:48Z</time>
      </trkpt>
      <trkpt lat="49.27925" lon="-0.25103">
        <ele>7.6</ele>
        <time>2015-10-16T10:20:49Z</time>
      </trkpt>
      <trkpt lat="49.27925" lon="-0.25103">
        <ele>7.1</ele>
        <time>2015-10-16T10:20:50Z</time>
      </trkpt>
      <trkpt lat="49.27925" lon="-0.25103">
        <ele>6.8</ele>
        <time>2015-10-16T10:20:51Z</time>
      </trkpt>
      <trkpt lat="49.27925" lon="-0.25103">
        <ele>6.6</ele>
        <time>2015-10-16T10:20:52Z</time>
      </trkpt>
      <trkpt lat="49.27925" lon="-0.25103">
        <ele>6.1</ele>
        <time>2015-10-16T10:20:53Z</time>
      </trkpt>
      <trkpt lat="49.27925" lon="-0.25103">
        <ele>5.9</ele>
        <time>2015-10-16T10:20:54Z</time>
      </trkpt>
      <trkpt lat="49.27925" lon="-0.25103">
        <ele>5.7</ele>
        <time>2015-10-16T10:20:55Z</time>
      </trkpt>
      <trkpt lat="49.27925" lon="-0.25103">
        <ele>6.7</ele>
        <time>2015-10-16T10:20:56Z</time>
      </trkpt>
      <trkpt lat="49.27926" lon="-0.25103">
        <ele>7.1</ele>
        <time>2015-10-16T10:20:57Z</time>
      </trkpt>
      <trkpt lat="49.27926" lon="-0.25103">
        <ele>7.6</ele>
        <time>2015-10-16T10:20:58Z</time>
      </trkpt>
      <trkpt lat="49.27926" lon="-0.25103">
        <ele>4.9</ele>
        <time>2015-10-16T10:20:59Z</time>
      </trkpt>
      <trkpt lat="49.27926" lon="-0.25103">
        <ele>3.4</ele>
        <time>2015-10-16T10:21:00Z</time>
      </trkpt>
      <trkpt lat="49.27926" lon="-0.25103">
        <ele>2.5</ele>
        <time>2015-10-16T10:21:01Z</time>
      </trkpt>
      <trkpt lat="49.27926" lon="-0.25103">
        <ele>5.6</ele>
        <time>2015-10-16T10:21:02Z</time>
      </trkpt>
      <trkpt lat="49.27926" lon="-0.25103">
        <ele>7.4</ele>
        <time>2015-10-16T10:21:03Z</time>
      </trkpt>
      <trkpt lat="49.27926" lon="-0.25103">
        <ele>8.4</ele>
        <time>2015-10-16T10:21:04Z</time>
      </trkpt>
      <trkpt lat="49.27926" lon="-0.25103">
        <ele>8.6</ele>
        <time>2015-10-16T10:21:05Z</time>
      </trkpt>
      <trkpt lat="49.27926" lon="-0.25103">
        <ele>8.7</ele>
        <time>2015-10-16T10:21:06Z</time>
      </trkpt>
      <trkpt lat="49.27926" lon="-0.25103">
        <ele>8.8</ele>
        <time>2015-10-16T10:21:07Z</time>
      </trkpt>
      <trkpt lat="49.27926" lon="-0.25103">
        <ele>7.7</ele>
        <time>2015-10-16T10:21:08Z</time>
      </trkpt>
      <trkpt lat="49.27926" lon="-0.25103">
        <ele>7.1</ele>
        <time>2015-10-16T10:21:09Z</time>
      </trkpt>
      <trkpt lat="49.27926" lon="-0.25103">
        <ele>6.8</ele>
        <time>2015-10-16T10:21:10Z</time>
      </trkpt>
      <trkpt lat="49.27926" lon="-0.25103">
        <ele>6.6</ele>
        <time>2015-10-16T10:21:11Z</time>
      </trkpt>
      <trkpt lat="49.27926" lon="-0.25103">
        <ele>6.5</ele>
        <time>2015-10-16T10:21:12Z</time>
      </trkpt>
      <trkpt lat="49.27926" lon="-0.25103">
        <ele>6.4</ele>
        <time>2015-10-16T10:21:13Z</time>
      </trkpt>
      <trkpt lat="49.27926" lon="-0.25103">
        <ele>6.4</ele>
        <time>2015-10-16T10:21:14Z</time>
      </trkpt>
      <trkpt lat="49.27926" lon="-0.25103">
        <ele>6.4</ele>
        <time>2015-10-16T10:21:15Z</time>
      </trkpt>
      <trkpt lat="49.27926" lon="-0.25103">
        <ele>6.4</ele>
        <time>2015-10-16T10:21:16Z</time>
      </trkpt>
      <trkpt lat="49.27926" lon="-0.25103">
        <ele>6.7</ele>
        <time>2015-10-16T10:21:17Z</time>
      </trkpt>
      <trkpt lat="49.27939" lon="-0.251">
        <ele>7.1</ele>
        <time>2015-10-16T10:27:10Z</time>
      </trkpt>
      <trkpt lat="49.27939" lon="-0.251">
        <ele>7.6</ele>
        <time>2015-10-16T10:27:11Z</time>
      </trkpt>
      <trkpt lat="49.27935" lon="-0.25111">
        <ele>7.8</ele>
        <time>2015-10-16T10:27:12Z</time>
      </trkpt>
      <trkpt lat="49.27933" lon="-0.25113">
        <ele>7.5</ele>
        <time>2015-10-16T10:27:13Z</time>
      </trkpt>
      <trkpt lat="49.27931" lon="-0.25111">
        <ele>7.4</ele>
        <time>2015-10-16T10:27:14Z</time>
      </trkpt>
      <trkpt lat="49.27928" lon="-0.25107">
        <ele>7.3</ele>
        <time>2015-10-16T10:27:15Z</time>
      </trkpt>
      <trkpt lat="49.27926" lon="-0.25106">
        <ele>7.3</ele>
        <time>2015-10-16T10:27:16Z</time>
      </trkpt>
      <trkpt lat="49.27925" lon="-0.25103">
        <ele>7.2</ele>
        <time>2015-10-16T10:27:17Z</time>
      </trkpt>
      <trkpt lat="49.27924" lon="-0.25102">
        <ele>7.2</ele>
        <time>2015-10-16T10:27:18Z</time>
      </trkpt>
      <trkpt lat="49.27923" lon="-0.251">
        <ele>7.2</ele>
        <time>2015-10-16T10:27:19Z</time>
      </trkpt>
      <trkpt lat="49.27923" lon="-0.25099">
        <ele>7.2</ele>
        <time>2015-10-16T10:27:21Z</time>
      </trkpt>
      <trkpt lat="49.27922" lon="-0.25098">
        <ele>7.2</ele>
        <time>2015-10-16T10:27:22Z</time>
      </trkpt>
      <trkpt lat="49.27922" lon="-0.25098">
        <ele>7.2</ele>
        <time>2015-10-16T10:27:23Z</time>
      </trkpt>
      <trkpt lat="49.27921" lon="-0.25098">
        <ele>7.2</ele>
        <time>2015-10-16T10:27:24Z</time>
      </trkpt>
      <trkpt lat="49.27921" lon="-0.25097">
        <ele>7.4</ele>
        <time>2015-10-16T10:27:25Z</time>
      </trkpt>
      <trkpt lat="49.2792" lon="-0.25097">
        <ele>7.6</ele>
        <time>2015-10-16T10:27:26Z</time>
      </trkpt>
      <trkpt lat="49.27908" lon="-0.25098">
        <ele>7.2</ele>
        <time>2015-10-16T10:27:36Z</time>
      </trkpt>
      <trkpt lat="49.27907" lon="-0.25098">
        <ele>7.2</ele>
        <time>2015-10-16T10:27:37Z</time>
      </trkpt>
      <trkpt lat="49.27906" lon="-0.25098">
        <ele>7.2</ele>
        <time>2015-10-16T10:27:38Z</time>
      </trkpt>
      <trkpt lat="49.27905" lon="-0.25098">
        <ele>7.2</ele>
        <time>2015-10-16T10:27:39Z</time>
      </trkpt>
      <trkpt lat="49.27905" lon="-0.25098">
        <ele>7.4</ele>
        <time>2015-10-16T10:27:40Z</time>
      </trkpt>
      <trkpt lat="49.27905" lon="-0.25098">
        <ele>7.6</ele>
        <time>2015-10-16T10:27:41Z</time>
      </trkpt>
      <trkpt lat="49.27905" lon="-0.25098">
        <ele>7.7</ele>
        <time>2015-10-16T10:27:42Z</time>
      </trkpt>
      <trkpt lat="49.27904" lon="-0.25098">
        <ele>7.8</ele>
        <time>2015-10-16T10:27:43Z</time>
      </trkpt>
      <trkpt lat="49.27903" lon="-0.25097">
        <ele>7.8</ele>
        <time>2015-10-16T10:27:44Z</time>
      </trkpt>
      <trkpt lat="49.27899" lon="-0.25093">
        <ele>7.2</ele>
        <time>2015-10-16T10:27:49Z</time>
      </trkpt>
      <trkpt lat="49.27896" lon="-0.25091">
        <ele>6.8</ele>
        <time>2015-10-16T10:27:51Z</time>
      </trkpt>
      <trkpt lat="49.27892" lon="-0.25085">
        <ele>6.6</ele>
        <time>2015-10-16T10:27:55Z</time>
      </trkpt>
      <trkpt lat="49.27887" lon="-0.25076">
        <ele>7.1</ele>
        <time>2015-10-16T10:28:01Z</time>
      </trkpt>
      <trkpt lat="49.27886" lon="-0.25072">
        <ele>7.5</ele>
        <time>2015-10-16T10:28:03Z</time>
      </trkpt>
      <trkpt lat="49.27882" lon="-0.25056">
        <ele>5.5</ele>
        <time>2015-10-16T10:28:15Z</time>
      </trkpt>
      <trkpt lat="49.27881" lon="-0.25055">
        <ele>5.9</ele>
        <time>2015-10-16T10:28:16Z</time>
      </trkpt>
      <trkpt lat="49.27879" lon="-0.25033">
        <ele>8.7</ele>
        <time>2015-10-16T10:28:27Z</time>
      </trkpt>
      <trkpt lat="49.27878" lon="-0.25022">
        <ele>4.3</ele>
        <time>2015-10-16T10:28:32Z</time>
      </trkpt>
      <trkpt lat="49.27878" lon="-0.2502">
        <ele>3.2</ele>
        <time>2015-10-16T10:28:33Z</time>
      </trkpt>
      <trkpt lat="49.27876" lon="-0.25016">
        <ele>5.6</ele>
        <time>2015-10-16T10:28:35Z</time>
      </trkpt>
      <trkpt lat="49.27875" lon="-0.25015">
        <ele>6.5</ele>
        <time>2015-10-16T10:28:36Z</time>
      </trkpt>
      <trkpt lat="49.27874" lon="-0.25014">
        <ele>7.1</ele>
        <time>2015-10-16T10:28:37Z</time>
      </trkpt>
      <trkpt lat="49.27873" lon="-0.25013">
        <ele>7.5</ele>
        <time>2015-10-16T10:28:38Z</time>
      </trkpt>
      <trkpt lat="49.27871" lon="-0.25012">
        <ele>7.6</ele>
        <time>2015-10-16T10:28:39Z</time>
      </trkpt>
      <trkpt lat="49.2787" lon="-0.25011">
        <ele>7.7</ele>
        <time>2015-10-16T10:28:40Z</time>
      </trkpt>
      <trkpt lat="49.2786" lon="-0.25009">
        <ele>8.4</ele>
        <time>2015-10-16T10:28:47Z</time>
      </trkpt>
      <trkpt lat="49.27857" lon="-0.25009">
        <ele>8.2</ele>
        <time>2015-10-16T10:28:50Z</time>
      </trkpt>
      <trkpt lat="49.27845" lon="-0.25011">
        <ele>9.7</ele>
        <time>2015-10-16T10:29:02Z</time>
      </trkpt>
      <trkpt lat="49.27844" lon="-0.2501">
        <ele>9.5</ele>
        <time>2015-10-16T10:29:03Z</time>
      </trkpt>
      <trkpt lat="49.27838" lon="-0.25009">
        <ele>2.5</ele>
        <time>2015-10-16T10:29:10Z</time>
      </trkpt>
      <trkpt lat="49.27838" lon="-0.25009">
        <ele>5.3</ele>
        <time>2015-10-16T10:29:11Z</time>
      </trkpt>
      <trkpt lat="49.27838" lon="-0.25009">
        <ele>12.8</ele>
        <time>2015-10-16T10:29:16Z</time>
      </trkpt>
      <trkpt lat="49.27838" lon="-0.25009">
        <ele>12.6</ele>
        <time>2015-10-16T10:29:17Z</time>
      </trkpt>
      <trkpt lat="49.27838" lon="-0.25009">
        <ele>12.5</ele>
        <time>2015-10-16T10:29:18Z</time>
      </trkpt>
      <trkpt lat="49.27838" lon="-0.25009">
        <ele>12.4</ele>
        <time>2015-10-16T10:29:19Z</time>
      </trkpt>
      <trkpt lat="49.27837" lon="-0.25009">
        <ele>12.6</ele>
        <time>2015-10-16T10:29:20Z</time>
      </trkpt>
      <trkpt lat="49.27836" lon="-0.25008">
        <ele>12.8</ele>
        <time>2015-10-16T10:29:22Z</time>
      </trkpt>
      <trkpt lat="49.27833" lon="-0.25006">
        <ele>11</ele>
        <time>2015-10-16T10:29:25Z</time>
      </trkpt>
      <trkpt lat="49.27831" lon="-0.25001">
        <ele>9.9</ele>
        <time>2015-10-16T10:29:29Z</time>
      </trkpt>
      <trkpt lat="49.2783" lon="-0.24999">
        <ele>9.6</ele>
        <time>2015-10-16T10:29:30Z</time>
      </trkpt>
      <trkpt lat="49.27829" lon="-0.24998">
        <ele>9.4</ele>
        <time>2015-10-16T10:29:31Z</time>
      </trkpt>
      <trkpt lat="49.27829" lon="-0.24996">
        <ele>9.3</ele>
        <time>2015-10-16T10:29:32Z</time>
      </trkpt>
      <trkpt lat="49.27828" lon="-0.24995">
        <ele>9.2</ele>
        <time>2015-10-16T10:29:33Z</time>
      </trkpt>
      <trkpt lat="49.27822" lon="-0.24975">
        <ele>9</ele>
        <time>2015-10-16T10:29:42Z</time>
      </trkpt>
      <trkpt lat="49.27822" lon="-0.24972">
        <ele>9.2</ele>
        <time>2015-10-16T10:29:43Z</time>
      </trkpt>
      <trkpt lat="49.27822" lon="-0.24969">
        <ele>8.9</ele>
        <time>2015-10-16T10:29:44Z</time>
      </trkpt>
      <trkpt lat="49.27822" lon="-0.24962">
        <ele>8.5</ele>
        <time>2015-10-16T10:29:46Z</time>
      </trkpt>
      <trkpt lat="49.27824" lon="-0.24949">
        <ele>8.8</ele>
        <time>2015-10-16T10:29:52Z</time>
      </trkpt>
      <trkpt lat="49.27824" lon="-0.24948">
        <ele>8.6</ele>
        <time>2015-10-16T10:29:53Z</time>
      </trkpt>
      <trkpt lat="49.27825" lon="-0.24945">
        <ele>8.4</ele>
        <time>2015-10-16T10:29:55Z</time>
      </trkpt>
      <trkpt lat="49.27826" lon="-0.24944">
        <ele>8.5</ele>
        <time>2015-10-16T10:29:56Z</time>
      </trkpt>
      <trkpt lat="49.27829" lon="-0.24942">
        <ele>8.6</ele>
        <time>2015-10-16T10:29:58Z</time>
      </trkpt>
      <trkpt lat="49.27833" lon="-0.24941">
        <ele>8.8</ele>
        <time>2015-10-16T10:30:01Z</time>
      </trkpt>
      <trkpt lat="49.2789" lon="-0.24915">
        <ele>7.1</ele>
        <time>2015-10-16T10:30:47Z</time>
      </trkpt>
      <trkpt lat="49.27891" lon="-0.24914">
        <ele>7.1</ele>
        <time>2015-10-16T10:30:48Z</time>
      </trkpt>
      <trkpt lat="49.27901" lon="-0.2491">
        <ele>8.1</ele>
        <time>2015-10-16T10:30:57Z</time>
      </trkpt>
      <trkpt lat="49.27904" lon="-0.24908">
        <ele>8.1</ele>
        <time>2015-10-16T10:30:59Z</time>
      </trkpt>
      <trkpt lat="49.2791" lon="-0.24902">
        <ele>8.2</ele>
        <time>2015-10-16T10:31:05Z</time>
      </trkpt>
      <trkpt lat="49.27912" lon="-0.249">
        <ele>8.5</ele>
        <time>2015-10-16T10:31:07Z</time>
      </trkpt>
      <trkpt lat="49.27912" lon="-0.24898">
        <ele>8.6</ele>
        <time>2015-10-16T10:31:08Z</time>
      </trkpt>
      <trkpt lat="49.27913" lon="-0.24894">
        <ele>8.7</ele>
        <time>2015-10-16T10:31:10Z</time>
      </trkpt>
      <trkpt lat="49.27914" lon="-0.24891">
        <ele>9.5</ele>
        <time>2015-10-16T10:31:12Z</time>
      </trkpt>
      <trkpt lat="49.27914" lon="-0.24889">
        <ele>9.8</ele>
        <time>2015-10-16T10:31:13Z</time>
      </trkpt>
      <trkpt lat="49.27914" lon="-0.24887">
        <ele>10.6</ele>
        <time>2015-10-16T10:31:14Z</time>
      </trkpt>
      <trkpt lat="49.27914" lon="-0.24886">
        <ele>11.2</ele>
        <time>2015-10-16T10:31:15Z</time>
      </trkpt>
      <trkpt lat="49.27914" lon="-0.24885">
        <ele>11.6</ele>
        <time>2015-10-16T10:31:16Z</time>
      </trkpt>
      <trkpt lat="49.27914" lon="-0.24884">
        <ele>11.6</ele>
        <time>2015-10-16T10:31:17Z</time>
      </trkpt>
      <trkpt lat="49.27914" lon="-0.24864">
        <ele>12.5</ele>
        <time>2015-10-16T10:31:30Z</time>
      </trkpt>
      <trkpt lat="49.27914" lon="-0.24862">
        <ele>12.6</ele>
        <time>2015-10-16T10:31:31Z</time>
      </trkpt>
      <trkpt lat="49.27914" lon="-0.24839">
        <ele>11.3</ele>
        <time>2015-10-16T10:31:45Z</time>
      </trkpt>
      <trkpt lat="49.27914" lon="-0.24838">
        <ele>10.9</ele>
        <time>2015-10-16T10:31:47Z</time>
      </trkpt>
      <trkpt lat="49.27913" lon="-0.24837">
        <ele>10.6</ele>
        <time>2015-10-16T10:31:48Z</time>
      </trkpt>
      <trkpt lat="49.27913" lon="-0.24836">
        <ele>10.4</ele>
        <time>2015-10-16T10:31:49Z</time>
      </trkpt>
      <trkpt lat="49.27895" lon="-0.24811">
        <ele>8.6</ele>
        <time>2015-10-16T10:32:04Z</time>
      </trkpt>
      <trkpt lat="49.27894" lon="-0.2481">
        <ele>8.9</ele>
        <time>2015-10-16T10:32:05Z</time>
      </trkpt>
      <trkpt lat="49.27885" lon="-0.24804">
        <ele>9.5</ele>
        <time>2015-10-16T10:32:12Z</time>
      </trkpt>
      <trkpt lat="49.27882" lon="-0.24802">
        <ele>9.1</ele>
        <time>2015-10-16T10:32:15Z</time>
      </trkpt>
      <trkpt lat="49.27879" lon="-0.24801">
        <ele>9</ele>
        <time>2015-10-16T10:32:17Z</time>
      </trkpt>
      <trkpt lat="49.27873" lon="-0.24801">
        <ele>8.4</ele>
        <time>2015-10-16T10:32:22Z</time>
      </trkpt>
      <trkpt lat="49.27866" lon="-0.24802">
        <ele>9</ele>
        <time>2015-10-16T10:32:27Z</time>
      </trkpt>
      <trkpt lat="49.27836" lon="-0.24807">
        <ele>8.8</ele>
        <time>2015-10-16T10:32:50Z</time>
      </trkpt>
      <trkpt lat="49.27835" lon="-0.24808">
        <ele>8.9</ele>
        <time>2015-10-16T10:32:51Z</time>
      </trkpt>
      <trkpt lat="49.27806" lon="-0.24812">
        <ele>8.8</ele>
        <time>2015-10-16T10:33:13Z</time>
      </trkpt>
      <trkpt lat="49.27805" lon="-0.24812">
        <ele>9.1</ele>
        <time>2015-10-16T10:33:14Z</time>
      </trkpt>
      <trkpt lat="49.27781" lon="-0.24814">
        <ele>9.4</ele>
        <time>2015-10-16T10:33:34Z</time>
      </trkpt>
      <trkpt lat="49.2778" lon="-0.24814">
        <ele>9.5</ele>
        <time>2015-10-16T10:33:35Z</time>
      </trkpt>
      <trkpt lat="49.27779" lon="-0.24814">
        <ele>9.5</ele>
        <time>2015-10-16T10:33:36Z</time>
      </trkpt>
      <trkpt lat="49.27776" lon="-0.24814">
        <ele>9.6</ele>
        <time>2015-10-16T10:33:39Z</time>
      </trkpt>
      <trkpt lat="49.27768" lon="-0.24812">
        <ele>9.7</ele>
        <time>2015-10-16T10:33:46Z</time>
      </trkpt>
      <trkpt lat="49.27767" lon="-0.24812">
        <ele>9.3</ele>
        <time>2015-10-16T10:33:47Z</time>
      </trkpt>
      <trkpt lat="49.27763" lon="-0.2481">
        <ele>8.6</ele>
        <time>2015-10-16T10:33:50Z</time>
      </trkpt>
      <trkpt lat="49.27762" lon="-0.24809">
        <ele>8.3</ele>
        <time>2015-10-16T10:33:51Z</time>
      </trkpt>
      <trkpt lat="49.27761" lon="-0.24808">
        <ele>8.3</ele>
        <time>2015-10-16T10:33:52Z</time>
      </trkpt>
      <trkpt lat="49.2776" lon="-0.24806">
        <ele>8.5</ele>
        <time>2015-10-16T10:33:53Z</time>
      </trkpt>
      <trkpt lat="49.27759" lon="-0.24805">
        <ele>8.7</ele>
        <time>2015-10-16T10:33:54Z</time>
      </trkpt>
      <trkpt lat="49.27756" lon="-0.248">
        <ele>9.4</ele>
        <time>2015-10-16T10:33:57Z</time>
      </trkpt>
      <trkpt lat="49.27752" lon="-0.24794">
        <ele>8.3</ele>
        <time>2015-10-16T10:34:01Z</time>
      </trkpt>
      <trkpt lat="49.27743" lon="-0.24778">
        <ele>8</ele>
        <time>2015-10-16T10:34:11Z</time>
      </trkpt>
      <trkpt lat="49.27742" lon="-0.24775">
        <ele>7.5</ele>
        <time>2015-10-16T10:34:13Z</time>
      </trkpt>
      <trkpt lat="49.27718" lon="-0.24735">
        <ele>5.1</ele>
        <time>2015-10-16T10:34:43Z</time>
      </trkpt>
      <trkpt lat="49.27688" lon="-0.2469">
        <ele>8</ele>
        <time>2015-10-16T10:35:10Z</time>
      </trkpt>
      <trkpt lat="49.27687" lon="-0.24689">
        <ele>7.6</ele>
        <time>2015-10-16T10:35:11Z</time>
      </trkpt>
      <trkpt lat="49.27676" lon="-0.24679">
        <ele>7.4</ele>
        <time>2015-10-16T10:35:20Z</time>
      </trkpt>
      <trkpt lat="49.27675" lon="-0.24679">
        <ele>8.2</ele>
        <time>2015-10-16T10:35:21Z</time>
      </trkpt>
      <trkpt lat="49.27672" lon="-0.24678">
        <ele>7.8</ele>
        <time>2015-10-16T10:35:23Z</time>
      </trkpt>
      <trkpt lat="49.27668" lon="-0.24677">
        <ele>6.4</ele>
        <time>2015-10-16T10:35:25Z</time>
      </trkpt>
      <trkpt lat="49.27653" lon="-0.24676">
        <ele>9.2</ele>
        <time>2015-10-16T10:35:37Z</time>
      </trkpt>
      <trkpt lat="49.27652" lon="-0.24677">
        <ele>8.5</ele>
        <time>2015-10-16T10:35:40Z</time>
      </trkpt>
      <trkpt lat="49.27652" lon="-0.24677">
        <ele>8.6</ele>
        <time>2015-10-16T10:35:41Z</time>
      </trkpt>
      <trkpt lat="49.27651" lon="-0.24676">
        <ele>8.7</ele>
        <time>2015-10-16T10:35:42Z</time>
      </trkpt>
      <trkpt lat="49.27651" lon="-0.24676">
        <ele>8.7</ele>
        <time>2015-10-16T10:35:43Z</time>
      </trkpt>
      <trkpt lat="49.27651" lon="-0.24676">
        <ele>7.5</ele>
        <time>2015-10-16T10:35:44Z</time>
      </trkpt>
      <trkpt lat="49.27651" lon="-0.24676">
        <ele>6.6</ele>
        <time>2015-10-16T10:35:45Z</time>
      </trkpt>
      <trkpt lat="49.27651" lon="-0.24676">
        <ele>5.9</ele>
        <time>2015-10-16T10:35:46Z</time>
      </trkpt>
      <trkpt lat="49.27651" lon="-0.24676">
        <ele>6</ele>
        <time>2015-10-16T10:35:47Z</time>
      </trkpt>
      <trkpt lat="49.27651" lon="-0.24677">
        <ele>6.1</ele>
        <time>2015-10-16T10:35:48Z</time>
      </trkpt>
      <trkpt lat="49.27651" lon="-0.24677">
        <ele>6.2</ele>
        <time>2015-10-16T10:35:49Z</time>
      </trkpt>
      <trkpt lat="49.27651" lon="-0.24677">
        <ele>6.6</ele>
        <time>2015-10-16T10:35:50Z</time>
      </trkpt>
      <trkpt lat="49.27651" lon="-0.24677">
        <ele>7</ele>
        <time>2015-10-16T10:35:51Z</time>
      </trkpt>
      <trkpt lat="49.27651" lon="-0.24677">
        <ele>7.3</ele>
        <time>2015-10-16T10:35:52Z</time>
      </trkpt>
      <trkpt lat="49.27651" lon="-0.24677">
        <ele>7.4</ele>
        <time>2015-10-16T10:35:53Z</time>
      </trkpt>
      <trkpt lat="49.2765" lon="-0.24677">
        <ele>7.6</ele>
        <time>2015-10-16T10:35:54Z</time>
      </trkpt>
      <trkpt lat="49.2765" lon="-0.24677">
        <ele>7.7</ele>
        <time>2015-10-16T10:35:55Z</time>
      </trkpt>
      <trkpt lat="49.2765" lon="-0.24677">
        <ele>7.8</ele>
        <time>2015-10-16T10:35:56Z</time>
      </trkpt>
      <trkpt lat="49.2765" lon="-0.24677">
        <ele>7.8</ele>
        <time>2015-10-16T10:35:57Z</time>
      </trkpt>
      <trkpt lat="49.2765" lon="-0.24677">
        <ele>7.9</ele>
        <time>2015-10-16T10:35:58Z</time>
      </trkpt>
      <trkpt lat="49.2765" lon="-0.24677">
        <ele>7.7</ele>
        <time>2015-10-16T10:35:59Z</time>
      </trkpt>
      <trkpt lat="49.2765" lon="-0.24677">
        <ele>7.6</ele>
        <time>2015-10-16T10:36:00Z</time>
      </trkpt>
      <trkpt lat="49.2765" lon="-0.24677">
        <ele>7.5</ele>
        <time>2015-10-16T10:36:01Z</time>
      </trkpt>
      <trkpt lat="49.2765" lon="-0.24677">
        <ele>7.8</ele>
        <time>2015-10-16T10:36:02Z</time>
      </trkpt>
      <trkpt lat="49.2765" lon="-0.24677">
        <ele>8.1</ele>
        <time>2015-10-16T10:36:03Z</time>
      </trkpt>
      <trkpt lat="49.2765" lon="-0.24677">
        <ele>8.3</ele>
        <time>2015-10-16T10:36:04Z</time>
      </trkpt>
      <trkpt lat="49.2765" lon="-0.24677">
        <ele>8.4</ele>
        <time>2015-10-16T10:36:05Z</time>
      </trkpt>
      <trkpt lat="49.2765" lon="-0.24677">
        <ele>8.5</ele>
        <time>2015-10-16T10:36:06Z</time>
      </trkpt>
      <trkpt lat="49.2765" lon="-0.24677">
        <ele>8.6</ele>
        <time>2015-10-16T10:36:07Z</time>
      </trkpt>
      <trkpt lat="49.2765" lon="-0.24677">
        <ele>8.5</ele>
        <time>2015-10-16T10:36:08Z</time>
      </trkpt>
      <trkpt lat="49.2765" lon="-0.24677">
        <ele>8.4</ele>
        <time>2015-10-16T10:36:09Z</time>
      </trkpt>
      <trkpt lat="49.2765" lon="-0.24677">
        <ele>8.3</ele>
        <time>2015-10-16T10:36:10Z</time>
      </trkpt>
      <trkpt lat="49.2765" lon="-0.24677">
        <ele>8</ele>
        <time>2015-10-16T10:36:11Z</time>
      </trkpt>
      <trkpt lat="49.2765" lon="-0.24677">
        <ele>7.8</ele>
        <time>2015-10-16T10:36:12Z</time>
      </trkpt>
      <trkpt lat="49.2765" lon="-0.24677">
        <ele>7.7</ele>
        <time>2015-10-16T10:36:13Z</time>
      </trkpt>
      <trkpt lat="49.2765" lon="-0.24677">
        <ele>8</ele>
        <time>2015-10-16T10:36:14Z</time>
      </trkpt>
      <trkpt lat="49.2765" lon="-0.24677">
        <ele>8.3</ele>
        <time>2015-10-16T10:36:16Z</time>
      </trkpt>
      <trkpt lat="49.2765" lon="-0.24677">
        <ele>8.3</ele>
        <time>2015-10-16T10:36:17Z</time>
      </trkpt>
      <trkpt lat="49.2765" lon="-0.24677">
        <ele>8.2</ele>
        <time>2015-10-16T10:36:18Z</time>
      </trkpt>
      <trkpt lat="49.2765" lon="-0.24677">
        <ele>8.2</ele>
        <time>2015-10-16T10:36:19Z</time>
      </trkpt>
      <trkpt lat="49.2765" lon="-0.24678">
        <ele>9.2</ele>
        <time>2015-10-16T10:36:20Z</time>
      </trkpt>
      <trkpt lat="49.2765" lon="-0.24678">
        <ele>9.9</ele>
        <time>2015-10-16T10:36:21Z</time>
      </trkpt>
      <trkpt lat="49.2765" lon="-0.24678">
        <ele>10.5</ele>
        <time>2015-10-16T10:36:22Z</time>
      </trkpt>
      <trkpt lat="49.2765" lon="-0.24678">
        <ele>10.1</ele>
        <time>2015-10-16T10:36:23Z</time>
      </trkpt>
      <trkpt lat="49.2765" lon="-0.2468">
        <ele>9.8</ele>
        <time>2015-10-16T10:36:24Z</time>
      </trkpt>
      <trkpt lat="49.2765" lon="-0.24681">
        <ele>9.5</ele>
        <time>2015-10-16T10:36:25Z</time>
      </trkpt>
      <trkpt lat="49.2765" lon="-0.24683">
        <ele>9.2</ele>
        <time>2015-10-16T10:36:26Z</time>
      </trkpt>
      <trkpt lat="49.27649" lon="-0.24684">
        <ele>8.9</ele>
        <time>2015-10-16T10:36:27Z</time>
      </trkpt>
      <trkpt lat="49.27647" lon="-0.24686">
        <ele>8.5</ele>
        <time>2015-10-16T10:36:29Z</time>
      </trkpt>
      <trkpt lat="49.27644" lon="-0.24688">
        <ele>8.2</ele>
        <time>2015-10-16T10:36:32Z</time>
      </trkpt>
      <trkpt lat="49.27624" lon="-0.24692">
        <ele>5.8</ele>
        <time>2015-10-16T10:36:48Z</time>
      </trkpt>
      <trkpt lat="49.2758" lon="-0.24699">
        <ele>7.8</ele>
        <time>2015-10-16T10:37:21Z</time>
      </trkpt>
      <trkpt lat="49.27579" lon="-0.24699">
        <ele>8.1</ele>
        <time>2015-10-16T10:37:22Z</time>
      </trkpt>
      <trkpt lat="49.27576" lon="-0.24698">
        <ele>9.5</ele>
        <time>2015-10-16T10:37:24Z</time>
      </trkpt>
      <trkpt lat="49.27575" lon="-0.24698">
        <ele>10</ele>
        <time>2015-10-16T10:37:25Z</time>
      </trkpt>
      <trkpt lat="49.27573" lon="-0.24695">
        <ele>9.8</ele>
        <time>2015-10-16T10:37:27Z</time>
      </trkpt>
      <trkpt lat="49.27565" lon="-0.24688">
        <ele>9.7</ele>
        <time>2015-10-16T10:37:34Z</time>
      </trkpt>
      <trkpt lat="49.27564" lon="-0.24687">
        <ele>8.7</ele>
        <time>2015-10-16T10:37:35Z</time>
      </trkpt>
      <trkpt lat="49.27548" lon="-0.24681">
        <ele>8.9</ele>
        <time>2015-10-16T10:37:46Z</time>
      </trkpt>
      <trkpt lat="49.27543" lon="-0.2468">
        <ele>11.9</ele>
        <time>2015-10-16T10:37:50Z</time>
      </trkpt>
      <trkpt lat="49.27517" lon="-0.2468">
        <ele>6.3</ele>
        <time>2015-10-16T10:38:07Z</time>
      </trkpt>
      <trkpt lat="49.27508" lon="-0.24682">
        <ele>8</ele>
        <time>2015-10-16T10:38:14Z</time>
      </trkpt>
      <trkpt lat="49.27487" lon="-0.24689">
        <ele>11.2</ele>
        <time>2015-10-16T10:38:31Z</time>
      </trkpt>
      <trkpt lat="49.27486" lon="-0.2469">
        <ele>9.6</ele>
        <time>2015-10-16T10:38:32Z</time>
      </trkpt>
      <trkpt lat="49.27485" lon="-0.24692">
        <ele>8.4</ele>
        <time>2015-10-16T10:38:33Z</time>
      </trkpt>
      <trkpt lat="49.27483" lon="-0.24693">
        <ele>7.4</ele>
        <time>2015-10-16T10:38:34Z</time>
      </trkpt>
      <trkpt lat="49.27482" lon="-0.24694">
        <ele>7.6</ele>
        <time>2015-10-16T10:38:35Z</time>
      </trkpt>
      <trkpt lat="49.27444" lon="-0.24729">
        <ele>8.4</ele>
        <time>2015-10-16T10:39:05Z</time>
      </trkpt>
      <trkpt lat="49.27443" lon="-0.2473">
        <ele>9.7</ele>
        <time>2015-10-16T10:39:06Z</time>
      </trkpt>
      <trkpt lat="49.27436" lon="-0.24741">
        <ele>11.2</ele>
        <time>2015-10-16T10:39:13Z</time>
      </trkpt>
      <trkpt lat="49.27435" lon="-0.24742">
        <ele>11.2</ele>
        <time>2015-10-16T10:39:14Z</time>
      </trkpt>
      <trkpt lat="49.27429" lon="-0.24746">
        <ele>8</ele>
        <time>2015-10-16T10:39:18Z</time>
      </trkpt>
      <trkpt lat="49.27416" lon="-0.24752">
        <ele>5.1</ele>
        <time>2015-10-16T10:39:27Z</time>
      </trkpt>
      <trkpt lat="49.27414" lon="-0.24752">
        <ele>5</ele>
        <time>2015-10-16T10:39:28Z</time>
      </trkpt>
      <trkpt lat="49.27408" lon="-0.24754">
        <ele>9.6</ele>
        <time>2015-10-16T10:39:32Z</time>
      </trkpt>
      <trkpt lat="49.27407" lon="-0.24754">
        <ele>10.6</ele>
        <time>2015-10-16T10:39:33Z</time>
      </trkpt>
      <trkpt lat="49.27188" lon="-0.24817">
        <ele>10.5</ele>
        <time>2015-10-16T10:42:10Z</time>
      </trkpt>
      <trkpt lat="49.27178" lon="-0.24828">
        <ele>7.2</ele>
        <time>2015-10-16T10:42:19Z</time>
      </trkpt>
      <trkpt lat="49.27173" lon="-0.24837">
        <ele>8.9</ele>
        <time>2015-10-16T10:42:25Z</time>
      </trkpt>
      <trkpt lat="49.27155" lon="-0.24873">
        <ele>7.1</ele>
        <time>2015-10-16T10:42:47Z</time>
      </trkpt>
      <trkpt lat="49.27137" lon="-0.2492">
        <ele>8.7</ele>
        <time>2015-10-16T10:43:14Z</time>
      </trkpt>
      <trkpt lat="49.27136" lon="-0.24922">
        <ele>8.5</ele>
        <time>2015-10-16T10:43:15Z</time>
      </trkpt>
      <trkpt lat="49.27093" lon="-0.25018">
        <ele>7.8</ele>
        <time>2015-10-16T10:44:12Z</time>
      </trkpt>
      <trkpt lat="49.27088" lon="-0.25023">
        <ele>-0.8</ele>
        <time>2015-10-16T10:44:16Z</time>
      </trkpt>
      <trkpt lat="49.27087" lon="-0.25024">
        <ele>2.4</ele>
        <time>2015-10-16T10:44:17Z</time>
      </trkpt>
      <trkpt lat="49.27032" lon="-0.25062">
        <ele>11.8</ele>
        <time>2015-10-16T10:45:01Z</time>
      </trkpt>
      <trkpt lat="49.27022" lon="-0.25067">
        <ele>6.5</ele>
        <time>2015-10-16T10:45:08Z</time>
      </trkpt>
      <trkpt lat="49.27016" lon="-0.25068">
        <ele>4.5</ele>
        <time>2015-10-16T10:45:12Z</time>
      </trkpt>
      <trkpt lat="49.26663" lon="-0.2518">
        <ele>5.8</ele>
        <time>2015-10-16T10:49:34Z</time>
      </trkpt>
      <trkpt lat="49.26662" lon="-0.25182">
        <ele>7.4</ele>
        <time>2015-10-16T10:49:35Z</time>
      </trkpt>
      <trkpt lat="49.26661" lon="-0.25183">
        <ele>8.6</ele>
        <time>2015-10-16T10:49:36Z</time>
      </trkpt>
      <trkpt lat="49.2666" lon="-0.25184">
        <ele>9.5</ele>
        <time>2015-10-16T10:49:37Z</time>
      </trkpt>
      <trkpt lat="49.26659" lon="-0.25185">
        <ele>8.9</ele>
        <time>2015-10-16T10:49:38Z</time>
      </trkpt>
      <trkpt lat="49.26658" lon="-0.25186">
        <ele>8.5</ele>
        <time>2015-10-16T10:49:39Z</time>
      </trkpt>
      <trkpt lat="49.26655" lon="-0.25188">
        <ele>11</ele>
        <time>2015-10-16T10:49:43Z</time>
      </trkpt>
      <trkpt lat="49.26655" lon="-0.25188">
        <ele>10.6</ele>
        <time>2015-10-16T10:49:44Z</time>
      </trkpt>
      <trkpt lat="49.26655" lon="-0.25188">
        <ele>10.4</ele>
        <time>2015-10-16T10:49:45Z</time>
      </trkpt>
      <trkpt lat="49.26655" lon="-0.25188">
        <ele>10.2</ele>
        <time>2015-10-16T10:49:46Z</time>
      </trkpt>
      <trkpt lat="49.26655" lon="-0.25188">
        <ele>9.1</ele>
        <time>2015-10-16T10:49:47Z</time>
      </trkpt>
      <trkpt lat="49.26655" lon="-0.25188">
        <ele>8.2</ele>
        <time>2015-10-16T10:49:48Z</time>
      </trkpt>
      <trkpt lat="49.26655" lon="-0.25188">
        <ele>7.5</ele>
        <time>2015-10-16T10:49:49Z</time>
      </trkpt>
      <trkpt lat="49.26655" lon="-0.25188">
        <ele>7.2</ele>
        <time>2015-10-16T10:49:50Z</time>
      </trkpt>
      <trkpt lat="49.26655" lon="-0.25187">
        <ele>7</ele>
        <time>2015-10-16T10:49:51Z</time>
      </trkpt>
      <trkpt lat="49.26655" lon="-0.25187">
        <ele>6.9</ele>
        <time>2015-10-16T10:49:52Z</time>
      </trkpt>
      <trkpt lat="49.26655" lon="-0.25187">
        <ele>6.7</ele>
        <time>2015-10-16T10:49:53Z</time>
      </trkpt>
      <trkpt lat="49.26655" lon="-0.25187">
        <ele>6.6</ele>
        <time>2015-10-16T10:49:54Z</time>
      </trkpt>
      <trkpt lat="49.26655" lon="-0.25187">
        <ele>6.6</ele>
        <time>2015-10-16T10:49:55Z</time>
      </trkpt>
      <trkpt lat="49.26655" lon="-0.25187">
        <ele>6.5</ele>
        <time>2015-10-16T10:49:56Z</time>
      </trkpt>
      <trkpt lat="49.26655" lon="-0.25187">
        <ele>6.5</ele>
        <time>2015-10-16T10:49:57Z</time>
      </trkpt>
      <trkpt lat="49.26655" lon="-0.25187">
        <ele>6.5</ele>
        <time>2015-10-16T10:49:58Z</time>
      </trkpt>
      <trkpt lat="49.26655" lon="-0.25187">
        <ele>6.6</ele>
        <time>2015-10-16T10:49:59Z</time>
      </trkpt>
      <trkpt lat="49.26655" lon="-0.25187">
        <ele>6.8</ele>
        <time>2015-10-16T10:50:00Z</time>
      </trkpt>
      <trkpt lat="49.26655" lon="-0.25187">
        <ele>6.9</ele>
        <time>2015-10-16T10:50:01Z</time>
      </trkpt>
      <trkpt lat="49.26655" lon="-0.25187">
        <ele>6.8</ele>
        <time>2015-10-16T10:50:02Z</time>
      </trkpt>
      <trkpt lat="49.26655" lon="-0.25187">
        <ele>6.7</ele>
        <time>2015-10-16T10:50:03Z</time>
      </trkpt>
      <trkpt lat="49.26655" lon="-0.25187">
        <ele>6.6</ele>
        <time>2015-10-16T10:50:04Z</time>
      </trkpt>
      <trkpt lat="49.26655" lon="-0.25187">
        <ele>6.5</ele>
        <time>2015-10-16T10:50:05Z</time>
      </trkpt>
      <trkpt lat="49.26655" lon="-0.25187">
        <ele>6.5</ele>
        <time>2015-10-16T10:50:06Z</time>
      </trkpt>
      <trkpt lat="49.26655" lon="-0.25186">
        <ele>6.5</ele>
        <time>2015-10-16T10:50:07Z</time>
      </trkpt>
      <trkpt lat="49.26655" lon="-0.25186">
        <ele>6.6</ele>
        <time>2015-10-16T10:50:08Z</time>
      </trkpt>
      <trkpt lat="49.26655" lon="-0.25186">
        <ele>6.8</ele>
        <time>2015-10-16T10:50:09Z</time>
      </trkpt>
      <trkpt lat="49.26655" lon="-0.25186">
        <ele>6.9</ele>
        <time>2015-10-16T10:50:10Z</time>
      </trkpt>
      <trkpt lat="49.26655" lon="-0.25186">
        <ele>7</ele>
        <time>2015-10-16T10:50:11Z</time>
      </trkpt>
      <trkpt lat="49.26655" lon="-0.25186">
        <ele>7</ele>
        <time>2015-10-16T10:50:12Z</time>
      </trkpt>
      <trkpt lat="49.26655" lon="-0.25186">
        <ele>7.1</ele>
        <time>2015-10-16T10:50:13Z</time>
      </trkpt>
      <trkpt lat="49.26655" lon="-0.25186">
        <ele>6.9</ele>
        <time>2015-10-16T10:50:14Z</time>
      </trkpt>
      <trkpt lat="49.26655" lon="-0.25186">
        <ele>6.8</ele>
        <time>2015-10-16T10:50:15Z</time>
      </trkpt>
      <trkpt lat="49.26655" lon="-0.25186">
        <ele>6.7</ele>
        <time>2015-10-16T10:50:16Z</time>
      </trkpt>
      <trkpt lat="49.26655" lon="-0.25186">
        <ele>7</ele>
        <time>2015-10-16T10:50:17Z</time>
      </trkpt>
      <trkpt lat="49.26655" lon="-0.25186">
        <ele>7.3</ele>
        <time>2015-10-16T10:50:18Z</time>
      </trkpt>
      <trkpt lat="49.26655" lon="-0.25186">
        <ele>7.5</ele>
        <time>2015-10-16T10:50:19Z</time>
      </trkpt>
      <trkpt lat="49.26655" lon="-0.25186">
        <ele>8.4</ele>
        <time>2015-10-16T10:50:20Z</time>
      </trkpt>
      <trkpt lat="49.26655" lon="-0.25185">
        <ele>9.2</ele>
        <time>2015-10-16T10:50:21Z</time>
      </trkpt>
      <trkpt lat="49.26655" lon="-0.25186">
        <ele>9.7</ele>
        <time>2015-10-16T10:50:22Z</time>
      </trkpt>
      <trkpt lat="49.26654" lon="-0.25188">
        <ele>9</ele>
        <time>2015-10-16T10:50:24Z</time>
      </trkpt>
      <trkpt lat="49.26652" lon="-0.25189">
        <ele>9.8</ele>
        <time>2015-10-16T10:50:26Z</time>
      </trkpt>
      <trkpt lat="49.26649" lon="-0.25189">
        <ele>9</ele>
        <time>2015-10-16T10:50:29Z</time>
      </trkpt>
      <trkpt lat="49.26598" lon="-0.25193">
        <ele>7.8</ele>
        <time>2015-10-16T10:51:06Z</time>
      </trkpt>
      <trkpt lat="49.26597" lon="-0.25194">
        <ele>7.6</ele>
        <time>2015-10-16T10:51:07Z</time>
      </trkpt>
      <trkpt lat="49.26587" lon="-0.25201">
        <ele>4.3</ele>
        <time>2015-10-16T10:51:14Z</time>
      </trkpt>
      <trkpt lat="49.26573" lon="-0.25214">
        <ele>8.1</ele>
        <time>2015-10-16T10:51:25Z</time>
      </trkpt>
      <trkpt lat="49.26572" lon="-0.25214">
        <ele>6.4</ele>
        <time>2015-10-16T10:51:26Z</time>
      </trkpt>
      <trkpt lat="49.26565" lon="-0.25217">
        <ele>0.7</ele>
        <time>2015-10-16T10:51:31Z</time>
      </trkpt>
      <trkpt lat="49.26555" lon="-0.25219">
        <ele>8.5</ele>
        <time>2015-10-16T10:51:39Z</time>
      </trkpt>
      <trkpt lat="49.26514" lon="-0.25231">
        <ele>6.1</ele>
        <time>2015-10-16T10:52:12Z</time>
      </trkpt>
      <trkpt lat="49.26514" lon="-0.25231">
        <ele>6.3</ele>
        <time>2015-10-16T10:52:13Z</time>
      </trkpt>
      <trkpt lat="49.26512" lon="-0.25232">
        <ele>6.8</ele>
        <time>2015-10-16T10:52:16Z</time>
      </trkpt>
      <trkpt lat="49.26512" lon="-0.25232">
        <ele>7.1</ele>
        <time>2015-10-16T10:52:17Z</time>
      </trkpt>
      <trkpt lat="49.26512" lon="-0.25232">
        <ele>7.4</ele>
        <time>2015-10-16T10:52:18Z</time>
      </trkpt>
      <trkpt lat="49.26512" lon="-0.25232">
        <ele>7.5</ele>
        <time>2015-10-16T10:52:19Z</time>
      </trkpt>
      <trkpt lat="49.26512" lon="-0.25232">
        <ele>7.4</ele>
        <time>2015-10-16T10:52:20Z</time>
      </trkpt>
      <trkpt lat="49.26511" lon="-0.25232">
        <ele>7.4</ele>
        <time>2015-10-16T10:52:21Z</time>
      </trkpt>
      <trkpt lat="49.26511" lon="-0.25232">
        <ele>7.3</ele>
        <time>2015-10-16T10:52:22Z</time>
      </trkpt>
      <trkpt lat="49.26511" lon="-0.25232">
        <ele>7.5</ele>
        <time>2015-10-16T10:52:23Z</time>
      </trkpt>
      <trkpt lat="49.26511" lon="-0.25232">
        <ele>7.6</ele>
        <time>2015-10-16T10:52:24Z</time>
      </trkpt>
      <trkpt lat="49.2651" lon="-0.25232">
        <ele>7.7</ele>
        <time>2015-10-16T10:52:25Z</time>
      </trkpt>
      <trkpt lat="49.2651" lon="-0.25231">
        <ele>7.4</ele>
        <time>2015-10-16T10:52:26Z</time>
      </trkpt>
      <trkpt lat="49.2651" lon="-0.25231">
        <ele>7.1</ele>
        <time>2015-10-16T10:52:27Z</time>
      </trkpt>
      <trkpt lat="49.26509" lon="-0.2523">
        <ele>6.9</ele>
        <time>2015-10-16T10:52:28Z</time>
      </trkpt>
      <trkpt lat="49.26509" lon="-0.2523">
        <ele>7.4</ele>
        <time>2015-10-16T10:52:29Z</time>
      </trkpt>
      <trkpt lat="49.26509" lon="-0.2523">
        <ele>7.8</ele>
        <time>2015-10-16T10:52:30Z</time>
      </trkpt>
      <trkpt lat="49.26509" lon="-0.25229">
        <ele>8.1</ele>
        <time>2015-10-16T10:52:31Z</time>
      </trkpt>
      <trkpt lat="49.26508" lon="-0.25228">
        <ele>8.5</ele>
        <time>2015-10-16T10:52:32Z</time>
      </trkpt>
      <trkpt lat="49.26508" lon="-0.25227">
        <ele>8.8</ele>
        <time>2015-10-16T10:52:33Z</time>
      </trkpt>
      <trkpt lat="49.26504" lon="-0.25223">
        <ele>5.1</ele>
        <time>2015-10-16T10:52:37Z</time>
      </trkpt>
      <trkpt lat="49.26501" lon="-0.25223">
        <ele>4.6</ele>
        <time>2015-10-16T10:52:39Z</time>
      </trkpt>
      <trkpt lat="49.265" lon="-0.25224">
        <ele>4.4</ele>
        <time>2015-10-16T10:52:40Z</time>
      </trkpt>
      <trkpt lat="49.26498" lon="-0.25224">
        <ele>5.7</ele>
        <time>2015-10-16T10:52:41Z</time>
      </trkpt>
      <trkpt lat="49.26497" lon="-0.25225">
        <ele>6.7</ele>
        <time>2015-10-16T10:52:42Z</time>
      </trkpt>
      <trkpt lat="49.26496" lon="-0.25225">
        <ele>7.5</ele>
        <time>2015-10-16T10:52:43Z</time>
      </trkpt>
      <trkpt lat="49.26495" lon="-0.25226">
        <ele>8</ele>
        <time>2015-10-16T10:52:44Z</time>
      </trkpt>
      <trkpt lat="49.26493" lon="-0.25226">
        <ele>8.4</ele>
        <time>2015-10-16T10:52:45Z</time>
      </trkpt>
      <trkpt lat="49.26492" lon="-0.25226">
        <ele>8.7</ele>
        <time>2015-10-16T10:52:46Z</time>
      </trkpt>
      <trkpt lat="49.2643" lon="-0.25242">
        <ele>5.3</ele>
        <time>2015-10-16T10:53:35Z</time>
      </trkpt>
      <trkpt lat="49.26429" lon="-0.25242">
        <ele>4.1</ele>
        <time>2015-10-16T10:53:36Z</time>
      </trkpt>
      <trkpt lat="49.26379" lon="-0.25259">
        <ele>10.2</ele>
        <time>2015-10-16T10:54:15Z</time>
      </trkpt>
      <trkpt lat="49.26379" lon="-0.2526">
        <ele>10.3</ele>
        <time>2015-10-16T10:54:16Z</time>
      </trkpt>
      <trkpt lat="49.26379" lon="-0.25261">
        <ele>9.9</ele>
        <time>2015-10-16T10:54:17Z</time>
      </trkpt>
      <trkpt lat="49.26379" lon="-0.25263">
        <ele>9.7</ele>
        <time>2015-10-16T10:54:18Z</time>
      </trkpt>
      <trkpt lat="49.26379" lon="-0.25264">
        <ele>9.5</ele>
        <time>2015-10-16T10:54:19Z</time>
      </trkpt>
      <trkpt lat="49.26379" lon="-0.25265">
        <ele>9.1</ele>
        <time>2015-10-16T10:54:20Z</time>
      </trkpt>
      <trkpt lat="49.26379" lon="-0.25265">
        <ele>8.8</ele>
        <time>2015-10-16T10:54:21Z</time>
      </trkpt>
      <trkpt lat="49.26379" lon="-0.25266">
        <ele>8.6</ele>
        <time>2015-10-16T10:54:22Z</time>
      </trkpt>
      <trkpt lat="49.2638" lon="-0.25266">
        <ele>8.5</ele>
        <time>2015-10-16T10:54:23Z</time>
      </trkpt>
      <trkpt lat="49.2638" lon="-0.25266">
        <ele>8.4</ele>
        <time>2015-10-16T10:54:24Z</time>
      </trkpt>
      <trkpt lat="49.2638" lon="-0.25267">
        <ele>8.3</ele>
        <time>2015-10-16T10:54:25Z</time>
      </trkpt>
      <trkpt lat="49.26381" lon="-0.25268">
        <ele>7.7</ele>
        <time>2015-10-16T10:54:37Z</time>
      </trkpt>
      <trkpt lat="49.26381" lon="-0.25268">
        <ele>7.2</ele>
        <time>2015-10-16T10:54:38Z</time>
      </trkpt>
      <trkpt lat="49.26381" lon="-0.25268">
        <ele>6.8</ele>
        <time>2015-10-16T10:54:39Z</time>
      </trkpt>
      <trkpt lat="49.2638" lon="-0.25268">
        <ele>6.5</ele>
        <time>2015-10-16T10:54:40Z</time>
      </trkpt>
      <trkpt lat="49.26333" lon="-0.25275">
        <ele>7.3</ele>
        <time>2015-10-16T10:55:21Z</time>
      </trkpt>
      <trkpt lat="49.26313" lon="-0.25286">
        <ele>8.1</ele>
        <time>2015-10-16T10:55:37Z</time>
      </trkpt>
      <trkpt lat="49.26304" lon="-0.25293">
        <ele>5.6</ele>
        <time>2015-10-16T10:55:44Z</time>
      </trkpt>
      <trkpt lat="49.26302" lon="-0.25294">
        <ele>6.6</ele>
        <time>2015-10-16T10:55:45Z</time>
      </trkpt>
      <trkpt lat="49.26293" lon="-0.25301">
        <ele>8.5</ele>
        <time>2015-10-16T10:55:52Z</time>
      </trkpt>
      <trkpt lat="49.26291" lon="-0.25302">
        <ele>7.4</ele>
        <time>2015-10-16T10:55:53Z</time>
      </trkpt>
      <trkpt lat="49.2629" lon="-0.25302">
        <ele>6.5</ele>
        <time>2015-10-16T10:55:54Z</time>
      </trkpt>
      <trkpt lat="49.26287" lon="-0.25303">
        <ele>6</ele>
        <time>2015-10-16T10:55:56Z</time>
      </trkpt>
      <trkpt lat="49.26286" lon="-0.25303">
        <ele>6.1</ele>
        <time>2015-10-16T10:55:57Z</time>
      </trkpt>
      <trkpt lat="49.26283" lon="-0.25303">
        <ele>7.7</ele>
        <time>2015-10-16T10:55:59Z</time>
      </trkpt>
      <trkpt lat="49.26281" lon="-0.25303">
        <ele>9.6</ele>
        <time>2015-10-16T10:56:01Z</time>
      </trkpt>
      <trkpt lat="49.26268" lon="-0.25297">
        <ele>5.4</ele>
        <time>2015-10-16T10:56:10Z</time>
      </trkpt>
      <trkpt lat="49.26266" lon="-0.25297">
        <ele>7.1</ele>
        <time>2015-10-16T10:56:11Z</time>
      </trkpt>
      <trkpt lat="49.26265" lon="-0.25296">
        <ele>8.4</ele>
        <time>2015-10-16T10:56:12Z</time>
      </trkpt>
      <trkpt lat="49.26263" lon="-0.25296">
        <ele>9.3</ele>
        <time>2015-10-16T10:56:13Z</time>
      </trkpt>
      <trkpt lat="49.26261" lon="-0.25295">
        <ele>9.2</ele>
        <time>2015-10-16T10:56:14Z</time>
      </trkpt>
      <trkpt lat="49.2626" lon="-0.25295">
        <ele>9.1</ele>
        <time>2015-10-16T10:56:15Z</time>
      </trkpt>
      <trkpt lat="49.26258" lon="-0.25295">
        <ele>9</ele>
        <time>2015-10-16T10:56:16Z</time>
      </trkpt>
      <trkpt lat="49.26255" lon="-0.25294">
        <ele>5.3</ele>
        <time>2015-10-16T10:56:18Z</time>
      </trkpt>
      <trkpt lat="49.26249" lon="-0.25295">
        <ele>3</ele>
        <time>2015-10-16T10:56:22Z</time>
      </trkpt>
      <trkpt lat="49.26149" lon="-0.25321">
        <ele>5.1</ele>
        <time>2015-10-16T10:57:36Z</time>
      </trkpt>
      <trkpt lat="49.26148" lon="-0.25322">
        <ele>5.2</ele>
        <time>2015-10-16T10:57:37Z</time>
      </trkpt>
      <trkpt lat="49.26145" lon="-0.25324">
        <ele>7.9</ele>
        <time>2015-10-16T10:57:39Z</time>
      </trkpt>
      <trkpt lat="49.26137" lon="-0.25333">
        <ele>2.1</ele>
        <time>2015-10-16T10:57:47Z</time>
      </trkpt>
      <trkpt lat="49.26135" lon="-0.25334">
        <ele>2.5</ele>
        <time>2015-10-16T10:57:48Z</time>
      </trkpt>
      <trkpt lat="49.26114" lon="-0.25343">
        <ele>5.7</ele>
        <time>2015-10-16T10:58:03Z</time>
      </trkpt>
      <trkpt lat="49.26113" lon="-0.25343">
        <ele>5.9</ele>
        <time>2015-10-16T10:58:04Z</time>
      </trkpt>
      <trkpt lat="49.26109" lon="-0.25341">
        <ele>10.5</ele>
        <time>2015-10-16T10:58:07Z</time>
      </trkpt>
      <trkpt lat="49.26019" lon="-0.25318">
        <ele>10.7</ele>
        <time>2015-10-16T10:59:22Z</time>
      </trkpt>
      <trkpt lat="49.26018" lon="-0.25318">
        <ele>10.6</ele>
        <time>2015-10-16T10:59:23Z</time>
      </trkpt>
      <trkpt lat="49.26009" lon="-0.25315">
        <ele>4.6</ele>
        <time>2015-10-16T10:59:33Z</time>
      </trkpt>
      <trkpt lat="49.26008" lon="-0.25314">
        <ele>2.9</ele>
        <time>2015-10-16T10:59:34Z</time>
      </trkpt>
      <trkpt lat="49.26008" lon="-0.25312">
        <ele>4.4</ele>
        <time>2015-10-16T10:59:35Z</time>
      </trkpt>
      <trkpt lat="49.26008" lon="-0.25311">
        <ele>5.5</ele>
        <time>2015-10-16T10:59:36Z</time>
      </trkpt>
      <trkpt lat="49.26008" lon="-0.25309">
        <ele>6.4</ele>
        <time>2015-10-16T10:59:37Z</time>
      </trkpt>
      <trkpt lat="49.26008" lon="-0.25308">
        <ele>7.4</ele>
        <time>2015-10-16T10:59:38Z</time>
      </trkpt>
      <trkpt lat="49.26008" lon="-0.25307">
        <ele>8.2</ele>
        <time>2015-10-16T10:59:39Z</time>
      </trkpt>
      <trkpt lat="49.26008" lon="-0.25307">
        <ele>8.8</ele>
        <time>2015-10-16T10:59:40Z</time>
      </trkpt>
      <trkpt lat="49.26008" lon="-0.25306">
        <ele>9.8</ele>
        <time>2015-10-16T10:59:41Z</time>
      </trkpt>
      <trkpt lat="49.26008" lon="-0.25306">
        <ele>10.6</ele>
        <time>2015-10-16T10:59:42Z</time>
      </trkpt>
      <trkpt lat="49.26008" lon="-0.25305">
        <ele>11.2</ele>
        <time>2015-10-16T10:59:43Z</time>
      </trkpt>
      <trkpt lat="49.26006" lon="-0.25305">
        <ele>4.6</ele>
        <time>2015-10-16T10:59:46Z</time>
      </trkpt>
      <trkpt lat="49.26005" lon="-0.25305">
        <ele>5.9</ele>
        <time>2015-10-16T10:59:47Z</time>
      </trkpt>
      <trkpt lat="49.26004" lon="-0.25305">
        <ele>6.8</ele>
        <time>2015-10-16T10:59:48Z</time>
      </trkpt>
      <trkpt lat="49.26003" lon="-0.25304">
        <ele>7.7</ele>
        <time>2015-10-16T10:59:50Z</time>
      </trkpt>
      <trkpt lat="49.26003" lon="-0.25304">
        <ele>7.8</ele>
        <time>2015-10-16T10:59:51Z</time>
      </trkpt>
      <trkpt lat="49.26003" lon="-0.25304">
        <ele>7.8</ele>
        <time>2015-10-16T10:59:52Z</time>
      </trkpt>
      <trkpt lat="49.26004" lon="-0.25304">
        <ele>8.1</ele>
        <time>2015-10-16T10:59:53Z</time>
      </trkpt>
      <trkpt lat="49.26004" lon="-0.25304">
        <ele>8.3</ele>
        <time>2015-10-16T10:59:54Z</time>
      </trkpt>
      <trkpt lat="49.26004" lon="-0.25305">
        <ele>8.4</ele>
        <time>2015-10-16T10:59:55Z</time>
      </trkpt>
      <trkpt lat="49.26004" lon="-0.25305">
        <ele>7.9</ele>
        <time>2015-10-16T10:59:56Z</time>
      </trkpt>
      <trkpt lat="49.26004" lon="-0.25305">
        <ele>7.5</ele>
        <time>2015-10-16T10:59:57Z</time>
      </trkpt>
      <trkpt lat="49.26004" lon="-0.25305">
        <ele>7.2</ele>
        <time>2015-10-16T10:59:58Z</time>
      </trkpt>
      <trkpt lat="49.26004" lon="-0.25305">
        <ele>6</ele>
        <time>2015-10-16T10:59:59Z</time>
      </trkpt>
      <trkpt lat="49.26004" lon="-0.25306">
        <ele>5</ele>
        <time>2015-10-16T11:00:00Z</time>
      </trkpt>
      <trkpt lat="49.26002" lon="-0.25307">
        <ele>6.1</ele>
        <time>2015-10-16T11:00:02Z</time>
      </trkpt>
      <trkpt lat="49.26001" lon="-0.25307">
        <ele>7.4</ele>
        <time>2015-10-16T11:00:03Z</time>
      </trkpt>
      <trkpt lat="49.26" lon="-0.25307">
        <ele>8.4</ele>
        <time>2015-10-16T11:00:04Z</time>
      </trkpt>
      <trkpt lat="49.25998" lon="-0.25306">
        <ele>8.9</ele>
        <time>2015-10-16T11:00:05Z</time>
      </trkpt>
      <trkpt lat="49.25997" lon="-0.25306">
        <ele>9.3</ele>
        <time>2015-10-16T11:00:06Z</time>
      </trkpt>
      <trkpt lat="49.25995" lon="-0.25306">
        <ele>9.6</ele>
        <time>2015-10-16T11:00:07Z</time>
      </trkpt>
      <trkpt lat="49.25994" lon="-0.25306">
        <ele>9</ele>
        <time>2015-10-16T11:00:08Z</time>
      </trkpt>
      <trkpt lat="49.25993" lon="-0.25306">
        <ele>8.6</ele>
        <time>2015-10-16T11:00:09Z</time>
      </trkpt>
      <trkpt lat="49.25992" lon="-0.25307">
        <ele>8.2</ele>
        <time>2015-10-16T11:00:10Z</time>
      </trkpt>
      <trkpt lat="49.25989" lon="-0.25311">
        <ele>10.5</ele>
        <time>2015-10-16T11:00:13Z</time>
      </trkpt>
      <trkpt lat="49.25985" lon="-0.25318">
        <ele>5.5</ele>
        <time>2015-10-16T11:00:18Z</time>
      </trkpt>
      <trkpt lat="49.25982" lon="-0.25327">
        <ele>5.6</ele>
        <time>2015-10-16T11:00:24Z</time>
      </trkpt>
      <trkpt lat="49.25981" lon="-0.25328">
        <ele>5.4</ele>
        <time>2015-10-16T11:00:25Z</time>
      </trkpt>
      <trkpt lat="49.25982" lon="-0.2533">
        <ele>6.6</ele>
        <time>2015-10-16T11:00:27Z</time>
      </trkpt>
      <trkpt lat="49.25982" lon="-0.25332">
        <ele>6.9</ele>
        <time>2015-10-16T11:00:28Z</time>
      </trkpt>
      <trkpt lat="49.25983" lon="-0.25333">
        <ele>7.2</ele>
        <time>2015-10-16T11:00:29Z</time>
      </trkpt>
      <trkpt lat="49.25984" lon="-0.25334">
        <ele>7.4</ele>
        <time>2015-10-16T11:00:30Z</time>
      </trkpt>
      <trkpt lat="49.25984" lon="-0.25335">
        <ele>7.6</ele>
        <time>2015-10-16T11:00:31Z</time>
      </trkpt>
      <trkpt lat="49.25985" lon="-0.25337">
        <ele>7.3</ele>
        <time>2015-10-16T11:00:32Z</time>
      </trkpt>
      <trkpt lat="49.25985" lon="-0.25338">
        <ele>7</ele>
        <time>2015-10-16T11:00:33Z</time>
      </trkpt>
      <trkpt lat="49.25986" lon="-0.25338">
        <ele>6.9</ele>
        <time>2015-10-16T11:00:34Z</time>
      </trkpt>
      <trkpt lat="49.25986" lon="-0.25338">
        <ele>7.4</ele>
        <time>2015-10-16T11:00:35Z</time>
      </trkpt>
      <trkpt lat="49.25986" lon="-0.25338">
        <ele>7.7</ele>
        <time>2015-10-16T11:00:36Z</time>
      </trkpt>
      <trkpt lat="49.25986" lon="-0.25339">
        <ele>8</ele>
        <time>2015-10-16T11:00:37Z</time>
      </trkpt>
      <trkpt lat="49.25986" lon="-0.25339">
        <ele>8.2</ele>
        <time>2015-10-16T11:00:38Z</time>
      </trkpt>
      <trkpt lat="49.25986" lon="-0.25339">
        <ele>8.4</ele>
        <time>2015-10-16T11:00:39Z</time>
      </trkpt>
      <trkpt lat="49.25985" lon="-0.2534">
        <ele>8.5</ele>
        <time>2015-10-16T11:00:40Z</time>
      </trkpt>
      <trkpt lat="49.25985" lon="-0.25341">
        <ele>8.6</ele>
        <time>2015-10-16T11:00:41Z</time>
      </trkpt>
      <trkpt lat="49.25983" lon="-0.25342">
        <ele>8.7</ele>
        <time>2015-10-16T11:00:43Z</time>
      </trkpt>
      <trkpt lat="49.25978" lon="-0.25344">
        <ele>8.9</ele>
        <time>2015-10-16T11:00:47Z</time>
      </trkpt>
      <trkpt lat="49.25977" lon="-0.25345">
        <ele>7.8</ele>
        <time>2015-10-16T11:00:48Z</time>
      </trkpt>
      <trkpt lat="49.25917" lon="-0.25382">
        <ele>3.5</ele>
        <time>2015-10-16T11:01:37Z</time>
      </trkpt>
      <trkpt lat="49.25915" lon="-0.25383">
        <ele>4</ele>
        <time>2015-10-16T11:01:38Z</time>
      </trkpt>
      <trkpt lat="49.25902" lon="-0.25395">
        <ele>6.8</ele>
        <time>2015-10-16T11:01:49Z</time>
      </trkpt>
      <trkpt lat="49.25887" lon="-0.25405">
        <ele>8.4</ele>
        <time>2015-10-16T11:02:01Z</time>
      </trkpt>
      <trkpt lat="49.25885" lon="-0.25405">
        <ele>8.7</ele>
        <time>2015-10-16T11:02:02Z</time>
      </trkpt>
      <trkpt lat="49.25793" lon="-0.25431">
        <ele>0.4</ele>
        <time>2015-10-16T11:03:10Z</time>
      </trkpt>
      <trkpt lat="49.25792" lon="-0.25432">
        <ele>0.6</ele>
        <time>2015-10-16T11:03:11Z</time>
      </trkpt>
      <trkpt lat="49.2579" lon="-0.25433">
        <ele>1</ele>
        <time>2015-10-16T11:03:13Z</time>
      </trkpt>
      <trkpt lat="49.25719" lon="-0.25453">
        <ele>6.8</ele>
        <time>2015-10-16T11:04:06Z</time>
      </trkpt>
      <trkpt lat="49.25629" lon="-0.2548">
        <ele>8.5</ele>
        <time>2015-10-16T11:05:12Z</time>
      </trkpt>
      <trkpt lat="49.25628" lon="-0.2548">
        <ele>8.8</ele>
        <time>2015-10-16T11:05:13Z</time>
      </trkpt>
      <trkpt lat="49.25537" lon="-0.255">
        <ele>9.2</ele>
        <time>2015-10-16T11:06:20Z</time>
      </trkpt>
      <trkpt lat="49.25536" lon="-0.255">
        <ele>8.9</ele>
        <time>2015-10-16T11:06:21Z</time>
      </trkpt>
      <trkpt lat="49.25518" lon="-0.25508">
        <ele>7.3</ele>
        <time>2015-10-16T11:06:35Z</time>
      </trkpt>
      <trkpt lat="49.25489" lon="-0.25528">
        <ele>5.3</ele>
        <time>2015-10-16T11:06:58Z</time>
      </trkpt>
      <trkpt lat="49.25386" lon="-0.25614">
        <ele>7.5</ele>
        <time>2015-10-16T11:08:22Z</time>
      </trkpt>
      <trkpt lat="49.25385" lon="-0.25615">
        <ele>8.7</ele>
        <time>2015-10-16T11:08:23Z</time>
      </trkpt>
      <trkpt lat="49.25347" lon="-0.25645">
        <ele>5.4</ele>
        <time>2015-10-16T11:08:54Z</time>
      </trkpt>
      <trkpt lat="49.25341" lon="-0.2565">
        <ele>6.9</ele>
        <time>2015-10-16T11:08:59Z</time>
      </trkpt>
      <trkpt lat="49.25312" lon="-0.25674">
        <ele>7.4</ele>
        <time>2015-10-16T11:09:22Z</time>
      </trkpt>
      <trkpt lat="49.25311" lon="-0.25675">
        <ele>7.3</ele>
        <time>2015-10-16T11:09:23Z</time>
      </trkpt>
      <trkpt lat="49.25309" lon="-0.25675">
        <ele>7.3</ele>
        <time>2015-10-16T11:09:24Z</time>
      </trkpt>
      <trkpt lat="49.25096" lon="-0.25857">
        <ele>5.7</ele>
        <time>2015-10-16T11:12:22Z</time>
      </trkpt>
      <trkpt lat="49.25096" lon="-0.25857">
        <ele>6.1</ele>
        <time>2015-10-16T11:12:23Z</time>
      </trkpt>
      <trkpt lat="49.25096" lon="-0.25858">
        <ele>6.4</ele>
        <time>2015-10-16T11:12:24Z</time>
      </trkpt>
      <trkpt lat="49.25095" lon="-0.25858">
        <ele>6.6</ele>
        <time>2015-10-16T11:12:25Z</time>
      </trkpt>
      <trkpt lat="49.25094" lon="-0.25859">
        <ele>6.3</ele>
        <time>2015-10-16T11:12:26Z</time>
      </trkpt>
      <trkpt lat="49.25094" lon="-0.25859">
        <ele>6.1</ele>
        <time>2015-10-16T11:12:27Z</time>
      </trkpt>
      <trkpt lat="49.25091" lon="-0.25861">
        <ele>4.4</ele>
        <time>2015-10-16T11:12:29Z</time>
      </trkpt>
      <trkpt lat="49.25006" lon="-0.25934">
        <ele>6.5</ele>
        <time>2015-10-16T11:13:42Z</time>
      </trkpt>
      <trkpt lat="49.25005" lon="-0.25936">
        <ele>6.6</ele>
        <time>2015-10-16T11:13:43Z</time>
      </trkpt>
      <trkpt lat="49.24997" lon="-0.25949">
        <ele>7.2</ele>
        <time>2015-10-16T11:13:53Z</time>
      </trkpt>
      <trkpt lat="49.24996" lon="-0.25949">
        <ele>7.6</ele>
        <time>2015-10-16T11:13:54Z</time>
      </trkpt>
      <trkpt lat="49.24986" lon="-0.25956">
        <ele>9.2</ele>
        <time>2015-10-16T11:14:03Z</time>
      </trkpt>
      <trkpt lat="49.24985" lon="-0.25957">
        <ele>9.6</ele>
        <time>2015-10-16T11:14:04Z</time>
      </trkpt>
      <trkpt lat="49.24984" lon="-0.25957">
        <ele>10.2</ele>
        <time>2015-10-16T11:14:05Z</time>
      </trkpt>
      <trkpt lat="49.24972" lon="-0.25963">
        <ele>6.7</ele>
        <time>2015-10-16T11:14:14Z</time>
      </trkpt>
      <trkpt lat="49.24961" lon="-0.25971">
        <ele>6.1</ele>
        <time>2015-10-16T11:14:24Z</time>
      </trkpt>
      <trkpt lat="49.24788" lon="-0.26119">
        <ele>8.2</ele>
        <time>2015-10-16T11:16:55Z</time>
      </trkpt>
      <trkpt lat="49.24787" lon="-0.2612">
        <ele>7.3</ele>
        <time>2015-10-16T11:16:56Z</time>
      </trkpt>
      <trkpt lat="49.24785" lon="-0.26123">
        <ele>6.2</ele>
        <time>2015-10-16T11:16:58Z</time>
      </trkpt>
      <trkpt lat="49.2478" lon="-0.26126">
        <ele>8.2</ele>
        <time>2015-10-16T11:17:02Z</time>
      </trkpt>
      <trkpt lat="49.24496" lon="-0.26363">
        <ele>8.4</ele>
        <time>2015-10-16T11:21:04Z</time>
      </trkpt>
      <trkpt lat="49.24495" lon="-0.26364">
        <ele>8.1</ele>
        <time>2015-10-16T11:21:05Z</time>
      </trkpt>
      <trkpt lat="49.24444" lon="-0.26411">
        <ele>8.2</ele>
        <time>2015-10-16T11:21:53Z</time>
      </trkpt>
      <trkpt lat="49.2441" lon="-0.26438">
        <ele>9.1</ele>
        <time>2015-10-16T11:22:23Z</time>
      </trkpt>
      <trkpt lat="49.24409" lon="-0.26439">
        <ele>8.5</ele>
        <time>2015-10-16T11:22:24Z</time>
      </trkpt>
      <trkpt lat="49.24403" lon="-0.26442">
        <ele>3.9</ele>
        <time>2015-10-16T11:22:34Z</time>
      </trkpt>
      <trkpt lat="49.24402" lon="-0.26443">
        <ele>4.5</ele>
        <time>2015-10-16T11:22:35Z</time>
      </trkpt>
      <trkpt lat="49.24399" lon="-0.26447">
        <ele>5.1</ele>
        <time>2015-10-16T11:22:39Z</time>
      </trkpt>
      <trkpt lat="49.24398" lon="-0.26448">
        <ele>5</ele>
        <time>2015-10-16T11:22:40Z</time>
      </trkpt>
      <trkpt lat="49.24154" lon="-0.26659">
        <ele>4.8</ele>
        <time>2015-10-16T11:26:16Z</time>
      </trkpt>
      <trkpt lat="49.24153" lon="-0.26661">
        <ele>6.4</ele>
        <time>2015-10-16T11:26:17Z</time>
      </trkpt>
      <trkpt lat="49.24137" lon="-0.26694">
        <ele>6.5</ele>
        <time>2015-10-16T11:26:39Z</time>
      </trkpt>
      <trkpt lat="49.24131" lon="-0.26716">
        <ele>6.2</ele>
        <time>2015-10-16T11:26:51Z</time>
      </trkpt>
      <trkpt lat="49.24128" lon="-0.26733">
        <ele>7</ele>
        <time>2015-10-16T11:27:00Z</time>
      </trkpt>
      <trkpt lat="49.24124" lon="-0.26777">
        <ele>10.1</ele>
        <time>2015-10-16T11:27:24Z</time>
      </trkpt>
      <trkpt lat="49.24124" lon="-0.26779">
        <ele>10.8</ele>
        <time>2015-10-16T11:27:25Z</time>
      </trkpt>
      <trkpt lat="49.24128" lon="-0.26802">
        <ele>9.1</ele>
        <time>2015-10-16T11:27:37Z</time>
      </trkpt>
      <trkpt lat="49.24128" lon="-0.26804">
        <ele>8.8</ele>
        <time>2015-10-16T11:27:38Z</time>
      </trkpt>
      <trkpt lat="49.24135" lon="-0.26828">
        <ele>4.7</ele>
        <time>2015-10-16T11:27:50Z</time>
      </trkpt>
      <trkpt lat="49.24135" lon="-0.2683">
        <ele>3.9</ele>
        <time>2015-10-16T11:27:51Z</time>
      </trkpt>
      <trkpt lat="49.24136" lon="-0.26836">
        <ele>7.1</ele>
        <time>2015-10-16T11:27:54Z</time>
      </trkpt>
      <trkpt lat="49.24135" lon="-0.26844">
        <ele>6.3</ele>
        <time>2015-10-16T11:27:58Z</time>
      </trkpt>
      <trkpt lat="49.24132" lon="-0.26867">
        <ele>5.9</ele>
        <time>2015-10-16T11:28:09Z</time>
      </trkpt>
      <trkpt lat="49.24131" lon="-0.2687">
        <ele>5.5</ele>
        <time>2015-10-16T11:28:11Z</time>
      </trkpt>
      <trkpt lat="49.24126" lon="-0.26875">
        <ele>8.3</ele>
        <time>2015-10-16T11:28:15Z</time>
      </trkpt>
      <trkpt lat="49.24125" lon="-0.26877">
        <ele>9</ele>
        <time>2015-10-16T11:28:16Z</time>
      </trkpt>
      <trkpt lat="49.24123" lon="-0.26878">
        <ele>9</ele>
        <time>2015-10-16T11:28:17Z</time>
      </trkpt>
      <trkpt lat="49.24122" lon="-0.26879">
        <ele>9</ele>
        <time>2015-10-16T11:28:18Z</time>
      </trkpt>
      <trkpt lat="49.24105" lon="-0.26898">
        <ele>8.2</ele>
        <time>2015-10-16T11:28:35Z</time>
      </trkpt>
      <trkpt lat="49.24104" lon="-0.26899">
        <ele>7.3</ele>
        <time>2015-10-16T11:28:36Z</time>
      </trkpt>
      <trkpt lat="49.24102" lon="-0.26908">
        <ele>6</ele>
        <time>2015-10-16T11:28:41Z</time>
      </trkpt>
      <trkpt lat="49.24102" lon="-0.26914">
        <ele>4.7</ele>
        <time>2015-10-16T11:28:44Z</time>
      </trkpt>
      <trkpt lat="49.241" lon="-0.26937">
        <ele>7.7</ele>
        <time>2015-10-16T11:28:56Z</time>
      </trkpt>
      <trkpt lat="49.241" lon="-0.26939">
        <ele>7.4</ele>
        <time>2015-10-16T11:28:57Z</time>
      </trkpt>
      <trkpt lat="49.241" lon="-0.26945">
        <ele>6.4</ele>
        <time>2015-10-16T11:29:00Z</time>
      </trkpt>
      <trkpt lat="49.24101" lon="-0.26954">
        <ele>6.8</ele>
        <time>2015-10-16T11:29:04Z</time>
      </trkpt>
      <trkpt lat="49.24107" lon="-0.26978">
        <ele>7</ele>
        <time>2015-10-16T11:29:16Z</time>
      </trkpt>
      <trkpt lat="49.24163" lon="-0.27203">
        <ele>6.8</ele>
        <time>2015-10-16T11:31:18Z</time>
      </trkpt>
      <trkpt lat="49.24164" lon="-0.27204">
        <ele>6.5</ele>
        <time>2015-10-16T11:31:19Z</time>
      </trkpt>
      <trkpt lat="49.24171" lon="-0.27221">
        <ele>7.4</ele>
        <time>2015-10-16T11:31:30Z</time>
      </trkpt>
      <trkpt lat="49.24174" lon="-0.27227">
        <ele>8</ele>
        <time>2015-10-16T11:31:34Z</time>
      </trkpt>
      <trkpt lat="49.24183" lon="-0.27244">
        <ele>3.9</ele>
        <time>2015-10-16T11:31:46Z</time>
      </trkpt>
      <trkpt lat="49.24183" lon="-0.27245">
        <ele>4.8</ele>
        <time>2015-10-16T11:31:47Z</time>
      </trkpt>
      <trkpt lat="49.24189" lon="-0.27254">
        <ele>8.8</ele>
        <time>2015-10-16T11:31:53Z</time>
      </trkpt>
      <trkpt lat="49.24191" lon="-0.27259">
        <ele>7.1</ele>
        <time>2015-10-16T11:31:56Z</time>
      </trkpt>
      <trkpt lat="49.24195" lon="-0.27272">
        <ele>7.9</ele>
        <time>2015-10-16T11:32:03Z</time>
      </trkpt>
      <trkpt lat="49.24195" lon="-0.27276">
        <ele>6.6</ele>
        <time>2015-10-16T11:32:07Z</time>
      </trkpt>
      <trkpt lat="49.24195" lon="-0.27276">
        <ele>5.7</ele>
        <time>2015-10-16T11:32:08Z</time>
      </trkpt>
      <trkpt lat="49.24195" lon="-0.27277">
        <ele>5</ele>
        <time>2015-10-16T11:32:09Z</time>
      </trkpt>
      <trkpt lat="49.24195" lon="-0.27277">
        <ele>4.5</ele>
        <time>2015-10-16T11:32:10Z</time>
      </trkpt>
      <trkpt lat="49.24195" lon="-0.27277">
        <ele>5.4</ele>
        <time>2015-10-16T11:32:11Z</time>
      </trkpt>
      <trkpt lat="49.24196" lon="-0.27277">
        <ele>6.1</ele>
        <time>2015-10-16T11:32:12Z</time>
      </trkpt>
      <trkpt lat="49.24196" lon="-0.27277">
        <ele>6.6</ele>
        <time>2015-10-16T11:32:13Z</time>
      </trkpt>
      <trkpt lat="49.24196" lon="-0.27277">
        <ele>8.4</ele>
        <time>2015-10-16T11:32:14Z</time>
      </trkpt>
      <trkpt lat="49.24196" lon="-0.27278">
        <ele>9.7</ele>
        <time>2015-10-16T11:32:15Z</time>
      </trkpt>
      <trkpt lat="49.24196" lon="-0.27279">
        <ele>10.8</ele>
        <time>2015-10-16T11:32:16Z</time>
      </trkpt>
      <trkpt lat="49.24196" lon="-0.2728">
        <ele>11.5</ele>
        <time>2015-10-16T11:32:17Z</time>
      </trkpt>
      <trkpt lat="49.24196" lon="-0.27282">
        <ele>12.1</ele>
        <time>2015-10-16T11:32:18Z</time>
      </trkpt>
      <trkpt lat="49.24198" lon="-0.27288">
        <ele>9</ele>
        <time>2015-10-16T11:32:22Z</time>
      </trkpt>
      <trkpt lat="49.24198" lon="-0.2729">
        <ele>9.2</ele>
        <time>2015-10-16T11:32:23Z</time>
      </trkpt>
      <trkpt lat="49.24207" lon="-0.27307">
        <ele>8.7</ele>
        <time>2015-10-16T11:32:36Z</time>
      </trkpt>
      <trkpt lat="49.24224" lon="-0.27334">
        <ele>8.2</ele>
        <time>2015-10-16T11:32:59Z</time>
      </trkpt>
      <trkpt lat="49.24226" lon="-0.27335">
        <ele>8.5</ele>
        <time>2015-10-16T11:33:01Z</time>
      </trkpt>
      <trkpt lat="49.24227" lon="-0.27335">
        <ele>9.8</ele>
        <time>2015-10-16T11:33:02Z</time>
      </trkpt>
      <trkpt lat="49.24228" lon="-0.27335">
        <ele>10.8</ele>
        <time>2015-10-16T11:33:03Z</time>
      </trkpt>
      <trkpt lat="49.24229" lon="-0.27335">
        <ele>11.6</ele>
        <time>2015-10-16T11:33:04Z</time>
      </trkpt>
      <trkpt lat="49.2423" lon="-0.27336">
        <ele>11.7</ele>
        <time>2015-10-16T11:33:05Z</time>
      </trkpt>
      <trkpt lat="49.24231" lon="-0.27336">
        <ele>11.8</ele>
        <time>2015-10-16T11:33:06Z</time>
      </trkpt>
      <trkpt lat="49.24232" lon="-0.27336">
        <ele>11.9</ele>
        <time>2015-10-16T11:33:07Z</time>
      </trkpt>
      <trkpt lat="49.24236" lon="-0.27339">
        <ele>9.1</ele>
        <time>2015-10-16T11:33:13Z</time>
      </trkpt>
      <trkpt lat="49.24237" lon="-0.27339">
        <ele>9</ele>
        <time>2015-10-16T11:33:14Z</time>
      </trkpt>
      <trkpt lat="49.24246" lon="-0.27344">
        <ele>9.4</ele>
        <time>2015-10-16T11:33:25Z</time>
      </trkpt>
      <trkpt lat="49.24246" lon="-0.27344">
        <ele>9.5</ele>
        <time>2015-10-16T11:33:26Z</time>
      </trkpt>
      <trkpt lat="49.24248" lon="-0.27343">
        <ele>9.3</ele>
        <time>2015-10-16T11:33:30Z</time>
      </trkpt>
      <trkpt lat="49.24248" lon="-0.27343">
        <ele>9.2</ele>
        <time>2015-10-16T11:33:31Z</time>
      </trkpt>
      <trkpt lat="49.24248" lon="-0.27343">
        <ele>9.3</ele>
        <time>2015-10-16T11:33:32Z</time>
      </trkpt>
      <trkpt lat="49.24248" lon="-0.27343">
        <ele>9.4</ele>
        <time>2015-10-16T11:33:33Z</time>
      </trkpt>
      <trkpt lat="49.24248" lon="-0.27343">
        <ele>9.5</ele>
        <time>2015-10-16T11:33:34Z</time>
      </trkpt>
      <trkpt lat="49.24248" lon="-0.27343">
        <ele>9.1</ele>
        <time>2015-10-16T11:33:35Z</time>
      </trkpt>
      <trkpt lat="49.24248" lon="-0.27343">
        <ele>8.8</ele>
        <time>2015-10-16T11:33:36Z</time>
      </trkpt>
      <trkpt lat="49.24248" lon="-0.27343">
        <ele>8.6</ele>
        <time>2015-10-16T11:33:37Z</time>
      </trkpt>
      <trkpt lat="49.24248" lon="-0.27343">
        <ele>8.7</ele>
        <time>2015-10-16T11:33:38Z</time>
      </trkpt>
      <trkpt lat="49.24248" lon="-0.27343">
        <ele>8.7</ele>
        <time>2015-10-16T11:33:39Z</time>
      </trkpt>
      <trkpt lat="49.24248" lon="-0.27343">
        <ele>8.8</ele>
        <time>2015-10-16T11:33:40Z</time>
      </trkpt>
      <trkpt lat="49.24248" lon="-0.27343">
        <ele>9</ele>
        <time>2015-10-16T11:33:41Z</time>
      </trkpt>
      <trkpt lat="49.24248" lon="-0.27343">
        <ele>9.2</ele>
        <time>2015-10-16T11:33:42Z</time>
      </trkpt>
      <trkpt lat="49.24248" lon="-0.27343">
        <ele>9</ele>
        <time>2015-10-16T11:33:44Z</time>
      </trkpt>
      <trkpt lat="49.24248" lon="-0.27343">
        <ele>8.7</ele>
        <time>2015-10-16T11:33:45Z</time>
      </trkpt>
      <trkpt lat="49.24249" lon="-0.27343">
        <ele>8.6</ele>
        <time>2015-10-16T11:33:46Z</time>
      </trkpt>
      <trkpt lat="49.24249" lon="-0.27344">
        <ele>8.6</ele>
        <time>2015-10-16T11:33:47Z</time>
      </trkpt>
      <trkpt lat="49.24249" lon="-0.27344">
        <ele>8.7</ele>
        <time>2015-10-16T11:33:48Z</time>
      </trkpt>
      <trkpt lat="49.24249" lon="-0.27344">
        <ele>8.7</ele>
        <time>2015-10-16T11:33:49Z</time>
      </trkpt>
      <trkpt lat="49.24249" lon="-0.27344">
        <ele>8.6</ele>
        <time>2015-10-16T11:33:50Z</time>
      </trkpt>
      <trkpt lat="49.24249" lon="-0.27345">
        <ele>8.4</ele>
        <time>2015-10-16T11:33:51Z</time>
      </trkpt>
      <trkpt lat="49.24249" lon="-0.27345">
        <ele>8.3</ele>
        <time>2015-10-16T11:33:52Z</time>
      </trkpt>
      <trkpt lat="49.24248" lon="-0.27345">
        <ele>8.3</ele>
        <time>2015-10-16T11:33:53Z</time>
      </trkpt>
      <trkpt lat="49.24248" lon="-0.27345">
        <ele>8.2</ele>
        <time>2015-10-16T11:33:54Z</time>
      </trkpt>
      <trkpt lat="49.24248" lon="-0.27345">
        <ele>8.2</ele>
        <time>2015-10-16T11:33:55Z</time>
      </trkpt>
      <trkpt lat="49.24248" lon="-0.27345">
        <ele>8.1</ele>
        <time>2015-10-16T11:33:56Z</time>
      </trkpt>
      <trkpt lat="49.24249" lon="-0.27345">
        <ele>8.1</ele>
        <time>2015-10-16T11:33:57Z</time>
      </trkpt>
      <trkpt lat="49.24249" lon="-0.27345">
        <ele>8.1</ele>
        <time>2015-10-16T11:33:58Z</time>
      </trkpt>
      <trkpt lat="49.24249" lon="-0.27345">
        <ele>8.3</ele>
        <time>2015-10-16T11:33:59Z</time>
      </trkpt>
      <trkpt lat="49.24249" lon="-0.27345">
        <ele>8.4</ele>
        <time>2015-10-16T11:34:00Z</time>
      </trkpt>
      <trkpt lat="49.24248" lon="-0.27346">
        <ele>8.5</ele>
        <time>2015-10-16T11:34:01Z</time>
      </trkpt>
      <trkpt lat="49.24248" lon="-0.27346">
        <ele>8.6</ele>
        <time>2015-10-16T11:34:02Z</time>
      </trkpt>
      <trkpt lat="49.24247" lon="-0.27346">
        <ele>8.7</ele>
        <time>2015-10-16T11:34:03Z</time>
      </trkpt>
      <trkpt lat="49.24246" lon="-0.27346">
        <ele>8.7</ele>
        <time>2015-10-16T11:34:04Z</time>
      </trkpt>
      <trkpt lat="49.24245" lon="-0.27347">
        <ele>8.8</ele>
        <time>2015-10-16T11:34:06Z</time>
      </trkpt>
      <trkpt lat="49.24244" lon="-0.27346">
        <ele>8.8</ele>
        <time>2015-10-16T11:34:08Z</time>
      </trkpt>
      <trkpt lat="49.24243" lon="-0.27346">
        <ele>8.8</ele>
        <time>2015-10-16T11:34:09Z</time>
      </trkpt>
      <trkpt lat="49.24243" lon="-0.27343">
        <ele>8.6</ele>
        <time>2015-10-16T11:34:11Z</time>
      </trkpt>
      <trkpt lat="49.24244" lon="-0.27341">
        <ele>8.5</ele>
        <time>2015-10-16T11:34:12Z</time>
      </trkpt>
      <trkpt lat="49.24244" lon="-0.2734">
        <ele>8.4</ele>
        <time>2015-10-16T11:34:13Z</time>
      </trkpt>
      <trkpt lat="49.24245" lon="-0.27338">
        <ele>8.5</ele>
        <time>2015-10-16T11:34:14Z</time>
      </trkpt>
      <trkpt lat="49.24246" lon="-0.27337">
        <ele>8.6</ele>
        <time>2015-10-16T11:34:15Z</time>
      </trkpt>
      <trkpt lat="49.24247" lon="-0.27335">
        <ele>8.7</ele>
        <time>2015-10-16T11:34:16Z</time>
      </trkpt>
      <trkpt lat="49.24248" lon="-0.27334">
        <ele>8.3</ele>
        <time>2015-10-16T11:34:17Z</time>
      </trkpt>
      <trkpt lat="49.2425" lon="-0.27333">
        <ele>8</ele>
        <time>2015-10-16T11:34:18Z</time>
      </trkpt>
      <trkpt lat="49.24251" lon="-0.27331">
        <ele>7.8</ele>
        <time>2015-10-16T11:34:19Z</time>
      </trkpt>
      <trkpt lat="49.24252" lon="-0.2733">
        <ele>8.3</ele>
        <time>2015-10-16T11:34:20Z</time>
      </trkpt>
      <trkpt lat="49.24253" lon="-0.27329">
        <ele>8.6</ele>
        <time>2015-10-16T11:34:21Z</time>
      </trkpt>
      <trkpt lat="49.24255" lon="-0.27325">
        <ele>8.9</ele>
        <time>2015-10-16T11:34:24Z</time>
      </trkpt>
      <trkpt lat="49.24257" lon="-0.27321">
        <ele>9.2</ele>
        <time>2015-10-16T11:34:27Z</time>
      </trkpt>
      <trkpt lat="49.24257" lon="-0.27319">
        <ele>9.3</ele>
        <time>2015-10-16T11:34:28Z</time>
      </trkpt>
      <trkpt lat="49.24265" lon="-0.27308">
        <ele>9</ele>
        <time>2015-10-16T11:34:40Z</time>
      </trkpt>
      <trkpt lat="49.24265" lon="-0.27308">
        <ele>8.8</ele>
        <time>2015-10-16T11:34:41Z</time>
      </trkpt>
      <trkpt lat="49.24265" lon="-0.27308">
        <ele>8.6</ele>
        <time>2015-10-16T11:34:42Z</time>
      </trkpt>
      <trkpt lat="49.24264" lon="-0.27308">
        <ele>8.4</ele>
        <time>2015-10-16T11:34:43Z</time>
      </trkpt>
      <trkpt lat="49.24264" lon="-0.27308">
        <ele>8.5</ele>
        <time>2015-10-16T11:34:44Z</time>
      </trkpt>
      <trkpt lat="49.24264" lon="-0.27308">
        <ele>8.6</ele>
        <time>2015-10-16T11:34:45Z</time>
      </trkpt>
      <trkpt lat="49.24264" lon="-0.27308">
        <ele>8.7</ele>
        <time>2015-10-16T11:34:46Z</time>
      </trkpt>
      <trkpt lat="49.24263" lon="-0.27308">
        <ele>8.7</ele>
        <time>2015-10-16T11:34:47Z</time>
      </trkpt>
      <trkpt lat="49.24263" lon="-0.27309">
        <ele>8.8</ele>
        <time>2015-10-16T11:34:48Z</time>
      </trkpt>
      <trkpt lat="49.24263" lon="-0.27309">
        <ele>8.8</ele>
        <time>2015-10-16T11:34:49Z</time>
      </trkpt>
      <trkpt lat="49.24263" lon="-0.27309">
        <ele>8.8</ele>
        <time>2015-10-16T11:34:50Z</time>
      </trkpt>
      <trkpt lat="49.24263" lon="-0.27309">
        <ele>8.8</ele>
        <time>2015-10-16T11:34:51Z</time>
      </trkpt>
      <trkpt lat="49.24263" lon="-0.27309">
        <ele>8.8</ele>
        <time>2015-10-16T11:34:52Z</time>
      </trkpt>
      <trkpt lat="49.24263" lon="-0.27308">
        <ele>8.6</ele>
        <time>2015-10-16T11:34:53Z</time>
      </trkpt>
      <trkpt lat="49.24263" lon="-0.27308">
        <ele>8.5</ele>
        <time>2015-10-16T11:34:54Z</time>
      </trkpt>
      <trkpt lat="49.24263" lon="-0.27308">
        <ele>8.4</ele>
        <time>2015-10-16T11:34:55Z</time>
      </trkpt>
      <trkpt lat="49.24263" lon="-0.27308">
        <ele>8.3</ele>
        <time>2015-10-16T11:34:56Z</time>
      </trkpt>
      <trkpt lat="49.24262" lon="-0.27308">
        <ele>8.2</ele>
        <time>2015-10-16T11:34:57Z</time>
      </trkpt>
      <trkpt lat="49.24262" lon="-0.27308">
        <ele>8.2</ele>
        <time>2015-10-16T11:34:58Z</time>
      </trkpt>
      <trkpt lat="49.24262" lon="-0.27308">
        <ele>7.9</ele>
        <time>2015-10-16T11:34:59Z</time>
      </trkpt>
      <trkpt lat="49.24262" lon="-0.27308">
        <ele>7.7</ele>
        <time>2015-10-16T11:35:00Z</time>
      </trkpt>
      <trkpt lat="49.24262" lon="-0.27308">
        <ele>7.6</ele>
        <time>2015-10-16T11:35:01Z</time>
      </trkpt>
      <trkpt lat="49.24262" lon="-0.27308">
        <ele>7.9</ele>
        <time>2015-10-16T11:35:02Z</time>
      </trkpt>
      <trkpt lat="49.24262" lon="-0.27308">
        <ele>8.2</ele>
        <time>2015-10-16T11:35:03Z</time>
      </trkpt>
      <trkpt lat="49.24263" lon="-0.27308">
        <ele>8.3</ele>
        <time>2015-10-16T11:35:04Z</time>
      </trkpt>
      <trkpt lat="49.24263" lon="-0.27308">
        <ele>8.5</ele>
        <time>2015-10-16T11:35:05Z</time>
      </trkpt>
      <trkpt lat="49.24263" lon="-0.27308">
        <ele>8.6</ele>
        <time>2015-10-16T11:35:06Z</time>
      </trkpt>
      <trkpt lat="49.24263" lon="-0.27308">
        <ele>8.6</ele>
        <time>2015-10-16T11:35:07Z</time>
      </trkpt>
      <trkpt lat="49.24263" lon="-0.27308">
        <ele>8.5</ele>
        <time>2015-10-16T11:35:08Z</time>
      </trkpt>
      <trkpt lat="49.24263" lon="-0.27308">
        <ele>8.4</ele>
        <time>2015-10-16T11:35:09Z</time>
      </trkpt>
      <trkpt lat="49.24263" lon="-0.27308">
        <ele>8.3</ele>
        <time>2015-10-16T11:35:10Z</time>
      </trkpt>
      <trkpt lat="49.24263" lon="-0.27308">
        <ele>8</ele>
        <time>2015-10-16T11:35:11Z</time>
      </trkpt>
      <trkpt lat="49.24263" lon="-0.27308">
        <ele>7.8</ele>
        <time>2015-10-16T11:35:12Z</time>
      </trkpt>
      <trkpt lat="49.24263" lon="-0.27308">
        <ele>7.7</ele>
        <time>2015-10-16T11:35:13Z</time>
      </trkpt>
      <trkpt lat="49.24263" lon="-0.27308">
        <ele>8</ele>
        <time>2015-10-16T11:35:14Z</time>
      </trkpt>
      <trkpt lat="49.24263" lon="-0.27308">
        <ele>8.2</ele>
        <time>2015-10-16T11:35:15Z</time>
      </trkpt>
      <trkpt lat="49.24263" lon="-0.27308">
        <ele>8.4</ele>
        <time>2015-10-16T11:35:16Z</time>
      </trkpt>
      <trkpt lat="49.24263" lon="-0.27308">
        <ele>8.1</ele>
        <time>2015-10-16T11:35:17Z</time>
      </trkpt>
      <trkpt lat="49.24263" lon="-0.27308">
        <ele>7.8</ele>
        <time>2015-10-16T11:35:18Z</time>
      </trkpt>
      <trkpt lat="49.24263" lon="-0.27308">
        <ele>7.7</ele>
        <time>2015-10-16T11:35:19Z</time>
      </trkpt>
      <trkpt lat="49.24263" lon="-0.27307">
        <ele>7.8</ele>
        <time>2015-10-16T11:35:20Z</time>
      </trkpt>
      <trkpt lat="49.24263" lon="-0.27307">
        <ele>7.8</ele>
        <time>2015-10-16T11:35:21Z</time>
      </trkpt>
      <trkpt lat="49.24263" lon="-0.27307">
        <ele>7.9</ele>
        <time>2015-10-16T11:35:22Z</time>
      </trkpt>
      <trkpt lat="49.24263" lon="-0.27307">
        <ele>7.9</ele>
        <time>2015-10-16T11:35:23Z</time>
      </trkpt>
      <trkpt lat="49.24263" lon="-0.27307">
        <ele>7.9</ele>
        <time>2015-10-16T11:35:24Z</time>
      </trkpt>
      <trkpt lat="49.24262" lon="-0.27304">
        <ele>7.8</ele>
        <time>2015-10-16T11:35:49Z</time>
      </trkpt>
      <trkpt lat="49.24262" lon="-0.27304">
        <ele>7.9</ele>
        <time>2015-10-16T11:35:50Z</time>
      </trkpt>
      <trkpt lat="49.24262" lon="-0.27305">
        <ele>7.9</ele>
        <time>2015-10-16T11:35:51Z</time>
      </trkpt>
      <trkpt lat="49.24262" lon="-0.27305">
        <ele>7.9</ele>
        <time>2015-10-16T11:35:52Z</time>
      </trkpt>
      <trkpt lat="49.24262" lon="-0.27305">
        <ele>8</ele>
        <time>2015-10-16T11:35:53Z</time>
      </trkpt>
      <trkpt lat="49.24262" lon="-0.27305">
        <ele>8</ele>
        <time>2015-10-16T11:35:54Z</time>
      </trkpt>
      <trkpt lat="49.24262" lon="-0.27305">
        <ele>8</ele>
        <time>2015-10-16T11:35:55Z</time>
      </trkpt>
      <trkpt lat="49.24262" lon="-0.27305">
        <ele>8</ele>
        <time>2015-10-16T11:35:56Z</time>
      </trkpt>
      <trkpt lat="49.24262" lon="-0.27305">
        <ele>8</ele>
        <time>2015-10-16T11:35:57Z</time>
      </trkpt>
      <trkpt lat="49.24262" lon="-0.27305">
        <ele>8</ele>
        <time>2015-10-16T11:35:58Z</time>
      </trkpt>
      <trkpt lat="49.24262" lon="-0.27305">
        <ele>7.8</ele>
        <time>2015-10-16T11:35:59Z</time>
      </trkpt>
      <trkpt lat="49.24262" lon="-0.27305">
        <ele>7.7</ele>
        <time>2015-10-16T11:36:00Z</time>
      </trkpt>
      <trkpt lat="49.24262" lon="-0.27305">
        <ele>7.5</ele>
        <time>2015-10-16T11:36:01Z</time>
      </trkpt>
      <trkpt lat="49.24262" lon="-0.27305">
        <ele>7.5</ele>
        <time>2015-10-16T11:36:02Z</time>
      </trkpt>
      <trkpt lat="49.24262" lon="-0.27305">
        <ele>7.4</ele>
        <time>2015-10-16T11:36:03Z</time>
      </trkpt>
      <trkpt lat="49.24262" lon="-0.27305">
        <ele>7.3</ele>
        <time>2015-10-16T11:36:04Z</time>
      </trkpt>
      <trkpt lat="49.24262" lon="-0.27305">
        <ele>7.5</ele>
        <time>2015-10-16T11:36:05Z</time>
      </trkpt>
      <trkpt lat="49.24262" lon="-0.27306">
        <ele>7.6</ele>
        <time>2015-10-16T11:36:06Z</time>
      </trkpt>
      <trkpt lat="49.24262" lon="-0.27306">
        <ele>7.7</ele>
        <time>2015-10-16T11:36:07Z</time>
      </trkpt>
      <trkpt lat="49.24262" lon="-0.27306">
        <ele>7.8</ele>
        <time>2015-10-16T11:36:08Z</time>
      </trkpt>
      <trkpt lat="49.24262" lon="-0.27306">
        <ele>7.9</ele>
        <time>2015-10-16T11:36:09Z</time>
      </trkpt>
      <trkpt lat="49.24262" lon="-0.27306">
        <ele>7.9</ele>
        <time>2015-10-16T11:36:10Z</time>
      </trkpt>
      <trkpt lat="49.24262" lon="-0.27306">
        <ele>7.7</ele>
        <time>2015-10-16T11:36:11Z</time>
      </trkpt>
      <trkpt lat="49.24262" lon="-0.27306">
        <ele>7.6</ele>
        <time>2015-10-16T11:36:12Z</time>
      </trkpt>
      <trkpt lat="49.24262" lon="-0.27306">
        <ele>7.5</ele>
        <time>2015-10-16T11:36:13Z</time>
      </trkpt>
      <trkpt lat="49.24262" lon="-0.27306">
        <ele>7.4</ele>
        <time>2015-10-16T11:36:14Z</time>
      </trkpt>
      <trkpt lat="49.24262" lon="-0.27306">
        <ele>7.4</ele>
        <time>2015-10-16T11:36:15Z</time>
      </trkpt>
      <trkpt lat="49.24262" lon="-0.27306">
        <ele>7.3</ele>
        <time>2015-10-16T11:36:16Z</time>
      </trkpt>
      <trkpt lat="49.24262" lon="-0.27306">
        <ele>7.3</ele>
        <time>2015-10-16T11:36:17Z</time>
      </trkpt>
      <trkpt lat="49.24262" lon="-0.27306">
        <ele>7.3</ele>
        <time>2015-10-16T11:36:18Z</time>
      </trkpt>
      <trkpt lat="49.24262" lon="-0.27306">
        <ele>7.3</ele>
        <time>2015-10-16T11:36:19Z</time>
      </trkpt>
      <trkpt lat="49.24265" lon="-0.27308">
        <ele>7.3</ele>
        <time>2015-10-16T11:39:37Z</time>
      </trkpt>
      <trkpt lat="49.24265" lon="-0.27308">
        <ele>7.5</ele>
        <time>2015-10-16T11:39:38Z</time>
      </trkpt>
      <trkpt lat="49.24265" lon="-0.27308">
        <ele>7.6</ele>
        <time>2015-10-16T11:39:39Z</time>
      </trkpt>
      <trkpt lat="49.24265" lon="-0.27308">
        <ele>7.7</ele>
        <time>2015-10-16T11:39:40Z</time>
      </trkpt>
      <trkpt lat="49.24264" lon="-0.27308">
        <ele>7.2</ele>
        <time>2015-10-16T11:39:41Z</time>
      </trkpt>
      <trkpt lat="49.24264" lon="-0.27308">
        <ele>6.8</ele>
        <time>2015-10-16T11:39:42Z</time>
      </trkpt>
      <trkpt lat="49.24264" lon="-0.27308">
        <ele>6.5</ele>
        <time>2015-10-16T11:39:43Z</time>
      </trkpt>
      <trkpt lat="49.24264" lon="-0.27308">
        <ele>6.6</ele>
        <time>2015-10-16T11:39:44Z</time>
      </trkpt>
      <trkpt lat="49.24264" lon="-0.27308">
        <ele>6.8</ele>
        <time>2015-10-16T11:39:45Z</time>
      </trkpt>
      <trkpt lat="49.24264" lon="-0.27308">
        <ele>6.9</ele>
        <time>2015-10-16T11:39:46Z</time>
      </trkpt>
      <trkpt lat="49.24264" lon="-0.27308">
        <ele>7.2</ele>
        <time>2015-10-16T11:39:47Z</time>
      </trkpt>
      <trkpt lat="49.24264" lon="-0.27308">
        <ele>7.4</ele>
        <time>2015-10-16T11:39:48Z</time>
      </trkpt>
      <trkpt lat="49.24264" lon="-0.27308">
        <ele>7.5</ele>
        <time>2015-10-16T11:39:49Z</time>
      </trkpt>
      <trkpt lat="49.24264" lon="-0.27308">
        <ele>7.7</ele>
        <time>2015-10-16T11:39:50Z</time>
      </trkpt>
      <trkpt lat="49.24264" lon="-0.27307">
        <ele>7.8</ele>
        <time>2015-10-16T11:39:51Z</time>
      </trkpt>
      <trkpt lat="49.24264" lon="-0.27307">
        <ele>7.8</ele>
        <time>2015-10-16T11:39:52Z</time>
      </trkpt>
      <trkpt lat="49.24264" lon="-0.27307">
        <ele>8.5</ele>
        <time>2015-10-16T11:39:53Z</time>
      </trkpt>
      <trkpt lat="49.24264" lon="-0.27307">
        <ele>9</ele>
        <time>2015-10-16T11:39:54Z</time>
      </trkpt>
      <trkpt lat="49.24263" lon="-0.27307">
        <ele>9.4</ele>
        <time>2015-10-16T11:39:55Z</time>
      </trkpt>
      <trkpt lat="49.24263" lon="-0.27307">
        <ele>9.2</ele>
        <time>2015-10-16T11:39:56Z</time>
      </trkpt>
      <trkpt lat="49.24263" lon="-0.27307">
        <ele>9.2</ele>
        <time>2015-10-16T11:39:57Z</time>
      </trkpt>
      <trkpt lat="49.24264" lon="-0.27307">
        <ele>9.1</ele>
        <time>2015-10-16T11:39:58Z</time>
      </trkpt>
      <trkpt lat="49.24264" lon="-0.27307">
        <ele>8.8</ele>
        <time>2015-10-16T11:39:59Z</time>
      </trkpt>
      <trkpt lat="49.24264" lon="-0.27307">
        <ele>8.6</ele>
        <time>2015-10-16T11:40:00Z</time>
      </trkpt>
      <trkpt lat="49.24264" lon="-0.27307">
        <ele>8.5</ele>
        <time>2015-10-16T11:40:01Z</time>
      </trkpt>
      <trkpt lat="49.24264" lon="-0.27307">
        <ele>8.4</ele>
        <time>2015-10-16T11:40:02Z</time>
      </trkpt>
      <trkpt lat="49.24262" lon="-0.2731">
        <ele>11.4</ele>
        <time>2015-10-16T11:44:29Z</time>
      </trkpt>
      <trkpt lat="49.24262" lon="-0.2731">
        <ele>12.6</ele>
        <time>2015-10-16T11:44:30Z</time>
      </trkpt>
      <trkpt lat="49.24262" lon="-0.2731">
        <ele>12.8</ele>
        <time>2015-10-16T11:44:33Z</time>
      </trkpt>
      <trkpt lat="49.24262" lon="-0.2731">
        <ele>12.3</ele>
        <time>2015-10-16T11:44:34Z</time>
      </trkpt>
      <trkpt lat="49.24262" lon="-0.2731">
        <ele>11.8</ele>
        <time>2015-10-16T11:44:35Z</time>
      </trkpt>
      <trkpt lat="49.24262" lon="-0.2731">
        <ele>11.5</ele>
        <time>2015-10-16T11:44:36Z</time>
      </trkpt>
      <trkpt lat="49.24262" lon="-0.2731">
        <ele>11.5</ele>
        <time>2015-10-16T11:44:37Z</time>
      </trkpt>
      <trkpt lat="49.24261" lon="-0.2731">
        <ele>11.4</ele>
        <time>2015-10-16T11:44:38Z</time>
      </trkpt>
      <trkpt lat="49.24261" lon="-0.2731">
        <ele>11.4</ele>
        <time>2015-10-16T11:44:39Z</time>
      </trkpt>
      <trkpt lat="49.24261" lon="-0.2731">
        <ele>10.8</ele>
        <time>2015-10-16T11:44:40Z</time>
      </trkpt>
      <trkpt lat="49.24261" lon="-0.2731">
        <ele>10.3</ele>
        <time>2015-10-16T11:44:41Z</time>
      </trkpt>
      <trkpt lat="49.24261" lon="-0.27311">
        <ele>9.9</ele>
        <time>2015-10-16T11:44:42Z</time>
      </trkpt>
      <trkpt lat="49.24261" lon="-0.27311">
        <ele>9.2</ele>
        <time>2015-10-16T11:44:43Z</time>
      </trkpt>
      <trkpt lat="49.24261" lon="-0.27311">
        <ele>8.7</ele>
        <time>2015-10-16T11:44:44Z</time>
      </trkpt>
      <trkpt lat="49.24261" lon="-0.27311">
        <ele>8.4</ele>
        <time>2015-10-16T11:44:45Z</time>
      </trkpt>
      <trkpt lat="49.24261" lon="-0.2731">
        <ele>8.1</ele>
        <time>2015-10-16T11:44:46Z</time>
      </trkpt>
      <trkpt lat="49.24261" lon="-0.2731">
        <ele>7.8</ele>
        <time>2015-10-16T11:44:47Z</time>
      </trkpt>
      <trkpt lat="49.24261" lon="-0.27309">
        <ele>7</ele>
        <time>2015-10-16T11:44:53Z</time>
      </trkpt>
      <trkpt lat="49.24261" lon="-0.27309">
        <ele>6.8</ele>
        <time>2015-10-16T11:44:54Z</time>
      </trkpt>
      <trkpt lat="49.24261" lon="-0.27309">
        <ele>6.9</ele>
        <time>2015-10-16T11:44:55Z</time>
      </trkpt>
      <trkpt lat="49.2426" lon="-0.27309">
        <ele>7</ele>
        <time>2015-10-16T11:44:56Z</time>
      </trkpt>
      <trkpt lat="49.2426" lon="-0.27309">
        <ele>7</ele>
        <time>2015-10-16T11:44:57Z</time>
      </trkpt>
      <trkpt lat="49.2426" lon="-0.27309">
        <ele>7.3</ele>
        <time>2015-10-16T11:44:58Z</time>
      </trkpt>
      <trkpt lat="49.2426" lon="-0.27309">
        <ele>7.5</ele>
        <time>2015-10-16T11:44:59Z</time>
      </trkpt>
      <trkpt lat="49.2426" lon="-0.27309">
        <ele>7.6</ele>
        <time>2015-10-16T11:45:00Z</time>
      </trkpt>
      <trkpt lat="49.2426" lon="-0.27311">
        <ele>7.7</ele>
        <time>2015-10-16T11:45:01Z</time>
      </trkpt>
      <trkpt lat="49.24259" lon="-0.27312">
        <ele>7.8</ele>
        <time>2015-10-16T11:45:02Z</time>
      </trkpt>
      <trkpt lat="49.24259" lon="-0.27313">
        <ele>7.9</ele>
        <time>2015-10-16T11:45:03Z</time>
      </trkpt>
      <trkpt lat="49.24259" lon="-0.27315">
        <ele>7.7</ele>
        <time>2015-10-16T11:45:04Z</time>
      </trkpt>
      <trkpt lat="49.24258" lon="-0.27316">
        <ele>7.6</ele>
        <time>2015-10-16T11:45:05Z</time>
      </trkpt>
      <trkpt lat="49.24257" lon="-0.27318">
        <ele>7.5</ele>
        <time>2015-10-16T11:45:06Z</time>
      </trkpt>
      <trkpt lat="49.24249" lon="-0.27333">
        <ele>4.3</ele>
        <time>2015-10-16T11:45:18Z</time>
      </trkpt>
      <trkpt lat="49.24248" lon="-0.27334">
        <ele>3.6</ele>
        <time>2015-10-16T11:45:19Z</time>
      </trkpt>
      <trkpt lat="49.24242" lon="-0.27338">
        <ele>6.3</ele>
        <time>2015-10-16T11:45:25Z</time>
      </trkpt>
      <trkpt lat="49.24238" lon="-0.27339">
        <ele>6.3</ele>
        <time>2015-10-16T11:45:28Z</time>
      </trkpt>
      <trkpt lat="49.24233" lon="-0.27339">
        <ele>6.4</ele>
        <time>2015-10-16T11:45:32Z</time>
      </trkpt>
      <trkpt lat="49.24232" lon="-0.27339">
        <ele>6.4</ele>
        <time>2015-10-16T11:45:33Z</time>
      </trkpt>
      <trkpt lat="49.24218" lon="-0.27336">
        <ele>9.5</ele>
        <time>2015-10-16T11:45:45Z</time>
      </trkpt>
      <trkpt lat="49.24217" lon="-0.27335">
        <ele>10</ele>
        <time>2015-10-16T11:45:46Z</time>
      </trkpt>
      <trkpt lat="49.24212" lon="-0.27326">
        <ele>8.5</ele>
        <time>2015-10-16T11:45:55Z</time>
      </trkpt>
      <trkpt lat="49.24212" lon="-0.27326">
        <ele>7.9</ele>
        <time>2015-10-16T11:45:56Z</time>
      </trkpt>
      <trkpt lat="49.24212" lon="-0.27326">
        <ele>7.5</ele>
        <time>2015-10-16T11:45:57Z</time>
      </trkpt>
      <trkpt lat="49.24212" lon="-0.27326">
        <ele>6.4</ele>
        <time>2015-10-16T11:45:58Z</time>
      </trkpt>
      <trkpt lat="49.24212" lon="-0.27325">
        <ele>5.6</ele>
        <time>2015-10-16T11:45:59Z</time>
      </trkpt>
      <trkpt lat="49.24211" lon="-0.27324">
        <ele>5</ele>
        <time>2015-10-16T11:46:00Z</time>
      </trkpt>
      <trkpt lat="49.24197" lon="-0.27292">
        <ele>9.4</ele>
        <time>2015-10-16T11:46:20Z</time>
      </trkpt>
      <trkpt lat="49.24195" lon="-0.27287">
        <ele>8.8</ele>
        <time>2015-10-16T11:46:23Z</time>
      </trkpt>
      <trkpt lat="49.24194" lon="-0.27277">
        <ele>6.9</ele>
        <time>2015-10-16T11:46:28Z</time>
      </trkpt>
      <trkpt lat="49.24192" lon="-0.27262">
        <ele>6.4</ele>
        <time>2015-10-16T11:46:36Z</time>
      </trkpt>
      <trkpt lat="49.24191" lon="-0.2726">
        <ele>6.2</ele>
        <time>2015-10-16T11:46:37Z</time>
      </trkpt>
      <trkpt lat="49.24187" lon="-0.2725">
        <ele>5.7</ele>
        <time>2015-10-16T11:46:43Z</time>
      </trkpt>
      <trkpt lat="49.24185" lon="-0.27248">
        <ele>5.6</ele>
        <time>2015-10-16T11:46:45Z</time>
      </trkpt>
      <trkpt lat="49.24173" lon="-0.27223">
        <ele>5.9</ele>
        <time>2015-10-16T11:47:00Z</time>
      </trkpt>
      <trkpt lat="49.24161" lon="-0.272">
        <ele>7.1</ele>
        <time>2015-10-16T11:47:14Z</time>
      </trkpt>
      <trkpt lat="49.24161" lon="-0.27199">
        <ele>7.1</ele>
        <time>2015-10-16T11:47:15Z</time>
      </trkpt>
      <trkpt lat="49.24153" lon="-0.27178">
        <ele>6</ele>
        <time>2015-10-16T11:47:27Z</time>
      </trkpt>
      <trkpt lat="49.24153" lon="-0.27174">
        <ele>3.3</ele>
        <time>2015-10-16T11:47:29Z</time>
      </trkpt>
      <trkpt lat="49.24128" lon="-0.27066">
        <ele>8.2</ele>
        <time>2015-10-16T11:48:26Z</time>
      </trkpt>
      <trkpt lat="49.24127" lon="-0.27064">
        <ele>8.3</ele>
        <time>2015-10-16T11:48:27Z</time>
      </trkpt>
      <trkpt lat="49.24101" lon="-0.26941">
        <ele>7.6</ele>
        <time>2015-10-16T11:49:30Z</time>
      </trkpt>
      <trkpt lat="49.24104" lon="-0.26921">
        <ele>7.2</ele>
        <time>2015-10-16T11:49:39Z</time>
      </trkpt>
      <trkpt lat="49.24104" lon="-0.26919">
        <ele>6.6</ele>
        <time>2015-10-16T11:49:40Z</time>
      </trkpt>
      <trkpt lat="49.24103" lon="-0.26909">
        <ele>5.6</ele>
        <time>2015-10-16T11:49:45Z</time>
      </trkpt>
      <trkpt lat="49.24101" lon="-0.26903">
        <ele>8.9</ele>
        <time>2015-10-16T11:49:48Z</time>
      </trkpt>
      <trkpt lat="49.24098" lon="-0.26899">
        <ele>7.9</ele>
        <time>2015-10-16T11:49:51Z</time>
      </trkpt>
      <trkpt lat="49.24095" lon="-0.26895">
        <ele>8.9</ele>
        <time>2015-10-16T11:49:54Z</time>
      </trkpt>
      <trkpt lat="49.24092" lon="-0.26891">
        <ele>6.5</ele>
        <time>2015-10-16T11:49:57Z</time>
      </trkpt>
      <trkpt lat="49.24092" lon="-0.2689">
        <ele>6.1</ele>
        <time>2015-10-16T11:49:58Z</time>
      </trkpt>
      <trkpt lat="49.24088" lon="-0.2688">
        <ele>8.6</ele>
        <time>2015-10-16T11:50:04Z</time>
      </trkpt>
      <trkpt lat="49.24086" lon="-0.26874">
        <ele>9.1</ele>
        <time>2015-10-16T11:50:07Z</time>
      </trkpt>
      <trkpt lat="49.24052" lon="-0.2674">
        <ele>12.1</ele>
        <time>2015-10-16T11:51:21Z</time>
      </trkpt>
      <trkpt lat="49.24052" lon="-0.2674">
        <ele>11.5</ele>
        <time>2015-10-16T11:51:22Z</time>
      </trkpt>
      <trkpt lat="49.24052" lon="-0.2674">
        <ele>11</ele>
        <time>2015-10-16T11:51:23Z</time>
      </trkpt>
      <trkpt lat="49.24052" lon="-0.2674">
        <ele>10.7</ele>
        <time>2015-10-16T11:51:24Z</time>
      </trkpt>
      <trkpt lat="49.24051" lon="-0.26739">
        <ele>9.6</ele>
        <time>2015-10-16T11:51:25Z</time>
      </trkpt>
      <trkpt lat="49.24049" lon="-0.26734">
        <ele>7.4</ele>
        <time>2015-10-16T11:51:29Z</time>
      </trkpt>
      <trkpt lat="49.24048" lon="-0.26729">
        <ele>9.7</ele>
        <time>2015-10-16T11:51:32Z</time>
      </trkpt>
      <trkpt lat="49.24043" lon="-0.2671">
        <ele>11.2</ele>
        <time>2015-10-16T11:51:45Z</time>
      </trkpt>
      <trkpt lat="49.24043" lon="-0.2671">
        <ele>11.3</ele>
        <time>2015-10-16T11:51:46Z</time>
      </trkpt>
      <trkpt lat="49.24043" lon="-0.2671">
        <ele>11.3</ele>
        <time>2015-10-16T11:51:47Z</time>
      </trkpt>
      <trkpt lat="49.24042" lon="-0.26709">
        <ele>11.3</ele>
        <time>2015-10-16T11:51:49Z</time>
      </trkpt>
      <trkpt lat="49.24041" lon="-0.26708">
        <ele>11.3</ele>
        <time>2015-10-16T11:51:50Z</time>
      </trkpt>
      <trkpt lat="49.24041" lon="-0.26706">
        <ele>11.3</ele>
        <time>2015-10-16T11:51:51Z</time>
      </trkpt>
      <trkpt lat="49.2404" lon="-0.26705">
        <ele>10.1</ele>
        <time>2015-10-16T11:51:52Z</time>
      </trkpt>
      <trkpt lat="49.24039" lon="-0.26704">
        <ele>9.2</ele>
        <time>2015-10-16T11:51:53Z</time>
      </trkpt>
      <trkpt lat="49.24039" lon="-0.26702">
        <ele>8.5</ele>
        <time>2015-10-16T11:51:54Z</time>
      </trkpt>
      <trkpt lat="49.24038" lon="-0.26699">
        <ele>11.2</ele>
        <time>2015-10-16T11:51:56Z</time>
      </trkpt>
      <trkpt lat="49.24028" lon="-0.26654">
        <ele>9.5</ele>
        <time>2015-10-16T11:52:20Z</time>
      </trkpt>
      <trkpt lat="49.24021" lon="-0.26621">
        <ele>8</ele>
        <time>2015-10-16T11:52:39Z</time>
      </trkpt>
      <trkpt lat="49.2402" lon="-0.26621">
        <ele>7.6</ele>
        <time>2015-10-16T11:52:40Z</time>
      </trkpt>
      <trkpt lat="49.24018" lon="-0.26621">
        <ele>7.1</ele>
        <time>2015-10-16T11:52:42Z</time>
      </trkpt>
      <trkpt lat="49.24017" lon="-0.26621">
        <ele>7.7</ele>
        <time>2015-10-16T11:52:43Z</time>
      </trkpt>
      <trkpt lat="49.24016" lon="-0.26621">
        <ele>8.2</ele>
        <time>2015-10-16T11:52:44Z</time>
      </trkpt>
      <trkpt lat="49.24015" lon="-0.26621">
        <ele>8.6</ele>
        <time>2015-10-16T11:52:45Z</time>
      </trkpt>
      <trkpt lat="49.24015" lon="-0.26621">
        <ele>8.6</ele>
        <time>2015-10-16T11:52:46Z</time>
      </trkpt>
      <trkpt lat="49.24014" lon="-0.26621">
        <ele>8.7</ele>
        <time>2015-10-16T11:52:47Z</time>
      </trkpt>
      <trkpt lat="49.24014" lon="-0.2662">
        <ele>8.7</ele>
        <time>2015-10-16T11:52:48Z</time>
      </trkpt>
      <trkpt lat="49.24014" lon="-0.2662">
        <ele>8.8</ele>
        <time>2015-10-16T11:52:49Z</time>
      </trkpt>
      <trkpt lat="49.24014" lon="-0.2662">
        <ele>8.8</ele>
        <time>2015-10-16T11:52:50Z</time>
      </trkpt>
      <trkpt lat="49.24014" lon="-0.2662">
        <ele>8.8</ele>
        <time>2015-10-16T11:52:51Z</time>
      </trkpt>
      <trkpt lat="49.24014" lon="-0.26621">
        <ele>9</ele>
        <time>2015-10-16T11:52:52Z</time>
      </trkpt>
      <trkpt lat="49.24014" lon="-0.26621">
        <ele>9.2</ele>
        <time>2015-10-16T11:52:53Z</time>
      </trkpt>
      <trkpt lat="49.24014" lon="-0.26621">
        <ele>9.3</ele>
        <time>2015-10-16T11:52:54Z</time>
      </trkpt>
      <trkpt lat="49.24014" lon="-0.26621">
        <ele>8.8</ele>
        <time>2015-10-16T11:52:55Z</time>
      </trkpt>
      <trkpt lat="49.24014" lon="-0.26619">
        <ele>8.4</ele>
        <time>2015-10-16T11:52:56Z</time>
      </trkpt>
      <trkpt lat="49.24015" lon="-0.26618">
        <ele>8.1</ele>
        <time>2015-10-16T11:52:57Z</time>
      </trkpt>
      <trkpt lat="49.24016" lon="-0.26617">
        <ele>8.5</ele>
        <time>2015-10-16T11:52:58Z</time>
      </trkpt>
      <trkpt lat="49.24017" lon="-0.26616">
        <ele>8.8</ele>
        <time>2015-10-16T11:52:59Z</time>
      </trkpt>
      <trkpt lat="49.24018" lon="-0.26614">
        <ele>9</ele>
        <time>2015-10-16T11:53:00Z</time>
      </trkpt>
      <trkpt lat="49.24019" lon="-0.26613">
        <ele>8.4</ele>
        <time>2015-10-16T11:53:01Z</time>
      </trkpt>
      <trkpt lat="49.24019" lon="-0.26612">
        <ele>7.9</ele>
        <time>2015-10-16T11:53:02Z</time>
      </trkpt>
      <trkpt lat="49.2402" lon="-0.26611">
        <ele>7.5</ele>
        <time>2015-10-16T11:53:03Z</time>
      </trkpt>
      <trkpt lat="49.24021" lon="-0.2661">
        <ele>8.5</ele>
        <time>2015-10-16T11:53:04Z</time>
      </trkpt>
      <trkpt lat="49.24022" lon="-0.26609">
        <ele>9.2</ele>
        <time>2015-10-16T11:53:05Z</time>
      </trkpt>
      <trkpt lat="49.24022" lon="-0.26609">
        <ele>9.7</ele>
        <time>2015-10-16T11:53:06Z</time>
      </trkpt>
      <trkpt lat="49.24022" lon="-0.26609">
        <ele>9.5</ele>
        <time>2015-10-16T11:53:07Z</time>
      </trkpt>
      <trkpt lat="49.24022" lon="-0.26609">
        <ele>9.3</ele>
        <time>2015-10-16T11:53:08Z</time>
      </trkpt>
      <trkpt lat="49.24023" lon="-0.26605">
        <ele>9.4</ele>
        <time>2015-10-16T11:53:11Z</time>
      </trkpt>
      <trkpt lat="49.24024" lon="-0.26604">
        <ele>9.5</ele>
        <time>2015-10-16T11:53:12Z</time>
      </trkpt>
      <trkpt lat="49.24026" lon="-0.26601">
        <ele>12.1</ele>
        <time>2015-10-16T11:53:14Z</time>
      </trkpt>
      <trkpt lat="49.24029" lon="-0.26598">
        <ele>10.8</ele>
        <time>2015-10-16T11:53:17Z</time>
      </trkpt>
      <trkpt lat="49.2409" lon="-0.26543">
        <ele>7.7</ele>
        <time>2015-10-16T11:54:09Z</time>
      </trkpt>
      <trkpt lat="49.24092" lon="-0.26542">
        <ele>7.8</ele>
        <time>2015-10-16T11:54:10Z</time>
      </trkpt>
      <trkpt lat="49.24126" lon="-0.26511">
        <ele>5</ele>
        <time>2015-10-16T11:54:39Z</time>
      </trkpt>
      <trkpt lat="49.2445" lon="-0.26231">
        <ele>3.6</ele>
        <time>2015-10-16T11:59:10Z</time>
      </trkpt>
      <trkpt lat="49.24452" lon="-0.2623">
        <ele>4.5</ele>
        <time>2015-10-16T11:59:11Z</time>
      </trkpt>
      <trkpt lat="49.24544" lon="-0.26158">
        <ele>8.4</ele>
        <time>2015-10-16T12:00:28Z</time>
      </trkpt>
      <trkpt lat="49.24923" lon="-0.25839">
        <ele>5.8</ele>
        <time>2015-10-16T12:06:04Z</time>
      </trkpt>
      <trkpt lat="49.24923" lon="-0.25839">
        <ele>5.7</ele>
        <time>2015-10-16T12:06:05Z</time>
      </trkpt>
      <trkpt lat="49.25088" lon="-0.25698">
        <ele>3.1</ele>
        <time>2015-10-16T12:08:35Z</time>
      </trkpt>
      <trkpt lat="49.25089" lon="-0.25697">
        <ele>5.2</ele>
        <time>2015-10-16T12:08:36Z</time>
      </trkpt>
      <trkpt lat="49.25191" lon="-0.2561">
        <ele>8</ele>
        <time>2015-10-16T12:10:12Z</time>
      </trkpt>
      <trkpt lat="49.25192" lon="-0.25609">
        <ele>8</ele>
        <time>2015-10-16T12:10:13Z</time>
      </trkpt>
      <trkpt lat="49.25199" lon="-0.25604">
        <ele>2.4</ele>
        <time>2015-10-16T12:10:19Z</time>
      </trkpt>
      <trkpt lat="49.25341" lon="-0.25481">
        <ele>6.4</ele>
        <time>2015-10-16T12:12:27Z</time>
      </trkpt>
      <trkpt lat="49.25342" lon="-0.2548">
        <ele>5.4</ele>
        <time>2015-10-16T12:12:28Z</time>
      </trkpt>
      <trkpt lat="49.25364" lon="-0.25462">
        <ele>5.2</ele>
        <time>2015-10-16T12:12:53Z</time>
      </trkpt>
      <trkpt lat="49.25364" lon="-0.25462">
        <ele>5.1</ele>
        <time>2015-10-16T12:12:54Z</time>
      </trkpt>
      <trkpt lat="49.25364" lon="-0.25461">
        <ele>5</ele>
        <time>2015-10-16T12:12:55Z</time>
      </trkpt>
      <trkpt lat="49.25364" lon="-0.25461">
        <ele>4.9</ele>
        <time>2015-10-16T12:12:56Z</time>
      </trkpt>
      <trkpt lat="49.25364" lon="-0.25461">
        <ele>5.1</ele>
        <time>2015-10-16T12:12:57Z</time>
      </trkpt>
      <trkpt lat="49.25364" lon="-0.2546">
        <ele>5.2</ele>
        <time>2015-10-16T12:12:58Z</time>
      </trkpt>
      <trkpt lat="49.25364" lon="-0.25459">
        <ele>5.3</ele>
        <time>2015-10-16T12:12:59Z</time>
      </trkpt>
      <trkpt lat="49.25365" lon="-0.25458">
        <ele>6.2</ele>
        <time>2015-10-16T12:13:00Z</time>
      </trkpt>
      <trkpt lat="49.25366" lon="-0.25456">
        <ele>7.3</ele>
        <time>2015-10-16T12:13:02Z</time>
      </trkpt>
      <trkpt lat="49.25367" lon="-0.25455">
        <ele>7.5</ele>
        <time>2015-10-16T12:13:03Z</time>
      </trkpt>
      <trkpt lat="49.25368" lon="-0.25454">
        <ele>7.6</ele>
        <time>2015-10-16T12:13:04Z</time>
      </trkpt>
      <trkpt lat="49.25369" lon="-0.25453">
        <ele>7.7</ele>
        <time>2015-10-16T12:13:05Z</time>
      </trkpt>
      <trkpt lat="49.2537" lon="-0.25452">
        <ele>6.2</ele>
        <time>2015-10-16T12:13:06Z</time>
      </trkpt>
      <trkpt lat="49.25371" lon="-0.25452">
        <ele>5</ele>
        <time>2015-10-16T12:13:07Z</time>
      </trkpt>
      <trkpt lat="49.25372" lon="-0.25451">
        <ele>4.1</ele>
        <time>2015-10-16T12:13:08Z</time>
      </trkpt>
      <trkpt lat="49.25373" lon="-0.2545">
        <ele>5.3</ele>
        <time>2015-10-16T12:13:09Z</time>
      </trkpt>
      <trkpt lat="49.25374" lon="-0.25449">
        <ele>6.2</ele>
        <time>2015-10-16T12:13:10Z</time>
      </trkpt>
      <trkpt lat="49.25406" lon="-0.25425">
        <ele>5.6</ele>
        <time>2015-10-16T12:13:36Z</time>
      </trkpt>
      <trkpt lat="49.25407" lon="-0.25424">
        <ele>5.6</ele>
        <time>2015-10-16T12:13:37Z</time>
      </trkpt>
      <trkpt lat="49.25445" lon="-0.25391">
        <ele>2.4</ele>
        <time>2015-10-16T12:14:10Z</time>
      </trkpt>
      <trkpt lat="49.25467" lon="-0.25371">
        <ele>4.4</ele>
        <time>2015-10-16T12:14:32Z</time>
      </trkpt>
      <trkpt lat="49.25475" lon="-0.25366">
        <ele>6.7</ele>
        <time>2015-10-16T12:14:39Z</time>
      </trkpt>
      <trkpt lat="49.25477" lon="-0.25365">
        <ele>6.2</ele>
        <time>2015-10-16T12:14:40Z</time>
      </trkpt>
      <trkpt lat="49.25908" lon="-0.24999">
        <ele>8.2</ele>
        <time>2015-10-16T12:20:53Z</time>
      </trkpt>
      <trkpt lat="49.25909" lon="-0.24999">
        <ele>6.1</ele>
        <time>2015-10-16T12:20:54Z</time>
      </trkpt>
      <trkpt lat="49.25985" lon="-0.24932">
        <ele>5.7</ele>
        <time>2015-10-16T12:22:06Z</time>
      </trkpt>
      <trkpt lat="49.25985" lon="-0.24932">
        <ele>5.9</ele>
        <time>2015-10-16T12:22:07Z</time>
      </trkpt>
      <trkpt lat="49.25986" lon="-0.24931">
        <ele>6.2</ele>
        <time>2015-10-16T12:22:13Z</time>
      </trkpt>
      <trkpt lat="49.25986" lon="-0.24931">
        <ele>6</ele>
        <time>2015-10-16T12:22:14Z</time>
      </trkpt>
      <trkpt lat="49.25986" lon="-0.24931">
        <ele>5.1</ele>
        <time>2015-10-16T12:22:15Z</time>
      </trkpt>
      <trkpt lat="49.25987" lon="-0.24931">
        <ele>4.4</ele>
        <time>2015-10-16T12:22:16Z</time>
      </trkpt>
      <trkpt lat="49.25987" lon="-0.2493">
        <ele>3.8</ele>
        <time>2015-10-16T12:22:17Z</time>
      </trkpt>
      <trkpt lat="49.25993" lon="-0.24924">
        <ele>3</ele>
        <time>2015-10-16T12:22:23Z</time>
      </trkpt>
      <trkpt lat="49.26042" lon="-0.24883">
        <ele>2.3</ele>
        <time>2015-10-16T12:23:08Z</time>
      </trkpt>
      <trkpt lat="49.26044" lon="-0.24882">
        <ele>3.5</ele>
        <time>2015-10-16T12:23:09Z</time>
      </trkpt>
      <trkpt lat="49.26237" lon="-0.24714">
        <ele>7.5</ele>
        <time>2015-10-16T12:25:56Z</time>
      </trkpt>
      <trkpt lat="49.26245" lon="-0.24706">
        <ele>4.8</ele>
        <time>2015-10-16T12:26:04Z</time>
      </trkpt>
      <trkpt lat="49.26587" lon="-0.24416">
        <ele>7.6</ele>
        <time>2015-10-16T12:30:51Z</time>
      </trkpt>
      <trkpt lat="49.26588" lon="-0.24415">
        <ele>8.1</ele>
        <time>2015-10-16T12:30:52Z</time>
      </trkpt>
      <trkpt lat="49.26592" lon="-0.24408">
        <ele>6.9</ele>
        <time>2015-10-16T12:30:57Z</time>
      </trkpt>
      <trkpt lat="49.26593" lon="-0.24405">
        <ele>7</ele>
        <time>2015-10-16T12:30:59Z</time>
      </trkpt>
      <trkpt lat="49.26593" lon="-0.244">
        <ele>4.7</ele>
        <time>2015-10-16T12:31:02Z</time>
      </trkpt>
      <trkpt lat="49.26593" lon="-0.24394">
        <ele>7.3</ele>
        <time>2015-10-16T12:31:05Z</time>
      </trkpt>
      <trkpt lat="49.26592" lon="-0.24386">
        <ele>9.1</ele>
        <time>2015-10-16T12:31:10Z</time>
      </trkpt>
      <trkpt lat="49.26586" lon="-0.24367">
        <ele>6.6</ele>
        <time>2015-10-16T12:31:21Z</time>
      </trkpt>
      <trkpt lat="49.26572" lon="-0.2433">
        <ele>5.1</ele>
        <time>2015-10-16T12:31:44Z</time>
      </trkpt>
      <trkpt lat="49.26572" lon="-0.2433">
        <ele>4.2</ele>
        <time>2015-10-16T12:31:45Z</time>
      </trkpt>
      <trkpt lat="49.26572" lon="-0.2433">
        <ele>3.5</ele>
        <time>2015-10-16T12:31:46Z</time>
      </trkpt>
      <trkpt lat="49.26572" lon="-0.2433">
        <ele>5</ele>
        <time>2015-10-16T12:31:47Z</time>
      </trkpt>
      <trkpt lat="49.26572" lon="-0.24329">
        <ele>6.2</ele>
        <time>2015-10-16T12:31:48Z</time>
      </trkpt>
      <trkpt lat="49.26571" lon="-0.24329">
        <ele>7.1</ele>
        <time>2015-10-16T12:31:49Z</time>
      </trkpt>
      <trkpt lat="49.26571" lon="-0.24328">
        <ele>7.7</ele>
        <time>2015-10-16T12:31:50Z</time>
      </trkpt>
      <trkpt lat="49.26571" lon="-0.24328">
        <ele>8.2</ele>
        <time>2015-10-16T12:31:51Z</time>
      </trkpt>
      <trkpt lat="49.26571" lon="-0.24328">
        <ele>8.6</ele>
        <time>2015-10-16T12:31:52Z</time>
      </trkpt>
      <trkpt lat="49.26571" lon="-0.24328">
        <ele>8.2</ele>
        <time>2015-10-16T12:31:53Z</time>
      </trkpt>
      <trkpt lat="49.2657" lon="-0.24328">
        <ele>8</ele>
        <time>2015-10-16T12:31:54Z</time>
      </trkpt>
      <trkpt lat="49.2657" lon="-0.24326">
        <ele>9.7</ele>
        <time>2015-10-16T12:31:57Z</time>
      </trkpt>
      <trkpt lat="49.26569" lon="-0.24325">
        <ele>10.3</ele>
        <time>2015-10-16T12:31:58Z</time>
      </trkpt>
      <trkpt lat="49.26563" lon="-0.24309">
        <ele>5.8</ele>
        <time>2015-10-16T12:32:10Z</time>
      </trkpt>
      <trkpt lat="49.26548" lon="-0.2427">
        <ele>3.5</ele>
        <time>2015-10-16T12:32:38Z</time>
      </trkpt>
      <trkpt lat="49.26548" lon="-0.2427">
        <ele>3</ele>
        <time>2015-10-16T12:32:39Z</time>
      </trkpt>
      <trkpt lat="49.26548" lon="-0.2427">
        <ele>2.6</ele>
        <time>2015-10-16T12:32:40Z</time>
      </trkpt>
      <trkpt lat="49.26548" lon="-0.2427">
        <ele>2.9</ele>
        <time>2015-10-16T12:32:41Z</time>
      </trkpt>
      <trkpt lat="49.26548" lon="-0.2427">
        <ele>3.1</ele>
        <time>2015-10-16T12:32:42Z</time>
      </trkpt>
      <trkpt lat="49.26548" lon="-0.2427">
        <ele>3.3</ele>
        <time>2015-10-16T12:32:43Z</time>
      </trkpt>
      <trkpt lat="49.26548" lon="-0.2427">
        <ele>5.3</ele>
        <time>2015-10-16T12:32:44Z</time>
      </trkpt>
      <trkpt lat="49.26548" lon="-0.2427">
        <ele>6.8</ele>
        <time>2015-10-16T12:32:45Z</time>
      </trkpt>
      <trkpt lat="49.26548" lon="-0.24269">
        <ele>8</ele>
        <time>2015-10-16T12:32:46Z</time>
      </trkpt>
      <trkpt lat="49.26548" lon="-0.24269">
        <ele>9</ele>
        <time>2015-10-16T12:32:47Z</time>
      </trkpt>
      <trkpt lat="49.26548" lon="-0.24269">
        <ele>9.8</ele>
        <time>2015-10-16T12:32:48Z</time>
      </trkpt>
      <trkpt lat="49.26548" lon="-0.24269">
        <ele>10.4</ele>
        <time>2015-10-16T12:32:49Z</time>
      </trkpt>
      <trkpt lat="49.26548" lon="-0.24269">
        <ele>10.4</ele>
        <time>2015-10-16T12:32:50Z</time>
      </trkpt>
      <trkpt lat="49.26548" lon="-0.24269">
        <ele>10.4</ele>
        <time>2015-10-16T12:32:51Z</time>
      </trkpt>
      <trkpt lat="49.26548" lon="-0.24269">
        <ele>10.5</ele>
        <time>2015-10-16T12:32:52Z</time>
      </trkpt>
      <trkpt lat="49.26548" lon="-0.24269">
        <ele>10.1</ele>
        <time>2015-10-16T12:32:53Z</time>
      </trkpt>
      <trkpt lat="49.26548" lon="-0.24269">
        <ele>9.8</ele>
        <time>2015-10-16T12:32:54Z</time>
      </trkpt>
      <trkpt lat="49.26548" lon="-0.24269">
        <ele>9.5</ele>
        <time>2015-10-16T12:32:55Z</time>
      </trkpt>
      <trkpt lat="49.26548" lon="-0.24269">
        <ele>9</ele>
        <time>2015-10-16T12:32:56Z</time>
      </trkpt>
      <trkpt lat="49.26548" lon="-0.24268">
        <ele>8.5</ele>
        <time>2015-10-16T12:32:57Z</time>
      </trkpt>
      <trkpt lat="49.26548" lon="-0.24268">
        <ele>8.2</ele>
        <time>2015-10-16T12:32:58Z</time>
      </trkpt>
      <trkpt lat="49.26548" lon="-0.24268">
        <ele>5.9</ele>
        <time>2015-10-16T12:32:59Z</time>
      </trkpt>
      <trkpt lat="49.26548" lon="-0.24269">
        <ele>4.1</ele>
        <time>2015-10-16T12:33:00Z</time>
      </trkpt>
      <trkpt lat="49.26548" lon="-0.24269">
        <ele>2.8</ele>
        <time>2015-10-16T12:33:01Z</time>
      </trkpt>
      <trkpt lat="49.26548" lon="-0.24269">
        <ele>2.7</ele>
        <time>2015-10-16T12:33:02Z</time>
      </trkpt>
      <trkpt lat="49.26548" lon="-0.24269">
        <ele>2.6</ele>
        <time>2015-10-16T12:33:03Z</time>
      </trkpt>
      <trkpt lat="49.26548" lon="-0.24269">
        <ele>2.5</ele>
        <time>2015-10-16T12:33:04Z</time>
      </trkpt>
      <trkpt lat="49.26548" lon="-0.24269">
        <ele>8.6</ele>
        <time>2015-10-16T12:33:15Z</time>
      </trkpt>
      <trkpt lat="49.26548" lon="-0.24269">
        <ele>9.1</ele>
        <time>2015-10-16T12:33:16Z</time>
      </trkpt>
      <trkpt lat="49.26548" lon="-0.24269">
        <ele>10.1</ele>
        <time>2015-10-16T12:33:17Z</time>
      </trkpt>
      <trkpt lat="49.26548" lon="-0.24269">
        <ele>10.8</ele>
        <time>2015-10-16T12:33:18Z</time>
      </trkpt>
      <trkpt lat="49.26548" lon="-0.24269">
        <ele>11.4</ele>
        <time>2015-10-16T12:33:19Z</time>
      </trkpt>
      <trkpt lat="49.26548" lon="-0.24269">
        <ele>10.5</ele>
        <time>2015-10-16T12:33:20Z</time>
      </trkpt>
      <trkpt lat="49.26548" lon="-0.24268">
        <ele>9.9</ele>
        <time>2015-10-16T12:33:21Z</time>
      </trkpt>
      <trkpt lat="49.26548" lon="-0.24268">
        <ele>9.4</ele>
        <time>2015-10-16T12:33:22Z</time>
      </trkpt>
      <trkpt lat="49.26548" lon="-0.24268">
        <ele>7.4</ele>
        <time>2015-10-16T12:33:23Z</time>
      </trkpt>
      <trkpt lat="49.26548" lon="-0.24268">
        <ele>5.9</ele>
        <time>2015-10-16T12:33:24Z</time>
      </trkpt>
      <trkpt lat="49.26548" lon="-0.24268">
        <ele>4.8</ele>
        <time>2015-10-16T12:33:25Z</time>
      </trkpt>
      <trkpt lat="49.26549" lon="-0.24268">
        <ele>5</ele>
        <time>2015-10-16T12:33:26Z</time>
      </trkpt>
      <trkpt lat="49.26549" lon="-0.24268">
        <ele>5.1</ele>
        <time>2015-10-16T12:33:27Z</time>
      </trkpt>
      <trkpt lat="49.26549" lon="-0.24268">
        <ele>5.2</ele>
        <time>2015-10-16T12:33:28Z</time>
      </trkpt>
      <trkpt lat="49.26549" lon="-0.24268">
        <ele>5.3</ele>
        <time>2015-10-16T12:33:29Z</time>
      </trkpt>
      <trkpt lat="49.26549" lon="-0.24268">
        <ele>5.4</ele>
        <time>2015-10-16T12:33:30Z</time>
      </trkpt>
      <trkpt lat="49.26549" lon="-0.24268">
        <ele>5.4</ele>
        <time>2015-10-16T12:33:31Z</time>
      </trkpt>
      <trkpt lat="49.26549" lon="-0.24268">
        <ele>5.4</ele>
        <time>2015-10-16T12:33:32Z</time>
      </trkpt>
      <trkpt lat="49.26549" lon="-0.24268">
        <ele>5.5</ele>
        <time>2015-10-16T12:33:33Z</time>
      </trkpt>
      <trkpt lat="49.26549" lon="-0.24268">
        <ele>5.5</ele>
        <time>2015-10-16T12:33:34Z</time>
      </trkpt>
      <trkpt lat="49.26549" lon="-0.24268">
        <ele>5.9</ele>
        <time>2015-10-16T12:33:35Z</time>
      </trkpt>
      <trkpt lat="49.26549" lon="-0.24268">
        <ele>6.2</ele>
        <time>2015-10-16T12:33:36Z</time>
      </trkpt>
      <trkpt lat="49.26549" lon="-0.24268">
        <ele>6.5</ele>
        <time>2015-10-16T12:33:37Z</time>
      </trkpt>
      <trkpt lat="49.26549" lon="-0.24268">
        <ele>7.5</ele>
        <time>2015-10-16T12:33:38Z</time>
      </trkpt>
      <trkpt lat="49.26549" lon="-0.24268">
        <ele>8.2</ele>
        <time>2015-10-16T12:33:39Z</time>
      </trkpt>
      <trkpt lat="49.26549" lon="-0.24268">
        <ele>8.8</ele>
        <time>2015-10-16T12:33:40Z</time>
      </trkpt>
      <trkpt lat="49.26549" lon="-0.24268">
        <ele>9.9</ele>
        <time>2015-10-16T12:33:41Z</time>
      </trkpt>
      <trkpt lat="49.26549" lon="-0.24269">
        <ele>10.6</ele>
        <time>2015-10-16T12:33:42Z</time>
      </trkpt>
      <trkpt lat="49.26549" lon="-0.24269">
        <ele>11.2</ele>
        <time>2015-10-16T12:33:43Z</time>
      </trkpt>
      <trkpt lat="49.26548" lon="-0.24269">
        <ele>10.2</ele>
        <time>2015-10-16T12:33:44Z</time>
      </trkpt>
      <trkpt lat="49.26548" lon="-0.24269">
        <ele>9.5</ele>
        <time>2015-10-16T12:33:45Z</time>
      </trkpt>
      <trkpt lat="49.26548" lon="-0.24269">
        <ele>8.9</ele>
        <time>2015-10-16T12:33:46Z</time>
      </trkpt>
      <trkpt lat="49.26548" lon="-0.24269">
        <ele>9.3</ele>
        <time>2015-10-16T12:33:47Z</time>
      </trkpt>
      <trkpt lat="49.26548" lon="-0.24269">
        <ele>9.6</ele>
        <time>2015-10-16T12:33:48Z</time>
      </trkpt>
      <trkpt lat="49.26548" lon="-0.24269">
        <ele>9.8</ele>
        <time>2015-10-16T12:33:49Z</time>
      </trkpt>
      <trkpt lat="49.26548" lon="-0.24269">
        <ele>9</ele>
        <time>2015-10-16T12:33:50Z</time>
      </trkpt>
      <trkpt lat="49.26548" lon="-0.2427">
        <ele>8.3</ele>
        <time>2015-10-16T12:33:51Z</time>
      </trkpt>
      <trkpt lat="49.26548" lon="-0.2427">
        <ele>7.8</ele>
        <time>2015-10-16T12:33:52Z</time>
      </trkpt>
      <trkpt lat="49.26548" lon="-0.2427">
        <ele>9.3</ele>
        <time>2015-10-16T12:33:53Z</time>
      </trkpt>
      <trkpt lat="49.26548" lon="-0.2427">
        <ele>10.5</ele>
        <time>2015-10-16T12:33:54Z</time>
      </trkpt>
      <trkpt lat="49.26548" lon="-0.2427">
        <ele>11.3</ele>
        <time>2015-10-16T12:33:55Z</time>
      </trkpt>
      <trkpt lat="49.26548" lon="-0.2427">
        <ele>10.3</ele>
        <time>2015-10-16T12:33:56Z</time>
      </trkpt>
      <trkpt lat="49.26548" lon="-0.2427">
        <ele>9.5</ele>
        <time>2015-10-16T12:33:57Z</time>
      </trkpt>
      <trkpt lat="49.26548" lon="-0.2427">
        <ele>9.6</ele>
        <time>2015-10-16T12:33:58Z</time>
      </trkpt>
      <trkpt lat="49.26548" lon="-0.2427">
        <ele>9.6</ele>
        <time>2015-10-16T12:33:59Z</time>
      </trkpt>
      <trkpt lat="49.26548" lon="-0.2427">
        <ele>9.6</ele>
        <time>2015-10-16T12:34:00Z</time>
      </trkpt>
      <trkpt lat="49.26548" lon="-0.2427">
        <ele>9.2</ele>
        <time>2015-10-16T12:34:01Z</time>
      </trkpt>
      <trkpt lat="49.26548" lon="-0.2427">
        <ele>8.9</ele>
        <time>2015-10-16T12:34:02Z</time>
      </trkpt>
      <trkpt lat="49.26548" lon="-0.2427">
        <ele>8.7</ele>
        <time>2015-10-16T12:34:03Z</time>
      </trkpt>
      <trkpt lat="49.26548" lon="-0.2427">
        <ele>8.5</ele>
        <time>2015-10-16T12:34:04Z</time>
      </trkpt>
      <trkpt lat="49.26548" lon="-0.2427">
        <ele>8.4</ele>
        <time>2015-10-16T12:34:05Z</time>
      </trkpt>
      <trkpt lat="49.26548" lon="-0.2427">
        <ele>8.3</ele>
        <time>2015-10-16T12:34:06Z</time>
      </trkpt>
      <trkpt lat="49.26549" lon="-0.2427">
        <ele>8</ele>
        <time>2015-10-16T12:34:07Z</time>
      </trkpt>
      <trkpt lat="49.26549" lon="-0.2427">
        <ele>7.8</ele>
        <time>2015-10-16T12:34:08Z</time>
      </trkpt>
      <trkpt lat="49.26549" lon="-0.2427">
        <ele>7.7</ele>
        <time>2015-10-16T12:34:09Z</time>
      </trkpt>
      <trkpt lat="49.26549" lon="-0.2427">
        <ele>7.3</ele>
        <time>2015-10-16T12:34:10Z</time>
      </trkpt>
      <trkpt lat="49.26549" lon="-0.2427">
        <ele>7.1</ele>
        <time>2015-10-16T12:34:11Z</time>
      </trkpt>
      <trkpt lat="49.26549" lon="-0.2427">
        <ele>6.9</ele>
        <time>2015-10-16T12:34:12Z</time>
      </trkpt>
      <trkpt lat="49.26549" lon="-0.2427">
        <ele>6.6</ele>
        <time>2015-10-16T12:34:13Z</time>
      </trkpt>
      <trkpt lat="49.26549" lon="-0.2427">
        <ele>6.3</ele>
        <time>2015-10-16T12:34:14Z</time>
      </trkpt>
      <trkpt lat="49.26549" lon="-0.2427">
        <ele>6.1</ele>
        <time>2015-10-16T12:34:15Z</time>
      </trkpt>
      <trkpt lat="49.26549" lon="-0.2427">
        <ele>6.2</ele>
        <time>2015-10-16T12:34:16Z</time>
      </trkpt>
      <trkpt lat="49.26549" lon="-0.2427">
        <ele>6.2</ele>
        <time>2015-10-16T12:34:17Z</time>
      </trkpt>
      <trkpt lat="49.26549" lon="-0.2427">
        <ele>6.3</ele>
        <time>2015-10-16T12:34:18Z</time>
      </trkpt>
      <trkpt lat="49.26549" lon="-0.2427">
        <ele>6.3</ele>
        <time>2015-10-16T12:34:19Z</time>
      </trkpt>
      <trkpt lat="49.26549" lon="-0.2427">
        <ele>6.3</ele>
        <time>2015-10-16T12:34:20Z</time>
      </trkpt>
      <trkpt lat="49.26549" lon="-0.2427">
        <ele>6.3</ele>
        <time>2015-10-16T12:34:21Z</time>
      </trkpt>
      <trkpt lat="49.26549" lon="-0.2427">
        <ele>6.5</ele>
        <time>2015-10-16T12:34:22Z</time>
      </trkpt>
      <trkpt lat="49.26549" lon="-0.2427">
        <ele>6.7</ele>
        <time>2015-10-16T12:34:23Z</time>
      </trkpt>
      <trkpt lat="49.26549" lon="-0.2427">
        <ele>6.8</ele>
        <time>2015-10-16T12:34:24Z</time>
      </trkpt>
      <trkpt lat="49.26549" lon="-0.2427">
        <ele>7.1</ele>
        <time>2015-10-16T12:34:25Z</time>
      </trkpt>
      <trkpt lat="49.26549" lon="-0.2427">
        <ele>7.4</ele>
        <time>2015-10-16T12:34:26Z</time>
      </trkpt>
      <trkpt lat="49.26549" lon="-0.2427">
        <ele>7.5</ele>
        <time>2015-10-16T12:34:27Z</time>
      </trkpt>
      <trkpt lat="49.26549" lon="-0.2427">
        <ele>7.2</ele>
        <time>2015-10-16T12:34:28Z</time>
      </trkpt>
      <trkpt lat="49.26549" lon="-0.2427">
        <ele>7</ele>
        <time>2015-10-16T12:34:29Z</time>
      </trkpt>
      <trkpt lat="49.26549" lon="-0.2427">
        <ele>6.9</ele>
        <time>2015-10-16T12:34:30Z</time>
      </trkpt>
      <trkpt lat="49.26549" lon="-0.2427">
        <ele>7.2</ele>
        <time>2015-10-16T12:34:31Z</time>
      </trkpt>
      <trkpt lat="49.26549" lon="-0.2427">
        <ele>7.5</ele>
        <time>2015-10-16T12:34:40Z</time>
      </trkpt>
      <trkpt lat="49.26549" lon="-0.2427">
        <ele>7.6</ele>
        <time>2015-10-16T12:34:41Z</time>
      </trkpt>
      <trkpt lat="49.26549" lon="-0.2427">
        <ele>7.7</ele>
        <time>2015-10-16T12:34:42Z</time>
      </trkpt>
      <trkpt lat="49.26549" lon="-0.2427">
        <ele>7.6</ele>
        <time>2015-10-16T12:34:43Z</time>
      </trkpt>
      <trkpt lat="49.26549" lon="-0.2427">
        <ele>7.5</ele>
        <time>2015-10-16T12:34:44Z</time>
      </trkpt>
      <trkpt lat="49.26549" lon="-0.2427">
        <ele>7.4</ele>
        <time>2015-10-16T12:34:45Z</time>
      </trkpt>
      <trkpt lat="49.26549" lon="-0.2427">
        <ele>7.6</ele>
        <time>2015-10-16T12:34:46Z</time>
      </trkpt>
      <trkpt lat="49.26549" lon="-0.2427">
        <ele>7.7</ele>
        <time>2015-10-16T12:34:47Z</time>
      </trkpt>
      <trkpt lat="49.26549" lon="-0.2427">
        <ele>7.8</ele>
        <time>2015-10-16T12:34:48Z</time>
      </trkpt>
      <trkpt lat="49.26549" lon="-0.2427">
        <ele>7.6</ele>
        <time>2015-10-16T12:34:49Z</time>
      </trkpt>
      <trkpt lat="49.26549" lon="-0.24271">
        <ele>7.5</ele>
        <time>2015-10-16T12:34:50Z</time>
      </trkpt>
      <trkpt lat="49.26549" lon="-0.24271">
        <ele>7.4</ele>
        <time>2015-10-16T12:34:51Z</time>
      </trkpt>
      <trkpt lat="49.26549" lon="-0.24271">
        <ele>7.4</ele>
        <time>2015-10-16T12:34:52Z</time>
      </trkpt>
      <trkpt lat="49.26549" lon="-0.24271">
        <ele>7.3</ele>
        <time>2015-10-16T12:34:53Z</time>
      </trkpt>
      <trkpt lat="49.26549" lon="-0.24271">
        <ele>7.3</ele>
        <time>2015-10-16T12:34:54Z</time>
      </trkpt>
      <trkpt lat="49.26549" lon="-0.24271">
        <ele>7.3</ele>
        <time>2015-10-16T12:34:55Z</time>
      </trkpt>
      <trkpt lat="49.26549" lon="-0.24271">
        <ele>7.3</ele>
        <time>2015-10-16T12:34:56Z</time>
      </trkpt>
      <trkpt lat="49.26549" lon="-0.24271">
        <ele>7.2</ele>
        <time>2015-10-16T12:34:57Z</time>
      </trkpt>
      <trkpt lat="49.26549" lon="-0.24271">
        <ele>7.4</ele>
        <time>2015-10-16T12:34:58Z</time>
      </trkpt>
      <trkpt lat="49.26548" lon="-0.24271">
        <ele>6.4</ele>
        <time>2015-10-16T12:35:04Z</time>
      </trkpt>
      <trkpt lat="49.26548" lon="-0.24271">
        <ele>6.4</ele>
        <time>2015-10-16T12:35:05Z</time>
      </trkpt>
      <trkpt lat="49.26548" lon="-0.24271">
        <ele>6.4</ele>
        <time>2015-10-16T12:35:06Z</time>
      </trkpt>
      <trkpt lat="49.26548" lon="-0.24271">
        <ele>6.6</ele>
        <time>2015-10-16T12:35:07Z</time>
      </trkpt>
      <trkpt lat="49.26548" lon="-0.24271">
        <ele>6.8</ele>
        <time>2015-10-16T12:35:08Z</time>
      </trkpt>
      <trkpt lat="49.26548" lon="-0.24271">
        <ele>6.9</ele>
        <time>2015-10-16T12:35:09Z</time>
      </trkpt>
      <trkpt lat="49.26548" lon="-0.24271">
        <ele>6.9</ele>
        <time>2015-10-16T12:35:10Z</time>
      </trkpt>
      <trkpt lat="49.26548" lon="-0.24271">
        <ele>7</ele>
        <time>2015-10-16T12:35:11Z</time>
      </trkpt>
      <trkpt lat="49.26548" lon="-0.24271">
        <ele>7.1</ele>
        <time>2015-10-16T12:35:12Z</time>
      </trkpt>
      <trkpt lat="49.26548" lon="-0.24271">
        <ele>7.1</ele>
        <time>2015-10-16T12:35:13Z</time>
      </trkpt>
      <trkpt lat="49.26548" lon="-0.24271">
        <ele>7.1</ele>
        <time>2015-10-16T12:35:14Z</time>
      </trkpt>
      <trkpt lat="49.26548" lon="-0.24271">
        <ele>7.5</ele>
        <time>2015-10-16T12:35:17Z</time>
      </trkpt>
      <trkpt lat="49.26548" lon="-0.24271">
        <ele>7.7</ele>
        <time>2015-10-16T12:35:18Z</time>
      </trkpt>
      <trkpt lat="49.26548" lon="-0.24271">
        <ele>7.5</ele>
        <time>2015-10-16T12:35:19Z</time>
      </trkpt>
      <trkpt lat="49.26548" lon="-0.24271">
        <ele>7.5</ele>
        <time>2015-10-16T12:35:20Z</time>
      </trkpt>
      <trkpt lat="49.26548" lon="-0.2427">
        <ele>7.4</ele>
        <time>2015-10-16T12:35:21Z</time>
      </trkpt>
      <trkpt lat="49.26548" lon="-0.24269">
        <ele>7.8</ele>
        <time>2015-10-16T12:35:22Z</time>
      </trkpt>
      <trkpt lat="49.26548" lon="-0.24268">
        <ele>8.2</ele>
        <time>2015-10-16T12:35:24Z</time>
      </trkpt>
      <trkpt lat="49.26548" lon="-0.24268">
        <ele>8.4</ele>
        <time>2015-10-16T12:35:25Z</time>
      </trkpt>
      <trkpt lat="49.26548" lon="-0.24268">
        <ele>8.5</ele>
        <time>2015-10-16T12:35:26Z</time>
      </trkpt>
      <trkpt lat="49.26547" lon="-0.24267">
        <ele>8.6</ele>
        <time>2015-10-16T12:35:27Z</time>
      </trkpt>
      <trkpt lat="49.26547" lon="-0.24267">
        <ele>8.9</ele>
        <time>2015-10-16T12:35:28Z</time>
      </trkpt>
      <trkpt lat="49.26547" lon="-0.24267">
        <ele>9.1</ele>
        <time>2015-10-16T12:35:29Z</time>
      </trkpt>
      <trkpt lat="49.26547" lon="-0.24267">
        <ele>9.2</ele>
        <time>2015-10-16T12:35:30Z</time>
      </trkpt>
      <trkpt lat="49.26547" lon="-0.24267">
        <ele>9.3</ele>
        <time>2015-10-16T12:35:31Z</time>
      </trkpt>
      <trkpt lat="49.26547" lon="-0.24267">
        <ele>9.4</ele>
        <time>2015-10-16T12:35:32Z</time>
      </trkpt>
      <trkpt lat="49.26547" lon="-0.24267">
        <ele>9.5</ele>
        <time>2015-10-16T12:35:33Z</time>
      </trkpt>
      <trkpt lat="49.26547" lon="-0.24266">
        <ele>9.5</ele>
        <time>2015-10-16T12:35:34Z</time>
      </trkpt>
      <trkpt lat="49.26536" lon="-0.24225">
        <ele>5.1</ele>
        <time>2015-10-16T12:36:00Z</time>
      </trkpt>
      <trkpt lat="49.26536" lon="-0.24222">
        <ele>5</ele>
        <time>2015-10-16T12:36:01Z</time>
      </trkpt>
      <trkpt lat="49.26535" lon="-0.2422">
        <ele>4.9</ele>
        <time>2015-10-16T12:36:02Z</time>
      </trkpt>
      <trkpt lat="49.26535" lon="-0.24206">
        <ele>5.2</ele>
        <time>2015-10-16T12:36:14Z</time>
      </trkpt>
      <trkpt lat="49.26535" lon="-0.24207">
        <ele>5</ele>
        <time>2015-10-16T12:36:15Z</time>
      </trkpt>
      <trkpt lat="49.26534" lon="-0.24207">
        <ele>5.2</ele>
        <time>2015-10-16T12:36:16Z</time>
      </trkpt>
      <trkpt lat="49.26534" lon="-0.24208">
        <ele>5.3</ele>
        <time>2015-10-16T12:36:17Z</time>
      </trkpt>
      <trkpt lat="49.26534" lon="-0.24208">
        <ele>5.3</ele>
        <time>2015-10-16T12:36:18Z</time>
      </trkpt>
      <trkpt lat="49.26534" lon="-0.24208">
        <ele>5.4</ele>
        <time>2015-10-16T12:36:19Z</time>
      </trkpt>
      <trkpt lat="49.26534" lon="-0.24208">
        <ele>5.4</ele>
        <time>2015-10-16T12:36:20Z</time>
      </trkpt>
      <trkpt lat="49.26534" lon="-0.24208">
        <ele>5.5</ele>
        <time>2015-10-16T12:36:21Z</time>
      </trkpt>
      <trkpt lat="49.26534" lon="-0.24208">
        <ele>5.1</ele>
        <time>2015-10-16T12:36:22Z</time>
      </trkpt>
      <trkpt lat="49.26534" lon="-0.24208">
        <ele>4.8</ele>
        <time>2015-10-16T12:36:23Z</time>
      </trkpt>
      <trkpt lat="49.26534" lon="-0.24208">
        <ele>4.5</ele>
        <time>2015-10-16T12:36:24Z</time>
      </trkpt>
      <trkpt lat="49.26534" lon="-0.24208">
        <ele>4.4</ele>
        <time>2015-10-16T12:36:25Z</time>
      </trkpt>
      <trkpt lat="49.26534" lon="-0.24208">
        <ele>4.3</ele>
        <time>2015-10-16T12:36:26Z</time>
      </trkpt>
      <trkpt lat="49.26534" lon="-0.24208">
        <ele>4.2</ele>
        <time>2015-10-16T12:36:27Z</time>
      </trkpt>
      <trkpt lat="49.26533" lon="-0.24207">
        <ele>4.1</ele>
        <time>2015-10-16T12:36:28Z</time>
      </trkpt>
      <trkpt lat="49.26533" lon="-0.24206">
        <ele>4</ele>
        <time>2015-10-16T12:36:29Z</time>
      </trkpt>
      <trkpt lat="49.26533" lon="-0.24205">
        <ele>4</ele>
        <time>2015-10-16T12:36:30Z</time>
      </trkpt>
      <trkpt lat="49.26532" lon="-0.24204">
        <ele>4</ele>
        <time>2015-10-16T12:36:31Z</time>
      </trkpt>
      <trkpt lat="49.26532" lon="-0.24204">
        <ele>4</ele>
        <time>2015-10-16T12:36:32Z</time>
      </trkpt>
      <trkpt lat="49.2653" lon="-0.24199">
        <ele>4.4</ele>
        <time>2015-10-16T12:36:41Z</time>
      </trkpt>
      <trkpt lat="49.2653" lon="-0.24199">
        <ele>4.5</ele>
        <time>2015-10-16T12:36:42Z</time>
      </trkpt>
      <trkpt lat="49.2653" lon="-0.24198">
        <ele>4.5</ele>
        <time>2015-10-16T12:36:43Z</time>
      </trkpt>
      <trkpt lat="49.2653" lon="-0.24198">
        <ele>4.6</ele>
        <time>2015-10-16T12:36:44Z</time>
      </trkpt>
      <trkpt lat="49.2653" lon="-0.24198">
        <ele>4.6</ele>
        <time>2015-10-16T12:36:45Z</time>
      </trkpt>
      <trkpt lat="49.2653" lon="-0.24198">
        <ele>4.6</ele>
        <time>2015-10-16T12:36:46Z</time>
      </trkpt>
      <trkpt lat="49.2653" lon="-0.24198">
        <ele>4.7</ele>
        <time>2015-10-16T12:36:47Z</time>
      </trkpt>
      <trkpt lat="49.2653" lon="-0.24198">
        <ele>4.7</ele>
        <time>2015-10-16T12:36:48Z</time>
      </trkpt>
      <trkpt lat="49.2653" lon="-0.24198">
        <ele>4.7</ele>
        <time>2015-10-16T12:36:49Z</time>
      </trkpt>
      <trkpt lat="49.2653" lon="-0.24198">
        <ele>4.7</ele>
        <time>2015-10-16T12:36:50Z</time>
      </trkpt>
      <trkpt lat="49.2653" lon="-0.24198">
        <ele>4.7</ele>
        <time>2015-10-16T12:36:51Z</time>
      </trkpt>
      <trkpt lat="49.2653" lon="-0.24196">
        <ele>3.9</ele>
        <time>2015-10-16T12:36:55Z</time>
      </trkpt>
      <trkpt lat="49.2653" lon="-0.24196">
        <ele>3.6</ele>
        <time>2015-10-16T12:36:57Z</time>
      </trkpt>
      <trkpt lat="49.2653" lon="-0.24195">
        <ele>4.2</ele>
        <time>2015-10-16T12:37:02Z</time>
      </trkpt>
      <trkpt lat="49.2653" lon="-0.24194">
        <ele>4.3</ele>
        <time>2015-10-16T12:37:03Z</time>
      </trkpt>
      <trkpt lat="49.2653" lon="-0.24194">
        <ele>4.7</ele>
        <time>2015-10-16T12:37:08Z</time>
      </trkpt>
      <trkpt lat="49.2653" lon="-0.24194">
        <ele>4.9</ele>
        <time>2015-10-16T12:37:09Z</time>
      </trkpt>
      <trkpt lat="49.2653" lon="-0.24194">
        <ele>5.1</ele>
        <time>2015-10-16T12:37:10Z</time>
      </trkpt>
      <trkpt lat="49.26529" lon="-0.24194">
        <ele>5.2</ele>
        <time>2015-10-16T12:37:11Z</time>
      </trkpt>
      <trkpt lat="49.26529" lon="-0.24194">
        <ele>5.3</ele>
        <time>2015-10-16T12:37:12Z</time>
      </trkpt>
      <trkpt lat="49.26529" lon="-0.24194">
        <ele>5.3</ele>
        <time>2015-10-16T12:37:13Z</time>
      </trkpt>
      <trkpt lat="49.26529" lon="-0.24194">
        <ele>5.4</ele>
        <time>2015-10-16T12:37:14Z</time>
      </trkpt>
      <trkpt lat="49.26529" lon="-0.24194">
        <ele>5.4</ele>
        <time>2015-10-16T12:37:15Z</time>
      </trkpt>
      <trkpt lat="49.26529" lon="-0.24194">
        <ele>5</ele>
        <time>2015-10-16T12:37:16Z</time>
      </trkpt>
      <trkpt lat="49.26529" lon="-0.24194">
        <ele>4.8</ele>
        <time>2015-10-16T12:37:17Z</time>
      </trkpt>
      <trkpt lat="49.26529" lon="-0.24194">
        <ele>4.5</ele>
        <time>2015-10-16T12:37:18Z</time>
      </trkpt>
      <trkpt lat="49.26529" lon="-0.24194">
        <ele>4.4</ele>
        <time>2015-10-16T12:37:19Z</time>
      </trkpt>
      <trkpt lat="49.26529" lon="-0.24194">
        <ele>4.3</ele>
        <time>2015-10-16T12:37:20Z</time>
      </trkpt>
      <trkpt lat="49.26529" lon="-0.24194">
        <ele>4.2</ele>
        <time>2015-10-16T12:37:21Z</time>
      </trkpt>
      <trkpt lat="49.26529" lon="-0.24194">
        <ele>4.5</ele>
        <time>2015-10-16T12:37:22Z</time>
      </trkpt>
      <trkpt lat="49.26529" lon="-0.24194">
        <ele>4.8</ele>
        <time>2015-10-16T12:37:23Z</time>
      </trkpt>
      <trkpt lat="49.26529" lon="-0.24194">
        <ele>5</ele>
        <time>2015-10-16T12:37:24Z</time>
      </trkpt>
      <trkpt lat="49.26529" lon="-0.24194">
        <ele>4.9</ele>
        <time>2015-10-16T12:37:25Z</time>
      </trkpt>
      <trkpt lat="49.26529" lon="-0.24194">
        <ele>4.9</ele>
        <time>2015-10-16T12:37:26Z</time>
      </trkpt>
      <trkpt lat="49.26529" lon="-0.24194">
        <ele>4.8</ele>
        <time>2015-10-16T12:37:27Z</time>
      </trkpt>
      <trkpt lat="49.26529" lon="-0.24194">
        <ele>4.8</ele>
        <time>2015-10-16T12:37:28Z</time>
      </trkpt>
      <trkpt lat="49.26529" lon="-0.24193">
        <ele>4.8</ele>
        <time>2015-10-16T12:37:29Z</time>
      </trkpt>
      <trkpt lat="49.2653" lon="-0.24192">
        <ele>4.8</ele>
        <time>2015-10-16T12:37:30Z</time>
      </trkpt>
      <trkpt lat="49.2653" lon="-0.24192">
        <ele>4.7</ele>
        <time>2015-10-16T12:37:31Z</time>
      </trkpt>
      <trkpt lat="49.2653" lon="-0.24188">
        <ele>4.2</ele>
        <time>2015-10-16T12:37:36Z</time>
      </trkpt>
      <trkpt lat="49.2653" lon="-0.24187">
        <ele>3.9</ele>
        <time>2015-10-16T12:37:37Z</time>
      </trkpt>
      <trkpt lat="49.26529" lon="-0.24186">
        <ele>3.7</ele>
        <time>2015-10-16T12:37:38Z</time>
      </trkpt>
      <trkpt lat="49.26529" lon="-0.24181">
        <ele>4.4</ele>
        <time>2015-10-16T12:37:43Z</time>
      </trkpt>
      <trkpt lat="49.26528" lon="-0.24181">
        <ele>4.4</ele>
        <time>2015-10-16T12:37:44Z</time>
      </trkpt>
      <trkpt lat="49.26528" lon="-0.2418">
        <ele>4.5</ele>
        <time>2015-10-16T12:37:45Z</time>
      </trkpt>
      <trkpt lat="49.26528" lon="-0.24179">
        <ele>4.6</ele>
        <time>2015-10-16T12:37:47Z</time>
      </trkpt>
      <trkpt lat="49.26528" lon="-0.24179">
        <ele>4.6</ele>
        <time>2015-10-16T12:37:48Z</time>
      </trkpt>
      <trkpt lat="49.26528" lon="-0.24178">
        <ele>4.9</ele>
        <time>2015-10-16T12:37:49Z</time>
      </trkpt>
      <trkpt lat="49.26528" lon="-0.24178">
        <ele>5</ele>
        <time>2015-10-16T12:37:50Z</time>
      </trkpt>
      <trkpt lat="49.26528" lon="-0.24178">
        <ele>5.2</ele>
        <time>2015-10-16T12:37:51Z</time>
      </trkpt>
      <trkpt lat="49.26528" lon="-0.24178">
        <ele>5.3</ele>
        <time>2015-10-16T12:37:52Z</time>
      </trkpt>
      <trkpt lat="49.26528" lon="-0.24178">
        <ele>5.3</ele>
        <time>2015-10-16T12:37:53Z</time>
      </trkpt>
      <trkpt lat="49.26529" lon="-0.24178">
        <ele>5.4</ele>
        <time>2015-10-16T12:37:54Z</time>
      </trkpt>
      <trkpt lat="49.26529" lon="-0.24178">
        <ele>5.2</ele>
        <time>2015-10-16T12:37:55Z</time>
      </trkpt>
      <trkpt lat="49.2653" lon="-0.24178">
        <ele>5.1</ele>
        <time>2015-10-16T12:37:56Z</time>
      </trkpt>
      <trkpt lat="49.2653" lon="-0.24178">
        <ele>5</ele>
        <time>2015-10-16T12:37:57Z</time>
      </trkpt>
      <trkpt lat="49.26531" lon="-0.24178">
        <ele>4.9</ele>
        <time>2015-10-16T12:37:58Z</time>
      </trkpt>
      <trkpt lat="49.26531" lon="-0.24178">
        <ele>4.9</ele>
        <time>2015-10-16T12:37:59Z</time>
      </trkpt>
      <trkpt lat="49.26531" lon="-0.24178">
        <ele>4.8</ele>
        <time>2015-10-16T12:38:00Z</time>
      </trkpt>
      <trkpt lat="49.26531" lon="-0.24178">
        <ele>4.6</ele>
        <time>2015-10-16T12:38:01Z</time>
      </trkpt>
      <trkpt lat="49.26532" lon="-0.24178">
        <ele>4.4</ele>
        <time>2015-10-16T12:38:02Z</time>
      </trkpt>
      <trkpt lat="49.26532" lon="-0.24178">
        <ele>4.3</ele>
        <time>2015-10-16T12:38:03Z</time>
      </trkpt>
      <trkpt lat="49.26532" lon="-0.24178">
        <ele>4.6</ele>
        <time>2015-10-16T12:38:04Z</time>
      </trkpt>
      <trkpt lat="49.26532" lon="-0.24178">
        <ele>4.8</ele>
        <time>2015-10-16T12:38:05Z</time>
      </trkpt>
      <trkpt lat="49.26532" lon="-0.24178">
        <ele>5</ele>
        <time>2015-10-16T12:38:06Z</time>
      </trkpt>
      <trkpt lat="49.26533" lon="-0.24178">
        <ele>5.1</ele>
        <time>2015-10-16T12:38:07Z</time>
      </trkpt>
      <trkpt lat="49.26533" lon="-0.24178">
        <ele>5.2</ele>
        <time>2015-10-16T12:38:08Z</time>
      </trkpt>
      <trkpt lat="49.26533" lon="-0.24178">
        <ele>5.3</ele>
        <time>2015-10-16T12:38:09Z</time>
      </trkpt>
      <trkpt lat="49.26533" lon="-0.24178">
        <ele>5.4</ele>
        <time>2015-10-16T12:38:10Z</time>
      </trkpt>
      <trkpt lat="49.26533" lon="-0.24178">
        <ele>5.4</ele>
        <time>2015-10-16T12:38:11Z</time>
      </trkpt>
      <trkpt lat="49.26533" lon="-0.24178">
        <ele>5.4</ele>
        <time>2015-10-16T12:38:12Z</time>
      </trkpt>
      <trkpt lat="49.26533" lon="-0.24178">
        <ele>5.3</ele>
        <time>2015-10-16T12:38:13Z</time>
      </trkpt>
      <trkpt lat="49.26533" lon="-0.24178">
        <ele>5.1</ele>
        <time>2015-10-16T12:38:14Z</time>
      </trkpt>
      <trkpt lat="49.26533" lon="-0.24178">
        <ele>5</ele>
        <time>2015-10-16T12:38:15Z</time>
      </trkpt>
      <trkpt lat="49.26533" lon="-0.24178">
        <ele>4.9</ele>
        <time>2015-10-16T12:38:16Z</time>
      </trkpt>
      <trkpt lat="49.26533" lon="-0.24178">
        <ele>4.9</ele>
        <time>2015-10-16T12:38:17Z</time>
      </trkpt>
      <trkpt lat="49.26533" lon="-0.24179">
        <ele>4.8</ele>
        <time>2015-10-16T12:38:18Z</time>
      </trkpt>
      <trkpt lat="49.26533" lon="-0.24179">
        <ele>4.8</ele>
        <time>2015-10-16T12:38:19Z</time>
      </trkpt>
      <trkpt lat="49.26533" lon="-0.24179">
        <ele>4.8</ele>
        <time>2015-10-16T12:38:20Z</time>
      </trkpt>
      <trkpt lat="49.26533" lon="-0.24179">
        <ele>4.8</ele>
        <time>2015-10-16T12:38:21Z</time>
      </trkpt>
      <trkpt lat="49.26533" lon="-0.24179">
        <ele>4.8</ele>
        <time>2015-10-16T12:38:22Z</time>
      </trkpt>
      <trkpt lat="49.26533" lon="-0.24179">
        <ele>4.7</ele>
        <time>2015-10-16T12:38:23Z</time>
      </trkpt>
      <trkpt lat="49.26533" lon="-0.24179">
        <ele>4.7</ele>
        <time>2015-10-16T12:38:24Z</time>
      </trkpt>
      <trkpt lat="49.26533" lon="-0.2418">
        <ele>4.7</ele>
        <time>2015-10-16T12:38:25Z</time>
      </trkpt>
      <trkpt lat="49.26533" lon="-0.2418">
        <ele>4.7</ele>
        <time>2015-10-16T12:38:26Z</time>
      </trkpt>
      <trkpt lat="49.26533" lon="-0.2418">
        <ele>4.7</ele>
        <time>2015-10-16T12:38:27Z</time>
      </trkpt>
      <trkpt lat="49.26533" lon="-0.2418">
        <ele>4.9</ele>
        <time>2015-10-16T12:38:28Z</time>
      </trkpt>
      <trkpt lat="49.26533" lon="-0.24181">
        <ele>5.1</ele>
        <time>2015-10-16T12:38:29Z</time>
      </trkpt>
      <trkpt lat="49.26533" lon="-0.24181">
        <ele>5.2</ele>
        <time>2015-10-16T12:38:30Z</time>
      </trkpt>
      <trkpt lat="49.26533" lon="-0.24182">
        <ele>5.3</ele>
        <time>2015-10-16T12:38:31Z</time>
      </trkpt>
      <trkpt lat="49.26533" lon="-0.24182">
        <ele>5.4</ele>
        <time>2015-10-16T12:38:32Z</time>
      </trkpt>
      <trkpt lat="49.26533" lon="-0.24182">
        <ele>5.4</ele>
        <time>2015-10-16T12:38:33Z</time>
      </trkpt>
      <trkpt lat="49.26533" lon="-0.24182">
        <ele>5.2</ele>
        <time>2015-10-16T12:38:34Z</time>
      </trkpt>
      <trkpt lat="49.26533" lon="-0.24183">
        <ele>5.1</ele>
        <time>2015-10-16T12:38:35Z</time>
      </trkpt>
      <trkpt lat="49.26532" lon="-0.24183">
        <ele>5</ele>
        <time>2015-10-16T12:38:36Z</time>
      </trkpt>
      <trkpt lat="49.26532" lon="-0.24184">
        <ele>5.1</ele>
        <time>2015-10-16T12:38:37Z</time>
      </trkpt>
      <trkpt lat="49.26532" lon="-0.24184">
        <ele>5.2</ele>
        <time>2015-10-16T12:38:38Z</time>
      </trkpt>
      <trkpt lat="49.26532" lon="-0.24184">
        <ele>5.3</ele>
        <time>2015-10-16T12:38:39Z</time>
      </trkpt>
      <trkpt lat="49.26532" lon="-0.24185">
        <ele>5.4</ele>
        <time>2015-10-16T12:38:40Z</time>
      </trkpt>
      <trkpt lat="49.26532" lon="-0.24185">
        <ele>5.4</ele>
        <time>2015-10-16T12:38:41Z</time>
      </trkpt>
      <trkpt lat="49.26532" lon="-0.24185">
        <ele>5.4</ele>
        <time>2015-10-16T12:38:42Z</time>
      </trkpt>
      <trkpt lat="49.26532" lon="-0.24185">
        <ele>5.5</ele>
        <time>2015-10-16T12:38:43Z</time>
      </trkpt>
      <trkpt lat="49.26533" lon="-0.24186">
        <ele>5.5</ele>
        <time>2015-10-16T12:38:44Z</time>
      </trkpt>
      <trkpt lat="49.26533" lon="-0.24186">
        <ele>5.5</ele>
        <time>2015-10-16T12:38:45Z</time>
      </trkpt>
      <trkpt lat="49.26533" lon="-0.24186">
        <ele>5.5</ele>
        <time>2015-10-16T12:38:46Z</time>
      </trkpt>
      <trkpt lat="49.26533" lon="-0.24186">
        <ele>5.5</ele>
        <time>2015-10-16T12:38:47Z</time>
      </trkpt>
      <trkpt lat="49.26533" lon="-0.24186">
        <ele>5.5</ele>
        <time>2015-10-16T12:38:48Z</time>
      </trkpt>
      <trkpt lat="49.26533" lon="-0.24187">
        <ele>5.5</ele>
        <time>2015-10-16T12:38:49Z</time>
      </trkpt>
      <trkpt lat="49.26533" lon="-0.24187">
        <ele>5.5</ele>
        <time>2015-10-16T12:38:50Z</time>
      </trkpt>
      <trkpt lat="49.26533" lon="-0.24187">
        <ele>5.5</ele>
        <time>2015-10-16T12:38:51Z</time>
      </trkpt>
      <trkpt lat="49.26533" lon="-0.24187">
        <ele>5.1</ele>
        <time>2015-10-16T12:38:52Z</time>
      </trkpt>
      <trkpt lat="49.26533" lon="-0.24187">
        <ele>4.8</ele>
        <time>2015-10-16T12:38:53Z</time>
      </trkpt>
      <trkpt lat="49.26533" lon="-0.24187">
        <ele>4.6</ele>
        <time>2015-10-16T12:38:54Z</time>
      </trkpt>
      <trkpt lat="49.26533" lon="-0.24188">
        <ele>4.8</ele>
        <time>2015-10-16T12:38:55Z</time>
      </trkpt>
      <trkpt lat="49.26533" lon="-0.24188">
        <ele>5</ele>
        <time>2015-10-16T12:38:56Z</time>
      </trkpt>
      <trkpt lat="49.26534" lon="-0.24188">
        <ele>5.1</ele>
        <time>2015-10-16T12:38:57Z</time>
      </trkpt>
      <trkpt lat="49.26534" lon="-0.24188">
        <ele>5.2</ele>
        <time>2015-10-16T12:38:58Z</time>
      </trkpt>
      <trkpt lat="49.26534" lon="-0.24188">
        <ele>5.3</ele>
        <time>2015-10-16T12:38:59Z</time>
      </trkpt>
      <trkpt lat="49.26534" lon="-0.24189">
        <ele>5.4</ele>
        <time>2015-10-16T12:39:00Z</time>
      </trkpt>
      <trkpt lat="49.26534" lon="-0.24189">
        <ele>5</ele>
        <time>2015-10-16T12:39:01Z</time>
      </trkpt>
      <trkpt lat="49.26534" lon="-0.24189">
        <ele>4.7</ele>
        <time>2015-10-16T12:39:02Z</time>
      </trkpt>
      <trkpt lat="49.26534" lon="-0.2419">
        <ele>4.5</ele>
        <time>2015-10-16T12:39:03Z</time>
      </trkpt>
      <trkpt lat="49.26534" lon="-0.2419">
        <ele>4.4</ele>
        <time>2015-10-16T12:39:04Z</time>
      </trkpt>
      <trkpt lat="49.26534" lon="-0.2419">
        <ele>4.2</ele>
        <time>2015-10-16T12:39:05Z</time>
      </trkpt>
      <trkpt lat="49.26534" lon="-0.24191">
        <ele>4.2</ele>
        <time>2015-10-16T12:39:06Z</time>
      </trkpt>
      <trkpt lat="49.26534" lon="-0.24191">
        <ele>4.7</ele>
        <time>2015-10-16T12:39:07Z</time>
      </trkpt>
      <trkpt lat="49.26534" lon="-0.24192">
        <ele>5.1</ele>
        <time>2015-10-16T12:39:08Z</time>
      </trkpt>
      <trkpt lat="49.26534" lon="-0.24192">
        <ele>5.4</ele>
        <time>2015-10-16T12:39:09Z</time>
      </trkpt>
      <trkpt lat="49.26534" lon="-0.24193">
        <ele>5.5</ele>
        <time>2015-10-16T12:39:10Z</time>
      </trkpt>
      <trkpt lat="49.26534" lon="-0.24193">
        <ele>5.5</ele>
        <time>2015-10-16T12:39:11Z</time>
      </trkpt>
      <trkpt lat="49.26534" lon="-0.24193">
        <ele>5.5</ele>
        <time>2015-10-16T12:39:12Z</time>
      </trkpt>
      <trkpt lat="49.26534" lon="-0.24194">
        <ele>5.5</ele>
        <time>2015-10-16T12:39:13Z</time>
      </trkpt>
      <trkpt lat="49.26534" lon="-0.24194">
        <ele>5.5</ele>
        <time>2015-10-16T12:39:14Z</time>
      </trkpt>
      <trkpt lat="49.26534" lon="-0.24194">
        <ele>5.5</ele>
        <time>2015-10-16T12:39:15Z</time>
      </trkpt>
      <trkpt lat="49.26534" lon="-0.24194">
        <ele>5.5</ele>
        <time>2015-10-16T12:39:16Z</time>
      </trkpt>
      <trkpt lat="49.26534" lon="-0.24194">
        <ele>5.5</ele>
        <time>2015-10-16T12:39:17Z</time>
      </trkpt>
      <trkpt lat="49.26534" lon="-0.24194">
        <ele>5.5</ele>
        <time>2015-10-16T12:39:18Z</time>
      </trkpt>
      <trkpt lat="49.26534" lon="-0.24195">
        <ele>5.5</ele>
        <time>2015-10-16T12:39:19Z</time>
      </trkpt>
      <trkpt lat="49.26534" lon="-0.24195">
        <ele>5.5</ele>
        <time>2015-10-16T12:39:20Z</time>
      </trkpt>
      <trkpt lat="49.26534" lon="-0.24195">
        <ele>5.5</ele>
        <time>2015-10-16T12:39:21Z</time>
      </trkpt>
      <trkpt lat="49.26534" lon="-0.24195">
        <ele>5.5</ele>
        <time>2015-10-16T12:39:22Z</time>
      </trkpt>
      <trkpt lat="49.26534" lon="-0.24195">
        <ele>5.5</ele>
        <time>2015-10-16T12:39:23Z</time>
      </trkpt>
      <trkpt lat="49.26534" lon="-0.24195">
        <ele>5.5</ele>
        <time>2015-10-16T12:39:24Z</time>
      </trkpt>
      <trkpt lat="49.26534" lon="-0.24195">
        <ele>5.3</ele>
        <time>2015-10-16T12:39:25Z</time>
      </trkpt>
      <trkpt lat="49.26534" lon="-0.24195">
        <ele>5.2</ele>
        <time>2015-10-16T12:39:26Z</time>
      </trkpt>
      <trkpt lat="49.26534" lon="-0.24195">
        <ele>5.1</ele>
        <time>2015-10-16T12:39:27Z</time>
      </trkpt>
      <trkpt lat="49.26534" lon="-0.24194">
        <ele>5</ele>
        <time>2015-10-16T12:39:28Z</time>
      </trkpt>
      <trkpt lat="49.26534" lon="-0.24194">
        <ele>4.9</ele>
        <time>2015-10-16T12:39:29Z</time>
      </trkpt>
      <trkpt lat="49.26534" lon="-0.24194">
        <ele>4.9</ele>
        <time>2015-10-16T12:39:30Z</time>
      </trkpt>
      <trkpt lat="49.26534" lon="-0.24194">
        <ele>4.8</ele>
        <time>2015-10-16T12:39:31Z</time>
      </trkpt>
      <trkpt lat="49.26534" lon="-0.24194">
        <ele>4.8</ele>
        <time>2015-10-16T12:39:32Z</time>
      </trkpt>
      <trkpt lat="49.26534" lon="-0.24194">
        <ele>4.8</ele>
        <time>2015-10-16T12:39:33Z</time>
      </trkpt>
      <trkpt lat="49.26534" lon="-0.24194">
        <ele>4.6</ele>
        <time>2015-10-16T12:39:34Z</time>
      </trkpt>
      <trkpt lat="49.26534" lon="-0.24194">
        <ele>4.4</ele>
        <time>2015-10-16T12:39:35Z</time>
      </trkpt>
      <trkpt lat="49.26534" lon="-0.24194">
        <ele>4.3</ele>
        <time>2015-10-16T12:39:36Z</time>
      </trkpt>
      <trkpt lat="49.26534" lon="-0.24194">
        <ele>4.4</ele>
        <time>2015-10-16T12:39:37Z</time>
      </trkpt>
      <trkpt lat="49.26534" lon="-0.24194">
        <ele>4.5</ele>
        <time>2015-10-16T12:39:38Z</time>
      </trkpt>
      <trkpt lat="49.26534" lon="-0.24194">
        <ele>4.5</ele>
        <time>2015-10-16T12:39:39Z</time>
      </trkpt>
      <trkpt lat="49.26534" lon="-0.24193">
        <ele>4.8</ele>
        <time>2015-10-16T12:39:40Z</time>
      </trkpt>
      <trkpt lat="49.26533" lon="-0.2419">
        <ele>5.1</ele>
        <time>2015-10-16T12:39:42Z</time>
      </trkpt>
      <trkpt lat="49.26532" lon="-0.24188">
        <ele>5.2</ele>
        <time>2015-10-16T12:39:43Z</time>
      </trkpt>
      <trkpt lat="49.26532" lon="-0.24185">
        <ele>5.3</ele>
        <time>2015-10-16T12:39:44Z</time>
      </trkpt>
      <trkpt lat="49.26531" lon="-0.24183">
        <ele>5.4</ele>
        <time>2015-10-16T12:39:45Z</time>
      </trkpt>
      <trkpt lat="49.26531" lon="-0.24181">
        <ele>5.4</ele>
        <time>2015-10-16T12:39:46Z</time>
      </trkpt>
      <trkpt lat="49.2653" lon="-0.24178">
        <ele>5.4</ele>
        <time>2015-10-16T12:39:47Z</time>
      </trkpt>
      <trkpt lat="49.2653" lon="-0.24176">
        <ele>5.5</ele>
        <time>2015-10-16T12:39:48Z</time>
      </trkpt>
      <trkpt lat="49.26528" lon="-0.24167">
        <ele>6.7</ele>
        <time>2015-10-16T12:39:52Z</time>
      </trkpt>
      <trkpt lat="49.26527" lon="-0.24165">
        <ele>6.8</ele>
        <time>2015-10-16T12:39:53Z</time>
      </trkpt>
      <trkpt lat="49.26526" lon="-0.24164">
        <ele>6.9</ele>
        <time>2015-10-16T12:39:54Z</time>
      </trkpt>
      <trkpt lat="49.26524" lon="-0.24162">
        <ele>7</ele>
        <time>2015-10-16T12:39:56Z</time>
      </trkpt>
      <trkpt lat="49.26522" lon="-0.24161">
        <ele>7.1</ele>
        <time>2015-10-16T12:39:57Z</time>
      </trkpt>
      <trkpt lat="49.26521" lon="-0.2416">
        <ele>7.3</ele>
        <time>2015-10-16T12:39:58Z</time>
      </trkpt>
      <trkpt lat="49.2652" lon="-0.2416">
        <ele>7.5</ele>
        <time>2015-10-16T12:39:59Z</time>
      </trkpt>
      <trkpt lat="49.26519" lon="-0.24161">
        <ele>7.6</ele>
        <time>2015-10-16T12:40:00Z</time>
      </trkpt>
      <trkpt lat="49.26518" lon="-0.24162">
        <ele>7.9</ele>
        <time>2015-10-16T12:40:01Z</time>
      </trkpt>
      <trkpt lat="49.26517" lon="-0.24163">
        <ele>8.2</ele>
        <time>2015-10-16T12:40:02Z</time>
      </trkpt>
      <trkpt lat="49.26516" lon="-0.24164">
        <ele>8.3</ele>
        <time>2015-10-16T12:40:03Z</time>
      </trkpt>
      <trkpt lat="49.26515" lon="-0.24165">
        <ele>8.5</ele>
        <time>2015-10-16T12:40:04Z</time>
      </trkpt>
      <trkpt lat="49.26514" lon="-0.24167">
        <ele>8.6</ele>
        <time>2015-10-16T12:40:05Z</time>
      </trkpt>
      <trkpt lat="49.26513" lon="-0.24168">
        <ele>8.6</ele>
        <time>2015-10-16T12:40:06Z</time>
      </trkpt>
      <trkpt lat="49.26513" lon="-0.2417">
        <ele>8.9</ele>
        <time>2015-10-16T12:40:07Z</time>
      </trkpt>
      <trkpt lat="49.26512" lon="-0.24172">
        <ele>9.1</ele>
        <time>2015-10-16T12:40:08Z</time>
      </trkpt>
      <trkpt lat="49.26512" lon="-0.24174">
        <ele>9.2</ele>
        <time>2015-10-16T12:40:09Z</time>
      </trkpt>
      <trkpt lat="49.26511" lon="-0.24176">
        <ele>9.4</ele>
        <time>2015-10-16T12:40:10Z</time>
      </trkpt>
      <trkpt lat="49.26511" lon="-0.24178">
        <ele>9.4</ele>
        <time>2015-10-16T12:40:11Z</time>
      </trkpt>
      <trkpt lat="49.26511" lon="-0.2418">
        <ele>9.5</ele>
        <time>2015-10-16T12:40:12Z</time>
      </trkpt>
      <trkpt lat="49.26511" lon="-0.24183">
        <ele>9.8</ele>
        <time>2015-10-16T12:40:13Z</time>
      </trkpt>
      <trkpt lat="49.26511" lon="-0.24185">
        <ele>9.9</ele>
        <time>2015-10-16T12:40:14Z</time>
      </trkpt>
      <trkpt lat="49.26512" lon="-0.24187">
        <ele>10.1</ele>
        <time>2015-10-16T12:40:15Z</time>
      </trkpt>
      <trkpt lat="49.26512" lon="-0.24189">
        <ele>10.4</ele>
        <time>2015-10-16T12:40:16Z</time>
      </trkpt>
      <trkpt lat="49.26512" lon="-0.24191">
        <ele>10.6</ele>
        <time>2015-10-16T12:40:17Z</time>
      </trkpt>
      <trkpt lat="49.26512" lon="-0.24193">
        <ele>10.8</ele>
        <time>2015-10-16T12:40:18Z</time>
      </trkpt>
      <trkpt lat="49.26513" lon="-0.24196">
        <ele>11.2</ele>
        <time>2015-10-16T12:40:19Z</time>
      </trkpt>
      <trkpt lat="49.26513" lon="-0.24198">
        <ele>11.4</ele>
        <time>2015-10-16T12:40:20Z</time>
      </trkpt>
      <trkpt lat="49.26513" lon="-0.24199">
        <ele>11.6</ele>
        <time>2015-10-16T12:40:21Z</time>
      </trkpt>
      <trkpt lat="49.26513" lon="-0.24201">
        <ele>11.5</ele>
        <time>2015-10-16T12:40:22Z</time>
      </trkpt>
      <trkpt lat="49.26514" lon="-0.24203">
        <ele>11.5</ele>
        <time>2015-10-16T12:40:23Z</time>
      </trkpt>
      <trkpt lat="49.26514" lon="-0.24205">
        <ele>11.5</ele>
        <time>2015-10-16T12:40:24Z</time>
      </trkpt>
      <trkpt lat="49.26514" lon="-0.24207">
        <ele>11.4</ele>
        <time>2015-10-16T12:40:25Z</time>
      </trkpt>
      <trkpt lat="49.26514" lon="-0.24209">
        <ele>11.4</ele>
        <time>2015-10-16T12:40:26Z</time>
      </trkpt>
      <trkpt lat="49.26514" lon="-0.24211">
        <ele>11.4</ele>
        <time>2015-10-16T12:40:27Z</time>
      </trkpt>
      <trkpt lat="49.26515" lon="-0.24212">
        <ele>11.6</ele>
        <time>2015-10-16T12:40:28Z</time>
      </trkpt>
      <trkpt lat="49.26515" lon="-0.24214">
        <ele>11.7</ele>
        <time>2015-10-16T12:40:29Z</time>
      </trkpt>
      <trkpt lat="49.26515" lon="-0.24216">
        <ele>11.8</ele>
        <time>2015-10-16T12:40:30Z</time>
      </trkpt>
      <trkpt lat="49.26515" lon="-0.24218">
        <ele>11.9</ele>
        <time>2015-10-16T12:40:31Z</time>
      </trkpt>
      <trkpt lat="49.26516" lon="-0.2422">
        <ele>12</ele>
        <time>2015-10-16T12:40:32Z</time>
      </trkpt>
      <trkpt lat="49.26516" lon="-0.24221">
        <ele>12</ele>
        <time>2015-10-16T12:40:33Z</time>
      </trkpt>
      <trkpt lat="49.26516" lon="-0.24223">
        <ele>11.9</ele>
        <time>2015-10-16T12:40:34Z</time>
      </trkpt>
      <trkpt lat="49.26517" lon="-0.24225">
        <ele>11.7</ele>
        <time>2015-10-16T12:40:35Z</time>
      </trkpt>
      <trkpt lat="49.26517" lon="-0.24227">
        <ele>11.6</ele>
        <time>2015-10-16T12:40:36Z</time>
      </trkpt>
      <trkpt lat="49.26518" lon="-0.24228">
        <ele>12</ele>
        <time>2015-10-16T12:40:37Z</time>
      </trkpt>
      <trkpt lat="49.26519" lon="-0.2423">
        <ele>12.2</ele>
        <time>2015-10-16T12:40:38Z</time>
      </trkpt>
      <trkpt lat="49.2652" lon="-0.24231">
        <ele>12.4</ele>
        <time>2015-10-16T12:40:39Z</time>
      </trkpt>
      <trkpt lat="49.26521" lon="-0.24232">
        <ele>12.4</ele>
        <time>2015-10-16T12:40:40Z</time>
      </trkpt>
      <trkpt lat="49.26522" lon="-0.24233">
        <ele>12.3</ele>
        <time>2015-10-16T12:40:41Z</time>
      </trkpt>
      <trkpt lat="49.26524" lon="-0.24233">
        <ele>12.3</ele>
        <time>2015-10-16T12:40:42Z</time>
      </trkpt>
      <trkpt lat="49.26526" lon="-0.24234">
        <ele>12.5</ele>
        <time>2015-10-16T12:40:43Z</time>
      </trkpt>
      <trkpt lat="49.26527" lon="-0.24234">
        <ele>12.6</ele>
        <time>2015-10-16T12:40:44Z</time>
      </trkpt>
      <trkpt lat="49.26528" lon="-0.24235">
        <ele>12.7</ele>
        <time>2015-10-16T12:40:45Z</time>
      </trkpt>
      <trkpt lat="49.26529" lon="-0.24234">
        <ele>12.8</ele>
        <time>2015-10-16T12:40:46Z</time>
      </trkpt>
      <trkpt lat="49.2653" lon="-0.24233">
        <ele>12.8</ele>
        <time>2015-10-16T12:40:47Z</time>
      </trkpt>
      <trkpt lat="49.2653" lon="-0.24231">
        <ele>12.9</ele>
        <time>2015-10-16T12:40:48Z</time>
      </trkpt>
      <trkpt lat="49.26531" lon="-0.24231">
        <ele>12.5</ele>
        <time>2015-10-16T12:40:49Z</time>
      </trkpt>
      <trkpt lat="49.26531" lon="-0.2423">
        <ele>12.2</ele>
        <time>2015-10-16T12:40:50Z</time>
      </trkpt>
      <trkpt lat="49.26531" lon="-0.2423">
        <ele>12</ele>
        <time>2015-10-16T12:40:51Z</time>
      </trkpt>
      <trkpt lat="49.26531" lon="-0.2423">
        <ele>12</ele>
        <time>2015-10-16T12:40:52Z</time>
      </trkpt>
      <trkpt lat="49.26531" lon="-0.2423">
        <ele>12.1</ele>
        <time>2015-10-16T12:40:53Z</time>
      </trkpt>
      <trkpt lat="49.26531" lon="-0.2423">
        <ele>12.1</ele>
        <time>2015-10-16T12:40:54Z</time>
      </trkpt>
      <trkpt lat="49.26531" lon="-0.2423">
        <ele>12.5</ele>
        <time>2015-10-16T12:40:55Z</time>
      </trkpt>
      <trkpt lat="49.2653" lon="-0.2423">
        <ele>12.9</ele>
        <time>2015-10-16T12:40:56Z</time>
      </trkpt>
      <trkpt lat="49.2653" lon="-0.24229">
        <ele>13.1</ele>
        <time>2015-10-16T12:40:57Z</time>
      </trkpt>
      <trkpt lat="49.2653" lon="-0.24229">
        <ele>13.7</ele>
        <time>2015-10-16T12:40:58Z</time>
      </trkpt>
      <trkpt lat="49.2653" lon="-0.24229">
        <ele>14.1</ele>
        <time>2015-10-16T12:40:59Z</time>
      </trkpt>
      <trkpt lat="49.2653" lon="-0.24229">
        <ele>14.5</ele>
        <time>2015-10-16T12:41:00Z</time>
      </trkpt>
      <trkpt lat="49.26529" lon="-0.24229">
        <ele>12.2</ele>
        <time>2015-10-16T12:41:01Z</time>
      </trkpt>
      <trkpt lat="49.26529" lon="-0.24229">
        <ele>10.6</ele>
        <time>2015-10-16T12:41:02Z</time>
      </trkpt>
      <trkpt lat="49.26529" lon="-0.24229">
        <ele>9.3</ele>
        <time>2015-10-16T12:41:03Z</time>
      </trkpt>
      <trkpt lat="49.26529" lon="-0.24229">
        <ele>7.1</ele>
        <time>2015-10-16T12:41:04Z</time>
      </trkpt>
      <trkpt lat="49.26529" lon="-0.24229">
        <ele>5.5</ele>
        <time>2015-10-16T12:41:05Z</time>
      </trkpt>
      <trkpt lat="49.26529" lon="-0.24229">
        <ele>4.3</ele>
        <time>2015-10-16T12:41:06Z</time>
      </trkpt>
      <trkpt lat="49.26528" lon="-0.24228">
        <ele>5.8</ele>
        <time>2015-10-16T12:41:07Z</time>
      </trkpt>
      <trkpt lat="49.26528" lon="-0.24228">
        <ele>7</ele>
        <time>2015-10-16T12:41:08Z</time>
      </trkpt>
      <trkpt lat="49.26528" lon="-0.24228">
        <ele>7.9</ele>
        <time>2015-10-16T12:41:09Z</time>
      </trkpt>
      <trkpt lat="49.26528" lon="-0.24228">
        <ele>8.1</ele>
        <time>2015-10-16T12:41:10Z</time>
      </trkpt>
      <trkpt lat="49.26528" lon="-0.24228">
        <ele>8.3</ele>
        <time>2015-10-16T12:41:11Z</time>
      </trkpt>
      <trkpt lat="49.26527" lon="-0.24227">
        <ele>15.1</ele>
        <time>2015-10-16T12:41:26Z</time>
      </trkpt>
      <trkpt lat="49.26527" lon="-0.24227">
        <ele>16.1</ele>
        <time>2015-10-16T12:41:27Z</time>
      </trkpt>
      <trkpt lat="49.26527" lon="-0.24227">
        <ele>15.7</ele>
        <time>2015-10-16T12:41:28Z</time>
      </trkpt>
      <trkpt lat="49.26527" lon="-0.24227">
        <ele>15.4</ele>
        <time>2015-10-16T12:41:29Z</time>
      </trkpt>
      <trkpt lat="49.26527" lon="-0.24227">
        <ele>15.2</ele>
        <time>2015-10-16T12:41:30Z</time>
      </trkpt>
      <trkpt lat="49.26527" lon="-0.24227">
        <ele>14.7</ele>
        <time>2015-10-16T12:41:31Z</time>
      </trkpt>
      <trkpt lat="49.26527" lon="-0.24227">
        <ele>14.3</ele>
        <time>2015-10-16T12:41:32Z</time>
      </trkpt>
      <trkpt lat="49.26527" lon="-0.24227">
        <ele>13.9</ele>
        <time>2015-10-16T12:41:33Z</time>
      </trkpt>
      <trkpt lat="49.26527" lon="-0.24227">
        <ele>13.9</ele>
        <time>2015-10-16T12:41:34Z</time>
      </trkpt>
      <trkpt lat="49.26527" lon="-0.24227">
        <ele>13.9</ele>
        <time>2015-10-16T12:41:35Z</time>
      </trkpt>
      <trkpt lat="49.26527" lon="-0.24227">
        <ele>13.9</ele>
        <time>2015-10-16T12:41:36Z</time>
      </trkpt>
      <trkpt lat="49.26527" lon="-0.24227">
        <ele>12.8</ele>
        <time>2015-10-16T12:41:37Z</time>
      </trkpt>
      <trkpt lat="49.26527" lon="-0.24227">
        <ele>12</ele>
        <time>2015-10-16T12:41:38Z</time>
      </trkpt>
      <trkpt lat="49.26527" lon="-0.24226">
        <ele>11.5</ele>
        <time>2015-10-16T12:41:39Z</time>
      </trkpt>
      <trkpt lat="49.26527" lon="-0.24226">
        <ele>11</ele>
        <time>2015-10-16T12:41:40Z</time>
      </trkpt>
      <trkpt lat="49.26527" lon="-0.24226">
        <ele>10.7</ele>
        <time>2015-10-16T12:41:41Z</time>
      </trkpt>
      <trkpt lat="49.26526" lon="-0.24225">
        <ele>13.6</ele>
        <time>2015-10-16T12:41:46Z</time>
      </trkpt>
      <trkpt lat="49.26526" lon="-0.24225">
        <ele>14.5</ele>
        <time>2015-10-16T12:41:47Z</time>
      </trkpt>
      <trkpt lat="49.26526" lon="-0.24225">
        <ele>15.1</ele>
        <time>2015-10-16T12:41:48Z</time>
      </trkpt>
      <trkpt lat="49.26526" lon="-0.24225">
        <ele>15.6</ele>
        <time>2015-10-16T12:41:49Z</time>
      </trkpt>
      <trkpt lat="49.26526" lon="-0.24225">
        <ele>16</ele>
        <time>2015-10-16T12:41:50Z</time>
      </trkpt>
      <trkpt lat="49.26526" lon="-0.24225">
        <ele>16.3</ele>
        <time>2015-10-16T12:41:51Z</time>
      </trkpt>
      <trkpt lat="49.26526" lon="-0.24225">
        <ele>15.7</ele>
        <time>2015-10-16T12:41:52Z</time>
      </trkpt>
      <trkpt lat="49.26526" lon="-0.24225">
        <ele>15.2</ele>
        <time>2015-10-16T12:41:53Z</time>
      </trkpt>
      <trkpt lat="49.26526" lon="-0.24225">
        <ele>14.9</ele>
        <time>2015-10-16T12:41:54Z</time>
      </trkpt>
      <trkpt lat="49.26526" lon="-0.24225">
        <ele>14.4</ele>
        <time>2015-10-16T12:41:55Z</time>
      </trkpt>
      <trkpt lat="49.26526" lon="-0.24225">
        <ele>14.1</ele>
        <time>2015-10-16T12:41:56Z</time>
      </trkpt>
      <trkpt lat="49.26526" lon="-0.24225">
        <ele>13.8</ele>
        <time>2015-10-16T12:41:57Z</time>
      </trkpt>
      <trkpt lat="49.26526" lon="-0.24225">
        <ele>13.8</ele>
        <time>2015-10-16T12:42:00Z</time>
      </trkpt>
      <trkpt lat="49.26526" lon="-0.24225">
        <ele>13.8</ele>
        <time>2015-10-16T12:42:01Z</time>
      </trkpt>
      <trkpt lat="49.26526" lon="-0.24225">
        <ele>13.8</ele>
        <time>2015-10-16T12:42:02Z</time>
      </trkpt>
      <trkpt lat="49.26526" lon="-0.24225">
        <ele>13.8</ele>
        <time>2015-10-16T12:42:03Z</time>
      </trkpt>
      <trkpt lat="49.26526" lon="-0.24225">
        <ele>13.8</ele>
        <time>2015-10-16T12:42:04Z</time>
      </trkpt>
      <trkpt lat="49.26526" lon="-0.24225">
        <ele>13.8</ele>
        <time>2015-10-16T12:42:05Z</time>
      </trkpt>
      <trkpt lat="49.26526" lon="-0.24225">
        <ele>13.8</ele>
        <time>2015-10-16T12:42:06Z</time>
      </trkpt>
      <trkpt lat="49.26526" lon="-0.24226">
        <ele>13.8</ele>
        <time>2015-10-16T12:42:07Z</time>
      </trkpt>
      <trkpt lat="49.26527" lon="-0.24226">
        <ele>13.8</ele>
        <time>2015-10-16T12:42:08Z</time>
      </trkpt>
      <trkpt lat="49.26527" lon="-0.24226">
        <ele>13.8</ele>
        <time>2015-10-16T12:42:09Z</time>
      </trkpt>
      <trkpt lat="49.26527" lon="-0.24226">
        <ele>13.4</ele>
        <time>2015-10-16T12:42:10Z</time>
      </trkpt>
      <trkpt lat="49.26527" lon="-0.24226">
        <ele>13.1</ele>
        <time>2015-10-16T12:42:11Z</time>
      </trkpt>
      <trkpt lat="49.26527" lon="-0.24226">
        <ele>12.9</ele>
        <time>2015-10-16T12:42:12Z</time>
      </trkpt>
      <trkpt lat="49.26526" lon="-0.24227">
        <ele>12.9</ele>
        <time>2015-10-16T12:42:13Z</time>
      </trkpt>
      <trkpt lat="49.26526" lon="-0.24227">
        <ele>12.9</ele>
        <time>2015-10-16T12:42:14Z</time>
      </trkpt>
      <trkpt lat="49.26524" lon="-0.24228">
        <ele>12.5</ele>
        <time>2015-10-16T12:42:16Z</time>
      </trkpt>
      <trkpt lat="49.2652" lon="-0.24227">
        <ele>12.8</ele>
        <time>2015-10-16T12:42:20Z</time>
      </trkpt>
      <trkpt lat="49.26517" lon="-0.24223">
        <ele>15.4</ele>
        <time>2015-10-16T12:42:24Z</time>
      </trkpt>
      <trkpt lat="49.26517" lon="-0.24221">
        <ele>15.4</ele>
        <time>2015-10-16T12:42:25Z</time>
      </trkpt>
      <trkpt lat="49.26516" lon="-0.24219">
        <ele>15.5</ele>
        <time>2015-10-16T12:42:26Z</time>
      </trkpt>
      <trkpt lat="49.26516" lon="-0.24217">
        <ele>15.5</ele>
        <time>2015-10-16T12:42:27Z</time>
      </trkpt>
      <trkpt lat="49.26516" lon="-0.24215">
        <ele>14</ele>
        <time>2015-10-16T12:42:28Z</time>
      </trkpt>
      <trkpt lat="49.26516" lon="-0.24213">
        <ele>12.9</ele>
        <time>2015-10-16T12:42:29Z</time>
      </trkpt>
      <trkpt lat="49.26516" lon="-0.24211">
        <ele>12.1</ele>
        <time>2015-10-16T12:42:30Z</time>
      </trkpt>
      <trkpt lat="49.26515" lon="-0.24209">
        <ele>12.1</ele>
        <time>2015-10-16T12:42:31Z</time>
      </trkpt>
      <trkpt lat="49.26515" lon="-0.24207">
        <ele>12.1</ele>
        <time>2015-10-16T12:42:32Z</time>
      </trkpt>
      <trkpt lat="49.26512" lon="-0.24176">
        <ele>13.3</ele>
        <time>2015-10-16T12:42:49Z</time>
      </trkpt>
      <trkpt lat="49.26513" lon="-0.24174">
        <ele>13</ele>
        <time>2015-10-16T12:42:50Z</time>
      </trkpt>
      <trkpt lat="49.26518" lon="-0.24161">
        <ele>12.5</ele>
        <time>2015-10-16T12:42:58Z</time>
      </trkpt>
      <trkpt lat="49.26519" lon="-0.24159">
        <ele>11.1</ele>
        <time>2015-10-16T12:42:59Z</time>
      </trkpt>
      <trkpt lat="49.2652" lon="-0.24158">
        <ele>10.2</ele>
        <time>2015-10-16T12:43:00Z</time>
      </trkpt>
      <trkpt lat="49.26522" lon="-0.24157">
        <ele>10.3</ele>
        <time>2015-10-16T12:43:02Z</time>
      </trkpt>
      <trkpt lat="49.26524" lon="-0.24157">
        <ele>10.4</ele>
        <time>2015-10-16T12:43:03Z</time>
      </trkpt>
      <trkpt lat="49.26525" lon="-0.24156">
        <ele>9.8</ele>
        <time>2015-10-16T12:43:04Z</time>
      </trkpt>
      <trkpt lat="49.26526" lon="-0.24155">
        <ele>9.3</ele>
        <time>2015-10-16T12:43:05Z</time>
      </trkpt>
      <trkpt lat="49.26527" lon="-0.24154">
        <ele>9</ele>
        <time>2015-10-16T12:43:06Z</time>
      </trkpt>
      <trkpt lat="49.26528" lon="-0.24153">
        <ele>8.6</ele>
        <time>2015-10-16T12:43:07Z</time>
      </trkpt>
      <trkpt lat="49.2653" lon="-0.2415">
        <ele>8</ele>
        <time>2015-10-16T12:43:09Z</time>
      </trkpt>
      <trkpt lat="49.2653" lon="-0.24148">
        <ele>8</ele>
        <time>2015-10-16T12:43:10Z</time>
      </trkpt>
      <trkpt lat="49.26529" lon="-0.24138">
        <ele>8.5</ele>
        <time>2015-10-16T12:43:15Z</time>
      </trkpt>
      <trkpt lat="49.26529" lon="-0.24137">
        <ele>8.6</ele>
        <time>2015-10-16T12:43:16Z</time>
      </trkpt>
      <trkpt lat="49.26529" lon="-0.24135">
        <ele>8.7</ele>
        <time>2015-10-16T12:43:17Z</time>
      </trkpt>
      <trkpt lat="49.26528" lon="-0.24133">
        <ele>8.7</ele>
        <time>2015-10-16T12:43:18Z</time>
      </trkpt>
      <trkpt lat="49.26528" lon="-0.24131">
        <ele>7.3</ele>
        <time>2015-10-16T12:43:19Z</time>
      </trkpt>
      <trkpt lat="49.26526" lon="-0.24107">
        <ele>7.8</ele>
        <time>2015-10-16T12:43:32Z</time>
      </trkpt>
      <trkpt lat="49.26474" lon="-0.23618">
        <ele>8.7</ele>
        <time>2015-10-16T12:47:41Z</time>
      </trkpt>
      <trkpt lat="49.26474" lon="-0.23616">
        <ele>8.9</ele>
        <time>2015-10-16T12:47:42Z</time>
      </trkpt>
      <trkpt lat="49.26474" lon="-0.23589">
        <ele>5.7</ele>
        <time>2015-10-16T12:47:55Z</time>
      </trkpt>
      <trkpt lat="49.26472" lon="-0.2356">
        <ele>8.8</ele>
        <time>2015-10-16T12:48:10Z</time>
      </trkpt>
      <trkpt lat="49.26471" lon="-0.23554">
        <ele>6.8</ele>
        <time>2015-10-16T12:48:16Z</time>
      </trkpt>
      <trkpt lat="49.2647" lon="-0.23554">
        <ele>6.6</ele>
        <time>2015-10-16T12:48:17Z</time>
      </trkpt>
      <trkpt lat="49.2647" lon="-0.23555">
        <ele>4.3</ele>
        <time>2015-10-16T12:48:18Z</time>
      </trkpt>
      <trkpt lat="49.26469" lon="-0.23556">
        <ele>3.1</ele>
        <time>2015-10-16T12:48:19Z</time>
      </trkpt>
      <trkpt lat="49.26468" lon="-0.23557">
        <ele>2.3</ele>
        <time>2015-10-16T12:48:20Z</time>
      </trkpt>
      <trkpt lat="49.26467" lon="-0.23558">
        <ele>3.4</ele>
        <time>2015-10-16T12:48:21Z</time>
      </trkpt>
      <trkpt lat="49.26466" lon="-0.23559">
        <ele>4</ele>
        <time>2015-10-16T12:48:22Z</time>
      </trkpt>
      <trkpt lat="49.26465" lon="-0.2356">
        <ele>4.3</ele>
        <time>2015-10-16T12:48:23Z</time>
      </trkpt>
      <trkpt lat="49.26463" lon="-0.23561">
        <ele>4.8</ele>
        <time>2015-10-16T12:48:24Z</time>
      </trkpt>
      <trkpt lat="49.26462" lon="-0.23562">
        <ele>5.1</ele>
        <time>2015-10-16T12:48:25Z</time>
      </trkpt>
      <trkpt lat="49.2646" lon="-0.23563">
        <ele>5.3</ele>
        <time>2015-10-16T12:48:26Z</time>
      </trkpt>
      <trkpt lat="49.26459" lon="-0.23563">
        <ele>6.9</ele>
        <time>2015-10-16T12:48:27Z</time>
      </trkpt>
      <trkpt lat="49.26458" lon="-0.23563">
        <ele>7.7</ele>
        <time>2015-10-16T12:48:28Z</time>
      </trkpt>
      <trkpt lat="49.26453" lon="-0.23563">
        <ele>6.7</ele>
        <time>2015-10-16T12:48:32Z</time>
      </trkpt>
      <trkpt lat="49.2645" lon="-0.23563">
        <ele>5.3</ele>
        <time>2015-10-16T12:48:34Z</time>
      </trkpt>
      <trkpt lat="49.26446" lon="-0.23561">
        <ele>6.1</ele>
        <time>2015-10-16T12:48:38Z</time>
      </trkpt>
      <trkpt lat="49.26436" lon="-0.23554">
        <ele>8.5</ele>
        <time>2015-10-16T12:48:49Z</time>
      </trkpt>
      <trkpt lat="49.26435" lon="-0.23552">
        <ele>8.4</ele>
        <time>2015-10-16T12:48:50Z</time>
      </trkpt>
      <trkpt lat="49.26434" lon="-0.23549">
        <ele>8.1</ele>
        <time>2015-10-16T12:48:52Z</time>
      </trkpt>
      <trkpt lat="49.26434" lon="-0.23548">
        <ele>8.1</ele>
        <time>2015-10-16T12:48:53Z</time>
      </trkpt>
      <trkpt lat="49.26434" lon="-0.23547">
        <ele>6.2</ele>
        <time>2015-10-16T12:48:54Z</time>
      </trkpt>
      <trkpt lat="49.26434" lon="-0.23546">
        <ele>5.2</ele>
        <time>2015-10-16T12:48:55Z</time>
      </trkpt>
      <trkpt lat="49.26434" lon="-0.23546">
        <ele>4.6</ele>
        <time>2015-10-16T12:48:56Z</time>
      </trkpt>
      <trkpt lat="49.26434" lon="-0.23547">
        <ele>5</ele>
        <time>2015-10-16T12:48:57Z</time>
      </trkpt>
      <trkpt lat="49.26434" lon="-0.23547">
        <ele>5.3</ele>
        <time>2015-10-16T12:48:58Z</time>
      </trkpt>
      <trkpt lat="49.26434" lon="-0.23547">
        <ele>5.4</ele>
        <time>2015-10-16T12:48:59Z</time>
      </trkpt>
      <trkpt lat="49.26435" lon="-0.23548">
        <ele>5.8</ele>
        <time>2015-10-16T12:49:00Z</time>
      </trkpt>
      <trkpt lat="49.26435" lon="-0.23548">
        <ele>6.1</ele>
        <time>2015-10-16T12:49:01Z</time>
      </trkpt>
      <trkpt lat="49.26435" lon="-0.23548">
        <ele>6.2</ele>
        <time>2015-10-16T12:49:02Z</time>
      </trkpt>
      <trkpt lat="49.26435" lon="-0.23548">
        <ele>5.9</ele>
        <time>2015-10-16T12:49:03Z</time>
      </trkpt>
      <trkpt lat="49.26435" lon="-0.23548">
        <ele>5.8</ele>
        <time>2015-10-16T12:49:04Z</time>
      </trkpt>
      <trkpt lat="49.26435" lon="-0.23548">
        <ele>5.7</ele>
        <time>2015-10-16T12:49:05Z</time>
      </trkpt>
      <trkpt lat="49.26436" lon="-0.23548">
        <ele>6.3</ele>
        <time>2015-10-16T12:49:06Z</time>
      </trkpt>
      <trkpt lat="49.26436" lon="-0.23548">
        <ele>6.7</ele>
        <time>2015-10-16T12:49:07Z</time>
      </trkpt>
      <trkpt lat="49.26436" lon="-0.23548">
        <ele>6.9</ele>
        <time>2015-10-16T12:49:08Z</time>
      </trkpt>
      <trkpt lat="49.26436" lon="-0.23547">
        <ele>7</ele>
        <time>2015-10-16T12:49:09Z</time>
      </trkpt>
      <trkpt lat="49.26436" lon="-0.23547">
        <ele>7.1</ele>
        <time>2015-10-16T12:49:10Z</time>
      </trkpt>
      <trkpt lat="49.26436" lon="-0.23547">
        <ele>7.2</ele>
        <time>2015-10-16T12:49:11Z</time>
      </trkpt>
      <trkpt lat="49.26436" lon="-0.23547">
        <ele>8.3</ele>
        <time>2015-10-16T12:49:12Z</time>
      </trkpt>
      <trkpt lat="49.26436" lon="-0.23547">
        <ele>8.9</ele>
        <time>2015-10-16T12:49:13Z</time>
      </trkpt>
      <trkpt lat="49.26436" lon="-0.23547">
        <ele>9.2</ele>
        <time>2015-10-16T12:49:14Z</time>
      </trkpt>
      <trkpt lat="49.26436" lon="-0.23547">
        <ele>9.1</ele>
        <time>2015-10-16T12:49:15Z</time>
      </trkpt>
      <trkpt lat="49.26436" lon="-0.23547">
        <ele>9</ele>
        <time>2015-10-16T12:49:16Z</time>
      </trkpt>
      <trkpt lat="49.26436" lon="-0.23547">
        <ele>8.9</ele>
        <time>2015-10-16T12:49:17Z</time>
      </trkpt>
      <trkpt lat="49.26435" lon="-0.23547">
        <ele>10.7</ele>
        <time>2015-10-16T12:49:18Z</time>
      </trkpt>
      <trkpt lat="49.26435" lon="-0.23547">
        <ele>11.7</ele>
        <time>2015-10-16T12:49:19Z</time>
      </trkpt>
      <trkpt lat="49.26435" lon="-0.23547">
        <ele>12.3</ele>
        <time>2015-10-16T12:49:20Z</time>
      </trkpt>
      <trkpt lat="49.26435" lon="-0.23547">
        <ele>9.7</ele>
        <time>2015-10-16T12:49:21Z</time>
      </trkpt>
      <trkpt lat="49.26434" lon="-0.23547">
        <ele>8.2</ele>
        <time>2015-10-16T12:49:22Z</time>
      </trkpt>
      <trkpt lat="49.26434" lon="-0.23547">
        <ele>6.4</ele>
        <time>2015-10-16T12:49:23Z</time>
      </trkpt>
      <trkpt lat="49.26434" lon="-0.23547">
        <ele>4.6</ele>
        <time>2015-10-16T12:49:24Z</time>
      </trkpt>
      <trkpt lat="49.26433" lon="-0.23547">
        <ele>3.5</ele>
        <time>2015-10-16T12:49:25Z</time>
      </trkpt>
      <trkpt lat="49.26433" lon="-0.23547">
        <ele>3.7</ele>
        <time>2015-10-16T12:49:26Z</time>
      </trkpt>
      <trkpt lat="49.26433" lon="-0.23547">
        <ele>3.8</ele>
        <time>2015-10-16T12:49:27Z</time>
      </trkpt>
      <trkpt lat="49.26433" lon="-0.23547">
        <ele>3.8</ele>
        <time>2015-10-16T12:49:28Z</time>
      </trkpt>
      <trkpt lat="49.26433" lon="-0.23547">
        <ele>3.9</ele>
        <time>2015-10-16T12:49:29Z</time>
      </trkpt>
      <trkpt lat="49.26433" lon="-0.23547">
        <ele>3.9</ele>
        <time>2015-10-16T12:49:30Z</time>
      </trkpt>
      <trkpt lat="49.26433" lon="-0.23547">
        <ele>3.9</ele>
        <time>2015-10-16T12:49:31Z</time>
      </trkpt>
      <trkpt lat="49.26433" lon="-0.23547">
        <ele>5</ele>
        <time>2015-10-16T12:49:32Z</time>
      </trkpt>
      <trkpt lat="49.26433" lon="-0.23547">
        <ele>5.6</ele>
        <time>2015-10-16T12:49:33Z</time>
      </trkpt>
      <trkpt lat="49.26433" lon="-0.23547">
        <ele>5.9</ele>
        <time>2015-10-16T12:49:34Z</time>
      </trkpt>
      <trkpt lat="49.26433" lon="-0.23547">
        <ele>5.4</ele>
        <time>2015-10-16T12:49:35Z</time>
      </trkpt>
      <trkpt lat="49.26433" lon="-0.23547">
        <ele>5.1</ele>
        <time>2015-10-16T12:49:36Z</time>
      </trkpt>
      <trkpt lat="49.26433" lon="-0.23547">
        <ele>4.9</ele>
        <time>2015-10-16T12:49:37Z</time>
      </trkpt>
      <trkpt lat="49.26433" lon="-0.23547">
        <ele>5.2</ele>
        <time>2015-10-16T12:49:38Z</time>
      </trkpt>
      <trkpt lat="49.26433" lon="-0.23547">
        <ele>5.4</ele>
        <time>2015-10-16T12:49:39Z</time>
      </trkpt>
      <trkpt lat="49.26433" lon="-0.23547">
        <ele>5.4</ele>
        <time>2015-10-16T12:49:40Z</time>
      </trkpt>
      <trkpt lat="49.26433" lon="-0.23547">
        <ele>4.8</ele>
        <time>2015-10-16T12:49:41Z</time>
      </trkpt>
      <trkpt lat="49.26433" lon="-0.23547">
        <ele>4.4</ele>
        <time>2015-10-16T12:49:42Z</time>
      </trkpt>
      <trkpt lat="49.26433" lon="-0.23547">
        <ele>4.2</ele>
        <time>2015-10-16T12:49:43Z</time>
      </trkpt>
      <trkpt lat="49.26433" lon="-0.23547">
        <ele>6.6</ele>
        <time>2015-10-16T12:49:44Z</time>
      </trkpt>
      <trkpt lat="49.26433" lon="-0.23547">
        <ele>7.9</ele>
        <time>2015-10-16T12:49:45Z</time>
      </trkpt>
      <trkpt lat="49.26433" lon="-0.23548">
        <ele>8.7</ele>
        <time>2015-10-16T12:49:46Z</time>
      </trkpt>
      <trkpt lat="49.26432" lon="-0.23548">
        <ele>8</ele>
        <time>2015-10-16T12:49:47Z</time>
      </trkpt>
      <trkpt lat="49.26432" lon="-0.23548">
        <ele>7.7</ele>
        <time>2015-10-16T12:49:48Z</time>
      </trkpt>
      <trkpt lat="49.26432" lon="-0.23549">
        <ele>7.5</ele>
        <time>2015-10-16T12:49:49Z</time>
      </trkpt>
      <trkpt lat="49.26432" lon="-0.23549">
        <ele>5.2</ele>
        <time>2015-10-16T12:49:50Z</time>
      </trkpt>
      <trkpt lat="49.26432" lon="-0.23549">
        <ele>4.4</ele>
        <time>2015-10-16T12:49:51Z</time>
      </trkpt>
      <trkpt lat="49.26432" lon="-0.2355">
        <ele>3.2</ele>
        <time>2015-10-16T12:49:52Z</time>
      </trkpt>
      <trkpt lat="49.26432" lon="-0.2355">
        <ele>4.6</ele>
        <time>2015-10-16T12:49:53Z</time>
      </trkpt>
      <trkpt lat="49.26432" lon="-0.2355">
        <ele>5.4</ele>
        <time>2015-10-16T12:49:54Z</time>
      </trkpt>
      <trkpt lat="49.26432" lon="-0.23551">
        <ele>5.8</ele>
        <time>2015-10-16T12:49:55Z</time>
      </trkpt>
      <trkpt lat="49.26432" lon="-0.23551">
        <ele>6.1</ele>
        <time>2015-10-16T12:49:56Z</time>
      </trkpt>
      <trkpt lat="49.26433" lon="-0.23551">
        <ele>6.2</ele>
        <time>2015-10-16T12:49:57Z</time>
      </trkpt>
      <trkpt lat="49.26433" lon="-0.23551">
        <ele>6.3</ele>
        <time>2015-10-16T12:49:58Z</time>
      </trkpt>
      <trkpt lat="49.26433" lon="-0.23552">
        <ele>6.7</ele>
        <time>2015-10-16T12:49:59Z</time>
      </trkpt>
      <trkpt lat="49.26433" lon="-0.23552">
        <ele>6.9</ele>
        <time>2015-10-16T12:50:00Z</time>
      </trkpt>
      <trkpt lat="49.26433" lon="-0.23552">
        <ele>7</ele>
        <time>2015-10-16T12:50:01Z</time>
      </trkpt>
      <trkpt lat="49.26433" lon="-0.23552">
        <ele>7.5</ele>
        <time>2015-10-16T12:50:02Z</time>
      </trkpt>
      <trkpt lat="49.26433" lon="-0.23552">
        <ele>7.7</ele>
        <time>2015-10-16T12:50:03Z</time>
      </trkpt>
      <trkpt lat="49.26432" lon="-0.23553">
        <ele>7.9</ele>
        <time>2015-10-16T12:50:04Z</time>
      </trkpt>
      <trkpt lat="49.26432" lon="-0.23553">
        <ele>7.6</ele>
        <time>2015-10-16T12:50:05Z</time>
      </trkpt>
      <trkpt lat="49.26432" lon="-0.23553">
        <ele>7.4</ele>
        <time>2015-10-16T12:50:06Z</time>
      </trkpt>
      <trkpt lat="49.26432" lon="-0.23553">
        <ele>7.3</ele>
        <time>2015-10-16T12:50:07Z</time>
      </trkpt>
      <trkpt lat="49.26432" lon="-0.23553">
        <ele>7.3</ele>
        <time>2015-10-16T12:50:08Z</time>
      </trkpt>
      <trkpt lat="49.26432" lon="-0.23553">
        <ele>7.2</ele>
        <time>2015-10-16T12:50:09Z</time>
      </trkpt>
      <trkpt lat="49.26432" lon="-0.23554">
        <ele>7.2</ele>
        <time>2015-10-16T12:50:10Z</time>
      </trkpt>
      <trkpt lat="49.26432" lon="-0.23554">
        <ele>9.7</ele>
        <time>2015-10-16T12:50:11Z</time>
      </trkpt>
      <trkpt lat="49.26432" lon="-0.23554">
        <ele>11.2</ele>
        <time>2015-10-16T12:50:12Z</time>
      </trkpt>
      <trkpt lat="49.26432" lon="-0.23554">
        <ele>12</ele>
        <time>2015-10-16T12:50:13Z</time>
      </trkpt>
      <trkpt lat="49.26431" lon="-0.23554">
        <ele>10.2</ele>
        <time>2015-10-16T12:50:14Z</time>
      </trkpt>
      <trkpt lat="49.26431" lon="-0.23554">
        <ele>9.3</ele>
        <time>2015-10-16T12:50:15Z</time>
      </trkpt>
      <trkpt lat="49.26431" lon="-0.23554">
        <ele>8.7</ele>
        <time>2015-10-16T12:50:16Z</time>
      </trkpt>
      <trkpt lat="49.26431" lon="-0.23554">
        <ele>9.1</ele>
        <time>2015-10-16T12:50:17Z</time>
      </trkpt>
      <trkpt lat="49.26431" lon="-0.23554">
        <ele>9.4</ele>
        <time>2015-10-16T12:50:18Z</time>
      </trkpt>
      <trkpt lat="49.26431" lon="-0.23554">
        <ele>9.5</ele>
        <time>2015-10-16T12:50:19Z</time>
      </trkpt>
      <trkpt lat="49.26431" lon="-0.23553">
        <ele>9.6</ele>
        <time>2015-10-16T12:50:20Z</time>
      </trkpt>
      <trkpt lat="49.26431" lon="-0.23553">
        <ele>9.6</ele>
        <time>2015-10-16T12:50:21Z</time>
      </trkpt>
      <trkpt lat="49.26431" lon="-0.23553">
        <ele>9.7</ele>
        <time>2015-10-16T12:50:22Z</time>
      </trkpt>
      <trkpt lat="49.26431" lon="-0.23553">
        <ele>8.9</ele>
        <time>2015-10-16T12:50:23Z</time>
      </trkpt>
      <trkpt lat="49.26432" lon="-0.23553">
        <ele>8.5</ele>
        <time>2015-10-16T12:50:24Z</time>
      </trkpt>
      <trkpt lat="49.26432" lon="-0.23553">
        <ele>8.3</ele>
        <time>2015-10-16T12:50:25Z</time>
      </trkpt>
      <trkpt lat="49.26432" lon="-0.23553">
        <ele>7.5</ele>
        <time>2015-10-16T12:50:26Z</time>
      </trkpt>
      <trkpt lat="49.26432" lon="-0.23553">
        <ele>7</ele>
        <time>2015-10-16T12:50:27Z</time>
      </trkpt>
      <trkpt lat="49.26432" lon="-0.23553">
        <ele>6.7</ele>
        <time>2015-10-16T12:50:28Z</time>
      </trkpt>
      <trkpt lat="49.26432" lon="-0.23553">
        <ele>6.9</ele>
        <time>2015-10-16T12:50:29Z</time>
      </trkpt>
      <trkpt lat="49.26432" lon="-0.23553">
        <ele>7</ele>
        <time>2015-10-16T12:50:30Z</time>
      </trkpt>
      <trkpt lat="49.26432" lon="-0.23553">
        <ele>7.1</ele>
        <time>2015-10-16T12:50:31Z</time>
      </trkpt>
      <trkpt lat="49.26432" lon="-0.23553">
        <ele>6.8</ele>
        <time>2015-10-16T12:50:32Z</time>
      </trkpt>
      <trkpt lat="49.26432" lon="-0.23553">
        <ele>6.6</ele>
        <time>2015-10-16T12:50:33Z</time>
      </trkpt>
      <trkpt lat="49.26432" lon="-0.23553">
        <ele>6.5</ele>
        <time>2015-10-16T12:50:34Z</time>
      </trkpt>
      <trkpt lat="49.26432" lon="-0.23553">
        <ele>6.4</ele>
        <time>2015-10-16T12:50:35Z</time>
      </trkpt>
      <trkpt lat="49.26432" lon="-0.23553">
        <ele>6.4</ele>
        <time>2015-10-16T12:50:36Z</time>
      </trkpt>
      <trkpt lat="49.26432" lon="-0.23553">
        <ele>6.4</ele>
        <time>2015-10-16T12:50:37Z</time>
      </trkpt>
      <trkpt lat="49.26432" lon="-0.23553">
        <ele>6.7</ele>
        <time>2015-10-16T12:50:38Z</time>
      </trkpt>
      <trkpt lat="49.26432" lon="-0.23553">
        <ele>6.9</ele>
        <time>2015-10-16T12:50:39Z</time>
      </trkpt>
      <trkpt lat="49.26432" lon="-0.23553">
        <ele>7.1</ele>
        <time>2015-10-16T12:50:40Z</time>
      </trkpt>
      <trkpt lat="49.26432" lon="-0.23553">
        <ele>6.8</ele>
        <time>2015-10-16T12:50:41Z</time>
      </trkpt>
      <trkpt lat="49.26432" lon="-0.23553">
        <ele>6.6</ele>
        <time>2015-10-16T12:50:42Z</time>
      </trkpt>
      <trkpt lat="49.26432" lon="-0.23553">
        <ele>6.5</ele>
        <time>2015-10-16T12:50:43Z</time>
      </trkpt>
      <trkpt lat="49.26432" lon="-0.23553">
        <ele>6.1</ele>
        <time>2015-10-16T12:50:44Z</time>
      </trkpt>
      <trkpt lat="49.26432" lon="-0.23553">
        <ele>5.8</ele>
        <time>2015-10-16T12:50:45Z</time>
      </trkpt>
      <trkpt lat="49.26432" lon="-0.23552">
        <ele>5.7</ele>
        <time>2015-10-16T12:50:46Z</time>
      </trkpt>
      <trkpt lat="49.26432" lon="-0.23552">
        <ele>6.7</ele>
        <time>2015-10-16T12:50:47Z</time>
      </trkpt>
      <trkpt lat="49.26432" lon="-0.23552">
        <ele>7.3</ele>
        <time>2015-10-16T12:50:48Z</time>
      </trkpt>
      <trkpt lat="49.26431" lon="-0.23552">
        <ele>7.6</ele>
        <time>2015-10-16T12:50:49Z</time>
      </trkpt>
      <trkpt lat="49.26431" lon="-0.23552">
        <ele>6</ele>
        <time>2015-10-16T12:50:50Z</time>
      </trkpt>
      <trkpt lat="49.26431" lon="-0.23552">
        <ele>5.1</ele>
        <time>2015-10-16T12:50:51Z</time>
      </trkpt>
      <trkpt lat="49.2643" lon="-0.23552">
        <ele>4.8</ele>
        <time>2015-10-16T12:50:52Z</time>
      </trkpt>
      <trkpt lat="49.2643" lon="-0.23552">
        <ele>3.9</ele>
        <time>2015-10-16T12:50:53Z</time>
      </trkpt>
      <trkpt lat="49.2643" lon="-0.23551">
        <ele>3.5</ele>
        <time>2015-10-16T12:50:54Z</time>
      </trkpt>
      <trkpt lat="49.2643" lon="-0.23551">
        <ele>3.3</ele>
        <time>2015-10-16T12:50:55Z</time>
      </trkpt>
      <trkpt lat="49.2643" lon="-0.23551">
        <ele>7.2</ele>
        <time>2015-10-16T12:50:56Z</time>
      </trkpt>
      <trkpt lat="49.26429" lon="-0.23551">
        <ele>9.4</ele>
        <time>2015-10-16T12:50:57Z</time>
      </trkpt>
      <trkpt lat="49.26429" lon="-0.23551">
        <ele>10.6</ele>
        <time>2015-10-16T12:50:58Z</time>
      </trkpt>
      <trkpt lat="49.26428" lon="-0.23551">
        <ele>8</ele>
        <time>2015-10-16T12:50:59Z</time>
      </trkpt>
      <trkpt lat="49.26428" lon="-0.23552">
        <ele>6.6</ele>
        <time>2015-10-16T12:51:00Z</time>
      </trkpt>
      <trkpt lat="49.26427" lon="-0.23552">
        <ele>5.8</ele>
        <time>2015-10-16T12:51:01Z</time>
      </trkpt>
      <trkpt lat="49.26427" lon="-0.23552">
        <ele>6</ele>
        <time>2015-10-16T12:51:02Z</time>
      </trkpt>
      <trkpt lat="49.26427" lon="-0.23552">
        <ele>6.2</ele>
        <time>2015-10-16T12:51:03Z</time>
      </trkpt>
      <trkpt lat="49.26427" lon="-0.23552">
        <ele>6.3</ele>
        <time>2015-10-16T12:51:04Z</time>
      </trkpt>
      <trkpt lat="49.26426" lon="-0.23552">
        <ele>8.1</ele>
        <time>2015-10-16T12:51:05Z</time>
      </trkpt>
      <trkpt lat="49.26426" lon="-0.23552">
        <ele>9.2</ele>
        <time>2015-10-16T12:51:06Z</time>
      </trkpt>
      <trkpt lat="49.26426" lon="-0.23552">
        <ele>9.8</ele>
        <time>2015-10-16T12:51:07Z</time>
      </trkpt>
      <trkpt lat="49.26426" lon="-0.23552">
        <ele>8.3</ele>
        <time>2015-10-16T12:51:08Z</time>
      </trkpt>
      <trkpt lat="49.26426" lon="-0.23553">
        <ele>7.4</ele>
        <time>2015-10-16T12:51:09Z</time>
      </trkpt>
      <trkpt lat="49.26426" lon="-0.23554">
        <ele>7</ele>
        <time>2015-10-16T12:51:10Z</time>
      </trkpt>
      <trkpt lat="49.26426" lon="-0.23555">
        <ele>5.3</ele>
        <time>2015-10-16T12:51:11Z</time>
      </trkpt>
      <trkpt lat="49.26426" lon="-0.23557">
        <ele>4.3</ele>
        <time>2015-10-16T12:51:12Z</time>
      </trkpt>
      <trkpt lat="49.26426" lon="-0.23558">
        <ele>6</ele>
        <time>2015-10-16T12:51:13Z</time>
      </trkpt>
      <trkpt lat="49.26425" lon="-0.2356">
        <ele>8.7</ele>
        <time>2015-10-16T12:51:14Z</time>
      </trkpt>
      <trkpt lat="49.26425" lon="-0.23561">
        <ele>10.2</ele>
        <time>2015-10-16T12:51:15Z</time>
      </trkpt>
      <trkpt lat="49.26424" lon="-0.23562">
        <ele>8.9</ele>
        <time>2015-10-16T12:51:16Z</time>
      </trkpt>
      <trkpt lat="49.26424" lon="-0.23562">
        <ele>8.2</ele>
        <time>2015-10-16T12:51:17Z</time>
      </trkpt>
      <trkpt lat="49.26423" lon="-0.23562">
        <ele>7.7</ele>
        <time>2015-10-16T12:51:18Z</time>
      </trkpt>
      <trkpt lat="49.26423" lon="-0.23562">
        <ele>7.1</ele>
        <time>2015-10-16T12:51:19Z</time>
      </trkpt>
      <trkpt lat="49.26422" lon="-0.23562">
        <ele>6.8</ele>
        <time>2015-10-16T12:51:20Z</time>
      </trkpt>
      <trkpt lat="49.26422" lon="-0.23562">
        <ele>6.6</ele>
        <time>2015-10-16T12:51:21Z</time>
      </trkpt>
      <trkpt lat="49.26422" lon="-0.23562">
        <ele>6.9</ele>
        <time>2015-10-16T12:51:22Z</time>
      </trkpt>
      <trkpt lat="49.26422" lon="-0.23563">
        <ele>7</ele>
        <time>2015-10-16T12:51:23Z</time>
      </trkpt>
      <trkpt lat="49.26422" lon="-0.23563">
        <ele>7.1</ele>
        <time>2015-10-16T12:51:24Z</time>
      </trkpt>
      <trkpt lat="49.26421" lon="-0.23563">
        <ele>7.1</ele>
        <time>2015-10-16T12:51:25Z</time>
      </trkpt>
      <trkpt lat="49.26421" lon="-0.23563">
        <ele>7.2</ele>
        <time>2015-10-16T12:51:26Z</time>
      </trkpt>
      <trkpt lat="49.26421" lon="-0.23563">
        <ele>7.2</ele>
        <time>2015-10-16T12:51:27Z</time>
      </trkpt>
      <trkpt lat="49.26421" lon="-0.23563">
        <ele>7.6</ele>
        <time>2015-10-16T12:51:28Z</time>
      </trkpt>
      <trkpt lat="49.26421" lon="-0.23563">
        <ele>7.8</ele>
        <time>2015-10-16T12:51:29Z</time>
      </trkpt>
      <trkpt lat="49.26421" lon="-0.23564">
        <ele>7.9</ele>
        <time>2015-10-16T12:51:30Z</time>
      </trkpt>
      <trkpt lat="49.26421" lon="-0.23564">
        <ele>7.9</ele>
        <time>2015-10-16T12:51:31Z</time>
      </trkpt>
      <trkpt lat="49.26421" lon="-0.23564">
        <ele>8</ele>
        <time>2015-10-16T12:51:32Z</time>
      </trkpt>
      <trkpt lat="49.26421" lon="-0.23564">
        <ele>8</ele>
        <time>2015-10-16T12:51:33Z</time>
      </trkpt>
      <trkpt lat="49.26421" lon="-0.23564">
        <ele>8</ele>
        <time>2015-10-16T12:51:34Z</time>
      </trkpt>
      <trkpt lat="49.26421" lon="-0.23564">
        <ele>8</ele>
        <time>2015-10-16T12:51:35Z</time>
      </trkpt>
      <trkpt lat="49.26421" lon="-0.23564">
        <ele>8</ele>
        <time>2015-10-16T12:51:36Z</time>
      </trkpt>
      <trkpt lat="49.26421" lon="-0.23564">
        <ele>7.7</ele>
        <time>2015-10-16T12:51:37Z</time>
      </trkpt>
      <trkpt lat="49.26421" lon="-0.23563">
        <ele>7.5</ele>
        <time>2015-10-16T12:51:38Z</time>
      </trkpt>
      <trkpt lat="49.26421" lon="-0.23562">
        <ele>7.3</ele>
        <time>2015-10-16T12:51:39Z</time>
      </trkpt>
      <trkpt lat="49.26421" lon="-0.23561">
        <ele>6.2</ele>
        <time>2015-10-16T12:51:40Z</time>
      </trkpt>
      <trkpt lat="49.2642" lon="-0.23561">
        <ele>5.2</ele>
        <time>2015-10-16T12:51:42Z</time>
      </trkpt>
      <trkpt lat="49.2642" lon="-0.23561">
        <ele>5.7</ele>
        <time>2015-10-16T12:51:43Z</time>
      </trkpt>
      <trkpt lat="49.26419" lon="-0.23562">
        <ele>6</ele>
        <time>2015-10-16T12:51:44Z</time>
      </trkpt>
      <trkpt lat="49.26418" lon="-0.23562">
        <ele>6.2</ele>
        <time>2015-10-16T12:51:45Z</time>
      </trkpt>
      <trkpt lat="49.26418" lon="-0.23563">
        <ele>4.1</ele>
        <time>2015-10-16T12:51:46Z</time>
      </trkpt>
      <trkpt lat="49.26417" lon="-0.23564">
        <ele>2.9</ele>
        <time>2015-10-16T12:51:47Z</time>
      </trkpt>
      <trkpt lat="49.26417" lon="-0.23564">
        <ele>2.3</ele>
        <time>2015-10-16T12:51:48Z</time>
      </trkpt>
      <trkpt lat="49.26417" lon="-0.23565">
        <ele>1.9</ele>
        <time>2015-10-16T12:51:49Z</time>
      </trkpt>
      <trkpt lat="49.26417" lon="-0.23565">
        <ele>1.7</ele>
        <time>2015-10-16T12:51:50Z</time>
      </trkpt>
      <trkpt lat="49.26417" lon="-0.23566">
        <ele>1.6</ele>
        <time>2015-10-16T12:51:51Z</time>
      </trkpt>
      <trkpt lat="49.26417" lon="-0.23566">
        <ele>2.6</ele>
        <time>2015-10-16T12:51:52Z</time>
      </trkpt>
      <trkpt lat="49.26417" lon="-0.23566">
        <ele>2.9</ele>
        <time>2015-10-16T12:51:53Z</time>
      </trkpt>
      <trkpt lat="49.26417" lon="-0.23566">
        <ele>3.5</ele>
        <time>2015-10-16T12:51:54Z</time>
      </trkpt>
      <trkpt lat="49.26417" lon="-0.23566">
        <ele>4.4</ele>
        <time>2015-10-16T12:51:55Z</time>
      </trkpt>
      <trkpt lat="49.26417" lon="-0.23566">
        <ele>4.9</ele>
        <time>2015-10-16T12:51:56Z</time>
      </trkpt>
      <trkpt lat="49.26417" lon="-0.23566">
        <ele>5.2</ele>
        <time>2015-10-16T12:51:57Z</time>
      </trkpt>
      <trkpt lat="49.26417" lon="-0.23566">
        <ele>6.1</ele>
        <time>2015-10-16T12:51:58Z</time>
      </trkpt>
      <trkpt lat="49.26417" lon="-0.23566">
        <ele>6.6</ele>
        <time>2015-10-16T12:51:59Z</time>
      </trkpt>
      <trkpt lat="49.26416" lon="-0.23566">
        <ele>6.8</ele>
        <time>2015-10-16T12:52:00Z</time>
      </trkpt>
      <trkpt lat="49.26416" lon="-0.23566">
        <ele>7</ele>
        <time>2015-10-16T12:52:01Z</time>
      </trkpt>
      <trkpt lat="49.26416" lon="-0.23566">
        <ele>7.1</ele>
        <time>2015-10-16T12:52:02Z</time>
      </trkpt>
      <trkpt lat="49.26416" lon="-0.23566">
        <ele>7.1</ele>
        <time>2015-10-16T12:52:03Z</time>
      </trkpt>
      <trkpt lat="49.26416" lon="-0.23565">
        <ele>6.4</ele>
        <time>2015-10-16T12:52:04Z</time>
      </trkpt>
      <trkpt lat="49.26416" lon="-0.23565">
        <ele>6</ele>
        <time>2015-10-16T12:52:05Z</time>
      </trkpt>
      <trkpt lat="49.26416" lon="-0.23564">
        <ele>5.8</ele>
        <time>2015-10-16T12:52:06Z</time>
      </trkpt>
      <trkpt lat="49.26415" lon="-0.23564">
        <ele>5.7</ele>
        <time>2015-10-16T12:52:07Z</time>
      </trkpt>
      <trkpt lat="49.26415" lon="-0.23564">
        <ele>5.6</ele>
        <time>2015-10-16T12:52:08Z</time>
      </trkpt>
      <trkpt lat="49.26415" lon="-0.23563">
        <ele>5.6</ele>
        <time>2015-10-16T12:52:09Z</time>
      </trkpt>
      <trkpt lat="49.26415" lon="-0.23563">
        <ele>5.9</ele>
        <time>2015-10-16T12:52:10Z</time>
      </trkpt>
      <trkpt lat="49.26415" lon="-0.23563">
        <ele>6.1</ele>
        <time>2015-10-16T12:52:11Z</time>
      </trkpt>
      <trkpt lat="49.26415" lon="-0.23563">
        <ele>6.2</ele>
        <time>2015-10-16T12:52:12Z</time>
      </trkpt>
      <trkpt lat="49.26415" lon="-0.23562">
        <ele>5.9</ele>
        <time>2015-10-16T12:52:13Z</time>
      </trkpt>
      <trkpt lat="49.26415" lon="-0.23562">
        <ele>5.8</ele>
        <time>2015-10-16T12:52:14Z</time>
      </trkpt>
      <trkpt lat="49.26415" lon="-0.23562">
        <ele>5.7</ele>
        <time>2015-10-16T12:52:15Z</time>
      </trkpt>
      <trkpt lat="49.26415" lon="-0.23562">
        <ele>5.6</ele>
        <time>2015-10-16T12:52:16Z</time>
      </trkpt>
      <trkpt lat="49.26415" lon="-0.23562">
        <ele>5.6</ele>
        <time>2015-10-16T12:52:17Z</time>
      </trkpt>
      <trkpt lat="49.26415" lon="-0.23562">
        <ele>5.6</ele>
        <time>2015-10-16T12:52:18Z</time>
      </trkpt>
      <trkpt lat="49.26415" lon="-0.23562">
        <ele>8.1</ele>
        <time>2015-10-16T12:52:19Z</time>
      </trkpt>
      <trkpt lat="49.26415" lon="-0.23563">
        <ele>9.5</ele>
        <time>2015-10-16T12:52:20Z</time>
      </trkpt>
      <trkpt lat="49.26415" lon="-0.23563">
        <ele>10.3</ele>
        <time>2015-10-16T12:52:21Z</time>
      </trkpt>
      <trkpt lat="49.26415" lon="-0.23563">
        <ele>10</ele>
        <time>2015-10-16T12:52:22Z</time>
      </trkpt>
      <trkpt lat="49.26415" lon="-0.23564">
        <ele>9.9</ele>
        <time>2015-10-16T12:52:23Z</time>
      </trkpt>
      <trkpt lat="49.26415" lon="-0.23565">
        <ele>9.8</ele>
        <time>2015-10-16T12:52:24Z</time>
      </trkpt>
      <trkpt lat="49.26415" lon="-0.23566">
        <ele>9.7</ele>
        <time>2015-10-16T12:52:25Z</time>
      </trkpt>
      <trkpt lat="49.26415" lon="-0.23567">
        <ele>9.7</ele>
        <time>2015-10-16T12:52:26Z</time>
      </trkpt>
      <trkpt lat="49.26415" lon="-0.23567">
        <ele>9.7</ele>
        <time>2015-10-16T12:52:27Z</time>
      </trkpt>
      <trkpt lat="49.26416" lon="-0.23568">
        <ele>7.9</ele>
        <time>2015-10-16T12:52:28Z</time>
      </trkpt>
      <trkpt lat="49.26416" lon="-0.23568">
        <ele>6.9</ele>
        <time>2015-10-16T12:52:29Z</time>
      </trkpt>
      <trkpt lat="49.26416" lon="-0.23568">
        <ele>6.3</ele>
        <time>2015-10-16T12:52:30Z</time>
      </trkpt>
      <trkpt lat="49.26416" lon="-0.23568">
        <ele>7.8</ele>
        <time>2015-10-16T12:52:31Z</time>
      </trkpt>
      <trkpt lat="49.26416" lon="-0.23568">
        <ele>8.6</ele>
        <time>2015-10-16T12:52:32Z</time>
      </trkpt>
      <trkpt lat="49.26416" lon="-0.23568">
        <ele>9.1</ele>
        <time>2015-10-16T12:52:33Z</time>
      </trkpt>
      <trkpt lat="49.26416" lon="-0.23568">
        <ele>9</ele>
        <time>2015-10-16T12:52:34Z</time>
      </trkpt>
      <trkpt lat="49.26416" lon="-0.23568">
        <ele>8.9</ele>
        <time>2015-10-16T12:52:35Z</time>
      </trkpt>
      <trkpt lat="49.26416" lon="-0.23568">
        <ele>8.9</ele>
        <time>2015-10-16T12:52:36Z</time>
      </trkpt>
      <trkpt lat="49.26416" lon="-0.23568">
        <ele>8.2</ele>
        <time>2015-10-16T12:52:37Z</time>
      </trkpt>
      <trkpt lat="49.26417" lon="-0.23568">
        <ele>7.7</ele>
        <time>2015-10-16T12:52:38Z</time>
      </trkpt>
      <trkpt lat="49.26417" lon="-0.23568">
        <ele>7.5</ele>
        <time>2015-10-16T12:52:39Z</time>
      </trkpt>
      <trkpt lat="49.26417" lon="-0.23568">
        <ele>7.4</ele>
        <time>2015-10-16T12:52:40Z</time>
      </trkpt>
      <trkpt lat="49.26417" lon="-0.23568">
        <ele>7.3</ele>
        <time>2015-10-16T12:52:41Z</time>
      </trkpt>
      <trkpt lat="49.26417" lon="-0.23568">
        <ele>7.3</ele>
        <time>2015-10-16T12:52:42Z</time>
      </trkpt>
      <trkpt lat="49.26417" lon="-0.23568">
        <ele>6.9</ele>
        <time>2015-10-16T12:52:43Z</time>
      </trkpt>
      <trkpt lat="49.26417" lon="-0.23568">
        <ele>6.7</ele>
        <time>2015-10-16T12:52:44Z</time>
      </trkpt>
      <trkpt lat="49.26417" lon="-0.23568">
        <ele>6.5</ele>
        <time>2015-10-16T12:52:45Z</time>
      </trkpt>
      <trkpt lat="49.26417" lon="-0.23568">
        <ele>5</ele>
        <time>2015-10-16T12:52:46Z</time>
      </trkpt>
      <trkpt lat="49.26417" lon="-0.23568">
        <ele>4.2</ele>
        <time>2015-10-16T12:52:47Z</time>
      </trkpt>
      <trkpt lat="49.26417" lon="-0.23567">
        <ele>3.7</ele>
        <time>2015-10-16T12:52:48Z</time>
      </trkpt>
      <trkpt lat="49.26418" lon="-0.23567">
        <ele>5.9</ele>
        <time>2015-10-16T12:52:49Z</time>
      </trkpt>
      <trkpt lat="49.26418" lon="-0.23567">
        <ele>7.2</ele>
        <time>2015-10-16T12:52:50Z</time>
      </trkpt>
      <trkpt lat="49.26418" lon="-0.23566">
        <ele>7.9</ele>
        <time>2015-10-16T12:52:51Z</time>
      </trkpt>
      <trkpt lat="49.26418" lon="-0.23566">
        <ele>6.9</ele>
        <time>2015-10-16T12:52:52Z</time>
      </trkpt>
      <trkpt lat="49.26418" lon="-0.23566">
        <ele>6.3</ele>
        <time>2015-10-16T12:52:53Z</time>
      </trkpt>
      <trkpt lat="49.26418" lon="-0.23566">
        <ele>6.1</ele>
        <time>2015-10-16T12:52:54Z</time>
      </trkpt>
      <trkpt lat="49.26418" lon="-0.23566">
        <ele>6.7</ele>
        <time>2015-10-16T12:52:55Z</time>
      </trkpt>
      <trkpt lat="49.26418" lon="-0.23566">
        <ele>6.9</ele>
        <time>2015-10-16T12:52:56Z</time>
      </trkpt>
      <trkpt lat="49.26418" lon="-0.23566">
        <ele>7.1</ele>
        <time>2015-10-16T12:52:57Z</time>
      </trkpt>
      <trkpt lat="49.26418" lon="-0.23566">
        <ele>7.1</ele>
        <time>2015-10-16T12:52:58Z</time>
      </trkpt>
      <trkpt lat="49.26418" lon="-0.23566">
        <ele>7.2</ele>
        <time>2015-10-16T12:52:59Z</time>
      </trkpt>
      <trkpt lat="49.26418" lon="-0.23566">
        <ele>7.2</ele>
        <time>2015-10-16T12:53:00Z</time>
      </trkpt>
      <trkpt lat="49.26418" lon="-0.23567">
        <ele>7.2</ele>
        <time>2015-10-16T12:53:01Z</time>
      </trkpt>
      <trkpt lat="49.26417" lon="-0.23567">
        <ele>7.2</ele>
        <time>2015-10-16T12:53:02Z</time>
      </trkpt>
      <trkpt lat="49.26417" lon="-0.23567">
        <ele>7.2</ele>
        <time>2015-10-16T12:53:03Z</time>
      </trkpt>
      <trkpt lat="49.26417" lon="-0.23568">
        <ele>7.2</ele>
        <time>2015-10-16T12:53:04Z</time>
      </trkpt>
      <trkpt lat="49.26417" lon="-0.23568">
        <ele>7.2</ele>
        <time>2015-10-16T12:53:05Z</time>
      </trkpt>
      <trkpt lat="49.26417" lon="-0.23568">
        <ele>6.8</ele>
        <time>2015-10-16T12:53:06Z</time>
      </trkpt>
      <trkpt lat="49.26417" lon="-0.23569">
        <ele>6.6</ele>
        <time>2015-10-16T12:53:07Z</time>
      </trkpt>
      <trkpt lat="49.26417" lon="-0.23569">
        <ele>6.5</ele>
        <time>2015-10-16T12:53:08Z</time>
      </trkpt>
      <trkpt lat="49.26417" lon="-0.2357">
        <ele>6.8</ele>
        <time>2015-10-16T12:53:09Z</time>
      </trkpt>
      <trkpt lat="49.26417" lon="-0.2357">
        <ele>7</ele>
        <time>2015-10-16T12:53:10Z</time>
      </trkpt>
      <trkpt lat="49.26417" lon="-0.23571">
        <ele>7.1</ele>
        <time>2015-10-16T12:53:11Z</time>
      </trkpt>
      <trkpt lat="49.26417" lon="-0.23571">
        <ele>6.8</ele>
        <time>2015-10-16T12:53:12Z</time>
      </trkpt>
      <trkpt lat="49.26417" lon="-0.23571">
        <ele>6.6</ele>
        <time>2015-10-16T12:53:13Z</time>
      </trkpt>
      <trkpt lat="49.26417" lon="-0.2357">
        <ele>6.5</ele>
        <time>2015-10-16T12:53:14Z</time>
      </trkpt>
      <trkpt lat="49.26418" lon="-0.2357">
        <ele>6.1</ele>
        <time>2015-10-16T12:53:15Z</time>
      </trkpt>
      <trkpt lat="49.26418" lon="-0.2357">
        <ele>5.8</ele>
        <time>2015-10-16T12:53:16Z</time>
      </trkpt>
      <trkpt lat="49.26418" lon="-0.2357">
        <ele>5.7</ele>
        <time>2015-10-16T12:53:17Z</time>
      </trkpt>
      <trkpt lat="49.26418" lon="-0.2357">
        <ele>7.1</ele>
        <time>2015-10-16T12:53:18Z</time>
      </trkpt>
      <trkpt lat="49.26418" lon="-0.23569">
        <ele>7.9</ele>
        <time>2015-10-16T12:53:19Z</time>
      </trkpt>
      <trkpt lat="49.26418" lon="-0.23569">
        <ele>8.3</ele>
        <time>2015-10-16T12:53:20Z</time>
      </trkpt>
      <trkpt lat="49.26419" lon="-0.23569">
        <ele>8.2</ele>
        <time>2015-10-16T12:53:21Z</time>
      </trkpt>
      <trkpt lat="49.26419" lon="-0.23569">
        <ele>8.1</ele>
        <time>2015-10-16T12:53:22Z</time>
      </trkpt>
      <trkpt lat="49.26426" lon="-0.23563">
        <ele>5.7</ele>
        <time>2015-10-16T12:53:30Z</time>
      </trkpt>
      <trkpt lat="49.26427" lon="-0.23563">
        <ele>5.3</ele>
        <time>2015-10-16T12:53:31Z</time>
      </trkpt>
      <trkpt lat="49.26427" lon="-0.23562">
        <ele>5</ele>
        <time>2015-10-16T12:53:32Z</time>
      </trkpt>
      <trkpt lat="49.26428" lon="-0.23562">
        <ele>5.6</ele>
        <time>2015-10-16T12:53:33Z</time>
      </trkpt>
      <trkpt lat="49.26429" lon="-0.23562">
        <ele>5.9</ele>
        <time>2015-10-16T12:53:34Z</time>
      </trkpt>
      <trkpt lat="49.26429" lon="-0.23562">
        <ele>6.1</ele>
        <time>2015-10-16T12:53:35Z</time>
      </trkpt>
      <trkpt lat="49.2643" lon="-0.23562">
        <ele>5.5</ele>
        <time>2015-10-16T12:53:36Z</time>
      </trkpt>
      <trkpt lat="49.2643" lon="-0.23562">
        <ele>5.2</ele>
        <time>2015-10-16T12:53:37Z</time>
      </trkpt>
      <trkpt lat="49.2643" lon="-0.23562">
        <ele>5</ele>
        <time>2015-10-16T12:53:38Z</time>
      </trkpt>
      <trkpt lat="49.2643" lon="-0.23562">
        <ele>5.2</ele>
        <time>2015-10-16T12:53:39Z</time>
      </trkpt>
      <trkpt lat="49.2643" lon="-0.23562">
        <ele>5.4</ele>
        <time>2015-10-16T12:53:40Z</time>
      </trkpt>
      <trkpt lat="49.2643" lon="-0.23562">
        <ele>5.4</ele>
        <time>2015-10-16T12:53:41Z</time>
      </trkpt>
      <trkpt lat="49.2643" lon="-0.23562">
        <ele>5.8</ele>
        <time>2015-10-16T12:53:42Z</time>
      </trkpt>
      <trkpt lat="49.26429" lon="-0.23561">
        <ele>6.1</ele>
        <time>2015-10-16T12:53:43Z</time>
      </trkpt>
      <trkpt lat="49.26429" lon="-0.23561">
        <ele>6.2</ele>
        <time>2015-10-16T12:53:44Z</time>
      </trkpt>
      <trkpt lat="49.26429" lon="-0.23561">
        <ele>6.3</ele>
        <time>2015-10-16T12:53:45Z</time>
      </trkpt>
      <trkpt lat="49.26429" lon="-0.23561">
        <ele>6.3</ele>
        <time>2015-10-16T12:53:46Z</time>
      </trkpt>
      <trkpt lat="49.26429" lon="-0.23562">
        <ele>6.3</ele>
        <time>2015-10-16T12:53:47Z</time>
      </trkpt>
      <trkpt lat="49.26429" lon="-0.23562">
        <ele>7.1</ele>
        <time>2015-10-16T12:53:48Z</time>
      </trkpt>
      <trkpt lat="49.26429" lon="-0.23562">
        <ele>7.5</ele>
        <time>2015-10-16T12:53:49Z</time>
      </trkpt>
      <trkpt lat="49.2643" lon="-0.23562">
        <ele>7.7</ele>
        <time>2015-10-16T12:53:50Z</time>
      </trkpt>
      <trkpt lat="49.2643" lon="-0.23562">
        <ele>8.6</ele>
        <time>2015-10-16T12:53:51Z</time>
      </trkpt>
      <trkpt lat="49.2643" lon="-0.23562">
        <ele>9.1</ele>
        <time>2015-10-16T12:53:52Z</time>
      </trkpt>
      <trkpt lat="49.2643" lon="-0.23563">
        <ele>9.3</ele>
        <time>2015-10-16T12:53:53Z</time>
      </trkpt>
      <trkpt lat="49.2643" lon="-0.23563">
        <ele>8.8</ele>
        <time>2015-10-16T12:53:54Z</time>
      </trkpt>
      <trkpt lat="49.2643" lon="-0.23563">
        <ele>8.6</ele>
        <time>2015-10-16T12:53:55Z</time>
      </trkpt>
      <trkpt lat="49.2643" lon="-0.23563">
        <ele>8.3</ele>
        <time>2015-10-16T12:53:56Z</time>
      </trkpt>
      <trkpt lat="49.2643" lon="-0.23563">
        <ele>8.2</ele>
        <time>2015-10-16T12:53:57Z</time>
      </trkpt>
      <trkpt lat="49.2643" lon="-0.23564">
        <ele>8.1</ele>
        <time>2015-10-16T12:53:58Z</time>
      </trkpt>
      <trkpt lat="49.2643" lon="-0.23564">
        <ele>8.1</ele>
        <time>2015-10-16T12:53:59Z</time>
      </trkpt>
      <trkpt lat="49.2643" lon="-0.23564">
        <ele>7.3</ele>
        <time>2015-10-16T12:54:00Z</time>
      </trkpt>
      <trkpt lat="49.26429" lon="-0.23565">
        <ele>6.9</ele>
        <time>2015-10-16T12:54:01Z</time>
      </trkpt>
      <trkpt lat="49.26429" lon="-0.23566">
        <ele>6.7</ele>
        <time>2015-10-16T12:54:02Z</time>
      </trkpt>
      <trkpt lat="49.26429" lon="-0.23567">
        <ele>6.5</ele>
        <time>2015-10-16T12:54:03Z</time>
      </trkpt>
      <trkpt lat="49.26429" lon="-0.23568">
        <ele>6.5</ele>
        <time>2015-10-16T12:54:04Z</time>
      </trkpt>
      <trkpt lat="49.26429" lon="-0.23568">
        <ele>6.4</ele>
        <time>2015-10-16T12:54:05Z</time>
      </trkpt>
      <trkpt lat="49.26428" lon="-0.23569">
        <ele>6.4</ele>
        <time>2015-10-16T12:54:06Z</time>
      </trkpt>
      <trkpt lat="49.26428" lon="-0.2357">
        <ele>6.4</ele>
        <time>2015-10-16T12:54:07Z</time>
      </trkpt>
      <trkpt lat="49.26428" lon="-0.23571">
        <ele>6.4</ele>
        <time>2015-10-16T12:54:09Z</time>
      </trkpt>
      <trkpt lat="49.26428" lon="-0.23571">
        <ele>6.4</ele>
        <time>2015-10-16T12:54:10Z</time>
      </trkpt>
      <trkpt lat="49.26426" lon="-0.23571">
        <ele>6.4</ele>
        <time>2015-10-16T12:54:11Z</time>
      </trkpt>
      <trkpt lat="49.26402" lon="-0.23577">
        <ele>6.7</ele>
        <time>2015-10-16T12:54:40Z</time>
      </trkpt>
      <trkpt lat="49.26402" lon="-0.23577">
        <ele>6.5</ele>
        <time>2015-10-16T12:54:41Z</time>
      </trkpt>
      <trkpt lat="49.26401" lon="-0.23577">
        <ele>6.5</ele>
        <time>2015-10-16T12:54:42Z</time>
      </trkpt>
      <trkpt lat="49.26401" lon="-0.23577">
        <ele>6.4</ele>
        <time>2015-10-16T12:54:43Z</time>
      </trkpt>
      <trkpt lat="49.26401" lon="-0.23577">
        <ele>6.4</ele>
        <time>2015-10-16T12:54:44Z</time>
      </trkpt>
      <trkpt lat="49.264" lon="-0.23576">
        <ele>6.8</ele>
        <time>2015-10-16T12:54:45Z</time>
      </trkpt>
      <trkpt lat="49.264" lon="-0.23576">
        <ele>6.9</ele>
        <time>2015-10-16T12:54:46Z</time>
      </trkpt>
      <trkpt lat="49.264" lon="-0.23576">
        <ele>7.1</ele>
        <time>2015-10-16T12:54:47Z</time>
      </trkpt>
      <trkpt lat="49.264" lon="-0.23576">
        <ele>7.1</ele>
        <time>2015-10-16T12:54:48Z</time>
      </trkpt>
      <trkpt lat="49.264" lon="-0.23576">
        <ele>7.2</ele>
        <time>2015-10-16T12:54:49Z</time>
      </trkpt>
      <trkpt lat="49.264" lon="-0.23575">
        <ele>7.2</ele>
        <time>2015-10-16T12:54:50Z</time>
      </trkpt>
      <trkpt lat="49.264" lon="-0.23575">
        <ele>7.5</ele>
        <time>2015-10-16T12:54:51Z</time>
      </trkpt>
      <trkpt lat="49.264" lon="-0.23575">
        <ele>7.8</ele>
        <time>2015-10-16T12:54:52Z</time>
      </trkpt>
      <trkpt lat="49.264" lon="-0.23575">
        <ele>7.9</ele>
        <time>2015-10-16T12:54:53Z</time>
      </trkpt>
      <trkpt lat="49.264" lon="-0.23575">
        <ele>9.4</ele>
        <time>2015-10-16T12:54:54Z</time>
      </trkpt>
      <trkpt lat="49.264" lon="-0.23576">
        <ele>10.2</ele>
        <time>2015-10-16T12:54:55Z</time>
      </trkpt>
      <trkpt lat="49.264" lon="-0.23576">
        <ele>10.5</ele>
        <time>2015-10-16T12:54:56Z</time>
      </trkpt>
      <trkpt lat="49.264" lon="-0.23577">
        <ele>10.3</ele>
        <time>2015-10-16T12:54:57Z</time>
      </trkpt>
      <trkpt lat="49.264" lon="-0.23577">
        <ele>10</ele>
        <time>2015-10-16T12:54:58Z</time>
      </trkpt>
      <trkpt lat="49.264" lon="-0.23578">
        <ele>9.9</ele>
        <time>2015-10-16T12:54:59Z</time>
      </trkpt>
      <trkpt lat="49.264" lon="-0.23578">
        <ele>9.4</ele>
        <time>2015-10-16T12:55:00Z</time>
      </trkpt>
      <trkpt lat="49.264" lon="-0.23578">
        <ele>9.2</ele>
        <time>2015-10-16T12:55:01Z</time>
      </trkpt>
      <trkpt lat="49.264" lon="-0.23579">
        <ele>9</ele>
        <time>2015-10-16T12:55:02Z</time>
      </trkpt>
      <trkpt lat="49.264" lon="-0.23579">
        <ele>9</ele>
        <time>2015-10-16T12:55:03Z</time>
      </trkpt>
      <trkpt lat="49.264" lon="-0.23579">
        <ele>8.9</ele>
        <time>2015-10-16T12:55:04Z</time>
      </trkpt>
      <trkpt lat="49.26399" lon="-0.23579">
        <ele>8.9</ele>
        <time>2015-10-16T12:55:05Z</time>
      </trkpt>
      <trkpt lat="49.26399" lon="-0.23579">
        <ele>8.9</ele>
        <time>2015-10-16T12:55:06Z</time>
      </trkpt>
      <trkpt lat="49.26399" lon="-0.23579">
        <ele>8.9</ele>
        <time>2015-10-16T12:55:07Z</time>
      </trkpt>
      <trkpt lat="49.26399" lon="-0.23579">
        <ele>8.9</ele>
        <time>2015-10-16T12:55:08Z</time>
      </trkpt>
      <trkpt lat="49.26399" lon="-0.23579">
        <ele>8.3</ele>
        <time>2015-10-16T12:55:10Z</time>
      </trkpt>
      <trkpt lat="49.26399" lon="-0.23579">
        <ele>8.2</ele>
        <time>2015-10-16T12:55:11Z</time>
      </trkpt>
      <trkpt lat="49.264" lon="-0.23579">
        <ele>8.1</ele>
        <time>2015-10-16T12:55:12Z</time>
      </trkpt>
      <trkpt lat="49.264" lon="-0.23579">
        <ele>8.1</ele>
        <time>2015-10-16T12:55:13Z</time>
      </trkpt>
      <trkpt lat="49.26401" lon="-0.23579">
        <ele>8.1</ele>
        <time>2015-10-16T12:55:14Z</time>
      </trkpt>
      <trkpt lat="49.26401" lon="-0.23579">
        <ele>9.1</ele>
        <time>2015-10-16T12:55:15Z</time>
      </trkpt>
      <trkpt lat="49.26402" lon="-0.23578">
        <ele>9.7</ele>
        <time>2015-10-16T12:55:16Z</time>
      </trkpt>
      <trkpt lat="49.26403" lon="-0.23578">
        <ele>9.9</ele>
        <time>2015-10-16T12:55:17Z</time>
      </trkpt>
      <trkpt lat="49.26405" lon="-0.23574">
        <ele>7.4</ele>
        <time>2015-10-16T12:55:20Z</time>
      </trkpt>
      <trkpt lat="49.26405" lon="-0.23572">
        <ele>8.4</ele>
        <time>2015-10-16T12:55:21Z</time>
      </trkpt>
      <trkpt lat="49.26406" lon="-0.23571">
        <ele>9.1</ele>
        <time>2015-10-16T12:55:22Z</time>
      </trkpt>
      <trkpt lat="49.26406" lon="-0.23569">
        <ele>9.7</ele>
        <time>2015-10-16T12:55:23Z</time>
      </trkpt>
      <trkpt lat="49.26407" lon="-0.23567">
        <ele>9.5</ele>
        <time>2015-10-16T12:55:24Z</time>
      </trkpt>
      <trkpt lat="49.26407" lon="-0.23565">
        <ele>9.3</ele>
        <time>2015-10-16T12:55:25Z</time>
      </trkpt>
      <trkpt lat="49.26408" lon="-0.23564">
        <ele>9.2</ele>
        <time>2015-10-16T12:55:26Z</time>
      </trkpt>
      <trkpt lat="49.26408" lon="-0.23563">
        <ele>8.3</ele>
        <time>2015-10-16T12:55:27Z</time>
      </trkpt>
      <trkpt lat="49.26408" lon="-0.23563">
        <ele>7.6</ele>
        <time>2015-10-16T12:55:28Z</time>
      </trkpt>
      <trkpt lat="49.26408" lon="-0.23562">
        <ele>7.1</ele>
        <time>2015-10-16T12:55:29Z</time>
      </trkpt>
      <trkpt lat="49.26409" lon="-0.23562">
        <ele>6.5</ele>
        <time>2015-10-16T12:55:30Z</time>
      </trkpt>
      <trkpt lat="49.26409" lon="-0.23561">
        <ele>6.1</ele>
        <time>2015-10-16T12:55:31Z</time>
      </trkpt>
      <trkpt lat="49.26409" lon="-0.23561">
        <ele>5.7</ele>
        <time>2015-10-16T12:55:32Z</time>
      </trkpt>
      <trkpt lat="49.26409" lon="-0.23561">
        <ele>5.7</ele>
        <time>2015-10-16T12:55:33Z</time>
      </trkpt>
      <trkpt lat="49.26409" lon="-0.23561">
        <ele>5.6</ele>
        <time>2015-10-16T12:55:34Z</time>
      </trkpt>
      <trkpt lat="49.2641" lon="-0.2356">
        <ele>5.6</ele>
        <time>2015-10-16T12:55:35Z</time>
      </trkpt>
      <trkpt lat="49.2641" lon="-0.2356">
        <ele>6</ele>
        <time>2015-10-16T12:55:36Z</time>
      </trkpt>
      <trkpt lat="49.2641" lon="-0.2356">
        <ele>6.3</ele>
        <time>2015-10-16T12:55:37Z</time>
      </trkpt>
      <trkpt lat="49.2641" lon="-0.2356">
        <ele>6.5</ele>
        <time>2015-10-16T12:55:38Z</time>
      </trkpt>
      <trkpt lat="49.2641" lon="-0.2356">
        <ele>6.5</ele>
        <time>2015-10-16T12:55:40Z</time>
      </trkpt>
      <trkpt lat="49.26411" lon="-0.23559">
        <ele>5.9</ele>
        <time>2015-10-16T12:55:44Z</time>
      </trkpt>
      <trkpt lat="49.26413" lon="-0.23558">
        <ele>7.2</ele>
        <time>2015-10-16T12:55:46Z</time>
      </trkpt>
      <trkpt lat="49.26414" lon="-0.23558">
        <ele>6.3</ele>
        <time>2015-10-16T12:55:48Z</time>
      </trkpt>
      <trkpt lat="49.26415" lon="-0.23558">
        <ele>5.3</ele>
        <time>2015-10-16T12:55:49Z</time>
      </trkpt>
      <trkpt lat="49.26416" lon="-0.23557">
        <ele>4.5</ele>
        <time>2015-10-16T12:55:50Z</time>
      </trkpt>
      <trkpt lat="49.26422" lon="-0.23556">
        <ele>4.7</ele>
        <time>2015-10-16T12:55:56Z</time>
      </trkpt>
      <trkpt lat="49.26423" lon="-0.23556">
        <ele>3.7</ele>
        <time>2015-10-16T12:55:57Z</time>
      </trkpt>
      <trkpt lat="49.26434" lon="-0.23545">
        <ele>6.8</ele>
        <time>2015-10-16T12:56:10Z</time>
      </trkpt>
      <trkpt lat="49.26434" lon="-0.23545">
        <ele>6.6</ele>
        <time>2015-10-16T12:56:11Z</time>
      </trkpt>
      <trkpt lat="49.26434" lon="-0.23545">
        <ele>8.3</ele>
        <time>2015-10-16T12:56:12Z</time>
      </trkpt>
      <trkpt lat="49.26434" lon="-0.23545">
        <ele>9.3</ele>
        <time>2015-10-16T12:56:13Z</time>
      </trkpt>
      <trkpt lat="49.26434" lon="-0.23545">
        <ele>9.8</ele>
        <time>2015-10-16T12:56:14Z</time>
      </trkpt>
      <trkpt lat="49.26433" lon="-0.23545">
        <ele>8.3</ele>
        <time>2015-10-16T12:56:15Z</time>
      </trkpt>
      <trkpt lat="49.26433" lon="-0.23545">
        <ele>7.5</ele>
        <time>2015-10-16T12:56:16Z</time>
      </trkpt>
      <trkpt lat="49.26433" lon="-0.23545">
        <ele>7</ele>
        <time>2015-10-16T12:56:17Z</time>
      </trkpt>
      <trkpt lat="49.26433" lon="-0.23544">
        <ele>7.1</ele>
        <time>2015-10-16T12:56:18Z</time>
      </trkpt>
      <trkpt lat="49.26433" lon="-0.23544">
        <ele>7.1</ele>
        <time>2015-10-16T12:56:19Z</time>
      </trkpt>
      <trkpt lat="49.26433" lon="-0.23544">
        <ele>7.2</ele>
        <time>2015-10-16T12:56:20Z</time>
      </trkpt>
      <trkpt lat="49.26434" lon="-0.23544">
        <ele>4.9</ele>
        <time>2015-10-16T12:56:22Z</time>
      </trkpt>
      <trkpt lat="49.26435" lon="-0.23543">
        <ele>4.9</ele>
        <time>2015-10-16T12:56:23Z</time>
      </trkpt>
      <trkpt lat="49.26435" lon="-0.23543">
        <ele>5.2</ele>
        <time>2015-10-16T12:56:24Z</time>
      </trkpt>
      <trkpt lat="49.26436" lon="-0.23543">
        <ele>6.5</ele>
        <time>2015-10-16T12:56:26Z</time>
      </trkpt>
      <trkpt lat="49.26436" lon="-0.23543">
        <ele>7.2</ele>
        <time>2015-10-16T12:56:27Z</time>
      </trkpt>
      <trkpt lat="49.26435" lon="-0.23543">
        <ele>7.5</ele>
        <time>2015-10-16T12:56:28Z</time>
      </trkpt>
      <trkpt lat="49.26436" lon="-0.23543">
        <ele>7.4</ele>
        <time>2015-10-16T12:56:29Z</time>
      </trkpt>
      <trkpt lat="49.26435" lon="-0.23543">
        <ele>7.3</ele>
        <time>2015-10-16T12:56:30Z</time>
      </trkpt>
      <trkpt lat="49.26435" lon="-0.23543">
        <ele>7.3</ele>
        <time>2015-10-16T12:56:31Z</time>
      </trkpt>
      <trkpt lat="49.26435" lon="-0.23543">
        <ele>5.4</ele>
        <time>2015-10-16T12:56:32Z</time>
      </trkpt>
      <trkpt lat="49.26435" lon="-0.23543">
        <ele>4.4</ele>
        <time>2015-10-16T12:56:33Z</time>
      </trkpt>
      <trkpt lat="49.26435" lon="-0.23543">
        <ele>3.8</ele>
        <time>2015-10-16T12:56:34Z</time>
      </trkpt>
      <trkpt lat="49.26435" lon="-0.23543">
        <ele>4.6</ele>
        <time>2015-10-16T12:56:35Z</time>
      </trkpt>
      <trkpt lat="49.26435" lon="-0.23543">
        <ele>5</ele>
        <time>2015-10-16T12:56:36Z</time>
      </trkpt>
      <trkpt lat="49.26435" lon="-0.23544">
        <ele>5.2</ele>
        <time>2015-10-16T12:56:37Z</time>
      </trkpt>
      <trkpt lat="49.26435" lon="-0.23544">
        <ele>7.5</ele>
        <time>2015-10-16T12:56:38Z</time>
      </trkpt>
      <trkpt lat="49.26434" lon="-0.23545">
        <ele>8.8</ele>
        <time>2015-10-16T12:56:39Z</time>
      </trkpt>
      <trkpt lat="49.26434" lon="-0.23551">
        <ele>2.9</ele>
        <time>2015-10-16T12:56:43Z</time>
      </trkpt>
      <trkpt lat="49.26434" lon="-0.23552">
        <ele>4.4</ele>
        <time>2015-10-16T12:56:44Z</time>
      </trkpt>
      <trkpt lat="49.26434" lon="-0.23554">
        <ele>5.3</ele>
        <time>2015-10-16T12:56:45Z</time>
      </trkpt>
      <trkpt lat="49.26435" lon="-0.23555">
        <ele>5.7</ele>
        <time>2015-10-16T12:56:46Z</time>
      </trkpt>
      <trkpt lat="49.26436" lon="-0.23556">
        <ele>5.3</ele>
        <time>2015-10-16T12:56:47Z</time>
      </trkpt>
      <trkpt lat="49.26437" lon="-0.23557">
        <ele>5</ele>
        <time>2015-10-16T12:56:48Z</time>
      </trkpt>
      <trkpt lat="49.26443" lon="-0.2356">
        <ele>7.5</ele>
        <time>2015-10-16T12:56:52Z</time>
      </trkpt>
      <trkpt lat="49.26444" lon="-0.2356">
        <ele>7.7</ele>
        <time>2015-10-16T12:56:53Z</time>
      </trkpt>
      <trkpt lat="49.2646" lon="-0.23564">
        <ele>4.8</ele>
        <time>2015-10-16T12:57:05Z</time>
      </trkpt>
      <trkpt lat="49.26461" lon="-0.23564">
        <ele>4.5</ele>
        <time>2015-10-16T12:57:06Z</time>
      </trkpt>
      <trkpt lat="49.26469" lon="-0.23559">
        <ele>4.8</ele>
        <time>2015-10-16T12:57:13Z</time>
      </trkpt>
      <trkpt lat="49.26473" lon="-0.23552">
        <ele>3.9</ele>
        <time>2015-10-16T12:57:17Z</time>
      </trkpt>
      <trkpt lat="49.26473" lon="-0.2355">
        <ele>5</ele>
        <time>2015-10-16T12:57:18Z</time>
      </trkpt>
      <trkpt lat="49.26473" lon="-0.23548">
        <ele>5.6</ele>
        <time>2015-10-16T12:57:19Z</time>
      </trkpt>
      <trkpt lat="49.26473" lon="-0.23545">
        <ele>7.7</ele>
        <time>2015-10-16T12:57:20Z</time>
      </trkpt>
      <trkpt lat="49.26472" lon="-0.23543">
        <ele>9</ele>
        <time>2015-10-16T12:57:21Z</time>
      </trkpt>
      <trkpt lat="49.26472" lon="-0.23541">
        <ele>9.6</ele>
        <time>2015-10-16T12:57:22Z</time>
      </trkpt>
      <trkpt lat="49.26472" lon="-0.23538">
        <ele>10</ele>
        <time>2015-10-16T12:57:23Z</time>
      </trkpt>
      <trkpt lat="49.26471" lon="-0.23536">
        <ele>10.2</ele>
        <time>2015-10-16T12:57:24Z</time>
      </trkpt>
      <trkpt lat="49.26471" lon="-0.23534">
        <ele>10.4</ele>
        <time>2015-10-16T12:57:25Z</time>
      </trkpt>
      <trkpt lat="49.2647" lon="-0.23532">
        <ele>10.1</ele>
        <time>2015-10-16T12:57:26Z</time>
      </trkpt>
      <trkpt lat="49.2647" lon="-0.23529">
        <ele>9.9</ele>
        <time>2015-10-16T12:57:27Z</time>
      </trkpt>
      <trkpt lat="49.2647" lon="-0.23527">
        <ele>9.4</ele>
        <time>2015-10-16T12:57:28Z</time>
      </trkpt>
      <trkpt lat="49.2647" lon="-0.23525">
        <ele>8.8</ele>
        <time>2015-10-16T12:57:29Z</time>
      </trkpt>
      <trkpt lat="49.26448" lon="-0.23327">
        <ele>6.9</ele>
        <time>2015-10-16T12:59:05Z</time>
      </trkpt>
      <trkpt lat="49.26448" lon="-0.23325">
        <ele>6.8</ele>
        <time>2015-10-16T12:59:06Z</time>
      </trkpt>
      <trkpt lat="49.26449" lon="-0.2327">
        <ele>6.4</ele>
        <time>2015-10-16T12:59:31Z</time>
      </trkpt>
      <trkpt lat="49.2645" lon="-0.23268">
        <ele>6.4</ele>
        <time>2015-10-16T12:59:32Z</time>
      </trkpt>
      <trkpt lat="49.26453" lon="-0.23239">
        <ele>7.7</ele>
        <time>2015-10-16T12:59:47Z</time>
      </trkpt>
      <trkpt lat="49.26453" lon="-0.23237">
        <ele>7.7</ele>
        <time>2015-10-16T12:59:48Z</time>
      </trkpt>
      <trkpt lat="49.26453" lon="-0.2323">
        <ele>7.7</ele>
        <time>2015-10-16T12:59:51Z</time>
      </trkpt>
      <trkpt lat="49.26453" lon="-0.23228">
        <ele>7.6</ele>
        <time>2015-10-16T12:59:52Z</time>
      </trkpt>
      <trkpt lat="49.26454" lon="-0.23201">
        <ele>8</ele>
        <time>2015-10-16T13:00:05Z</time>
      </trkpt>
      <trkpt lat="49.26456" lon="-0.23161">
        <ele>7.6</ele>
        <time>2015-10-16T13:00:25Z</time>
      </trkpt>
      <trkpt lat="49.26456" lon="-0.23159">
        <ele>7.5</ele>
        <time>2015-10-16T13:00:26Z</time>
      </trkpt>
      <trkpt lat="49.26455" lon="-0.23147">
        <ele>7.5</ele>
        <time>2015-10-16T13:00:32Z</time>
      </trkpt>
      <trkpt lat="49.26456" lon="-0.23137">
        <ele>7.6</ele>
        <time>2015-10-16T13:00:37Z</time>
      </trkpt>
      <trkpt lat="49.26458" lon="-0.2313">
        <ele>7.8</ele>
        <time>2015-10-16T13:00:41Z</time>
      </trkpt>
      <trkpt lat="49.26459" lon="-0.23126">
        <ele>7.5</ele>
        <time>2015-10-16T13:00:43Z</time>
      </trkpt>
      <trkpt lat="49.26462" lon="-0.23123">
        <ele>7.4</ele>
        <time>2015-10-16T13:00:45Z</time>
      </trkpt>
      <trkpt lat="49.26473" lon="-0.2311">
        <ele>7.3</ele>
        <time>2015-10-16T13:00:56Z</time>
      </trkpt>
      <trkpt lat="49.26474" lon="-0.23108">
        <ele>7.1</ele>
        <time>2015-10-16T13:00:57Z</time>
      </trkpt>
      <trkpt lat="49.26475" lon="-0.23101">
        <ele>6.6</ele>
        <time>2015-10-16T13:01:01Z</time>
      </trkpt>
      <trkpt lat="49.26476" lon="-0.23098">
        <ele>6.7</ele>
        <time>2015-10-16T13:01:03Z</time>
      </trkpt>
      <trkpt lat="49.26476" lon="-0.23097">
        <ele>6.8</ele>
        <time>2015-10-16T13:01:04Z</time>
      </trkpt>
      <trkpt lat="49.26478" lon="-0.23094">
        <ele>6.6</ele>
        <time>2015-10-16T13:01:06Z</time>
      </trkpt>
      <trkpt lat="49.26486" lon="-0.2309">
        <ele>6.7</ele>
        <time>2015-10-16T13:01:11Z</time>
      </trkpt>
      <trkpt lat="49.26498" lon="-0.23086">
        <ele>6.3</ele>
        <time>2015-10-16T13:01:19Z</time>
      </trkpt>
      <trkpt lat="49.26501" lon="-0.23086">
        <ele>6.3</ele>
        <time>2015-10-16T13:01:21Z</time>
      </trkpt>
      <trkpt lat="49.26506" lon="-0.23085">
        <ele>6.4</ele>
        <time>2015-10-16T13:01:24Z</time>
      </trkpt>
      <trkpt lat="49.26524" lon="-0.2308">
        <ele>7.4</ele>
        <time>2015-10-16T13:01:36Z</time>
      </trkpt>
      <trkpt lat="49.26525" lon="-0.2308">
        <ele>7.5</ele>
        <time>2015-10-16T13:01:37Z</time>
      </trkpt>
      <trkpt lat="49.26529" lon="-0.23079">
        <ele>7.9</ele>
        <time>2015-10-16T13:01:41Z</time>
      </trkpt>
      <trkpt lat="49.26535" lon="-0.23074">
        <ele>8.3</ele>
        <time>2015-10-16T13:01:46Z</time>
      </trkpt>
      <trkpt lat="49.26547" lon="-0.23062">
        <ele>8.4</ele>
        <time>2015-10-16T13:01:57Z</time>
      </trkpt>
      <trkpt lat="49.26551" lon="-0.23058">
        <ele>8</ele>
        <time>2015-10-16T13:02:00Z</time>
      </trkpt>
      <trkpt lat="49.26595" lon="-0.22999">
        <ele>5.5</ele>
        <time>2015-10-16T13:02:44Z</time>
      </trkpt>
      <trkpt lat="49.26595" lon="-0.22997">
        <ele>5.1</ele>
        <time>2015-10-16T13:02:45Z</time>
      </trkpt>
      <trkpt lat="49.26597" lon="-0.22994">
        <ele>4.6</ele>
        <time>2015-10-16T13:02:47Z</time>
      </trkpt>
      <trkpt lat="49.26597" lon="-0.22992">
        <ele>6.1</ele>
        <time>2015-10-16T13:02:48Z</time>
      </trkpt>
      <trkpt lat="49.26614" lon="-0.22957">
        <ele>8</ele>
        <time>2015-10-16T13:03:09Z</time>
      </trkpt>
      <trkpt lat="49.26615" lon="-0.22955">
        <ele>7.8</ele>
        <time>2015-10-16T13:03:10Z</time>
      </trkpt>
      <trkpt lat="49.26621" lon="-0.22948">
        <ele>3.8</ele>
        <time>2015-10-16T13:03:16Z</time>
      </trkpt>
      <trkpt lat="49.26636" lon="-0.22934">
        <ele>7.8</ele>
        <time>2015-10-16T13:03:29Z</time>
      </trkpt>
      <trkpt lat="49.26643" lon="-0.2293">
        <ele>6.2</ele>
        <time>2015-10-16T13:03:34Z</time>
      </trkpt>
      <trkpt lat="49.26672" lon="-0.2291">
        <ele>5.6</ele>
        <time>2015-10-16T13:03:57Z</time>
      </trkpt>
      <trkpt lat="49.26673" lon="-0.22909">
        <ele>6.6</ele>
        <time>2015-10-16T13:03:58Z</time>
      </trkpt>
      <trkpt lat="49.26681" lon="-0.229">
        <ele>7.9</ele>
        <time>2015-10-16T13:04:05Z</time>
      </trkpt>
      <trkpt lat="49.26684" lon="-0.22896">
        <ele>4.6</ele>
        <time>2015-10-16T13:04:08Z</time>
      </trkpt>
      <trkpt lat="49.26706" lon="-0.22854">
        <ele>2.4</ele>
        <time>2015-10-16T13:04:35Z</time>
      </trkpt>
      <trkpt lat="49.26746" lon="-0.2276">
        <ele>4.4</ele>
        <time>2015-10-16T13:05:31Z</time>
      </trkpt>
      <trkpt lat="49.26746" lon="-0.22759">
        <ele>4.5</ele>
        <time>2015-10-16T13:05:32Z</time>
      </trkpt>
      <trkpt lat="49.26809" lon="-0.22465">
        <ele>5.7</ele>
        <time>2015-10-16T13:08:03Z</time>
      </trkpt>
      <trkpt lat="49.26809" lon="-0.22463">
        <ele>5.4</ele>
        <time>2015-10-16T13:08:04Z</time>
      </trkpt>
      <trkpt lat="49.26815" lon="-0.22417">
        <ele>9.5</ele>
        <time>2015-10-16T13:08:27Z</time>
      </trkpt>
      <trkpt lat="49.26816" lon="-0.22403">
        <ele>5.2</ele>
        <time>2015-10-16T13:08:34Z</time>
      </trkpt>
      <trkpt lat="49.26817" lon="-0.22399">
        <ele>3.2</ele>
        <time>2015-10-16T13:08:36Z</time>
      </trkpt>
      <trkpt lat="49.26825" lon="-0.22336">
        <ele>7.2</ele>
        <time>2015-10-16T13:09:11Z</time>
      </trkpt>
      <trkpt lat="49.26825" lon="-0.22335">
        <ele>7.6</ele>
        <time>2015-10-16T13:09:12Z</time>
      </trkpt>
      <trkpt lat="49.26828" lon="-0.22319">
        <ele>6.7</ele>
        <time>2015-10-16T13:09:20Z</time>
      </trkpt>
      <trkpt lat="49.26829" lon="-0.22305">
        <ele>4.9</ele>
        <time>2015-10-16T13:09:29Z</time>
      </trkpt>
      <trkpt lat="49.2683" lon="-0.22304">
        <ele>4.5</ele>
        <time>2015-10-16T13:09:30Z</time>
      </trkpt>
      <trkpt lat="49.26856" lon="-0.22249">
        <ele>8.3</ele>
        <time>2015-10-16T13:10:06Z</time>
      </trkpt>
      <trkpt lat="49.26862" lon="-0.22235">
        <ele>8</ele>
        <time>2015-10-16T13:10:15Z</time>
      </trkpt>
      <trkpt lat="49.26863" lon="-0.22233">
        <ele>7.8</ele>
        <time>2015-10-16T13:10:16Z</time>
      </trkpt>
      <trkpt lat="49.26865" lon="-0.2223">
        <ele>9.2</ele>
        <time>2015-10-16T13:10:18Z</time>
      </trkpt>
      <trkpt lat="49.26872" lon="-0.22218">
        <ele>5.9</ele>
        <time>2015-10-16T13:10:26Z</time>
      </trkpt>
      <trkpt lat="49.26873" lon="-0.22217">
        <ele>5</ele>
        <time>2015-10-16T13:10:27Z</time>
      </trkpt>
      <trkpt lat="49.26886" lon="-0.22202">
        <ele>4.8</ele>
        <time>2015-10-16T13:10:39Z</time>
      </trkpt>
      <trkpt lat="49.26901" lon="-0.22186">
        <ele>4.8</ele>
        <time>2015-10-16T13:10:53Z</time>
      </trkpt>
      <trkpt lat="49.26912" lon="-0.22177">
        <ele>5.7</ele>
        <time>2015-10-16T13:11:02Z</time>
      </trkpt>
      <trkpt lat="49.26926" lon="-0.22167">
        <ele>5.2</ele>
        <time>2015-10-16T13:11:14Z</time>
      </trkpt>
      <trkpt lat="49.26931" lon="-0.22162">
        <ele>4.8</ele>
        <time>2015-10-16T13:11:18Z</time>
      </trkpt>
      <trkpt lat="49.26932" lon="-0.22161">
        <ele>5.4</ele>
        <time>2015-10-16T13:11:19Z</time>
      </trkpt>
      <trkpt lat="49.26943" lon="-0.22143">
        <ele>7.1</ele>
        <time>2015-10-16T13:11:32Z</time>
      </trkpt>
      <trkpt lat="49.26944" lon="-0.22142">
        <ele>6.5</ele>
        <time>2015-10-16T13:11:33Z</time>
      </trkpt>
      <trkpt lat="49.26944" lon="-0.22139">
        <ele>5.3</ele>
        <time>2015-10-16T13:11:36Z</time>
      </trkpt>
      <trkpt lat="49.26944" lon="-0.22137">
        <ele>7.6</ele>
        <time>2015-10-16T13:11:40Z</time>
      </trkpt>
      <trkpt lat="49.26943" lon="-0.22138">
        <ele>7.9</ele>
        <time>2015-10-16T13:11:43Z</time>
      </trkpt>
      <trkpt lat="49.26943" lon="-0.22138">
        <ele>7.8</ele>
        <time>2015-10-16T13:11:44Z</time>
      </trkpt>
      <trkpt lat="49.26943" lon="-0.22138">
        <ele>9.1</ele>
        <time>2015-10-16T13:11:45Z</time>
      </trkpt>
      <trkpt lat="49.26943" lon="-0.22138">
        <ele>10.1</ele>
        <time>2015-10-16T13:11:46Z</time>
      </trkpt>
      <trkpt lat="49.26943" lon="-0.22138">
        <ele>10.8</ele>
        <time>2015-10-16T13:11:47Z</time>
      </trkpt>
      <trkpt lat="49.26943" lon="-0.22138">
        <ele>10.1</ele>
        <time>2015-10-16T13:11:48Z</time>
      </trkpt>
      <trkpt lat="49.26943" lon="-0.22138">
        <ele>9.6</ele>
        <time>2015-10-16T13:11:49Z</time>
      </trkpt>
      <trkpt lat="49.26943" lon="-0.22138">
        <ele>9.2</ele>
        <time>2015-10-16T13:11:50Z</time>
      </trkpt>
      <trkpt lat="49.26943" lon="-0.22138">
        <ele>9.3</ele>
        <time>2015-10-16T13:11:51Z</time>
      </trkpt>
      <trkpt lat="49.26943" lon="-0.22138">
        <ele>9.4</ele>
        <time>2015-10-16T13:11:52Z</time>
      </trkpt>
      <trkpt lat="49.26943" lon="-0.22138">
        <ele>9.5</ele>
        <time>2015-10-16T13:11:53Z</time>
      </trkpt>
      <trkpt lat="49.26943" lon="-0.22137">
        <ele>10.4</ele>
        <time>2015-10-16T13:11:54Z</time>
      </trkpt>
      <trkpt lat="49.26943" lon="-0.22136">
        <ele>10</ele>
        <time>2015-10-16T13:11:58Z</time>
      </trkpt>
      <trkpt lat="49.26943" lon="-0.22136">
        <ele>9.5</ele>
        <time>2015-10-16T13:11:59Z</time>
      </trkpt>
      <trkpt lat="49.26943" lon="-0.22136">
        <ele>8.9</ele>
        <time>2015-10-16T13:12:00Z</time>
      </trkpt>
      <trkpt lat="49.26943" lon="-0.22136">
        <ele>8.5</ele>
        <time>2015-10-16T13:12:01Z</time>
      </trkpt>
      <trkpt lat="49.26943" lon="-0.22135">
        <ele>8.2</ele>
        <time>2015-10-16T13:12:02Z</time>
      </trkpt>
      <trkpt lat="49.26942" lon="-0.22135">
        <ele>8.1</ele>
        <time>2015-10-16T13:12:03Z</time>
      </trkpt>
      <trkpt lat="49.26942" lon="-0.22135">
        <ele>8.1</ele>
        <time>2015-10-16T13:12:04Z</time>
      </trkpt>
      <trkpt lat="49.26942" lon="-0.22134">
        <ele>8.1</ele>
        <time>2015-10-16T13:12:05Z</time>
      </trkpt>
      <trkpt lat="49.26943" lon="-0.22134">
        <ele>8.1</ele>
        <time>2015-10-16T13:12:06Z</time>
      </trkpt>
      <trkpt lat="49.26943" lon="-0.22133">
        <ele>8.1</ele>
        <time>2015-10-16T13:12:07Z</time>
      </trkpt>
      <trkpt lat="49.26943" lon="-0.22133">
        <ele>8.1</ele>
        <time>2015-10-16T13:12:08Z</time>
      </trkpt>
      <trkpt lat="49.26943" lon="-0.22133">
        <ele>8.3</ele>
        <time>2015-10-16T13:12:09Z</time>
      </trkpt>
      <trkpt lat="49.26943" lon="-0.22131">
        <ele>7.8</ele>
        <time>2015-10-16T13:12:21Z</time>
      </trkpt>
      <trkpt lat="49.26943" lon="-0.22131">
        <ele>8.1</ele>
        <time>2015-10-16T13:12:22Z</time>
      </trkpt>
      <trkpt lat="49.26943" lon="-0.22131">
        <ele>8.3</ele>
        <time>2015-10-16T13:12:23Z</time>
      </trkpt>
      <trkpt lat="49.26943" lon="-0.22131">
        <ele>8.6</ele>
        <time>2015-10-16T13:12:24Z</time>
      </trkpt>
      <trkpt lat="49.26943" lon="-0.22131">
        <ele>8.9</ele>
        <time>2015-10-16T13:12:25Z</time>
      </trkpt>
      <trkpt lat="49.26943" lon="-0.22131">
        <ele>9.1</ele>
        <time>2015-10-16T13:12:26Z</time>
      </trkpt>
      <trkpt lat="49.26943" lon="-0.22131">
        <ele>8.6</ele>
        <time>2015-10-16T13:12:27Z</time>
      </trkpt>
      <trkpt lat="49.26944" lon="-0.22132">
        <ele>8</ele>
        <time>2015-10-16T13:12:29Z</time>
      </trkpt>
      <trkpt lat="49.26945" lon="-0.22132">
        <ele>7.8</ele>
        <time>2015-10-16T13:12:30Z</time>
      </trkpt>
      <trkpt lat="49.26946" lon="-0.22132">
        <ele>7.7</ele>
        <time>2015-10-16T13:12:31Z</time>
      </trkpt>
      <trkpt lat="49.26947" lon="-0.22132">
        <ele>7.5</ele>
        <time>2015-10-16T13:12:32Z</time>
      </trkpt>
      <trkpt lat="49.26947" lon="-0.22131">
        <ele>7.7</ele>
        <time>2015-10-16T13:12:33Z</time>
      </trkpt>
      <trkpt lat="49.26956" lon="-0.22124">
        <ele>6.4</ele>
        <time>2015-10-16T13:12:42Z</time>
      </trkpt>
      <trkpt lat="49.26957" lon="-0.22123">
        <ele>6.4</ele>
        <time>2015-10-16T13:12:43Z</time>
      </trkpt>
      <trkpt lat="49.2697" lon="-0.22103">
        <ele>7</ele>
        <time>2015-10-16T13:12:59Z</time>
      </trkpt>
      <trkpt lat="49.26978" lon="-0.22088">
        <ele>6.6</ele>
        <time>2015-10-16T13:13:10Z</time>
      </trkpt>
      <trkpt lat="49.26994" lon="-0.22064">
        <ele>7</ele>
        <time>2015-10-16T13:13:29Z</time>
      </trkpt>
      <trkpt lat="49.26995" lon="-0.22063">
        <ele>6.7</ele>
        <time>2015-10-16T13:13:30Z</time>
      </trkpt>
      <trkpt lat="49.27041" lon="-0.22003">
        <ele>5.5</ele>
        <time>2015-10-16T13:14:15Z</time>
      </trkpt>
      <trkpt lat="49.27047" lon="-0.21994">
        <ele>5.9</ele>
        <time>2015-10-16T13:14:21Z</time>
      </trkpt>
      <trkpt lat="49.27074" lon="-0.21954">
        <ele>6.4</ele>
        <time>2015-10-16T13:14:47Z</time>
      </trkpt>
      <trkpt lat="49.27075" lon="-0.21953">
        <ele>6.4</ele>
        <time>2015-10-16T13:14:48Z</time>
      </trkpt>
      <trkpt lat="49.27092" lon="-0.21938">
        <ele>6.1</ele>
        <time>2015-10-16T13:15:04Z</time>
      </trkpt>
      <trkpt lat="49.27092" lon="-0.21937">
        <ele>5.9</ele>
        <time>2015-10-16T13:15:05Z</time>
      </trkpt>
      <trkpt lat="49.27104" lon="-0.21914">
        <ele>6.7</ele>
        <time>2015-10-16T13:15:22Z</time>
      </trkpt>
      <trkpt lat="49.27105" lon="-0.21913">
        <ele>6.8</ele>
        <time>2015-10-16T13:15:23Z</time>
      </trkpt>
      <trkpt lat="49.27114" lon="-0.21906">
        <ele>7</ele>
        <time>2015-10-16T13:15:31Z</time>
      </trkpt>
      <trkpt lat="49.27115" lon="-0.21905">
        <ele>7.1</ele>
        <time>2015-10-16T13:15:32Z</time>
      </trkpt>
      <trkpt lat="49.27121" lon="-0.21904">
        <ele>5.4</ele>
        <time>2015-10-16T13:15:37Z</time>
      </trkpt>
      <trkpt lat="49.27122" lon="-0.21904">
        <ele>6</ele>
        <time>2015-10-16T13:15:38Z</time>
      </trkpt>
      <trkpt lat="49.27123" lon="-0.21904">
        <ele>6.3</ele>
        <time>2015-10-16T13:15:39Z</time>
      </trkpt>
      <trkpt lat="49.27124" lon="-0.21905">
        <ele>6.5</ele>
        <time>2015-10-16T13:15:40Z</time>
      </trkpt>
      <trkpt lat="49.27128" lon="-0.21908">
        <ele>7</ele>
        <time>2015-10-16T13:15:44Z</time>
      </trkpt>
      <trkpt lat="49.27133" lon="-0.21912">
        <ele>6.2</ele>
        <time>2015-10-16T13:15:49Z</time>
      </trkpt>
      <trkpt lat="49.27133" lon="-0.21912">
        <ele>6</ele>
        <time>2015-10-16T13:15:50Z</time>
      </trkpt>
      <trkpt lat="49.27134" lon="-0.21912">
        <ele>6.3</ele>
        <time>2015-10-16T13:15:51Z</time>
      </trkpt>
      <trkpt lat="49.27135" lon="-0.21912">
        <ele>6.5</ele>
        <time>2015-10-16T13:15:52Z</time>
      </trkpt>
      <trkpt lat="49.27136" lon="-0.21913">
        <ele>6.7</ele>
        <time>2015-10-16T13:15:53Z</time>
      </trkpt>
      <trkpt lat="49.27137" lon="-0.21914">
        <ele>6.8</ele>
        <time>2015-10-16T13:15:54Z</time>
      </trkpt>
      <trkpt lat="49.27149" lon="-0.21923">
        <ele>7.2</ele>
        <time>2015-10-16T13:16:05Z</time>
      </trkpt>
      <trkpt lat="49.2715" lon="-0.21925">
        <ele>7</ele>
        <time>2015-10-16T13:16:06Z</time>
      </trkpt>
      <trkpt lat="49.27156" lon="-0.2193">
        <ele>6.5</ele>
        <time>2015-10-16T13:16:12Z</time>
      </trkpt>
      <trkpt lat="49.27157" lon="-0.21931">
        <ele>6.5</ele>
        <time>2015-10-16T13:16:13Z</time>
      </trkpt>
      <trkpt lat="49.27163" lon="-0.2193">
        <ele>7.1</ele>
        <time>2015-10-16T13:16:18Z</time>
      </trkpt>
      <trkpt lat="49.27167" lon="-0.21929">
        <ele>6.7</ele>
        <time>2015-10-16T13:16:21Z</time>
      </trkpt>
      <trkpt lat="49.27172" lon="-0.21923">
        <ele>6.4</ele>
        <time>2015-10-16T13:16:26Z</time>
      </trkpt>
      <trkpt lat="49.27197" lon="-0.21899">
        <ele>7.8</ele>
        <time>2015-10-16T13:16:49Z</time>
      </trkpt>
      <trkpt lat="49.27208" lon="-0.21888">
        <ele>8.2</ele>
        <time>2015-10-16T13:17:00Z</time>
      </trkpt>
      <trkpt lat="49.27209" lon="-0.21888">
        <ele>8.4</ele>
        <time>2015-10-16T13:17:01Z</time>
      </trkpt>
      <trkpt lat="49.27214" lon="-0.21888">
        <ele>8.7</ele>
        <time>2015-10-16T13:17:05Z</time>
      </trkpt>
      <trkpt lat="49.27217" lon="-0.21889">
        <ele>8.8</ele>
        <time>2015-10-16T13:17:08Z</time>
      </trkpt>
      <trkpt lat="49.27221" lon="-0.21895">
        <ele>9.1</ele>
        <time>2015-10-16T13:17:13Z</time>
      </trkpt>
      <trkpt lat="49.27221" lon="-0.21896">
        <ele>9</ele>
        <time>2015-10-16T13:17:14Z</time>
      </trkpt>
      <trkpt lat="49.27222" lon="-0.21898">
        <ele>9</ele>
        <time>2015-10-16T13:17:15Z</time>
      </trkpt>
      <trkpt lat="49.27223" lon="-0.21899">
        <ele>9</ele>
        <time>2015-10-16T13:17:16Z</time>
      </trkpt>
      <trkpt lat="49.27223" lon="-0.21901">
        <ele>8.9</ele>
        <time>2015-10-16T13:17:17Z</time>
      </trkpt>
      <trkpt lat="49.27224" lon="-0.21902">
        <ele>8.9</ele>
        <time>2015-10-16T13:17:18Z</time>
      </trkpt>
      <trkpt lat="49.27225" lon="-0.21903">
        <ele>8.9</ele>
        <time>2015-10-16T13:17:19Z</time>
      </trkpt>
      <trkpt lat="49.27228" lon="-0.21911">
        <ele>9.2</ele>
        <time>2015-10-16T13:17:25Z</time>
      </trkpt>
      <trkpt lat="49.27235" lon="-0.21934">
        <ele>9.3</ele>
        <time>2015-10-16T13:17:41Z</time>
      </trkpt>
      <trkpt lat="49.27241" lon="-0.2195">
        <ele>8.8</ele>
        <time>2015-10-16T13:17:56Z</time>
      </trkpt>
      <trkpt lat="49.27241" lon="-0.21951">
        <ele>9</ele>
        <time>2015-10-16T13:17:57Z</time>
      </trkpt>
      <trkpt lat="49.27241" lon="-0.21952">
        <ele>9.2</ele>
        <time>2015-10-16T13:17:58Z</time>
      </trkpt>
      <trkpt lat="49.2724" lon="-0.21952">
        <ele>9.3</ele>
        <time>2015-10-16T13:17:59Z</time>
      </trkpt>
      <trkpt lat="49.27239" lon="-0.21953">
        <ele>9.2</ele>
        <time>2015-10-16T13:18:00Z</time>
      </trkpt>
      <trkpt lat="49.27239" lon="-0.21953">
        <ele>9.1</ele>
        <time>2015-10-16T13:18:01Z</time>
      </trkpt>
      <trkpt lat="49.27238" lon="-0.21955">
        <ele>9.1</ele>
        <time>2015-10-16T13:18:02Z</time>
      </trkpt>
      <trkpt lat="49.27237" lon="-0.21958">
        <ele>9</ele>
        <time>2015-10-16T13:18:04Z</time>
      </trkpt>
      <trkpt lat="49.27232" lon="-0.21969">
        <ele>7.4</ele>
        <time>2015-10-16T13:18:12Z</time>
      </trkpt>
      <trkpt lat="49.27231" lon="-0.21971">
        <ele>7.3</ele>
        <time>2015-10-16T13:18:14Z</time>
      </trkpt>
      <trkpt lat="49.27189" lon="-0.22034">
        <ele>7</ele>
        <time>2015-10-16T13:19:02Z</time>
      </trkpt>
      <trkpt lat="49.27188" lon="-0.22036">
        <ele>6.6</ele>
        <time>2015-10-16T13:19:03Z</time>
      </trkpt>
      <trkpt lat="49.27164" lon="-0.22091">
        <ele>6.9</ele>
        <time>2015-10-16T13:19:36Z</time>
      </trkpt>
      <trkpt lat="49.27162" lon="-0.22096">
        <ele>6.6</ele>
        <time>2015-10-16T13:19:39Z</time>
      </trkpt>
      <trkpt lat="49.27158" lon="-0.22112">
        <ele>7.3</ele>
        <time>2015-10-16T13:19:48Z</time>
      </trkpt>
      <trkpt lat="49.27153" lon="-0.22143">
        <ele>6.3</ele>
        <time>2015-10-16T13:20:04Z</time>
      </trkpt>
      <trkpt lat="49.27153" lon="-0.22145">
        <ele>6.3</ele>
        <time>2015-10-16T13:20:05Z</time>
      </trkpt>
      <trkpt lat="49.27151" lon="-0.22166">
        <ele>6.7</ele>
        <time>2015-10-16T13:20:16Z</time>
      </trkpt>
      <trkpt lat="49.27151" lon="-0.22179">
        <ele>8</ele>
        <time>2015-10-16T13:20:27Z</time>
      </trkpt>
      <trkpt lat="49.27151" lon="-0.22178">
        <ele>8</ele>
        <time>2015-10-16T13:20:28Z</time>
      </trkpt>
      <trkpt lat="49.27151" lon="-0.22178">
        <ele>8</ele>
        <time>2015-10-16T13:20:29Z</time>
      </trkpt>
      <trkpt lat="49.27151" lon="-0.22178">
        <ele>8</ele>
        <time>2015-10-16T13:20:30Z</time>
      </trkpt>
      <trkpt lat="49.27151" lon="-0.22178">
        <ele>8</ele>
        <time>2015-10-16T13:20:31Z</time>
      </trkpt>
      <trkpt lat="49.27151" lon="-0.22178">
        <ele>8</ele>
        <time>2015-10-16T13:20:32Z</time>
      </trkpt>
      <trkpt lat="49.27151" lon="-0.22178">
        <ele>8</ele>
        <time>2015-10-16T13:20:33Z</time>
      </trkpt>
      <trkpt lat="49.27151" lon="-0.22177">
        <ele>8</ele>
        <time>2015-10-16T13:20:34Z</time>
      </trkpt>
      <trkpt lat="49.27151" lon="-0.22178">
        <ele>8</ele>
        <time>2015-10-16T13:20:35Z</time>
      </trkpt>
      <trkpt lat="49.27151" lon="-0.22178">
        <ele>7</ele>
        <time>2015-10-16T13:20:36Z</time>
      </trkpt>
      <trkpt lat="49.27151" lon="-0.22178">
        <ele>6.2</ele>
        <time>2015-10-16T13:20:37Z</time>
      </trkpt>
      <trkpt lat="49.27151" lon="-0.22178">
        <ele>5.6</ele>
        <time>2015-10-16T13:20:38Z</time>
      </trkpt>
      <trkpt lat="49.27151" lon="-0.22178">
        <ele>6.6</ele>
        <time>2015-10-16T13:20:39Z</time>
      </trkpt>
      <trkpt lat="49.27151" lon="-0.22178">
        <ele>7.4</ele>
        <time>2015-10-16T13:20:40Z</time>
      </trkpt>
      <trkpt lat="49.27151" lon="-0.22178">
        <ele>8</ele>
        <time>2015-10-16T13:20:41Z</time>
      </trkpt>
      <trkpt lat="49.2715" lon="-0.22178">
        <ele>8.4</ele>
        <time>2015-10-16T13:20:42Z</time>
      </trkpt>
      <trkpt lat="49.2715" lon="-0.22178">
        <ele>8.7</ele>
        <time>2015-10-16T13:20:43Z</time>
      </trkpt>
      <trkpt lat="49.2715" lon="-0.22185">
        <ele>9.3</ele>
        <time>2015-10-16T13:20:48Z</time>
      </trkpt>
      <trkpt lat="49.2715" lon="-0.22186">
        <ele>9.6</ele>
        <time>2015-10-16T13:20:49Z</time>
      </trkpt>
      <trkpt lat="49.2715" lon="-0.22188">
        <ele>9.8</ele>
        <time>2015-10-16T13:20:50Z</time>
      </trkpt>
      <trkpt lat="49.2715" lon="-0.2219">
        <ele>9.4</ele>
        <time>2015-10-16T13:20:51Z</time>
      </trkpt>
      <trkpt lat="49.2715" lon="-0.22192">
        <ele>9</ele>
        <time>2015-10-16T13:20:52Z</time>
      </trkpt>
      <trkpt lat="49.2715" lon="-0.22194">
        <ele>8.8</ele>
        <time>2015-10-16T13:20:53Z</time>
      </trkpt>
      <trkpt lat="49.2715" lon="-0.22195">
        <ele>7.8</ele>
        <time>2015-10-16T13:20:54Z</time>
      </trkpt>
      <trkpt lat="49.2715" lon="-0.22197">
        <ele>7</ele>
        <time>2015-10-16T13:20:55Z</time>
      </trkpt>
      <trkpt lat="49.27151" lon="-0.22199">
        <ele>6.4</ele>
        <time>2015-10-16T13:20:56Z</time>
      </trkpt>
      <trkpt lat="49.27151" lon="-0.22201">
        <ele>7.2</ele>
        <time>2015-10-16T13:20:57Z</time>
      </trkpt>
      <trkpt lat="49.27151" lon="-0.22203">
        <ele>7.9</ele>
        <time>2015-10-16T13:20:58Z</time>
      </trkpt>
      <trkpt lat="49.27151" lon="-0.22204">
        <ele>8.3</ele>
        <time>2015-10-16T13:20:59Z</time>
      </trkpt>
      <trkpt lat="49.27152" lon="-0.22206">
        <ele>8</ele>
        <time>2015-10-16T13:21:00Z</time>
      </trkpt>
      <trkpt lat="49.27159" lon="-0.22235">
        <ele>5.8</ele>
        <time>2015-10-16T13:21:17Z</time>
      </trkpt>
      <trkpt lat="49.2716" lon="-0.22237">
        <ele>6</ele>
        <time>2015-10-16T13:21:18Z</time>
      </trkpt>
      <trkpt lat="49.27164" lon="-0.22257">
        <ele>6.7</ele>
        <time>2015-10-16T13:21:29Z</time>
      </trkpt>
      <trkpt lat="49.27164" lon="-0.22261">
        <ele>6.2</ele>
        <time>2015-10-16T13:21:31Z</time>
      </trkpt>
      <trkpt lat="49.27168" lon="-0.22294">
        <ele>5.4</ele>
        <time>2015-10-16T13:21:48Z</time>
      </trkpt>
      <trkpt lat="49.27169" lon="-0.22296">
        <ele>5.2</ele>
        <time>2015-10-16T13:21:49Z</time>
      </trkpt>
      <trkpt lat="49.2717" lon="-0.22298">
        <ele>5.1</ele>
        <time>2015-10-16T13:21:50Z</time>
      </trkpt>
      <trkpt lat="49.27177" lon="-0.2231">
        <ele>6.2</ele>
        <time>2015-10-16T13:21:58Z</time>
      </trkpt>
      <trkpt lat="49.2718" lon="-0.22314">
        <ele>6.2</ele>
        <time>2015-10-16T13:22:01Z</time>
      </trkpt>
      <trkpt lat="49.27184" lon="-0.22318">
        <ele>6.3</ele>
        <time>2015-10-16T13:22:05Z</time>
      </trkpt>
      <trkpt lat="49.27203" lon="-0.22341">
        <ele>6.3</ele>
        <time>2015-10-16T13:22:23Z</time>
      </trkpt>
      <trkpt lat="49.27204" lon="-0.22342">
        <ele>6.1</ele>
        <time>2015-10-16T13:22:24Z</time>
      </trkpt>
      <trkpt lat="49.27231" lon="-0.22358">
        <ele>5.6</ele>
        <time>2015-10-16T13:22:45Z</time>
      </trkpt>
      <trkpt lat="49.27232" lon="-0.22358">
        <ele>5.6</ele>
        <time>2015-10-16T13:22:46Z</time>
      </trkpt>
      <trkpt lat="49.27261" lon="-0.22365">
        <ele>5.6</ele>
        <time>2015-10-16T13:23:09Z</time>
      </trkpt>
      <trkpt lat="49.27264" lon="-0.22365">
        <ele>5.6</ele>
        <time>2015-10-16T13:23:11Z</time>
      </trkpt>
      <trkpt lat="49.27295" lon="-0.22361">
        <ele>5.7</ele>
        <time>2015-10-16T13:23:36Z</time>
      </trkpt>
      <trkpt lat="49.27296" lon="-0.22361">
        <ele>5.7</ele>
        <time>2015-10-16T13:23:37Z</time>
      </trkpt>
      <trkpt lat="49.27303" lon="-0.22362">
        <ele>5.6</ele>
        <time>2015-10-16T13:23:43Z</time>
      </trkpt>
      <trkpt lat="49.27305" lon="-0.22361">
        <ele>5.6</ele>
        <time>2015-10-16T13:23:44Z</time>
      </trkpt>
      <trkpt lat="49.27313" lon="-0.22361">
        <ele>6</ele>
        <time>2015-10-16T13:23:50Z</time>
      </trkpt>
      <trkpt lat="49.27314" lon="-0.22361">
        <ele>5.9</ele>
        <time>2015-10-16T13:23:51Z</time>
      </trkpt>
      <trkpt lat="49.27322" lon="-0.22361">
        <ele>6</ele>
        <time>2015-10-16T13:23:57Z</time>
      </trkpt>
      <trkpt lat="49.27323" lon="-0.22361">
        <ele>5.9</ele>
        <time>2015-10-16T13:23:58Z</time>
      </trkpt>
      <trkpt lat="49.27351" lon="-0.22359">
        <ele>5</ele>
        <time>2015-10-16T13:24:20Z</time>
      </trkpt>
      <trkpt lat="49.27388" lon="-0.2235">
        <ele>5.5</ele>
        <time>2015-10-16T13:24:57Z</time>
      </trkpt>
      <trkpt lat="49.27388" lon="-0.22351">
        <ele>5.5</ele>
        <time>2015-10-16T13:24:58Z</time>
      </trkpt>
      <trkpt lat="49.27388" lon="-0.22351">
        <ele>5.5</ele>
        <time>2015-10-16T13:24:59Z</time>
      </trkpt>
      <trkpt lat="49.27389" lon="-0.22351">
        <ele>5.3</ele>
        <time>2015-10-16T13:25:00Z</time>
      </trkpt>
      <trkpt lat="49.27422" lon="-0.22341">
        <ele>5.5</ele>
        <time>2015-10-16T13:25:32Z</time>
      </trkpt>
      <trkpt lat="49.27447" lon="-0.22328">
        <ele>5.4</ele>
        <time>2015-10-16T13:25:55Z</time>
      </trkpt>
      <trkpt lat="49.27525" lon="-0.22283">
        <ele>6.1</ele>
        <time>2015-10-16T13:27:11Z</time>
      </trkpt>
      <trkpt lat="49.27525" lon="-0.22283">
        <ele>6.2</ele>
        <time>2015-10-16T13:27:12Z</time>
      </trkpt>
      <trkpt lat="49.27525" lon="-0.22283">
        <ele>6.3</ele>
        <time>2015-10-16T13:27:13Z</time>
      </trkpt>
      <trkpt lat="49.27525" lon="-0.22283">
        <ele>6.3</ele>
        <time>2015-10-16T13:27:14Z</time>
      </trkpt>
      <trkpt lat="49.27525" lon="-0.22283">
        <ele>6</ele>
        <time>2015-10-16T13:27:15Z</time>
      </trkpt>
      <trkpt lat="49.27525" lon="-0.22283">
        <ele>5.8</ele>
        <time>2015-10-16T13:27:16Z</time>
      </trkpt>
      <trkpt lat="49.27526" lon="-0.22283">
        <ele>5.7</ele>
        <time>2015-10-16T13:27:17Z</time>
      </trkpt>
      <trkpt lat="49.27526" lon="-0.22283">
        <ele>6.3</ele>
        <time>2015-10-16T13:27:18Z</time>
      </trkpt>
      <trkpt lat="49.27526" lon="-0.22283">
        <ele>6.7</ele>
        <time>2015-10-16T13:27:19Z</time>
      </trkpt>
      <trkpt lat="49.27526" lon="-0.22283">
        <ele>6.9</ele>
        <time>2015-10-16T13:27:20Z</time>
      </trkpt>
      <trkpt lat="49.27526" lon="-0.22283">
        <ele>6.7</ele>
        <time>2015-10-16T13:27:21Z</time>
      </trkpt>
      <trkpt lat="49.27526" lon="-0.22283">
        <ele>6.5</ele>
        <time>2015-10-16T13:27:22Z</time>
      </trkpt>
      <trkpt lat="49.27526" lon="-0.22283">
        <ele>6.5</ele>
        <time>2015-10-16T13:27:23Z</time>
      </trkpt>
      <trkpt lat="49.27526" lon="-0.22283">
        <ele>6.4</ele>
        <time>2015-10-16T13:27:24Z</time>
      </trkpt>
      <trkpt lat="49.27526" lon="-0.22283">
        <ele>6.4</ele>
        <time>2015-10-16T13:27:25Z</time>
      </trkpt>
      <trkpt lat="49.27526" lon="-0.22283">
        <ele>6.4</ele>
        <time>2015-10-16T13:27:26Z</time>
      </trkpt>
      <trkpt lat="49.27526" lon="-0.22283">
        <ele>6.7</ele>
        <time>2015-10-16T13:27:27Z</time>
      </trkpt>
      <trkpt lat="49.27527" lon="-0.22282">
        <ele>7.1</ele>
        <time>2015-10-16T13:27:29Z</time>
      </trkpt>
      <trkpt lat="49.27548" lon="-0.22263">
        <ele>5.9</ele>
        <time>2015-10-16T13:27:51Z</time>
      </trkpt>
      <trkpt lat="49.27565" lon="-0.22248">
        <ele>5.5</ele>
        <time>2015-10-16T13:28:08Z</time>
      </trkpt>
      <trkpt lat="49.27566" lon="-0.22248">
        <ele>5.5</ele>
        <time>2015-10-16T13:28:09Z</time>
      </trkpt>
      <trkpt lat="49.27574" lon="-0.22243">
        <ele>4.9</ele>
        <time>2015-10-16T13:28:16Z</time>
      </trkpt>
      <trkpt lat="49.27575" lon="-0.22242">
        <ele>4.9</ele>
        <time>2015-10-16T13:28:17Z</time>
      </trkpt>
      <trkpt lat="49.27629" lon="-0.22208">
        <ele>5.7</ele>
        <time>2015-10-16T13:29:08Z</time>
      </trkpt>
      <trkpt lat="49.27669" lon="-0.2219">
        <ele>6.6</ele>
        <time>2015-10-16T13:29:41Z</time>
      </trkpt>
      <trkpt lat="49.2767" lon="-0.22189">
        <ele>6.6</ele>
        <time>2015-10-16T13:29:42Z</time>
      </trkpt>
      <trkpt lat="49.27674" lon="-0.22186">
        <ele>6.6</ele>
        <time>2015-10-16T13:29:48Z</time>
      </trkpt>
      <trkpt lat="49.27675" lon="-0.22187">
        <ele>6.8</ele>
        <time>2015-10-16T13:29:49Z</time>
      </trkpt>
      <trkpt lat="49.27676" lon="-0.22187">
        <ele>6.9</ele>
        <time>2015-10-16T13:29:50Z</time>
      </trkpt>
      <trkpt lat="49.27676" lon="-0.22187">
        <ele>7</ele>
        <time>2015-10-16T13:29:51Z</time>
      </trkpt>
      <trkpt lat="49.27677" lon="-0.22188">
        <ele>7</ele>
        <time>2015-10-16T13:29:52Z</time>
      </trkpt>
      <trkpt lat="49.27678" lon="-0.22188">
        <ele>7.1</ele>
        <time>2015-10-16T13:29:53Z</time>
      </trkpt>
      <trkpt lat="49.27678" lon="-0.22188">
        <ele>7.3</ele>
        <time>2015-10-16T13:29:54Z</time>
      </trkpt>
      <trkpt lat="49.27679" lon="-0.22189">
        <ele>7.5</ele>
        <time>2015-10-16T13:29:55Z</time>
      </trkpt>
      <trkpt lat="49.2768" lon="-0.2219">
        <ele>7.6</ele>
        <time>2015-10-16T13:29:56Z</time>
      </trkpt>
      <trkpt lat="49.2768" lon="-0.2219">
        <ele>7.5</ele>
        <time>2015-10-16T13:29:57Z</time>
      </trkpt>
      <trkpt lat="49.27683" lon="-0.22191">
        <ele>7.1</ele>
        <time>2015-10-16T13:30:00Z</time>
      </trkpt>
      <trkpt lat="49.27684" lon="-0.22189">
        <ele>8</ele>
        <time>2015-10-16T13:30:14Z</time>
      </trkpt>
      <trkpt lat="49.27684" lon="-0.22189">
        <ele>8</ele>
        <time>2015-10-16T13:30:15Z</time>
      </trkpt>
      <trkpt lat="49.27684" lon="-0.22189">
        <ele>8</ele>
        <time>2015-10-16T13:30:16Z</time>
      </trkpt>
      <trkpt lat="49.27684" lon="-0.22189">
        <ele>8</ele>
        <time>2015-10-16T13:30:17Z</time>
      </trkpt>
      <trkpt lat="49.27684" lon="-0.22189">
        <ele>8.2</ele>
        <time>2015-10-16T13:30:18Z</time>
      </trkpt>
      <trkpt lat="49.27684" lon="-0.22188">
        <ele>8.4</ele>
        <time>2015-10-16T13:30:19Z</time>
      </trkpt>
      <trkpt lat="49.27684" lon="-0.22188">
        <ele>8.5</ele>
        <time>2015-10-16T13:30:20Z</time>
      </trkpt>
      <trkpt lat="49.27685" lon="-0.22188">
        <ele>8.4</ele>
        <time>2015-10-16T13:30:21Z</time>
      </trkpt>
      <trkpt lat="49.27685" lon="-0.22188">
        <ele>8.2</ele>
        <time>2015-10-16T13:30:23Z</time>
      </trkpt>
      <trkpt lat="49.27685" lon="-0.22188">
        <ele>8.2</ele>
        <time>2015-10-16T13:30:24Z</time>
      </trkpt>
      <trkpt lat="49.27686" lon="-0.22188">
        <ele>8.1</ele>
        <time>2015-10-16T13:30:25Z</time>
      </trkpt>
      <trkpt lat="49.27686" lon="-0.22188">
        <ele>8.1</ele>
        <time>2015-10-16T13:30:26Z</time>
      </trkpt>
      <trkpt lat="49.27693" lon="-0.22192">
        <ele>8.2</ele>
        <time>2015-10-16T13:30:33Z</time>
      </trkpt>
      <trkpt lat="49.27702" lon="-0.22195">
        <ele>7.6</ele>
        <time>2015-10-16T13:30:41Z</time>
      </trkpt>
      <trkpt lat="49.27704" lon="-0.22195">
        <ele>7.4</ele>
        <time>2015-10-16T13:30:43Z</time>
      </trkpt>
      <trkpt lat="49.27705" lon="-0.22195">
        <ele>7.4</ele>
        <time>2015-10-16T13:30:44Z</time>
      </trkpt>
      <trkpt lat="49.27732" lon="-0.2219">
        <ele>6.6</ele>
        <time>2015-10-16T13:31:04Z</time>
      </trkpt>
      <trkpt lat="49.27734" lon="-0.2219">
        <ele>6.5</ele>
        <time>2015-10-16T13:31:05Z</time>
      </trkpt>
      <trkpt lat="49.27738" lon="-0.2219">
        <ele>6.7</ele>
        <time>2015-10-16T13:31:09Z</time>
      </trkpt>
      <trkpt lat="49.2774" lon="-0.2219">
        <ele>6.9</ele>
        <time>2015-10-16T13:31:10Z</time>
      </trkpt>
      <trkpt lat="49.27757" lon="-0.22188">
        <ele>7</ele>
        <time>2015-10-16T13:31:22Z</time>
      </trkpt>
      <trkpt lat="49.27758" lon="-0.22188">
        <ele>7.1</ele>
        <time>2015-10-16T13:31:23Z</time>
      </trkpt>
      <trkpt lat="49.27761" lon="-0.22188">
        <ele>7.2</ele>
        <time>2015-10-16T13:31:25Z</time>
      </trkpt>
      <trkpt lat="49.27762" lon="-0.22188">
        <ele>7.2</ele>
        <time>2015-10-16T13:31:26Z</time>
      </trkpt>
      <trkpt lat="49.27764" lon="-0.22188">
        <ele>7.2</ele>
        <time>2015-10-16T13:31:27Z</time>
      </trkpt>
      <trkpt lat="49.27765" lon="-0.22188">
        <ele>7.2</ele>
        <time>2015-10-16T13:31:28Z</time>
      </trkpt>
      <trkpt lat="49.27772" lon="-0.22188">
        <ele>7.2</ele>
        <time>2015-10-16T13:31:33Z</time>
      </trkpt>
      <trkpt lat="49.27773" lon="-0.22188">
        <ele>6.8</ele>
        <time>2015-10-16T13:31:34Z</time>
      </trkpt>
      <trkpt lat="49.27801" lon="-0.22192">
        <ele>7.2</ele>
        <time>2015-10-16T13:31:59Z</time>
      </trkpt>
      <trkpt lat="49.27802" lon="-0.22193">
        <ele>7.2</ele>
        <time>2015-10-16T13:32:00Z</time>
      </trkpt>
      <trkpt lat="49.27811" lon="-0.22195">
        <ele>7.5</ele>
        <time>2015-10-16T13:32:09Z</time>
      </trkpt>
      <trkpt lat="49.27813" lon="-0.22196">
        <ele>7.3</ele>
        <time>2015-10-16T13:32:10Z</time>
      </trkpt>
      <trkpt lat="49.2784" lon="-0.22207">
        <ele>7.8</ele>
        <time>2015-10-16T13:32:27Z</time>
      </trkpt>
      <trkpt lat="49.27842" lon="-0.22208">
        <ele>7.9</ele>
        <time>2015-10-16T13:32:28Z</time>
      </trkpt>
      <trkpt lat="49.27844" lon="-0.22209">
        <ele>7.6</ele>
        <time>2015-10-16T13:32:29Z</time>
      </trkpt>
      <trkpt lat="49.27845" lon="-0.2221">
        <ele>7.4</ele>
        <time>2015-10-16T13:32:30Z</time>
      </trkpt>
      <trkpt lat="49.2785" lon="-0.22213">
        <ele>7.3</ele>
        <time>2015-10-16T13:32:33Z</time>
      </trkpt>
      <trkpt lat="49.27851" lon="-0.22214">
        <ele>7.2</ele>
        <time>2015-10-16T13:32:34Z</time>
      </trkpt>
      <trkpt lat="49.27862" lon="-0.22225">
        <ele>7.2</ele>
        <time>2015-10-16T13:32:43Z</time>
      </trkpt>
      <trkpt lat="49.27864" lon="-0.22226">
        <ele>7.2</ele>
        <time>2015-10-16T13:32:44Z</time>
      </trkpt>
      <trkpt lat="49.27871" lon="-0.22234">
        <ele>6.9</ele>
        <time>2015-10-16T13:32:51Z</time>
      </trkpt>
      <trkpt lat="49.27872" lon="-0.22236">
        <ele>7</ele>
        <time>2015-10-16T13:32:52Z</time>
      </trkpt>
      <trkpt lat="49.27885" lon="-0.22263">
        <ele>6.3</ele>
        <time>2015-10-16T13:33:09Z</time>
      </trkpt>
      <trkpt lat="49.27886" lon="-0.22265">
        <ele>6.3</ele>
        <time>2015-10-16T13:33:10Z</time>
      </trkpt>
      <trkpt lat="49.27897" lon="-0.22283">
        <ele>6.6</ele>
        <time>2015-10-16T13:33:22Z</time>
      </trkpt>
      <trkpt lat="49.27908" lon="-0.22305">
        <ele>7.3</ele>
        <time>2015-10-16T13:33:36Z</time>
      </trkpt>
      <trkpt lat="49.27917" lon="-0.22325">
        <ele>8.6</ele>
        <time>2015-10-16T13:33:49Z</time>
      </trkpt>
      <trkpt lat="49.27918" lon="-0.22327">
        <ele>8.1</ele>
        <time>2015-10-16T13:33:50Z</time>
      </trkpt>
      <trkpt lat="49.27926" lon="-0.22345">
        <ele>7.3</ele>
        <time>2015-10-16T13:34:02Z</time>
      </trkpt>
      <trkpt lat="49.27955" lon="-0.22413">
        <ele>8.1</ele>
        <time>2015-10-16T13:34:45Z</time>
      </trkpt>
      <trkpt lat="49.27955" lon="-0.22414">
        <ele>8</ele>
        <time>2015-10-16T13:34:46Z</time>
      </trkpt>
      <trkpt lat="49.27959" lon="-0.22424">
        <ele>7.6</ele>
        <time>2015-10-16T13:34:52Z</time>
      </trkpt>
      <trkpt lat="49.2796" lon="-0.22426">
        <ele>7.8</ele>
        <time>2015-10-16T13:34:54Z</time>
      </trkpt>
      <trkpt lat="49.27969" lon="-0.22441">
        <ele>8</ele>
        <time>2015-10-16T13:35:07Z</time>
      </trkpt>
      <trkpt lat="49.27969" lon="-0.22441">
        <ele>8</ele>
        <time>2015-10-16T13:35:08Z</time>
      </trkpt>
      <trkpt lat="49.27969" lon="-0.22441">
        <ele>8</ele>
        <time>2015-10-16T13:35:09Z</time>
      </trkpt>
      <trkpt lat="49.27969" lon="-0.22441">
        <ele>8</ele>
        <time>2015-10-16T13:35:10Z</time>
      </trkpt>
      <trkpt lat="49.27969" lon="-0.22441">
        <ele>8</ele>
        <time>2015-10-16T13:35:11Z</time>
      </trkpt>
      <trkpt lat="49.27969" lon="-0.22441">
        <ele>8</ele>
        <time>2015-10-16T13:35:12Z</time>
      </trkpt>
      <trkpt lat="49.27969" lon="-0.22441">
        <ele>8</ele>
        <time>2015-10-16T13:35:13Z</time>
      </trkpt>
      <trkpt lat="49.27969" lon="-0.22441">
        <ele>8</ele>
        <time>2015-10-16T13:35:14Z</time>
      </trkpt>
      <trkpt lat="49.27969" lon="-0.22441">
        <ele>8</ele>
        <time>2015-10-16T13:35:15Z</time>
      </trkpt>
      <trkpt lat="49.27969" lon="-0.2244">
        <ele>8</ele>
        <time>2015-10-16T13:35:16Z</time>
      </trkpt>
      <trkpt lat="49.27969" lon="-0.2244">
        <ele>8.2</ele>
        <time>2015-10-16T13:35:17Z</time>
      </trkpt>
      <trkpt lat="49.27969" lon="-0.2244">
        <ele>8.4</ele>
        <time>2015-10-16T13:35:18Z</time>
      </trkpt>
      <trkpt lat="49.27969" lon="-0.2244">
        <ele>8.5</ele>
        <time>2015-10-16T13:35:19Z</time>
      </trkpt>
      <trkpt lat="49.27969" lon="-0.2244">
        <ele>8.6</ele>
        <time>2015-10-16T13:35:20Z</time>
      </trkpt>
      <trkpt lat="49.27969" lon="-0.2244">
        <ele>8.7</ele>
        <time>2015-10-16T13:35:21Z</time>
      </trkpt>
      <trkpt lat="49.2797" lon="-0.2244">
        <ele>8.7</ele>
        <time>2015-10-16T13:35:22Z</time>
      </trkpt>
      <trkpt lat="49.2797" lon="-0.2244">
        <ele>8.3</ele>
        <time>2015-10-16T13:35:23Z</time>
      </trkpt>
      <trkpt lat="49.27971" lon="-0.2244">
        <ele>7.8</ele>
        <time>2015-10-16T13:35:25Z</time>
      </trkpt>
      <trkpt lat="49.27971" lon="-0.2244">
        <ele>7.7</ele>
        <time>2015-10-16T13:35:26Z</time>
      </trkpt>
      <trkpt lat="49.27973" lon="-0.2244">
        <ele>7.4</ele>
        <time>2015-10-16T13:35:29Z</time>
      </trkpt>
      <trkpt lat="49.27978" lon="-0.22441">
        <ele>7.3</ele>
        <time>2015-10-16T13:35:33Z</time>
      </trkpt>
      <trkpt lat="49.27979" lon="-0.2244">
        <ele>7.2</ele>
        <time>2015-10-16T13:35:34Z</time>
      </trkpt>
      <trkpt lat="49.27986" lon="-0.22438">
        <ele>7.9</ele>
        <time>2015-10-16T13:35:39Z</time>
      </trkpt>
      <trkpt lat="49.27987" lon="-0.22438">
        <ele>8.2</ele>
        <time>2015-10-16T13:35:40Z</time>
      </trkpt>
      <trkpt lat="49.27993" lon="-0.2244">
        <ele>7.2</ele>
        <time>2015-10-16T13:35:45Z</time>
      </trkpt>
      <trkpt lat="49.27998" lon="-0.22442">
        <ele>6.7</ele>
        <time>2015-10-16T13:35:49Z</time>
      </trkpt>
      <trkpt lat="49.27999" lon="-0.22443">
        <ele>7</ele>
        <time>2015-10-16T13:35:50Z</time>
      </trkpt>
      <trkpt lat="49.28007" lon="-0.22448">
        <ele>6.6</ele>
        <time>2015-10-16T13:35:57Z</time>
      </trkpt>
      <trkpt lat="49.28028" lon="-0.22465">
        <ele>7.5</ele>
        <time>2015-10-16T13:36:16Z</time>
      </trkpt>
      <trkpt lat="49.28045" lon="-0.22478">
        <ele>7</ele>
        <time>2015-10-16T13:36:32Z</time>
      </trkpt>
      <trkpt lat="49.28046" lon="-0.22478">
        <ele>7.1</ele>
        <time>2015-10-16T13:36:33Z</time>
      </trkpt>
      <trkpt lat="49.28051" lon="-0.22478">
        <ele>7.3</ele>
        <time>2015-10-16T13:36:38Z</time>
      </trkpt>
      <trkpt lat="49.28052" lon="-0.22478">
        <ele>7.1</ele>
        <time>2015-10-16T13:36:39Z</time>
      </trkpt>
      <trkpt lat="49.28053" lon="-0.22478">
        <ele>6.9</ele>
        <time>2015-10-16T13:36:40Z</time>
      </trkpt>
      <trkpt lat="49.28059" lon="-0.22474">
        <ele>6.5</ele>
        <time>2015-10-16T13:36:45Z</time>
      </trkpt>
      <trkpt lat="49.28062" lon="-0.22472">
        <ele>6.4</ele>
        <time>2015-10-16T13:36:47Z</time>
      </trkpt>
      <trkpt lat="49.28065" lon="-0.22467">
        <ele>6.6</ele>
        <time>2015-10-16T13:36:50Z</time>
      </trkpt>
      <trkpt lat="49.28066" lon="-0.22465">
        <ele>6.8</ele>
        <time>2015-10-16T13:36:51Z</time>
      </trkpt>
      <trkpt lat="49.28092" lon="-0.22421">
        <ele>5.6</ele>
        <time>2015-10-16T13:37:19Z</time>
      </trkpt>
      <trkpt lat="49.28093" lon="-0.2242">
        <ele>5.6</ele>
        <time>2015-10-16T13:37:20Z</time>
      </trkpt>
      <trkpt lat="49.28171" lon="-0.22285">
        <ele>5.7</ele>
        <time>2015-10-16T13:38:53Z</time>
      </trkpt>
      <trkpt lat="49.28172" lon="-0.22283">
        <ele>5.6</ele>
        <time>2015-10-16T13:38:54Z</time>
      </trkpt>
      <trkpt lat="49.28176" lon="-0.22251">
        <ele>7.1</ele>
        <time>2015-10-16T13:39:10Z</time>
      </trkpt>
      <trkpt lat="49.28176" lon="-0.22249">
        <ele>7.2</ele>
        <time>2015-10-16T13:39:11Z</time>
      </trkpt>
      <trkpt lat="49.28176" lon="-0.22247">
        <ele>7.2</ele>
        <time>2015-10-16T13:39:12Z</time>
      </trkpt>
      <trkpt lat="49.28176" lon="-0.22224">
        <ele>7.6</ele>
        <time>2015-10-16T13:39:25Z</time>
      </trkpt>
      <trkpt lat="49.28174" lon="-0.2221">
        <ele>6.7</ele>
        <time>2015-10-16T13:39:33Z</time>
      </trkpt>
      <trkpt lat="49.28163" lon="-0.2213">
        <ele>6.7</ele>
        <time>2015-10-16T13:40:13Z</time>
      </trkpt>
      <trkpt lat="49.28164" lon="-0.22129">
        <ele>6.6</ele>
        <time>2015-10-16T13:40:14Z</time>
      </trkpt>
      <trkpt lat="49.28165" lon="-0.22107">
        <ele>6.6</ele>
        <time>2015-10-16T13:40:26Z</time>
      </trkpt>
      <trkpt lat="49.28168" lon="-0.22091">
        <ele>6.7</ele>
        <time>2015-10-16T13:40:35Z</time>
      </trkpt>
      <trkpt lat="49.28184" lon="-0.21999">
        <ele>4.7</ele>
        <time>2015-10-16T13:41:24Z</time>
      </trkpt>
      <trkpt lat="49.28185" lon="-0.21998">
        <ele>4.5</ele>
        <time>2015-10-16T13:41:25Z</time>
      </trkpt>
      <trkpt lat="49.28193" lon="-0.21986">
        <ele>4.4</ele>
        <time>2015-10-16T13:41:34Z</time>
      </trkpt>
      <trkpt lat="49.28196" lon="-0.21983">
        <ele>5.1</ele>
        <time>2015-10-16T13:41:37Z</time>
      </trkpt>
      <trkpt lat="49.28216" lon="-0.21969">
        <ele>6.1</ele>
        <time>2015-10-16T13:41:56Z</time>
      </trkpt>
      <trkpt lat="49.28219" lon="-0.21968">
        <ele>6.5</ele>
        <time>2015-10-16T13:41:59Z</time>
      </trkpt>
      <trkpt lat="49.28223" lon="-0.21965">
        <ele>6.2</ele>
        <time>2015-10-16T13:42:03Z</time>
      </trkpt>
      <trkpt lat="49.28236" lon="-0.21961">
        <ele>7</ele>
        <time>2015-10-16T13:42:13Z</time>
      </trkpt>
      <trkpt lat="49.28256" lon="-0.21957">
        <ele>7.8</ele>
        <time>2015-10-16T13:42:29Z</time>
      </trkpt>
      <trkpt lat="49.28257" lon="-0.21957">
        <ele>7.9</ele>
        <time>2015-10-16T13:42:30Z</time>
      </trkpt>
      <trkpt lat="49.28263" lon="-0.21956">
        <ele>7.4</ele>
        <time>2015-10-16T13:42:35Z</time>
      </trkpt>
      <trkpt lat="49.28268" lon="-0.21958">
        <ele>7.6</ele>
        <time>2015-10-16T13:42:39Z</time>
      </trkpt>
      <trkpt lat="49.28271" lon="-0.21959">
        <ele>7.6</ele>
        <time>2015-10-16T13:42:41Z</time>
      </trkpt>
      <trkpt lat="49.28275" lon="-0.21963">
        <ele>7.7</ele>
        <time>2015-10-16T13:42:45Z</time>
      </trkpt>
      <trkpt lat="49.28285" lon="-0.21969">
        <ele>8.5</ele>
        <time>2015-10-16T13:42:54Z</time>
      </trkpt>
      <trkpt lat="49.28287" lon="-0.2197">
        <ele>8.6</ele>
        <time>2015-10-16T13:42:55Z</time>
      </trkpt>
      <trkpt lat="49.28291" lon="-0.21969">
        <ele>8.8</ele>
        <time>2015-10-16T13:42:58Z</time>
      </trkpt>
      <trkpt lat="49.28297" lon="-0.21966">
        <ele>8.8</ele>
        <time>2015-10-16T13:43:04Z</time>
      </trkpt>
      <trkpt lat="49.28302" lon="-0.21962">
        <ele>9.1</ele>
        <time>2015-10-16T13:43:09Z</time>
      </trkpt>
      <trkpt lat="49.28305" lon="-0.21958">
        <ele>9.4</ele>
        <time>2015-10-16T13:43:13Z</time>
      </trkpt>
      <trkpt lat="49.2831" lon="-0.21951">
        <ele>10.1</ele>
        <time>2015-10-16T13:43:20Z</time>
      </trkpt>
      <trkpt lat="49.28321" lon="-0.21933">
        <ele>10.5</ele>
        <time>2015-10-16T13:43:34Z</time>
      </trkpt>
      <trkpt lat="49.28321" lon="-0.21932">
        <ele>10.3</ele>
        <time>2015-10-16T13:43:35Z</time>
      </trkpt>
      <trkpt lat="49.28322" lon="-0.21931">
        <ele>10.1</ele>
        <time>2015-10-16T13:43:36Z</time>
      </trkpt>
      <trkpt lat="49.28323" lon="-0.21929">
        <ele>10</ele>
        <time>2015-10-16T13:43:37Z</time>
      </trkpt>
      <trkpt lat="49.28324" lon="-0.21928">
        <ele>10.4</ele>
        <time>2015-10-16T13:43:38Z</time>
      </trkpt>
      <trkpt lat="49.28326" lon="-0.21926">
        <ele>10.6</ele>
        <time>2015-10-16T13:43:39Z</time>
      </trkpt>
      <trkpt lat="49.28327" lon="-0.21925">
        <ele>10.8</ele>
        <time>2015-10-16T13:43:40Z</time>
      </trkpt>
      <trkpt lat="49.28328" lon="-0.21924">
        <ele>10.5</ele>
        <time>2015-10-16T13:43:41Z</time>
      </trkpt>
      <trkpt lat="49.28329" lon="-0.21922">
        <ele>10.3</ele>
        <time>2015-10-16T13:43:42Z</time>
      </trkpt>
      <trkpt lat="49.28333" lon="-0.21919">
        <ele>9.9</ele>
        <time>2015-10-16T13:43:45Z</time>
      </trkpt>
      <trkpt lat="49.28334" lon="-0.21917">
        <ele>9.9</ele>
        <time>2015-10-16T13:43:46Z</time>
      </trkpt>
      <trkpt lat="49.28339" lon="-0.21913">
        <ele>9.5</ele>
        <time>2015-10-16T13:43:50Z</time>
      </trkpt>
      <trkpt lat="49.28365" lon="-0.21889">
        <ele>7.1</ele>
        <time>2015-10-16T13:44:13Z</time>
      </trkpt>
      <trkpt lat="49.28369" lon="-0.21884">
        <ele>8</ele>
        <time>2015-10-16T13:44:17Z</time>
      </trkpt>
      <trkpt lat="49.28375" lon="-0.21871">
        <ele>8.4</ele>
        <time>2015-10-16T13:44:26Z</time>
      </trkpt>
      <trkpt lat="49.28376" lon="-0.21864">
        <ele>8</ele>
        <time>2015-10-16T13:44:30Z</time>
      </trkpt>
      <trkpt lat="49.28376" lon="-0.21862">
        <ele>7.8</ele>
        <time>2015-10-16T13:44:31Z</time>
      </trkpt>
      <trkpt lat="49.28376" lon="-0.2186">
        <ele>7.6</ele>
        <time>2015-10-16T13:44:32Z</time>
      </trkpt>
      <trkpt lat="49.28376" lon="-0.21859">
        <ele>7.5</ele>
        <time>2015-10-16T13:44:33Z</time>
      </trkpt>
      <trkpt lat="49.28376" lon="-0.21857">
        <ele>7.5</ele>
        <time>2015-10-16T13:44:34Z</time>
      </trkpt>
      <trkpt lat="49.28376" lon="-0.21856">
        <ele>7.6</ele>
        <time>2015-10-16T13:44:35Z</time>
      </trkpt>
      <trkpt lat="49.28376" lon="-0.21854">
        <ele>7.7</ele>
        <time>2015-10-16T13:44:36Z</time>
      </trkpt>
      <trkpt lat="49.28376" lon="-0.21853">
        <ele>7.8</ele>
        <time>2015-10-16T13:44:37Z</time>
      </trkpt>
      <trkpt lat="49.28379" lon="-0.21826">
        <ele>7.6</ele>
        <time>2015-10-16T13:44:53Z</time>
      </trkpt>
      <trkpt lat="49.28379" lon="-0.21824">
        <ele>7.5</ele>
        <time>2015-10-16T13:44:54Z</time>
      </trkpt>
      <trkpt lat="49.28381" lon="-0.21817">
        <ele>7.8</ele>
        <time>2015-10-16T13:44:58Z</time>
      </trkpt>
      <trkpt lat="49.28381" lon="-0.21815">
        <ele>7.6</ele>
        <time>2015-10-16T13:44:59Z</time>
      </trkpt>
      <trkpt lat="49.28383" lon="-0.21805">
        <ele>7.3</ele>
        <time>2015-10-16T13:45:03Z</time>
      </trkpt>
      <trkpt lat="49.28384" lon="-0.21803">
        <ele>7.3</ele>
        <time>2015-10-16T13:45:04Z</time>
      </trkpt>
      <trkpt lat="49.28384" lon="-0.21801">
        <ele>7.3</ele>
        <time>2015-10-16T13:45:05Z</time>
      </trkpt>
      <trkpt lat="49.28384" lon="-0.21798">
        <ele>7.3</ele>
        <time>2015-10-16T13:45:06Z</time>
      </trkpt>
      <trkpt lat="49.28385" lon="-0.21796">
        <ele>7.2</ele>
        <time>2015-10-16T13:45:07Z</time>
      </trkpt>
      <trkpt lat="49.28385" lon="-0.21794">
        <ele>7.4</ele>
        <time>2015-10-16T13:45:08Z</time>
      </trkpt>
      <trkpt lat="49.28386" lon="-0.21792">
        <ele>7.6</ele>
        <time>2015-10-16T13:45:09Z</time>
      </trkpt>
      <trkpt lat="49.28386" lon="-0.2179">
        <ele>7.7</ele>
        <time>2015-10-16T13:45:10Z</time>
      </trkpt>
      <trkpt lat="49.28387" lon="-0.21789">
        <ele>7.8</ele>
        <time>2015-10-16T13:45:11Z</time>
      </trkpt>
      <trkpt lat="49.28387" lon="-0.21787">
        <ele>7.8</ele>
        <time>2015-10-16T13:45:12Z</time>
      </trkpt>
      <trkpt lat="49.28388" lon="-0.21785">
        <ele>7.9</ele>
        <time>2015-10-16T13:45:13Z</time>
      </trkpt>
      <trkpt lat="49.28388" lon="-0.21784">
        <ele>7.5</ele>
        <time>2015-10-16T13:45:14Z</time>
      </trkpt>
      <trkpt lat="49.28389" lon="-0.21782">
        <ele>7.2</ele>
        <time>2015-10-16T13:45:15Z</time>
      </trkpt>
      <trkpt lat="49.28389" lon="-0.21781">
        <ele>7</ele>
        <time>2015-10-16T13:45:16Z</time>
      </trkpt>
      <trkpt lat="49.28396" lon="-0.21764">
        <ele>8.3</ele>
        <time>2015-10-16T13:45:27Z</time>
      </trkpt>
      <trkpt lat="49.28397" lon="-0.21761">
        <ele>8.5</ele>
        <time>2015-10-16T13:45:29Z</time>
      </trkpt>
      <trkpt lat="49.28397" lon="-0.21754">
        <ele>8.3</ele>
        <time>2015-10-16T13:45:34Z</time>
      </trkpt>
      <trkpt lat="49.28397" lon="-0.21748">
        <ele>9.2</ele>
        <time>2015-10-16T13:45:38Z</time>
      </trkpt>
      <trkpt lat="49.28397" lon="-0.21747">
        <ele>9.4</ele>
        <time>2015-10-16T13:45:39Z</time>
      </trkpt>
      <trkpt lat="49.28397" lon="-0.21733">
        <ele>9.1</ele>
        <time>2015-10-16T13:45:47Z</time>
      </trkpt>
      <trkpt lat="49.284" lon="-0.21697">
        <ele>7.8</ele>
        <time>2015-10-16T13:46:05Z</time>
      </trkpt>
      <trkpt lat="49.28399" lon="-0.21693">
        <ele>8.2</ele>
        <time>2015-10-16T13:46:07Z</time>
      </trkpt>
      <trkpt lat="49.28395" lon="-0.21663">
        <ele>8.7</ele>
        <time>2015-10-16T13:46:23Z</time>
      </trkpt>
      <trkpt lat="49.28395" lon="-0.21662">
        <ele>8.9</ele>
        <time>2015-10-16T13:46:24Z</time>
      </trkpt>
      <trkpt lat="49.28395" lon="-0.21656">
        <ele>9.4</ele>
        <time>2015-10-16T13:46:27Z</time>
      </trkpt>
      <trkpt lat="49.28395" lon="-0.21655">
        <ele>9.4</ele>
        <time>2015-10-16T13:46:28Z</time>
      </trkpt>
      <trkpt lat="49.28396" lon="-0.2165">
        <ele>9.6</ele>
        <time>2015-10-16T13:46:31Z</time>
      </trkpt>
      <trkpt lat="49.28398" lon="-0.21638">
        <ele>9.2</ele>
        <time>2015-10-16T13:46:38Z</time>
      </trkpt>
      <trkpt lat="49.28399" lon="-0.21636">
        <ele>9.1</ele>
        <time>2015-10-16T13:46:39Z</time>
      </trkpt>
      <trkpt lat="49.28399" lon="-0.21634">
        <ele>9</ele>
        <time>2015-10-16T13:46:40Z</time>
      </trkpt>
      <trkpt lat="49.284" lon="-0.2163">
        <ele>8.6</ele>
        <time>2015-10-16T13:46:42Z</time>
      </trkpt>
      <trkpt lat="49.28401" lon="-0.21625">
        <ele>8.1</ele>
        <time>2015-10-16T13:46:44Z</time>
      </trkpt>
      <trkpt lat="49.28402" lon="-0.21623">
        <ele>7.9</ele>
        <time>2015-10-16T13:46:45Z</time>
      </trkpt>
      <trkpt lat="49.28402" lon="-0.21621">
        <ele>7.7</ele>
        <time>2015-10-16T13:46:46Z</time>
      </trkpt>
      <trkpt lat="49.28403" lon="-0.2162">
        <ele>8</ele>
        <time>2015-10-16T13:46:47Z</time>
      </trkpt>
      <trkpt lat="49.28403" lon="-0.21617">
        <ele>8.2</ele>
        <time>2015-10-16T13:46:48Z</time>
      </trkpt>
      <trkpt lat="49.28403" lon="-0.21615">
        <ele>8.4</ele>
        <time>2015-10-16T13:46:49Z</time>
      </trkpt>
      <trkpt lat="49.28404" lon="-0.21613">
        <ele>8.3</ele>
        <time>2015-10-16T13:46:50Z</time>
      </trkpt>
      <trkpt lat="49.28404" lon="-0.2161">
        <ele>8.2</ele>
        <time>2015-10-16T13:46:51Z</time>
      </trkpt>
      <trkpt lat="49.28404" lon="-0.21608">
        <ele>8.2</ele>
        <time>2015-10-16T13:46:52Z</time>
      </trkpt>
      <trkpt lat="49.28405" lon="-0.21606">
        <ele>8.1</ele>
        <time>2015-10-16T13:46:53Z</time>
      </trkpt>
      <trkpt lat="49.28405" lon="-0.21604">
        <ele>8.1</ele>
        <time>2015-10-16T13:46:54Z</time>
      </trkpt>
      <trkpt lat="49.28406" lon="-0.21602">
        <ele>8.1</ele>
        <time>2015-10-16T13:46:55Z</time>
      </trkpt>
      <trkpt lat="49.2841" lon="-0.21579">
        <ele>8</ele>
        <time>2015-10-16T13:47:07Z</time>
      </trkpt>
      <trkpt lat="49.28412" lon="-0.21567">
        <ele>7.6</ele>
        <time>2015-10-16T13:47:14Z</time>
      </trkpt>
      <trkpt lat="49.28413" lon="-0.21556">
        <ele>7.8</ele>
        <time>2015-10-16T13:47:21Z</time>
      </trkpt>
      <trkpt lat="49.28413" lon="-0.21555">
        <ele>7.9</ele>
        <time>2015-10-16T13:47:22Z</time>
      </trkpt>
      <trkpt lat="49.2844" lon="-0.21415">
        <ele>6.4</ele>
        <time>2015-10-16T13:48:34Z</time>
      </trkpt>
      <trkpt lat="49.2844" lon="-0.21413">
        <ele>6.8</ele>
        <time>2015-10-16T13:48:35Z</time>
      </trkpt>
      <trkpt lat="49.28444" lon="-0.21361">
        <ele>7</ele>
        <time>2015-10-16T13:49:01Z</time>
      </trkpt>
      <trkpt lat="49.28444" lon="-0.21347">
        <ele>7.3</ele>
        <time>2015-10-16T13:49:09Z</time>
      </trkpt>
      <trkpt lat="49.28444" lon="-0.21343">
        <ele>7</ele>
        <time>2015-10-16T13:49:11Z</time>
      </trkpt>
      <trkpt lat="49.28445" lon="-0.21339">
        <ele>6.8</ele>
        <time>2015-10-16T13:49:13Z</time>
      </trkpt>
      <trkpt lat="49.28446" lon="-0.21336">
        <ele>6.9</ele>
        <time>2015-10-16T13:49:15Z</time>
      </trkpt>
      <trkpt lat="49.28458" lon="-0.21296">
        <ele>7.5</ele>
        <time>2015-10-16T13:49:37Z</time>
      </trkpt>
      <trkpt lat="49.28458" lon="-0.21294">
        <ele>7.6</ele>
        <time>2015-10-16T13:49:38Z</time>
      </trkpt>
      <trkpt lat="49.2846" lon="-0.21284">
        <ele>7.8</ele>
        <time>2015-10-16T13:49:44Z</time>
      </trkpt>
      <trkpt lat="49.28459" lon="-0.21272">
        <ele>7.6</ele>
        <time>2015-10-16T13:49:51Z</time>
      </trkpt>
      <trkpt lat="49.28458" lon="-0.21245">
        <ele>7.5</ele>
        <time>2015-10-16T13:50:05Z</time>
      </trkpt>
      <trkpt lat="49.28458" lon="-0.21243">
        <ele>7.4</ele>
        <time>2015-10-16T13:50:06Z</time>
      </trkpt>
      <trkpt lat="49.2846" lon="-0.21235">
        <ele>7.3</ele>
        <time>2015-10-16T13:50:11Z</time>
      </trkpt>
      <trkpt lat="49.28461" lon="-0.2123">
        <ele>7.4</ele>
        <time>2015-10-16T13:50:14Z</time>
      </trkpt>
      <trkpt lat="49.28465" lon="-0.21219">
        <ele>7.8</ele>
        <time>2015-10-16T13:50:22Z</time>
      </trkpt>
      <trkpt lat="49.28465" lon="-0.21218">
        <ele>6.8</ele>
        <time>2015-10-16T13:50:24Z</time>
      </trkpt>
      <trkpt lat="49.28465" lon="-0.21218">
        <ele>6.5</ele>
        <time>2015-10-16T13:50:25Z</time>
      </trkpt>
      <trkpt lat="49.28465" lon="-0.21218">
        <ele>6.7</ele>
        <time>2015-10-16T13:50:26Z</time>
      </trkpt>
      <trkpt lat="49.28465" lon="-0.21218">
        <ele>6.8</ele>
        <time>2015-10-16T13:50:27Z</time>
      </trkpt>
      <trkpt lat="49.28465" lon="-0.21217">
        <ele>6.9</ele>
        <time>2015-10-16T13:50:28Z</time>
      </trkpt>
      <trkpt lat="49.28465" lon="-0.21217">
        <ele>6.6</ele>
        <time>2015-10-16T13:50:29Z</time>
      </trkpt>
      <trkpt lat="49.28464" lon="-0.21216">
        <ele>6.3</ele>
        <time>2015-10-16T13:50:30Z</time>
      </trkpt>
      <trkpt lat="49.28465" lon="-0.21216">
        <ele>6.1</ele>
        <time>2015-10-16T13:50:31Z</time>
      </trkpt>
      <trkpt lat="49.28465" lon="-0.21215">
        <ele>6.6</ele>
        <time>2015-10-16T13:50:32Z</time>
      </trkpt>
      <trkpt lat="49.28465" lon="-0.21213">
        <ele>7</ele>
        <time>2015-10-16T13:50:33Z</time>
      </trkpt>
      <trkpt lat="49.28466" lon="-0.21212">
        <ele>7.2</ele>
        <time>2015-10-16T13:50:34Z</time>
      </trkpt>
      <trkpt lat="49.28467" lon="-0.21211">
        <ele>7.2</ele>
        <time>2015-10-16T13:50:35Z</time>
      </trkpt>
      <trkpt lat="49.28469" lon="-0.2121">
        <ele>7.2</ele>
        <time>2015-10-16T13:50:37Z</time>
      </trkpt>
      <trkpt lat="49.28471" lon="-0.21211">
        <ele>7.2</ele>
        <time>2015-10-16T13:50:39Z</time>
      </trkpt>
      <trkpt lat="49.28473" lon="-0.21211">
        <ele>7.2</ele>
        <time>2015-10-16T13:50:40Z</time>
      </trkpt>
      <trkpt lat="49.28488" lon="-0.21219">
        <ele>7.2</ele>
        <time>2015-10-16T13:50:54Z</time>
      </trkpt>
      <trkpt lat="49.28522" lon="-0.21235">
        <ele>7.2</ele>
        <time>2015-10-16T13:51:21Z</time>
      </trkpt>
      <trkpt lat="49.28531" lon="-0.2124">
        <ele>7</ele>
        <time>2015-10-16T13:51:28Z</time>
      </trkpt>
      <trkpt lat="49.2854" lon="-0.21247">
        <ele>7.2</ele>
        <time>2015-10-16T13:51:35Z</time>
      </trkpt>
      <trkpt lat="49.28555" lon="-0.21256">
        <ele>7.2</ele>
        <time>2015-10-16T13:51:49Z</time>
      </trkpt>
      <trkpt lat="49.28556" lon="-0.21255">
        <ele>7.8</ele>
        <time>2015-10-16T13:51:50Z</time>
      </trkpt>
      <trkpt lat="49.28558" lon="-0.21255">
        <ele>8.6</ele>
        <time>2015-10-16T13:51:52Z</time>
      </trkpt>
      <trkpt lat="49.28558" lon="-0.21255">
        <ele>8.5</ele>
        <time>2015-10-16T13:51:53Z</time>
      </trkpt>
      <trkpt lat="49.28559" lon="-0.21255">
        <ele>8.4</ele>
        <time>2015-10-16T13:51:54Z</time>
      </trkpt>
      <trkpt lat="49.2856" lon="-0.21255">
        <ele>8.3</ele>
        <time>2015-10-16T13:51:55Z</time>
      </trkpt>
      <trkpt lat="49.28595" lon="-0.21245">
        <ele>7</ele>
        <time>2015-10-16T13:52:32Z</time>
      </trkpt>
      <trkpt lat="49.28597" lon="-0.21243">
        <ele>6.4</ele>
        <time>2015-10-16T13:52:35Z</time>
      </trkpt>
      <trkpt lat="49.28599" lon="-0.21242">
        <ele>6.1</ele>
        <time>2015-10-16T13:52:38Z</time>
      </trkpt>
      <trkpt lat="49.286" lon="-0.21242">
        <ele>6.2</ele>
        <time>2015-10-16T13:52:39Z</time>
      </trkpt>
      <trkpt lat="49.28604" lon="-0.21241">
        <ele>6</ele>
        <time>2015-10-16T13:52:45Z</time>
      </trkpt>
      <trkpt lat="49.28604" lon="-0.21241">
        <ele>5.9</ele>
        <time>2015-10-16T13:52:46Z</time>
      </trkpt>
      <trkpt lat="49.28604" lon="-0.21241">
        <ele>6</ele>
        <time>2015-10-16T13:52:47Z</time>
      </trkpt>
      <trkpt lat="49.28604" lon="-0.21242">
        <ele>6.1</ele>
        <time>2015-10-16T13:52:48Z</time>
      </trkpt>
      <trkpt lat="49.28604" lon="-0.21242">
        <ele>6.2</ele>
        <time>2015-10-16T13:52:49Z</time>
      </trkpt>
      <trkpt lat="49.28604" lon="-0.21242">
        <ele>6</ele>
        <time>2015-10-16T13:52:50Z</time>
      </trkpt>
      <trkpt lat="49.28604" lon="-0.21242">
        <ele>5.9</ele>
        <time>2015-10-16T13:52:51Z</time>
      </trkpt>
      <trkpt lat="49.28604" lon="-0.21242">
        <ele>5.8</ele>
        <time>2015-10-16T13:52:52Z</time>
      </trkpt>
      <trkpt lat="49.28605" lon="-0.21242">
        <ele>5.7</ele>
        <time>2015-10-16T13:52:53Z</time>
      </trkpt>
      <trkpt lat="49.28605" lon="-0.21241">
        <ele>5.7</ele>
        <time>2015-10-16T13:52:54Z</time>
      </trkpt>
      <trkpt lat="49.28632" lon="-0.21228">
        <ele>5.8</ele>
        <time>2015-10-16T13:53:20Z</time>
      </trkpt>
      <trkpt lat="49.28634" lon="-0.21226">
        <ele>5.7</ele>
        <time>2015-10-16T13:53:22Z</time>
      </trkpt>
      <trkpt lat="49.28636" lon="-0.21224">
        <ele>5.6</ele>
        <time>2015-10-16T13:53:27Z</time>
      </trkpt>
      <trkpt lat="49.28636" lon="-0.21225">
        <ele>5.6</ele>
        <time>2015-10-16T13:53:28Z</time>
      </trkpt>
      <trkpt lat="49.28636" lon="-0.21225">
        <ele>6</ele>
        <time>2015-10-16T13:53:29Z</time>
      </trkpt>
      <trkpt lat="49.28636" lon="-0.21225">
        <ele>6.3</ele>
        <time>2015-10-16T13:53:30Z</time>
      </trkpt>
      <trkpt lat="49.28636" lon="-0.21225">
        <ele>6.5</ele>
        <time>2015-10-16T13:53:31Z</time>
      </trkpt>
      <trkpt lat="49.28636" lon="-0.21225">
        <ele>6.5</ele>
        <time>2015-10-16T13:53:32Z</time>
      </trkpt>
      <trkpt lat="49.28636" lon="-0.21225">
        <ele>6.5</ele>
        <time>2015-10-16T13:53:33Z</time>
      </trkpt>
      <trkpt lat="49.28636" lon="-0.21225">
        <ele>6.4</ele>
        <time>2015-10-16T13:53:34Z</time>
      </trkpt>
      <trkpt lat="49.28637" lon="-0.21224">
        <ele>6.4</ele>
        <time>2015-10-16T13:53:35Z</time>
      </trkpt>
      <trkpt lat="49.28637" lon="-0.21224">
        <ele>6.4</ele>
        <time>2015-10-16T13:53:36Z</time>
      </trkpt>
      <trkpt lat="49.28638" lon="-0.21223">
        <ele>6.4</ele>
        <time>2015-10-16T13:53:37Z</time>
      </trkpt>
      <trkpt lat="49.28643" lon="-0.21216">
        <ele>5.7</ele>
        <time>2015-10-16T13:53:44Z</time>
      </trkpt>
      <trkpt lat="49.28648" lon="-0.21206">
        <ele>5.6</ele>
        <time>2015-10-16T13:53:52Z</time>
      </trkpt>
      <trkpt lat="49.28649" lon="-0.21205">
        <ele>5.8</ele>
        <time>2015-10-16T13:53:53Z</time>
      </trkpt>
      <trkpt lat="49.28657" lon="-0.21194">
        <ele>5.5</ele>
        <time>2015-10-16T13:54:04Z</time>
      </trkpt>
      <trkpt lat="49.28658" lon="-0.21193">
        <ele>5.5</ele>
        <time>2015-10-16T13:54:05Z</time>
      </trkpt>
      <trkpt lat="49.2866" lon="-0.21188">
        <ele>5.5</ele>
        <time>2015-10-16T13:54:09Z</time>
      </trkpt>
      <trkpt lat="49.28661" lon="-0.21186">
        <ele>5.3</ele>
        <time>2015-10-16T13:54:11Z</time>
      </trkpt>
      <trkpt lat="49.28667" lon="-0.21174">
        <ele>5.7</ele>
        <time>2015-10-16T13:54:20Z</time>
      </trkpt>
      <trkpt lat="49.28668" lon="-0.21167">
        <ele>6.2</ele>
        <time>2015-10-16T13:54:24Z</time>
      </trkpt>
      <trkpt lat="49.28673" lon="-0.21145">
        <ele>5.7</ele>
        <time>2015-10-16T13:54:38Z</time>
      </trkpt>
      <trkpt lat="49.28673" lon="-0.21143">
        <ele>5.7</ele>
        <time>2015-10-16T13:54:39Z</time>
      </trkpt>
      <trkpt lat="49.28675" lon="-0.21104">
        <ele>5.8</ele>
        <time>2015-10-16T13:55:02Z</time>
      </trkpt>
      <trkpt lat="49.28676" lon="-0.21103">
        <ele>5.9</ele>
        <time>2015-10-16T13:55:03Z</time>
      </trkpt>
      <trkpt lat="49.28677" lon="-0.21094">
        <ele>6.5</ele>
        <time>2015-10-16T13:55:08Z</time>
      </trkpt>
      <trkpt lat="49.28678" lon="-0.21076">
        <ele>5.9</ele>
        <time>2015-10-16T13:55:19Z</time>
      </trkpt>
      <trkpt lat="49.28678" lon="-0.21056">
        <ele>6.9</ele>
        <time>2015-10-16T13:55:31Z</time>
      </trkpt>
      <trkpt lat="49.28674" lon="-0.20988">
        <ele>5.7</ele>
        <time>2015-10-16T13:56:11Z</time>
      </trkpt>
      <trkpt lat="49.28675" lon="-0.20986">
        <ele>5.7</ele>
        <time>2015-10-16T13:56:12Z</time>
      </trkpt>
      <trkpt lat="49.28682" lon="-0.20848">
        <ele>6.5</ele>
        <time>2015-10-16T13:57:38Z</time>
      </trkpt>
      <trkpt lat="49.28681" lon="-0.20846">
        <ele>6.7</ele>
        <time>2015-10-16T13:57:39Z</time>
      </trkpt>
      <trkpt lat="49.28678" lon="-0.20818">
        <ele>5.8</ele>
        <time>2015-10-16T13:57:55Z</time>
      </trkpt>
      <trkpt lat="49.28679" lon="-0.20817">
        <ele>6</ele>
        <time>2015-10-16T13:57:56Z</time>
      </trkpt>
      <trkpt lat="49.28679" lon="-0.20813">
        <ele>6.1</ele>
        <time>2015-10-16T13:57:58Z</time>
      </trkpt>
      <trkpt lat="49.28679" lon="-0.20702">
        <ele>5.1</ele>
        <time>2015-10-16T13:59:09Z</time>
      </trkpt>
      <trkpt lat="49.28679" lon="-0.207">
        <ele>5</ele>
        <time>2015-10-16T13:59:10Z</time>
      </trkpt>
      <trkpt lat="49.28677" lon="-0.20675">
        <ele>4.7</ele>
        <time>2015-10-16T13:59:21Z</time>
      </trkpt>
      <trkpt lat="49.28677" lon="-0.20673">
        <ele>4.3</ele>
        <time>2015-10-16T13:59:22Z</time>
      </trkpt>
      <trkpt lat="49.28676" lon="-0.20633">
        <ele>7.2</ele>
        <time>2015-10-16T13:59:45Z</time>
      </trkpt>
      <trkpt lat="49.28677" lon="-0.20619">
        <ele>5.2</ele>
        <time>2015-10-16T13:59:54Z</time>
      </trkpt>
      <trkpt lat="49.28678" lon="-0.20613">
        <ele>5.6</ele>
        <time>2015-10-16T13:59:58Z</time>
      </trkpt>
      <trkpt lat="49.28678" lon="-0.20602">
        <ele>6.6</ele>
        <time>2015-10-16T14:00:05Z</time>
      </trkpt>
      <trkpt lat="49.28678" lon="-0.20596">
        <ele>7.4</ele>
        <time>2015-10-16T14:00:09Z</time>
      </trkpt>
      <trkpt lat="49.28678" lon="-0.20585">
        <ele>8.4</ele>
        <time>2015-10-16T14:00:16Z</time>
      </trkpt>
      <trkpt lat="49.28677" lon="-0.20584">
        <ele>8.1</ele>
        <time>2015-10-16T14:00:17Z</time>
      </trkpt>
      <trkpt lat="49.28668" lon="-0.20535">
        <ele>5.5</ele>
        <time>2015-10-16T14:00:47Z</time>
      </trkpt>
      <trkpt lat="49.28668" lon="-0.20533">
        <ele>5.3</ele>
        <time>2015-10-16T14:00:48Z</time>
      </trkpt>
      <trkpt lat="49.28667" lon="-0.2052">
        <ele>6.6</ele>
        <time>2015-10-16T14:00:55Z</time>
      </trkpt>
      <trkpt lat="49.28665" lon="-0.20479">
        <ele>6.4</ele>
        <time>2015-10-16T14:01:18Z</time>
      </trkpt>
      <trkpt lat="49.28665" lon="-0.20477">
        <ele>6.4</ele>
        <time>2015-10-16T14:01:19Z</time>
      </trkpt>
      <trkpt lat="49.28665" lon="-0.20456">
        <ele>6.3</ele>
        <time>2015-10-16T14:01:33Z</time>
      </trkpt>
      <trkpt lat="49.28666" lon="-0.20427">
        <ele>5.4</ele>
        <time>2015-10-16T14:01:51Z</time>
      </trkpt>
      <trkpt lat="49.28666" lon="-0.20424">
        <ele>4.7</ele>
        <time>2015-10-16T14:01:53Z</time>
      </trkpt>
      <trkpt lat="49.28665" lon="-0.20407">
        <ele>6.3</ele>
        <time>2015-10-16T14:02:03Z</time>
      </trkpt>
      <trkpt lat="49.28662" lon="-0.20374">
        <ele>6</ele>
        <time>2015-10-16T14:02:22Z</time>
      </trkpt>
      <trkpt lat="49.28662" lon="-0.20373">
        <ele>6.1</ele>
        <time>2015-10-16T14:02:23Z</time>
      </trkpt>
      <trkpt lat="49.28659" lon="-0.20363">
        <ele>6.3</ele>
        <time>2015-10-16T14:02:30Z</time>
      </trkpt>
      <trkpt lat="49.28651" lon="-0.20343">
        <ele>6.5</ele>
        <time>2015-10-16T14:02:46Z</time>
      </trkpt>
      <trkpt lat="49.28644" lon="-0.20327">
        <ele>6.4</ele>
        <time>2015-10-16T14:02:58Z</time>
      </trkpt>
      <trkpt lat="49.28634" lon="-0.20305">
        <ele>7.1</ele>
        <time>2015-10-16T14:03:17Z</time>
      </trkpt>
      <trkpt lat="49.28634" lon="-0.20306">
        <ele>7.2</ele>
        <time>2015-10-16T14:03:18Z</time>
      </trkpt>
      <trkpt lat="49.28634" lon="-0.20306">
        <ele>7.2</ele>
        <time>2015-10-16T14:03:19Z</time>
      </trkpt>
      <trkpt lat="49.28635" lon="-0.20306">
        <ele>7.2</ele>
        <time>2015-10-16T14:03:20Z</time>
      </trkpt>
      <trkpt lat="49.28635" lon="-0.20306">
        <ele>7.2</ele>
        <time>2015-10-16T14:03:21Z</time>
      </trkpt>
      <trkpt lat="49.28635" lon="-0.20306">
        <ele>7.2</ele>
        <time>2015-10-16T14:03:22Z</time>
      </trkpt>
      <trkpt lat="49.28635" lon="-0.20306">
        <ele>7.2</ele>
        <time>2015-10-16T14:03:23Z</time>
      </trkpt>
      <trkpt lat="49.28635" lon="-0.20306">
        <ele>7.2</ele>
        <time>2015-10-16T14:03:24Z</time>
      </trkpt>
      <trkpt lat="49.28635" lon="-0.20306">
        <ele>7.2</ele>
        <time>2015-10-16T14:03:25Z</time>
      </trkpt>
      <trkpt lat="49.28635" lon="-0.20306">
        <ele>7.2</ele>
        <time>2015-10-16T14:03:26Z</time>
      </trkpt>
      <trkpt lat="49.28635" lon="-0.20306">
        <ele>7</ele>
        <time>2015-10-16T14:03:27Z</time>
      </trkpt>
      <trkpt lat="49.28635" lon="-0.20306">
        <ele>6.8</ele>
        <time>2015-10-16T14:03:28Z</time>
      </trkpt>
      <trkpt lat="49.28635" lon="-0.20306">
        <ele>6.7</ele>
        <time>2015-10-16T14:03:29Z</time>
      </trkpt>
      <trkpt lat="49.28635" lon="-0.20306">
        <ele>6.6</ele>
        <time>2015-10-16T14:03:30Z</time>
      </trkpt>
      <trkpt lat="49.28635" lon="-0.20306">
        <ele>6.6</ele>
        <time>2015-10-16T14:03:31Z</time>
      </trkpt>
      <trkpt lat="49.28635" lon="-0.20306">
        <ele>6.5</ele>
        <time>2015-10-16T14:03:32Z</time>
      </trkpt>
      <trkpt lat="49.28635" lon="-0.20306">
        <ele>6.5</ele>
        <time>2015-10-16T14:03:33Z</time>
      </trkpt>
      <trkpt lat="49.28635" lon="-0.20306">
        <ele>6.5</ele>
        <time>2015-10-16T14:03:34Z</time>
      </trkpt>
      <trkpt lat="49.28635" lon="-0.20306">
        <ele>6.4</ele>
        <time>2015-10-16T14:03:35Z</time>
      </trkpt>
      <trkpt lat="49.28635" lon="-0.20306">
        <ele>6.4</ele>
        <time>2015-10-16T14:03:36Z</time>
      </trkpt>
      <trkpt lat="49.28635" lon="-0.20306">
        <ele>6.4</ele>
        <time>2015-10-16T14:03:37Z</time>
      </trkpt>
      <trkpt lat="49.28635" lon="-0.20306">
        <ele>6.4</ele>
        <time>2015-10-16T14:03:38Z</time>
      </trkpt>
      <trkpt lat="49.28635" lon="-0.20307">
        <ele>6.4</ele>
        <time>2015-10-16T14:03:39Z</time>
      </trkpt>
      <trkpt lat="49.28635" lon="-0.20307">
        <ele>6.4</ele>
        <time>2015-10-16T14:03:40Z</time>
      </trkpt>
      <trkpt lat="49.28635" lon="-0.20307">
        <ele>6.4</ele>
        <time>2015-10-16T14:03:41Z</time>
      </trkpt>
      <trkpt lat="49.28635" lon="-0.20307">
        <ele>6.6</ele>
        <time>2015-10-16T14:03:42Z</time>
      </trkpt>
      <trkpt lat="49.28635" lon="-0.20308">
        <ele>6.7</ele>
        <time>2015-10-16T14:03:43Z</time>
      </trkpt>
      <trkpt lat="49.28635" lon="-0.20308">
        <ele>6.9</ele>
        <time>2015-10-16T14:03:44Z</time>
      </trkpt>
      <trkpt lat="49.28634" lon="-0.20308">
        <ele>6.9</ele>
        <time>2015-10-16T14:03:45Z</time>
      </trkpt>
      <trkpt lat="49.28634" lon="-0.20308">
        <ele>7</ele>
        <time>2015-10-16T14:03:46Z</time>
      </trkpt>
      <trkpt lat="49.28634" lon="-0.20308">
        <ele>7.1</ele>
        <time>2015-10-16T14:03:47Z</time>
      </trkpt>
      <trkpt lat="49.28634" lon="-0.20308">
        <ele>7.1</ele>
        <time>2015-10-16T14:03:48Z</time>
      </trkpt>
      <trkpt lat="49.28634" lon="-0.20308">
        <ele>7.1</ele>
        <time>2015-10-16T14:03:49Z</time>
      </trkpt>
      <trkpt lat="49.28634" lon="-0.20308">
        <ele>7.1</ele>
        <time>2015-10-16T14:03:50Z</time>
      </trkpt>
      <trkpt lat="49.28633" lon="-0.20308">
        <ele>6.9</ele>
        <time>2015-10-16T14:03:51Z</time>
      </trkpt>
      <trkpt lat="49.28632" lon="-0.20307">
        <ele>6.8</ele>
        <time>2015-10-16T14:03:52Z</time>
      </trkpt>
      <trkpt lat="49.28632" lon="-0.20307">
        <ele>6.7</ele>
        <time>2015-10-16T14:03:53Z</time>
      </trkpt>
      <trkpt lat="49.28629" lon="-0.20304">
        <ele>7</ele>
        <time>2015-10-16T14:03:56Z</time>
      </trkpt>
      <trkpt lat="49.28628" lon="-0.20302">
        <ele>6.7</ele>
        <time>2015-10-16T14:03:58Z</time>
      </trkpt>
      <trkpt lat="49.28627" lon="-0.20298">
        <ele>6.5</ele>
        <time>2015-10-16T14:04:01Z</time>
      </trkpt>
      <trkpt lat="49.28623" lon="-0.20282">
        <ele>7.7</ele>
        <time>2015-10-16T14:04:12Z</time>
      </trkpt>
      <trkpt lat="49.28623" lon="-0.20281">
        <ele>7.8</ele>
        <time>2015-10-16T14:04:13Z</time>
      </trkpt>
      <trkpt lat="49.28619" lon="-0.20273">
        <ele>7.2</ele>
        <time>2015-10-16T14:04:18Z</time>
      </trkpt>
      <trkpt lat="49.28619" lon="-0.20272">
        <ele>7</ele>
        <time>2015-10-16T14:04:19Z</time>
      </trkpt>
      <trkpt lat="49.28616" lon="-0.20269">
        <ele>7.7</ele>
        <time>2015-10-16T14:04:22Z</time>
      </trkpt>
      <trkpt lat="49.28615" lon="-0.20268">
        <ele>8</ele>
        <time>2015-10-16T14:04:24Z</time>
      </trkpt>
      <trkpt lat="49.28614" lon="-0.20267">
        <ele>8</ele>
        <time>2015-10-16T14:04:25Z</time>
      </trkpt>
      <trkpt lat="49.28596" lon="-0.2026">
        <ele>9.6</ele>
        <time>2015-10-16T14:04:42Z</time>
      </trkpt>
      <trkpt lat="49.28588" lon="-0.20257">
        <ele>9.3</ele>
        <time>2015-10-16T14:04:48Z</time>
      </trkpt>
      <trkpt lat="49.28586" lon="-0.20257">
        <ele>9.5</ele>
        <time>2015-10-16T14:04:50Z</time>
      </trkpt>
      <trkpt lat="49.28557" lon="-0.20256">
        <ele>8.9</ele>
        <time>2015-10-16T14:05:12Z</time>
      </trkpt>
      <trkpt lat="49.28555" lon="-0.20258">
        <ele>9.2</ele>
        <time>2015-10-16T14:05:16Z</time>
      </trkpt>
      <trkpt lat="49.28554" lon="-0.20259">
        <ele>9.3</ele>
        <time>2015-10-16T14:05:17Z</time>
      </trkpt>
      <trkpt lat="49.28553" lon="-0.20259">
        <ele>9.2</ele>
        <time>2015-10-16T14:05:18Z</time>
      </trkpt>
      <trkpt lat="49.28552" lon="-0.2026">
        <ele>9.1</ele>
        <time>2015-10-16T14:05:19Z</time>
      </trkpt>
      <trkpt lat="49.2855" lon="-0.2026">
        <ele>9.1</ele>
        <time>2015-10-16T14:05:20Z</time>
      </trkpt>
      <trkpt lat="49.28549" lon="-0.20261">
        <ele>9</ele>
        <time>2015-10-16T14:05:21Z</time>
      </trkpt>
      <trkpt lat="49.28547" lon="-0.20261">
        <ele>9</ele>
        <time>2015-10-16T14:05:22Z</time>
      </trkpt>
      <trkpt lat="49.28546" lon="-0.20261">
        <ele>8.9</ele>
        <time>2015-10-16T14:05:23Z</time>
      </trkpt>
      <trkpt lat="49.28518" lon="-0.20261">
        <ele>9.2</ele>
        <time>2015-10-16T14:05:45Z</time>
      </trkpt>
      <trkpt lat="49.28517" lon="-0.20261">
        <ele>8.9</ele>
        <time>2015-10-16T14:05:46Z</time>
      </trkpt>
      <trkpt lat="49.28468" lon="-0.20254">
        <ele>7.7</ele>
        <time>2015-10-16T14:06:30Z</time>
      </trkpt>
      <trkpt lat="49.28466" lon="-0.20254">
        <ele>7.5</ele>
        <time>2015-10-16T14:06:32Z</time>
      </trkpt>
      <trkpt lat="49.28455" lon="-0.20252">
        <ele>7.4</ele>
        <time>2015-10-16T14:06:43Z</time>
      </trkpt>
      <trkpt lat="49.28446" lon="-0.20253">
        <ele>6.9</ele>
        <time>2015-10-16T14:06:52Z</time>
      </trkpt>
      <trkpt lat="49.28445" lon="-0.20253">
        <ele>6.7</ele>
        <time>2015-10-16T14:06:53Z</time>
      </trkpt>
      <trkpt lat="49.28442" lon="-0.20255">
        <ele>7.2</ele>
        <time>2015-10-16T14:06:58Z</time>
      </trkpt>
      <trkpt lat="49.28441" lon="-0.20255">
        <ele>7.4</ele>
        <time>2015-10-16T14:06:59Z</time>
      </trkpt>
      <trkpt lat="49.28441" lon="-0.20255">
        <ele>7.3</ele>
        <time>2015-10-16T14:07:00Z</time>
      </trkpt>
      <trkpt lat="49.28441" lon="-0.20255">
        <ele>7.3</ele>
        <time>2015-10-16T14:07:01Z</time>
      </trkpt>
      <trkpt lat="49.28441" lon="-0.20255">
        <ele>7.3</ele>
        <time>2015-10-16T14:07:02Z</time>
      </trkpt>
      <trkpt lat="49.28441" lon="-0.20255">
        <ele>7.1</ele>
        <time>2015-10-16T14:07:03Z</time>
      </trkpt>
      <trkpt lat="49.28441" lon="-0.20255">
        <ele>6.9</ele>
        <time>2015-10-16T14:07:04Z</time>
      </trkpt>
      <trkpt lat="49.28441" lon="-0.20255">
        <ele>6.8</ele>
        <time>2015-10-16T14:07:05Z</time>
      </trkpt>
      <trkpt lat="49.28441" lon="-0.20255">
        <ele>6.7</ele>
        <time>2015-10-16T14:07:06Z</time>
      </trkpt>
      <trkpt lat="49.28441" lon="-0.20255">
        <ele>6.6</ele>
        <time>2015-10-16T14:07:07Z</time>
      </trkpt>
      <trkpt lat="49.28441" lon="-0.20255">
        <ele>6.5</ele>
        <time>2015-10-16T14:07:08Z</time>
      </trkpt>
      <trkpt lat="49.28441" lon="-0.20255">
        <ele>6.7</ele>
        <time>2015-10-16T14:07:09Z</time>
      </trkpt>
      <trkpt lat="49.28441" lon="-0.20255">
        <ele>6.8</ele>
        <time>2015-10-16T14:07:10Z</time>
      </trkpt>
      <trkpt lat="49.28441" lon="-0.20255">
        <ele>6.9</ele>
        <time>2015-10-16T14:07:11Z</time>
      </trkpt>
      <trkpt lat="49.28441" lon="-0.20255">
        <ele>7</ele>
        <time>2015-10-16T14:07:12Z</time>
      </trkpt>
      <trkpt lat="49.28441" lon="-0.20255">
        <ele>7</ele>
        <time>2015-10-16T14:07:13Z</time>
      </trkpt>
      <trkpt lat="49.28441" lon="-0.20255">
        <ele>7.1</ele>
        <time>2015-10-16T14:07:14Z</time>
      </trkpt>
      <trkpt lat="49.28441" lon="-0.20255">
        <ele>7.3</ele>
        <time>2015-10-16T14:07:15Z</time>
      </trkpt>
      <trkpt lat="49.28441" lon="-0.20255">
        <ele>7.5</ele>
        <time>2015-10-16T14:07:16Z</time>
      </trkpt>
      <trkpt lat="49.28441" lon="-0.20255">
        <ele>7.6</ele>
        <time>2015-10-16T14:07:17Z</time>
      </trkpt>
      <trkpt lat="49.28441" lon="-0.20255">
        <ele>7.4</ele>
        <time>2015-10-16T14:07:19Z</time>
      </trkpt>
      <trkpt lat="49.28441" lon="-0.20255">
        <ele>7.4</ele>
        <time>2015-10-16T14:07:20Z</time>
      </trkpt>
      <trkpt lat="49.28441" lon="-0.20255">
        <ele>7.5</ele>
        <time>2015-10-16T14:07:21Z</time>
      </trkpt>
      <trkpt lat="49.28441" lon="-0.20255">
        <ele>7.7</ele>
        <time>2015-10-16T14:07:22Z</time>
      </trkpt>
      <trkpt lat="49.28441" lon="-0.20255">
        <ele>7.8</ele>
        <time>2015-10-16T14:07:23Z</time>
      </trkpt>
      <trkpt lat="49.28441" lon="-0.20255">
        <ele>7.4</ele>
        <time>2015-10-16T14:07:24Z</time>
      </trkpt>
      <trkpt lat="49.28441" lon="-0.20255">
        <ele>7</ele>
        <time>2015-10-16T14:07:26Z</time>
      </trkpt>
      <trkpt lat="49.28441" lon="-0.20255">
        <ele>6.8</ele>
        <time>2015-10-16T14:07:27Z</time>
      </trkpt>
      <trkpt lat="49.28441" lon="-0.20255">
        <ele>6.7</ele>
        <time>2015-10-16T14:07:28Z</time>
      </trkpt>
      <trkpt lat="49.28441" lon="-0.20255">
        <ele>6.6</ele>
        <time>2015-10-16T14:07:29Z</time>
      </trkpt>
      <trkpt lat="49.28441" lon="-0.20255">
        <ele>7</ele>
        <time>2015-10-16T14:07:30Z</time>
      </trkpt>
      <trkpt lat="49.28441" lon="-0.20255">
        <ele>7.2</ele>
        <time>2015-10-16T14:07:31Z</time>
      </trkpt>
      <trkpt lat="49.28441" lon="-0.20255">
        <ele>7.4</ele>
        <time>2015-10-16T14:07:32Z</time>
      </trkpt>
      <trkpt lat="49.28441" lon="-0.20255">
        <ele>2.8</ele>
        <time>2015-10-16T14:07:33Z</time>
      </trkpt>
      <trkpt lat="49.28441" lon="-0.20255">
        <ele>-0.5</ele>
        <time>2015-10-16T14:07:34Z</time>
      </trkpt>
      <trkpt lat="49.28441" lon="-0.20255">
        <ele>-3.1</ele>
        <time>2015-10-16T14:07:35Z</time>
      </trkpt>
      <trkpt lat="49.28441" lon="-0.20254">
        <ele>-0.5</ele>
        <time>2015-10-16T14:07:36Z</time>
      </trkpt>
      <trkpt lat="49.28441" lon="-0.20254">
        <ele>1.3</ele>
        <time>2015-10-16T14:07:37Z</time>
      </trkpt>
      <trkpt lat="49.28441" lon="-0.20254">
        <ele>2.8</ele>
        <time>2015-10-16T14:07:38Z</time>
      </trkpt>
      <trkpt lat="49.2844" lon="-0.20254">
        <ele>2.7</ele>
        <time>2015-10-16T14:07:39Z</time>
      </trkpt>
      <trkpt lat="49.2844" lon="-0.20254">
        <ele>2.7</ele>
        <time>2015-10-16T14:07:39Z</time>
      </trkpt>
      <trkpt lat="49.28598" lon="-0.2026">
        <ele>8.3</ele>
        <time>2015-10-16T14:49:42Z</time>
      </trkpt>
      <trkpt lat="49.28599" lon="-0.2026">
        <ele>8.3</ele>
        <time>2015-10-16T14:49:43Z</time>
      </trkpt>
      <trkpt lat="49.28602" lon="-0.20262">
        <ele>8.2</ele>
        <time>2015-10-16T14:49:46Z</time>
      </trkpt>
      <trkpt lat="49.28609" lon="-0.20264">
        <ele>8.2</ele>
        <time>2015-10-16T14:49:53Z</time>
      </trkpt>
      <trkpt lat="49.28614" lon="-0.20264">
        <ele>8.3</ele>
        <time>2015-10-16T14:49:58Z</time>
      </trkpt>
      <trkpt lat="49.28615" lon="-0.20263">
        <ele>8.3</ele>
        <time>2015-10-16T14:49:59Z</time>
      </trkpt>
      <trkpt lat="49.28616" lon="-0.20262">
        <ele>8.3</ele>
        <time>2015-10-16T14:50:00Z</time>
      </trkpt>
      <trkpt lat="49.28617" lon="-0.20261">
        <ele>8.3</ele>
        <time>2015-10-16T14:50:01Z</time>
      </trkpt>
      <trkpt lat="49.28618" lon="-0.2026">
        <ele>8.3</ele>
        <time>2015-10-16T14:50:02Z</time>
      </trkpt>
      <trkpt lat="49.28618" lon="-0.20258">
        <ele>8.3</ele>
        <time>2015-10-16T14:50:03Z</time>
      </trkpt>
      <trkpt lat="49.28619" lon="-0.20256">
        <ele>8.3</ele>
        <time>2015-10-16T14:50:04Z</time>
      </trkpt>
      <trkpt lat="49.28619" lon="-0.20254">
        <ele>8.3</ele>
        <time>2015-10-16T14:50:05Z</time>
      </trkpt>
      <trkpt lat="49.2862" lon="-0.20253">
        <ele>8.3</ele>
        <time>2015-10-16T14:50:06Z</time>
      </trkpt>
      <trkpt lat="49.2862" lon="-0.20251">
        <ele>8.3</ele>
        <time>2015-10-16T14:50:07Z</time>
      </trkpt>
      <trkpt lat="49.2862" lon="-0.20249">
        <ele>8.3</ele>
        <time>2015-10-16T14:50:08Z</time>
      </trkpt>
      <trkpt lat="49.2862" lon="-0.20247">
        <ele>8.3</ele>
        <time>2015-10-16T14:50:09Z</time>
      </trkpt>
      <trkpt lat="49.28621" lon="-0.20245">
        <ele>8.3</ele>
        <time>2015-10-16T14:50:10Z</time>
      </trkpt>
      <trkpt lat="49.28621" lon="-0.20243">
        <ele>8.3</ele>
        <time>2015-10-16T14:50:11Z</time>
      </trkpt>
      <trkpt lat="49.28622" lon="-0.20241">
        <ele>8.3</ele>
        <time>2015-10-16T14:50:12Z</time>
      </trkpt>
      <trkpt lat="49.28622" lon="-0.20239">
        <ele>8.3</ele>
        <time>2015-10-16T14:50:13Z</time>
      </trkpt>
      <trkpt lat="49.28627" lon="-0.20219">
        <ele>8.2</ele>
        <time>2015-10-16T14:50:24Z</time>
      </trkpt>
      <trkpt lat="49.28628" lon="-0.20209">
        <ele>8</ele>
        <time>2015-10-16T14:50:29Z</time>
      </trkpt>
      <trkpt lat="49.28642" lon="-0.20049">
        <ele>4.7</ele>
        <time>2015-10-16T14:51:56Z</time>
      </trkpt>
      <trkpt lat="49.28641" lon="-0.20047">
        <ele>4.7</ele>
        <time>2015-10-16T14:51:57Z</time>
      </trkpt>
      <trkpt lat="49.28641" lon="-0.20045">
        <ele>4.7</ele>
        <time>2015-10-16T14:51:58Z</time>
      </trkpt>
      <trkpt lat="49.28641" lon="-0.20036">
        <ele>4.5</ele>
        <time>2015-10-16T14:52:03Z</time>
      </trkpt>
      <trkpt lat="49.28641" lon="-0.20035">
        <ele>4.5</ele>
        <time>2015-10-16T14:52:04Z</time>
      </trkpt>
      <trkpt lat="49.28641" lon="-0.20004">
        <ele>3.8</ele>
        <time>2015-10-16T14:52:21Z</time>
      </trkpt>
      <trkpt lat="49.28641" lon="-0.20003">
        <ele>3.8</ele>
        <time>2015-10-16T14:52:22Z</time>
      </trkpt>
      <trkpt lat="49.28642" lon="-0.20001">
        <ele>3.7</ele>
        <time>2015-10-16T14:52:23Z</time>
      </trkpt>
      <trkpt lat="49.28642" lon="-0.19999">
        <ele>3.7</ele>
        <time>2015-10-16T14:52:24Z</time>
      </trkpt>
      <trkpt lat="49.28652" lon="-0.19967">
        <ele>2.6</ele>
        <time>2015-10-16T14:52:43Z</time>
      </trkpt>
      <trkpt lat="49.28652" lon="-0.19965">
        <ele>2.6</ele>
        <time>2015-10-16T14:52:44Z</time>
      </trkpt>
      <trkpt lat="49.28666" lon="-0.1993">
        <ele>1.3</ele>
        <time>2015-10-16T14:53:05Z</time>
      </trkpt>
      <trkpt lat="49.28667" lon="-0.19928">
        <ele>1.3</ele>
        <time>2015-10-16T14:53:06Z</time>
      </trkpt>
      <trkpt lat="49.28671" lon="-0.19897">
        <ele>0.6</ele>
        <time>2015-10-16T14:53:23Z</time>
      </trkpt>
      <trkpt lat="49.28671" lon="-0.19887">
        <ele>0.4</ele>
        <time>2015-10-16T14:53:28Z</time>
      </trkpt>
      <trkpt lat="49.2867" lon="-0.19858">
        <ele>0.2</ele>
        <time>2015-10-16T14:53:42Z</time>
      </trkpt>
      <trkpt lat="49.28662" lon="-0.19696">
        <ele>1.6</ele>
        <time>2015-10-16T14:55:00Z</time>
      </trkpt>
      <trkpt lat="49.28662" lon="-0.19696">
        <ele>1.6</ele>
        <time>2015-10-16T14:55:01Z</time>
      </trkpt>
      <trkpt lat="49.28662" lon="-0.19696">
        <ele>1.5</ele>
        <time>2015-10-16T14:55:02Z</time>
      </trkpt>
      <trkpt lat="49.28662" lon="-0.19696">
        <ele>1.5</ele>
        <time>2015-10-16T14:55:03Z</time>
      </trkpt>
      <trkpt lat="49.28662" lon="-0.19696">
        <ele>1.5</ele>
        <time>2015-10-16T14:55:04Z</time>
      </trkpt>
      <trkpt lat="49.28662" lon="-0.19696">
        <ele>1.5</ele>
        <time>2015-10-16T14:55:05Z</time>
      </trkpt>
      <trkpt lat="49.28662" lon="-0.19696">
        <ele>1.5</ele>
        <time>2015-10-16T14:55:06Z</time>
      </trkpt>
      <trkpt lat="49.28663" lon="-0.19696">
        <ele>1.5</ele>
        <time>2015-10-16T14:55:07Z</time>
      </trkpt>
      <trkpt lat="49.28663" lon="-0.19697">
        <ele>1.5</ele>
        <time>2015-10-16T14:55:08Z</time>
      </trkpt>
      <trkpt lat="49.28663" lon="-0.19696">
        <ele>1.5</ele>
        <time>2015-10-16T14:55:09Z</time>
      </trkpt>
      <trkpt lat="49.28663" lon="-0.19695">
        <ele>1.4</ele>
        <time>2015-10-16T14:55:10Z</time>
      </trkpt>
      <trkpt lat="49.2866" lon="-0.19612">
        <ele>2.5</ele>
        <time>2015-10-16T14:55:50Z</time>
      </trkpt>
      <trkpt lat="49.28659" lon="-0.1961">
        <ele>2.5</ele>
        <time>2015-10-16T14:55:51Z</time>
      </trkpt>
      <trkpt lat="49.28659" lon="-0.19606">
        <ele>2.6</ele>
        <time>2015-10-16T14:55:53Z</time>
      </trkpt>
      <trkpt lat="49.28658" lon="-0.19602">
        <ele>2.6</ele>
        <time>2015-10-16T14:55:55Z</time>
      </trkpt>
      <trkpt lat="49.28657" lon="-0.19549">
        <ele>2.7</ele>
        <time>2015-10-16T14:56:21Z</time>
      </trkpt>
      <trkpt lat="49.28657" lon="-0.19547">
        <ele>2.7</ele>
        <time>2015-10-16T14:56:22Z</time>
      </trkpt>
      <trkpt lat="49.28658" lon="-0.19527">
        <ele>2.6</ele>
        <time>2015-10-16T14:56:32Z</time>
      </trkpt>
      <trkpt lat="49.28658" lon="-0.1952">
        <ele>2.6</ele>
        <time>2015-10-16T14:56:35Z</time>
      </trkpt>
      <trkpt lat="49.28657" lon="-0.19387">
        <ele>2.7</ele>
        <time>2015-10-16T14:57:34Z</time>
      </trkpt>
      <trkpt lat="49.28657" lon="-0.19385">
        <ele>2.7</ele>
        <time>2015-10-16T14:57:35Z</time>
      </trkpt>
      <trkpt lat="49.28644" lon="-0.18766">
        <ele>4.4</ele>
        <time>2015-10-16T15:02:13Z</time>
      </trkpt>
      <trkpt lat="49.28643" lon="-0.18734">
        <ele>3.6</ele>
        <time>2015-10-16T15:02:29Z</time>
      </trkpt>
      <trkpt lat="49.28646" lon="-0.18473">
        <ele>3.6</ele>
        <time>2015-10-16T15:04:34Z</time>
      </trkpt>
      <trkpt lat="49.28646" lon="-0.18471">
        <ele>3.9</ele>
        <time>2015-10-16T15:04:35Z</time>
      </trkpt>
      <trkpt lat="49.28647" lon="-0.1844">
        <ele>0.4</ele>
        <time>2015-10-16T15:04:53Z</time>
      </trkpt>
      <trkpt lat="49.28647" lon="-0.1844">
        <ele>-0.3</ele>
        <time>2015-10-16T15:04:54Z</time>
      </trkpt>
      <trkpt lat="49.28647" lon="-0.18438">
        <ele>-0.9</ele>
        <time>2015-10-16T15:04:55Z</time>
      </trkpt>
      <trkpt lat="49.28652" lon="-0.18239">
        <ele>3.1</ele>
        <time>2015-10-16T15:06:35Z</time>
      </trkpt>
      <trkpt lat="49.28652" lon="-0.18238">
        <ele>3.1</ele>
        <time>2015-10-16T15:06:36Z</time>
      </trkpt>
      <trkpt lat="49.28648" lon="-0.18073">
        <ele>4.2</ele>
        <time>2015-10-16T15:07:59Z</time>
      </trkpt>
      <trkpt lat="49.28648" lon="-0.18071">
        <ele>4.3</ele>
        <time>2015-10-16T15:08:00Z</time>
      </trkpt>
      <trkpt lat="49.28647" lon="-0.17862">
        <ele>3.8</ele>
        <time>2015-10-16T15:09:48Z</time>
      </trkpt>
      <trkpt lat="49.28647" lon="-0.17862">
        <ele>4.2</ele>
        <time>2015-10-16T15:09:49Z</time>
      </trkpt>
      <trkpt lat="49.28647" lon="-0.17862">
        <ele>4.3</ele>
        <time>2015-10-16T15:09:50Z</time>
      </trkpt>
      <trkpt lat="49.28647" lon="-0.17862">
        <ele>4.4</ele>
        <time>2015-10-16T15:09:51Z</time>
      </trkpt>
      <trkpt lat="49.28647" lon="-0.17862">
        <ele>4.5</ele>
        <time>2015-10-16T15:09:52Z</time>
      </trkpt>
      <trkpt lat="49.28646" lon="-0.17861">
        <ele>3.3</ele>
        <time>2015-10-16T15:09:53Z</time>
      </trkpt>
      <trkpt lat="49.28639" lon="-0.17852">
        <ele>2.5</ele>
        <time>2015-10-16T15:10:02Z</time>
      </trkpt>
      <trkpt lat="49.28639" lon="-0.17852">
        <ele>2.7</ele>
        <time>2015-10-16T15:10:03Z</time>
      </trkpt>
      <trkpt lat="49.28639" lon="-0.17852">
        <ele>2.8</ele>
        <time>2015-10-16T15:10:04Z</time>
      </trkpt>
      <trkpt lat="49.28639" lon="-0.17852">
        <ele>2.6</ele>
        <time>2015-10-16T15:10:05Z</time>
      </trkpt>
      <trkpt lat="49.28639" lon="-0.17852">
        <ele>2.5</ele>
        <time>2015-10-16T15:10:06Z</time>
      </trkpt>
      <trkpt lat="49.28639" lon="-0.17852">
        <ele>2.5</ele>
        <time>2015-10-16T15:10:07Z</time>
      </trkpt>
      <trkpt lat="49.28639" lon="-0.17852">
        <ele>2.4</ele>
        <time>2015-10-16T15:10:08Z</time>
      </trkpt>
      <trkpt lat="49.28639" lon="-0.17852">
        <ele>2.4</ele>
        <time>2015-10-16T15:10:09Z</time>
      </trkpt>
      <trkpt lat="49.28639" lon="-0.17852">
        <ele>2.3</ele>
        <time>2015-10-16T15:10:10Z</time>
      </trkpt>
      <trkpt lat="49.28639" lon="-0.17851">
        <ele>2.5</ele>
        <time>2015-10-16T15:10:11Z</time>
      </trkpt>
      <trkpt lat="49.28639" lon="-0.17851">
        <ele>2.6</ele>
        <time>2015-10-16T15:10:12Z</time>
      </trkpt>
      <trkpt lat="49.28639" lon="-0.17851">
        <ele>2.8</ele>
        <time>2015-10-16T15:10:13Z</time>
      </trkpt>
      <trkpt lat="49.28639" lon="-0.17844">
        <ele>2.8</ele>
        <time>2015-10-16T15:10:17Z</time>
      </trkpt>
      <trkpt lat="49.28639" lon="-0.17843">
        <ele>3.1</ele>
        <time>2015-10-16T15:10:18Z</time>
      </trkpt>
      <trkpt lat="49.28649" lon="-0.17802">
        <ele>3.3</ele>
        <time>2015-10-16T15:10:40Z</time>
      </trkpt>
      <trkpt lat="49.2865" lon="-0.17792">
        <ele>1.2</ele>
        <time>2015-10-16T15:10:45Z</time>
      </trkpt>
      <trkpt lat="49.28653" lon="-0.17747">
        <ele>3.8</ele>
        <time>2015-10-16T15:11:07Z</time>
      </trkpt>
      <trkpt lat="49.28653" lon="-0.17745">
        <ele>3.6</ele>
        <time>2015-10-16T15:11:08Z</time>
      </trkpt>
      <trkpt lat="49.28667" lon="-0.17145">
        <ele>2.4</ele>
        <time>2015-10-16T15:16:07Z</time>
      </trkpt>
      <trkpt lat="49.28664" lon="-0.17107">
        <ele>3.1</ele>
        <time>2015-10-16T15:16:28Z</time>
      </trkpt>
      <trkpt lat="49.28665" lon="-0.171">
        <ele>2.3</ele>
        <time>2015-10-16T15:16:32Z</time>
      </trkpt>
      <trkpt lat="49.28667" lon="-0.17046">
        <ele>2.1</ele>
        <time>2015-10-16T15:17:01Z</time>
      </trkpt>
      <trkpt lat="49.28681" lon="-0.16842">
        <ele>2.5</ele>
        <time>2015-10-16T15:18:45Z</time>
      </trkpt>
      <trkpt lat="49.28681" lon="-0.1684">
        <ele>2.6</ele>
        <time>2015-10-16T15:18:46Z</time>
      </trkpt>
      <trkpt lat="49.28682" lon="-0.16787">
        <ele>3.3</ele>
        <time>2015-10-16T15:19:13Z</time>
      </trkpt>
      <trkpt lat="49.28682" lon="-0.1678">
        <ele>3.4</ele>
        <time>2015-10-16T15:19:16Z</time>
      </trkpt>
      <trkpt lat="49.28683" lon="-0.1677">
        <ele>2.5</ele>
        <time>2015-10-16T15:19:21Z</time>
      </trkpt>
      <trkpt lat="49.28683" lon="-0.16768">
        <ele>1.6</ele>
        <time>2015-10-16T15:19:22Z</time>
      </trkpt>
      <trkpt lat="49.28682" lon="-0.16758">
        <ele>2.5</ele>
        <time>2015-10-16T15:19:27Z</time>
      </trkpt>
      <trkpt lat="49.28683" lon="-0.16756">
        <ele>2.5</ele>
        <time>2015-10-16T15:19:28Z</time>
      </trkpt>
      <trkpt lat="49.28685" lon="-0.16747">
        <ele>0.7</ele>
        <time>2015-10-16T15:19:33Z</time>
      </trkpt>
      <trkpt lat="49.28694" lon="-0.16718">
        <ele>1</ele>
        <time>2015-10-16T15:19:49Z</time>
      </trkpt>
      <trkpt lat="49.28695" lon="-0.16716">
        <ele>1.1</ele>
        <time>2015-10-16T15:19:50Z</time>
      </trkpt>
      <trkpt lat="49.28705" lon="-0.16663">
        <ele>0.3</ele>
        <time>2015-10-16T15:20:18Z</time>
      </trkpt>
      <trkpt lat="49.28705" lon="-0.16661">
        <ele>0.4</ele>
        <time>2015-10-16T15:20:19Z</time>
      </trkpt>
      <trkpt lat="49.28715" lon="-0.16584">
        <ele>1</ele>
        <time>2015-10-16T15:20:57Z</time>
      </trkpt>
      <trkpt lat="49.28715" lon="-0.16582">
        <ele>0.9</ele>
        <time>2015-10-16T15:20:58Z</time>
      </trkpt>
      <trkpt lat="49.2872" lon="-0.16473">
        <ele>0.2</ele>
        <time>2015-10-16T15:21:52Z</time>
      </trkpt>
      <trkpt lat="49.28728" lon="-0.1637">
        <ele>1.8</ele>
        <time>2015-10-16T15:22:43Z</time>
      </trkpt>
      <trkpt lat="49.28728" lon="-0.16368">
        <ele>1.7</ele>
        <time>2015-10-16T15:22:44Z</time>
      </trkpt>
      <trkpt lat="49.28741" lon="-0.16226">
        <ele>-0.9</ele>
        <time>2015-10-16T15:23:55Z</time>
      </trkpt>
      <trkpt lat="49.28744" lon="-0.16151">
        <ele>1.9</ele>
        <time>2015-10-16T15:24:33Z</time>
      </trkpt>
      <trkpt lat="49.28747" lon="-0.16117">
        <ele>2.3</ele>
        <time>2015-10-16T15:24:51Z</time>
      </trkpt>
      <trkpt lat="49.2875" lon="-0.16103">
        <ele>1.5</ele>
        <time>2015-10-16T15:24:58Z</time>
      </trkpt>
      <trkpt lat="49.28751" lon="-0.16101">
        <ele>1.9</ele>
        <time>2015-10-16T15:24:59Z</time>
      </trkpt>
      <trkpt lat="49.28792" lon="-0.15852">
        <ele>3.2</ele>
        <time>2015-10-16T15:27:09Z</time>
      </trkpt>
      <trkpt lat="49.28846" lon="-0.15372">
        <ele>2.8</ele>
        <time>2015-10-16T15:31:09Z</time>
      </trkpt>
      <trkpt lat="49.28846" lon="-0.15372">
        <ele>2.9</ele>
        <time>2015-10-16T15:31:10Z</time>
      </trkpt>
      <trkpt lat="49.28847" lon="-0.15372">
        <ele>3</ele>
        <time>2015-10-16T15:31:11Z</time>
      </trkpt>
      <trkpt lat="49.28847" lon="-0.15373">
        <ele>3.4</ele>
        <time>2015-10-16T15:31:12Z</time>
      </trkpt>
      <trkpt lat="49.28847" lon="-0.15373">
        <ele>3.6</ele>
        <time>2015-10-16T15:31:13Z</time>
      </trkpt>
      <trkpt lat="49.28847" lon="-0.15373">
        <ele>3.7</ele>
        <time>2015-10-16T15:31:14Z</time>
      </trkpt>
      <trkpt lat="49.28847" lon="-0.15372">
        <ele>1.6</ele>
        <time>2015-10-16T15:31:15Z</time>
      </trkpt>
      <trkpt lat="49.28847" lon="-0.15371">
        <ele>0.4</ele>
        <time>2015-10-16T15:31:16Z</time>
      </trkpt>
      <trkpt lat="49.28848" lon="-0.15363">
        <ele>-3.5</ele>
        <time>2015-10-16T15:31:20Z</time>
      </trkpt>
      <trkpt lat="49.28872" lon="-0.15233">
        <ele>-1.5</ele>
        <time>2015-10-16T15:32:25Z</time>
      </trkpt>
      <trkpt lat="49.28872" lon="-0.15231">
        <ele>-0.5</ele>
        <time>2015-10-16T15:32:26Z</time>
      </trkpt>
      <trkpt lat="49.28885" lon="-0.15168">
        <ele>-1.2</ele>
        <time>2015-10-16T15:33:02Z</time>
      </trkpt>
      <trkpt lat="49.28886" lon="-0.15152">
        <ele>1.3</ele>
        <time>2015-10-16T15:33:10Z</time>
      </trkpt>
      <trkpt lat="49.28896" lon="-0.15031">
        <ele>1.6</ele>
        <time>2015-10-16T15:34:11Z</time>
      </trkpt>
      <trkpt lat="49.28896" lon="-0.15029">
        <ele>2.2</ele>
        <time>2015-10-16T15:34:12Z</time>
      </trkpt>
      <trkpt lat="49.28896" lon="-0.15019">
        <ele>1.3</ele>
        <time>2015-10-16T15:34:17Z</time>
      </trkpt>
      <trkpt lat="49.28896" lon="-0.15013">
        <ele>-0.8</ele>
        <time>2015-10-16T15:34:20Z</time>
      </trkpt>
      <trkpt lat="49.28907" lon="-0.14934">
        <ele>0.2</ele>
        <time>2015-10-16T15:34:59Z</time>
      </trkpt>
      <trkpt lat="49.28908" lon="-0.1493">
        <ele>0.6</ele>
        <time>2015-10-16T15:35:01Z</time>
      </trkpt>
      <trkpt lat="49.28911" lon="-0.1491">
        <ele>1.2</ele>
        <time>2015-10-16T15:35:11Z</time>
      </trkpt>
      <trkpt lat="49.28911" lon="-0.14904">
        <ele>0.7</ele>
        <time>2015-10-16T15:35:14Z</time>
      </trkpt>
      <trkpt lat="49.28911" lon="-0.14902">
        <ele>0.5</ele>
        <time>2015-10-16T15:35:15Z</time>
      </trkpt>
      <trkpt lat="49.28915" lon="-0.1488">
        <ele>0.2</ele>
        <time>2015-10-16T15:35:26Z</time>
      </trkpt>
      <trkpt lat="49.28916" lon="-0.14872">
        <ele>0.6</ele>
        <time>2015-10-16T15:35:30Z</time>
      </trkpt>
      <trkpt lat="49.28938" lon="-0.14717">
        <ele>0.1</ele>
        <time>2015-10-16T15:36:53Z</time>
      </trkpt>
      <trkpt lat="49.28939" lon="-0.14715">
        <ele>0.2</ele>
        <time>2015-10-16T15:36:54Z</time>
      </trkpt>
      <trkpt lat="49.28954" lon="-0.14636">
        <ele>-0.5</ele>
        <time>2015-10-16T15:37:36Z</time>
      </trkpt>
      <trkpt lat="49.28969" lon="-0.14556">
        <ele>0.6</ele>
        <time>2015-10-16T15:38:19Z</time>
      </trkpt>
      <trkpt lat="49.28969" lon="-0.14554">
        <ele>0.6</ele>
        <time>2015-10-16T15:38:20Z</time>
      </trkpt>
      <trkpt lat="49.28971" lon="-0.14533">
        <ele>-0.5</ele>
        <time>2015-10-16T15:38:32Z</time>
      </trkpt>
      <trkpt lat="49.28973" lon="-0.14509">
        <ele>0.2</ele>
        <time>2015-10-16T15:38:45Z</time>
      </trkpt>
      <trkpt lat="49.28976" lon="-0.14431">
        <ele>-0.4</ele>
        <time>2015-10-16T15:39:25Z</time>
      </trkpt>
      <trkpt lat="49.28976" lon="-0.14429">
        <ele>-0.6</ele>
        <time>2015-10-16T15:39:26Z</time>
      </trkpt>
      <trkpt lat="49.28984" lon="-0.14364">
        <ele>-0.2</ele>
        <time>2015-10-16T15:39:59Z</time>
      </trkpt>
      <trkpt lat="49.28984" lon="-0.14362">
        <ele>0.3</ele>
        <time>2015-10-16T15:40:00Z</time>
      </trkpt>
      <trkpt lat="49.28984" lon="-0.14341">
        <ele>-1.7</ele>
        <time>2015-10-16T15:40:11Z</time>
      </trkpt>
      <trkpt lat="49.28985" lon="-0.14334">
        <ele>0.2</ele>
        <time>2015-10-16T15:40:15Z</time>
      </trkpt>
      <trkpt lat="49.28985" lon="-0.14324">
        <ele>-0.1</ele>
        <time>2015-10-16T15:40:21Z</time>
      </trkpt>
      <trkpt lat="49.28984" lon="-0.14318">
        <ele>0.5</ele>
        <time>2015-10-16T15:40:24Z</time>
      </trkpt>
      <trkpt lat="49.28977" lon="-0.14252">
        <ele>2.2</ele>
        <time>2015-10-16T15:40:59Z</time>
      </trkpt>
      <trkpt lat="49.28977" lon="-0.1425">
        <ele>1.4</ele>
        <time>2015-10-16T15:41:00Z</time>
      </trkpt>
      <trkpt lat="49.28981" lon="-0.14189">
        <ele>0.8</ele>
        <time>2015-10-16T15:41:33Z</time>
      </trkpt>
      <trkpt lat="49.28982" lon="-0.14175">
        <ele>2.1</ele>
        <time>2015-10-16T15:41:40Z</time>
      </trkpt>
      <trkpt lat="49.28982" lon="-0.14146">
        <ele>1</ele>
        <time>2015-10-16T15:41:56Z</time>
      </trkpt>
      <trkpt lat="49.28982" lon="-0.14144">
        <ele>1.2</ele>
        <time>2015-10-16T15:41:57Z</time>
      </trkpt>
      <trkpt lat="49.28981" lon="-0.14121">
        <ele>0.8</ele>
        <time>2015-10-16T15:42:10Z</time>
      </trkpt>
      <trkpt lat="49.28981" lon="-0.14119">
        <ele>0.9</ele>
        <time>2015-10-16T15:42:11Z</time>
      </trkpt>
      <trkpt lat="49.2899" lon="-0.14063">
        <ele>1.7</ele>
        <time>2015-10-16T15:42:42Z</time>
      </trkpt>
      <trkpt lat="49.29004" lon="-0.13971">
        <ele>1.3</ele>
        <time>2015-10-16T15:43:35Z</time>
      </trkpt>
      <trkpt lat="49.29004" lon="-0.13969">
        <ele>1.4</ele>
        <time>2015-10-16T15:43:36Z</time>
      </trkpt>
      <trkpt lat="49.29002" lon="-0.13961">
        <ele>2.2</ele>
        <time>2015-10-16T15:43:42Z</time>
      </trkpt>
      <trkpt lat="49.29001" lon="-0.13959">
        <ele>2.1</ele>
        <time>2015-10-16T15:43:46Z</time>
      </trkpt>
      <trkpt lat="49.29001" lon="-0.13959">
        <ele>2.2</ele>
        <time>2015-10-16T15:43:47Z</time>
      </trkpt>
      <trkpt lat="49.29001" lon="-0.13959">
        <ele>2.2</ele>
        <time>2015-10-16T15:43:48Z</time>
      </trkpt>
      <trkpt lat="49.29001" lon="-0.13959">
        <ele>2.2</ele>
        <time>2015-10-16T15:43:49Z</time>
      </trkpt>
      <trkpt lat="49.29001" lon="-0.13961">
        <ele>2.2</ele>
        <time>2015-10-16T15:43:52Z</time>
      </trkpt>
      <trkpt lat="49.29001" lon="-0.13962">
        <ele>2.8</ele>
        <time>2015-10-16T15:43:53Z</time>
      </trkpt>
      <trkpt lat="49.29" lon="-0.13962">
        <ele>3.3</ele>
        <time>2015-10-16T15:43:54Z</time>
      </trkpt>
      <trkpt lat="49.29" lon="-0.13961">
        <ele>3.7</ele>
        <time>2015-10-16T15:43:55Z</time>
      </trkpt>
      <trkpt lat="49.28999" lon="-0.1396">
        <ele>3.1</ele>
        <time>2015-10-16T15:43:56Z</time>
      </trkpt>
      <trkpt lat="49.28998" lon="-0.13959">
        <ele>2.7</ele>
        <time>2015-10-16T15:43:57Z</time>
      </trkpt>
      <trkpt lat="49.28997" lon="-0.13958">
        <ele>2.4</ele>
        <time>2015-10-16T15:43:58Z</time>
      </trkpt>
      <trkpt lat="49.28996" lon="-0.13958">
        <ele>2.7</ele>
        <time>2015-10-16T15:43:59Z</time>
      </trkpt>
      <trkpt lat="49.28994" lon="-0.13957">
        <ele>3</ele>
        <time>2015-10-16T15:44:00Z</time>
      </trkpt>
      <trkpt lat="49.28993" lon="-0.13956">
        <ele>3.2</ele>
        <time>2015-10-16T15:44:01Z</time>
      </trkpt>
      <trkpt lat="49.28992" lon="-0.13955">
        <ele>3.4</ele>
        <time>2015-10-16T15:44:02Z</time>
      </trkpt>
      <trkpt lat="49.28991" lon="-0.13954">
        <ele>3.5</ele>
        <time>2015-10-16T15:44:03Z</time>
      </trkpt>
      <trkpt lat="49.2899" lon="-0.13953">
        <ele>3.6</ele>
        <time>2015-10-16T15:44:04Z</time>
      </trkpt>
      <trkpt lat="49.28989" lon="-0.13952">
        <ele>4.3</ele>
        <time>2015-10-16T15:44:05Z</time>
      </trkpt>
      <trkpt lat="49.2898" lon="-0.13943">
        <ele>5.5</ele>
        <time>2015-10-16T15:44:14Z</time>
      </trkpt>
      <trkpt lat="49.28979" lon="-0.13942">
        <ele>5.5</ele>
        <time>2015-10-16T15:44:15Z</time>
      </trkpt>
      <trkpt lat="49.28973" lon="-0.13937">
        <ele>6.4</ele>
        <time>2015-10-16T15:44:21Z</time>
      </trkpt>
      <trkpt lat="49.28972" lon="-0.13936">
        <ele>6.4</ele>
        <time>2015-10-16T15:44:22Z</time>
      </trkpt>
      <trkpt lat="49.28972" lon="-0.13934">
        <ele>6.6</ele>
        <time>2015-10-16T15:44:23Z</time>
      </trkpt>
      <trkpt lat="49.28972" lon="-0.13932">
        <ele>6.8</ele>
        <time>2015-10-16T15:44:24Z</time>
      </trkpt>
      <trkpt lat="49.28972" lon="-0.1393">
        <ele>6.9</ele>
        <time>2015-10-16T15:44:25Z</time>
      </trkpt>
      <trkpt lat="49.28972" lon="-0.13928">
        <ele>5.7</ele>
        <time>2015-10-16T15:44:26Z</time>
      </trkpt>
      <trkpt lat="49.28973" lon="-0.13925">
        <ele>4.8</ele>
        <time>2015-10-16T15:44:27Z</time>
      </trkpt>
      <trkpt lat="49.28973" lon="-0.13923">
        <ele>4.2</ele>
        <time>2015-10-16T15:44:28Z</time>
      </trkpt>
      <trkpt lat="49.28973" lon="-0.13921">
        <ele>4.3</ele>
        <time>2015-10-16T15:44:29Z</time>
      </trkpt>
      <trkpt lat="49.28973" lon="-0.13919">
        <ele>4.4</ele>
        <time>2015-10-16T15:44:30Z</time>
      </trkpt>
      <trkpt lat="49.28973" lon="-0.13915">
        <ele>5.4</ele>
        <time>2015-10-16T15:44:32Z</time>
      </trkpt>
      <trkpt lat="49.28974" lon="-0.13896">
        <ele>5.3</ele>
        <time>2015-10-16T15:44:41Z</time>
      </trkpt>
      <trkpt lat="49.28974" lon="-0.13894">
        <ele>4.7</ele>
        <time>2015-10-16T15:44:42Z</time>
      </trkpt>
      <trkpt lat="49.28991" lon="-0.13799">
        <ele>4.2</ele>
        <time>2015-10-16T15:45:31Z</time>
      </trkpt>
      <trkpt lat="49.28992" lon="-0.13797">
        <ele>4.1</ele>
        <time>2015-10-16T15:45:32Z</time>
      </trkpt>
      <trkpt lat="49.29003" lon="-0.13732">
        <ele>6.6</ele>
        <time>2015-10-16T15:46:03Z</time>
      </trkpt>
      <trkpt lat="49.29003" lon="-0.1373">
        <ele>6.3</ele>
        <time>2015-10-16T15:46:04Z</time>
      </trkpt>
      <trkpt lat="49.29038" lon="-0.13518">
        <ele>1</ele>
        <time>2015-10-16T15:47:50Z</time>
      </trkpt>
      <trkpt lat="49.29038" lon="-0.13518">
        <ele>1.3</ele>
        <time>2015-10-16T15:47:51Z</time>
      </trkpt>
      <trkpt lat="49.29038" lon="-0.13518">
        <ele>1.5</ele>
        <time>2015-10-16T15:47:52Z</time>
      </trkpt>
      <trkpt lat="49.29141" lon="-0.12936">
        <ele>6.2</ele>
        <time>2015-10-16T15:52:37Z</time>
      </trkpt>
      <trkpt lat="49.29142" lon="-0.12934">
        <ele>6</ele>
        <time>2015-10-16T15:52:38Z</time>
      </trkpt>
      <trkpt lat="49.29143" lon="-0.12928">
        <ele>5.9</ele>
        <time>2015-10-16T15:52:41Z</time>
      </trkpt>
      <trkpt lat="49.29176" lon="-0.12775">
        <ele>6.6</ele>
        <time>2015-10-16T15:53:59Z</time>
      </trkpt>
      <trkpt lat="49.29176" lon="-0.12773">
        <ele>6.7</ele>
        <time>2015-10-16T15:54:00Z</time>
      </trkpt>
      <trkpt lat="49.29182" lon="-0.1274">
        <ele>5.2</ele>
        <time>2015-10-16T15:54:17Z</time>
      </trkpt>
      <trkpt lat="49.29184" lon="-0.12738">
        <ele>6.2</ele>
        <time>2015-10-16T15:54:20Z</time>
      </trkpt>
      <trkpt lat="49.29184" lon="-0.12737">
        <ele>6</ele>
        <time>2015-10-16T15:54:21Z</time>
      </trkpt>
      <trkpt lat="49.29185" lon="-0.12735">
        <ele>6.5</ele>
        <time>2015-10-16T15:54:24Z</time>
      </trkpt>
      <trkpt lat="49.29185" lon="-0.12735">
        <ele>6.7</ele>
        <time>2015-10-16T15:54:25Z</time>
      </trkpt>
      <trkpt lat="49.29185" lon="-0.12735">
        <ele>6.6</ele>
        <time>2015-10-16T15:54:26Z</time>
      </trkpt>
      <trkpt lat="49.29185" lon="-0.12735">
        <ele>6.5</ele>
        <time>2015-10-16T15:54:27Z</time>
      </trkpt>
      <trkpt lat="49.29185" lon="-0.12734">
        <ele>6.5</ele>
        <time>2015-10-16T15:54:28Z</time>
      </trkpt>
      <trkpt lat="49.29222" lon="-0.12545">
        <ele>3.7</ele>
        <time>2015-10-16T15:56:13Z</time>
      </trkpt>
      <trkpt lat="49.29222" lon="-0.12544">
        <ele>4</ele>
        <time>2015-10-16T15:56:14Z</time>
      </trkpt>
      <trkpt lat="49.29222" lon="-0.12544">
        <ele>4.1</ele>
        <time>2015-10-16T15:56:15Z</time>
      </trkpt>
      <trkpt lat="49.29222" lon="-0.12544">
        <ele>4.3</ele>
        <time>2015-10-16T15:56:16Z</time>
      </trkpt>
      <trkpt lat="49.29222" lon="-0.12544">
        <ele>5.2</ele>
        <time>2015-10-16T15:56:17Z</time>
      </trkpt>
      <trkpt lat="49.29222" lon="-0.12544">
        <ele>5.9</ele>
        <time>2015-10-16T15:56:18Z</time>
      </trkpt>
      <trkpt lat="49.29222" lon="-0.12544">
        <ele>6.5</ele>
        <time>2015-10-16T15:56:19Z</time>
      </trkpt>
      <trkpt lat="49.29222" lon="-0.12543">
        <ele>7.3</ele>
        <time>2015-10-16T15:56:20Z</time>
      </trkpt>
      <trkpt lat="49.29222" lon="-0.12543">
        <ele>7.9</ele>
        <time>2015-10-16T15:56:21Z</time>
      </trkpt>
      <trkpt lat="49.29222" lon="-0.12543">
        <ele>8.3</ele>
        <time>2015-10-16T15:56:22Z</time>
      </trkpt>
      <trkpt lat="49.29222" lon="-0.12543">
        <ele>8</ele>
        <time>2015-10-16T15:56:23Z</time>
      </trkpt>
      <trkpt lat="49.29222" lon="-0.12543">
        <ele>7.8</ele>
        <time>2015-10-16T15:56:24Z</time>
      </trkpt>
      <trkpt lat="49.29222" lon="-0.12543">
        <ele>7.7</ele>
        <time>2015-10-16T15:56:25Z</time>
      </trkpt>
      <trkpt lat="49.29222" lon="-0.12543">
        <ele>8</ele>
        <time>2015-10-16T15:56:26Z</time>
      </trkpt>
      <trkpt lat="49.29222" lon="-0.12542">
        <ele>8.2</ele>
        <time>2015-10-16T15:56:27Z</time>
      </trkpt>
      <trkpt lat="49.29222" lon="-0.12542">
        <ele>8.4</ele>
        <time>2015-10-16T15:56:28Z</time>
      </trkpt>
      <trkpt lat="49.29222" lon="-0.1254">
        <ele>7.1</ele>
        <time>2015-10-16T15:56:30Z</time>
      </trkpt>
      <trkpt lat="49.29224" lon="-0.12533">
        <ele>4.2</ele>
        <time>2015-10-16T15:56:36Z</time>
      </trkpt>
      <trkpt lat="49.29224" lon="-0.12533">
        <ele>3.9</ele>
        <time>2015-10-16T15:56:37Z</time>
      </trkpt>
      <trkpt lat="49.29224" lon="-0.12532">
        <ele>4.9</ele>
        <time>2015-10-16T15:56:38Z</time>
      </trkpt>
      <trkpt lat="49.29224" lon="-0.12532">
        <ele>5.7</ele>
        <time>2015-10-16T15:56:39Z</time>
      </trkpt>
      <trkpt lat="49.29224" lon="-0.12532">
        <ele>6.3</ele>
        <time>2015-10-16T15:56:40Z</time>
      </trkpt>
      <trkpt lat="49.29224" lon="-0.12532">
        <ele>6.3</ele>
        <time>2015-10-16T15:56:41Z</time>
      </trkpt>
      <trkpt lat="49.29224" lon="-0.12532">
        <ele>6.3</ele>
        <time>2015-10-16T15:56:42Z</time>
      </trkpt>
      <trkpt lat="49.29224" lon="-0.12531">
        <ele>6.3</ele>
        <time>2015-10-16T15:56:43Z</time>
      </trkpt>
      <trkpt lat="49.29224" lon="-0.12531">
        <ele>6.8</ele>
        <time>2015-10-16T15:56:44Z</time>
      </trkpt>
      <trkpt lat="49.29224" lon="-0.12531">
        <ele>7.1</ele>
        <time>2015-10-16T15:56:45Z</time>
      </trkpt>
      <trkpt lat="49.29224" lon="-0.12531">
        <ele>7.3</ele>
        <time>2015-10-16T15:56:46Z</time>
      </trkpt>
      <trkpt lat="49.29224" lon="-0.1253">
        <ele>6.3</ele>
        <time>2015-10-16T15:56:47Z</time>
      </trkpt>
      <trkpt lat="49.29225" lon="-0.12522">
        <ele>5.7</ele>
        <time>2015-10-16T15:56:52Z</time>
      </trkpt>
      <trkpt lat="49.29227" lon="-0.12514">
        <ele>6.5</ele>
        <time>2015-10-16T15:56:57Z</time>
      </trkpt>
      <trkpt lat="49.29233" lon="-0.12493">
        <ele>6.8</ele>
        <time>2015-10-16T15:57:10Z</time>
      </trkpt>
      <trkpt lat="49.29233" lon="-0.12491">
        <ele>6.5</ele>
        <time>2015-10-16T15:57:11Z</time>
      </trkpt>
      <trkpt lat="49.29235" lon="-0.12488">
        <ele>6.1</ele>
        <time>2015-10-16T15:57:14Z</time>
      </trkpt>
      <trkpt lat="49.29236" lon="-0.12488">
        <ele>6.2</ele>
        <time>2015-10-16T15:57:15Z</time>
      </trkpt>
      <trkpt lat="49.29236" lon="-0.12488">
        <ele>6.2</ele>
        <time>2015-10-16T15:57:16Z</time>
      </trkpt>
      <trkpt lat="49.29236" lon="-0.12488">
        <ele>6.3</ele>
        <time>2015-10-16T15:57:17Z</time>
      </trkpt>
      <trkpt lat="49.29236" lon="-0.12488">
        <ele>6.3</ele>
        <time>2015-10-16T15:57:18Z</time>
      </trkpt>
      <trkpt lat="49.29236" lon="-0.12488">
        <ele>5.5</ele>
        <time>2015-10-16T15:57:23Z</time>
      </trkpt>
      <trkpt lat="49.29236" lon="-0.12488">
        <ele>4.5</ele>
        <time>2015-10-16T15:57:24Z</time>
      </trkpt>
      <trkpt lat="49.29236" lon="-0.12489">
        <ele>3.7</ele>
        <time>2015-10-16T15:57:25Z</time>
      </trkpt>
      <trkpt lat="49.29236" lon="-0.12489">
        <ele>3.1</ele>
        <time>2015-10-16T15:57:26Z</time>
      </trkpt>
      <trkpt lat="49.29236" lon="-0.12489">
        <ele>2.7</ele>
        <time>2015-10-16T15:57:27Z</time>
      </trkpt>
      <trkpt lat="49.29236" lon="-0.12489">
        <ele>2.4</ele>
        <time>2015-10-16T15:57:28Z</time>
      </trkpt>
      <trkpt lat="49.29236" lon="-0.12489">
        <ele>2.7</ele>
        <time>2015-10-16T15:57:29Z</time>
      </trkpt>
      <trkpt lat="49.29236" lon="-0.12489">
        <ele>3</ele>
        <time>2015-10-16T15:57:30Z</time>
      </trkpt>
      <trkpt lat="49.29236" lon="-0.12489">
        <ele>3.2</ele>
        <time>2015-10-16T15:57:31Z</time>
      </trkpt>
      <trkpt lat="49.29236" lon="-0.12489">
        <ele>5.5</ele>
        <time>2015-10-16T15:57:32Z</time>
      </trkpt>
      <trkpt lat="49.29236" lon="-0.1249">
        <ele>7.2</ele>
        <time>2015-10-16T15:57:33Z</time>
      </trkpt>
      <trkpt lat="49.29236" lon="-0.1249">
        <ele>8.4</ele>
        <time>2015-10-16T15:57:34Z</time>
      </trkpt>
      <trkpt lat="49.29236" lon="-0.1249">
        <ele>8.7</ele>
        <time>2015-10-16T15:57:35Z</time>
      </trkpt>
      <trkpt lat="49.29236" lon="-0.1249">
        <ele>9</ele>
        <time>2015-10-16T15:57:36Z</time>
      </trkpt>
      <trkpt lat="49.29236" lon="-0.1249">
        <ele>9.1</ele>
        <time>2015-10-16T15:57:37Z</time>
      </trkpt>
      <trkpt lat="49.29236" lon="-0.12491">
        <ele>8.9</ele>
        <time>2015-10-16T15:57:38Z</time>
      </trkpt>
      <trkpt lat="49.29236" lon="-0.12491">
        <ele>8.7</ele>
        <time>2015-10-16T15:57:39Z</time>
      </trkpt>
      <trkpt lat="49.29236" lon="-0.12491">
        <ele>8.5</ele>
        <time>2015-10-16T15:57:40Z</time>
      </trkpt>
      <trkpt lat="49.29236" lon="-0.12492">
        <ele>8</ele>
        <time>2015-10-16T15:57:41Z</time>
      </trkpt>
      <trkpt lat="49.29236" lon="-0.12492">
        <ele>7.6</ele>
        <time>2015-10-16T15:57:42Z</time>
      </trkpt>
      <trkpt lat="49.29236" lon="-0.12492">
        <ele>7.3</ele>
        <time>2015-10-16T15:57:43Z</time>
      </trkpt>
      <trkpt lat="49.29236" lon="-0.12492">
        <ele>7.3</ele>
        <time>2015-10-16T15:57:44Z</time>
      </trkpt>
      <trkpt lat="49.29237" lon="-0.12492">
        <ele>7.2</ele>
        <time>2015-10-16T15:57:45Z</time>
      </trkpt>
      <trkpt lat="49.29237" lon="-0.12492">
        <ele>7.2</ele>
        <time>2015-10-16T15:57:46Z</time>
      </trkpt>
      <trkpt lat="49.29237" lon="-0.12493">
        <ele>7</ele>
        <time>2015-10-16T15:57:47Z</time>
      </trkpt>
      <trkpt lat="49.29237" lon="-0.12493">
        <ele>6.9</ele>
        <time>2015-10-16T15:57:48Z</time>
      </trkpt>
      <trkpt lat="49.29237" lon="-0.12493">
        <ele>6.7</ele>
        <time>2015-10-16T15:57:49Z</time>
      </trkpt>
      <trkpt lat="49.29237" lon="-0.12493">
        <ele>6.9</ele>
        <time>2015-10-16T15:57:50Z</time>
      </trkpt>
      <trkpt lat="49.29237" lon="-0.12493">
        <ele>6.9</ele>
        <time>2015-10-16T15:57:51Z</time>
      </trkpt>
      <trkpt lat="49.29237" lon="-0.12493">
        <ele>7</ele>
        <time>2015-10-16T15:57:52Z</time>
      </trkpt>
      <trkpt lat="49.29237" lon="-0.12493">
        <ele>6.8</ele>
        <time>2015-10-16T15:57:53Z</time>
      </trkpt>
      <trkpt lat="49.29237" lon="-0.12493">
        <ele>6.7</ele>
        <time>2015-10-16T15:57:54Z</time>
      </trkpt>
      <trkpt lat="49.29237" lon="-0.12493">
        <ele>6.6</ele>
        <time>2015-10-16T15:57:55Z</time>
      </trkpt>
      <trkpt lat="49.29237" lon="-0.12493">
        <ele>5.3</ele>
        <time>2015-10-16T15:57:56Z</time>
      </trkpt>
      <trkpt lat="49.29237" lon="-0.12493">
        <ele>4.3</ele>
        <time>2015-10-16T15:57:57Z</time>
      </trkpt>
      <trkpt lat="49.29237" lon="-0.12493">
        <ele>3.6</ele>
        <time>2015-10-16T15:57:58Z</time>
      </trkpt>
      <trkpt lat="49.29237" lon="-0.12493">
        <ele>3.9</ele>
        <time>2015-10-16T15:57:59Z</time>
      </trkpt>
      <trkpt lat="49.29237" lon="-0.12492">
        <ele>4.1</ele>
        <time>2015-10-16T15:58:00Z</time>
      </trkpt>
      <trkpt lat="49.29237" lon="-0.12492">
        <ele>4.3</ele>
        <time>2015-10-16T15:58:01Z</time>
      </trkpt>
      <trkpt lat="49.29237" lon="-0.12492">
        <ele>4.6</ele>
        <time>2015-10-16T15:58:02Z</time>
      </trkpt>
      <trkpt lat="49.29237" lon="-0.12492">
        <ele>4.8</ele>
        <time>2015-10-16T15:58:03Z</time>
      </trkpt>
      <trkpt lat="49.29237" lon="-0.12492">
        <ele>5</ele>
        <time>2015-10-16T15:58:04Z</time>
      </trkpt>
      <trkpt lat="49.29237" lon="-0.12491">
        <ele>4.9</ele>
        <time>2015-10-16T15:58:05Z</time>
      </trkpt>
      <trkpt lat="49.29237" lon="-0.12491">
        <ele>4.9</ele>
        <time>2015-10-16T15:58:06Z</time>
      </trkpt>
      <trkpt lat="49.29237" lon="-0.12491">
        <ele>4.8</ele>
        <time>2015-10-16T15:58:07Z</time>
      </trkpt>
      <trkpt lat="49.29237" lon="-0.12491">
        <ele>4.8</ele>
        <time>2015-10-16T15:58:08Z</time>
      </trkpt>
      <trkpt lat="49.29237" lon="-0.12485">
        <ele>6.9</ele>
        <time>2015-10-16T15:58:12Z</time>
      </trkpt>
      <trkpt lat="49.29239" lon="-0.12471">
        <ele>7.1</ele>
        <time>2015-10-16T15:58:20Z</time>
      </trkpt>
      <trkpt lat="49.29239" lon="-0.12469">
        <ele>6.9</ele>
        <time>2015-10-16T15:58:21Z</time>
      </trkpt>
      <trkpt lat="49.29241" lon="-0.12464">
        <ele>6.6</ele>
        <time>2015-10-16T15:58:24Z</time>
      </trkpt>
      <trkpt lat="49.29242" lon="-0.12461">
        <ele>6.3</ele>
        <time>2015-10-16T15:58:26Z</time>
      </trkpt>
      <trkpt lat="49.29248" lon="-0.12455">
        <ele>4.6</ele>
        <time>2015-10-16T15:58:32Z</time>
      </trkpt>
      <trkpt lat="49.29254" lon="-0.12451">
        <ele>7.2</ele>
        <time>2015-10-16T15:58:37Z</time>
      </trkpt>
      <trkpt lat="49.29263" lon="-0.12444">
        <ele>1.4</ele>
        <time>2015-10-16T15:58:44Z</time>
      </trkpt>
      <trkpt lat="49.29265" lon="-0.12442">
        <ele>0.7</ele>
        <time>2015-10-16T15:58:46Z</time>
      </trkpt>
      <trkpt lat="49.29268" lon="-0.12437">
        <ele>3</ele>
        <time>2015-10-16T15:58:50Z</time>
      </trkpt>
      <trkpt lat="49.29273" lon="-0.12427">
        <ele>2.6</ele>
        <time>2015-10-16T15:58:57Z</time>
      </trkpt>
      <trkpt lat="49.29274" lon="-0.12426">
        <ele>2.7</ele>
        <time>2015-10-16T15:58:58Z</time>
      </trkpt>
      <trkpt lat="49.29279" lon="-0.1242">
        <ele>0.8</ele>
        <time>2015-10-16T15:59:03Z</time>
      </trkpt>
      <trkpt lat="49.2928" lon="-0.12417">
        <ele>0.4</ele>
        <time>2015-10-16T15:59:05Z</time>
      </trkpt>
      <trkpt lat="49.29285" lon="-0.12406">
        <ele>2.8</ele>
        <time>2015-10-16T15:59:12Z</time>
      </trkpt>
      <trkpt lat="49.29286" lon="-0.12403">
        <ele>1.9</ele>
        <time>2015-10-16T15:59:14Z</time>
      </trkpt>
      <trkpt lat="49.29288" lon="-0.12394">
        <ele>1.3</ele>
        <time>2015-10-16T15:59:21Z</time>
      </trkpt>
      <trkpt lat="49.29288" lon="-0.12394">
        <ele>1.5</ele>
        <time>2015-10-16T15:59:22Z</time>
      </trkpt>
      <trkpt lat="49.29288" lon="-0.12394">
        <ele>1.5</ele>
        <time>2015-10-16T15:59:23Z</time>
      </trkpt>
      <trkpt lat="49.29287" lon="-0.12394">
        <ele>1.5</ele>
        <time>2015-10-16T15:59:25Z</time>
      </trkpt>
      <trkpt lat="49.29287" lon="-0.12393">
        <ele>2.3</ele>
        <time>2015-10-16T15:59:26Z</time>
      </trkpt>
      <trkpt lat="49.29288" lon="-0.12392">
        <ele>2.9</ele>
        <time>2015-10-16T15:59:27Z</time>
      </trkpt>
      <trkpt lat="49.29288" lon="-0.12388">
        <ele>3.3</ele>
        <time>2015-10-16T15:59:29Z</time>
      </trkpt>
      <trkpt lat="49.29288" lon="-0.12386">
        <ele>3.2</ele>
        <time>2015-10-16T15:59:30Z</time>
      </trkpt>
      <trkpt lat="49.29289" lon="-0.12384">
        <ele>3.2</ele>
        <time>2015-10-16T15:59:31Z</time>
      </trkpt>
      <trkpt lat="49.29289" lon="-0.12383">
        <ele>2.5</ele>
        <time>2015-10-16T15:59:32Z</time>
      </trkpt>
      <trkpt lat="49.29289" lon="-0.12381">
        <ele>2</ele>
        <time>2015-10-16T15:59:33Z</time>
      </trkpt>
      <trkpt lat="49.29289" lon="-0.12379">
        <ele>1.7</ele>
        <time>2015-10-16T15:59:34Z</time>
      </trkpt>
      <trkpt lat="49.2929" lon="-0.12377">
        <ele>1.8</ele>
        <time>2015-10-16T15:59:35Z</time>
      </trkpt>
      <trkpt lat="49.2929" lon="-0.12376">
        <ele>1.9</ele>
        <time>2015-10-16T15:59:36Z</time>
      </trkpt>
      <trkpt lat="49.2929" lon="-0.12374">
        <ele>2</ele>
        <time>2015-10-16T15:59:37Z</time>
      </trkpt>
      <trkpt lat="49.29291" lon="-0.12372">
        <ele>2.1</ele>
        <time>2015-10-16T15:59:38Z</time>
      </trkpt>
      <trkpt lat="49.29291" lon="-0.1237">
        <ele>2.1</ele>
        <time>2015-10-16T15:59:39Z</time>
      </trkpt>
      <trkpt lat="49.29296" lon="-0.12354">
        <ele>2.1</ele>
        <time>2015-10-16T15:59:49Z</time>
      </trkpt>
      <trkpt lat="49.29313" lon="-0.12297">
        <ele>0.1</ele>
        <time>2015-10-16T16:00:20Z</time>
      </trkpt>
      <trkpt lat="49.29314" lon="-0.12289">
        <ele>1.3</ele>
        <time>2015-10-16T16:00:24Z</time>
      </trkpt>
      <trkpt lat="49.29315" lon="-0.12287">
        <ele>1.7</ele>
        <time>2015-10-16T16:00:25Z</time>
      </trkpt>
      <trkpt lat="49.29334" lon="-0.12179">
        <ele>1.8</ele>
        <time>2015-10-16T16:01:23Z</time>
      </trkpt>
      <trkpt lat="49.29335" lon="-0.12178">
        <ele>1.1</ele>
        <time>2015-10-16T16:01:24Z</time>
      </trkpt>
      <trkpt lat="49.29341" lon="-0.12155">
        <ele>-0.7</ele>
        <time>2015-10-16T16:01:37Z</time>
      </trkpt>
      <trkpt lat="49.29341" lon="-0.12154">
        <ele>3.9</ele>
        <time>2015-10-16T16:01:38Z</time>
      </trkpt>
      <trkpt lat="49.29354" lon="-0.1209">
        <ele>1.6</ele>
        <time>2015-10-16T16:02:19Z</time>
      </trkpt>
      <trkpt lat="49.29354" lon="-0.1209">
        <ele>3.9</ele>
        <time>2015-10-16T16:02:20Z</time>
      </trkpt>
      <trkpt lat="49.29354" lon="-0.1209">
        <ele>5.5</ele>
        <time>2015-10-16T16:02:21Z</time>
      </trkpt>
      <trkpt lat="49.29354" lon="-0.1209">
        <ele>6.8</ele>
        <time>2015-10-16T16:02:22Z</time>
      </trkpt>
      <trkpt lat="49.29355" lon="-0.12089">
        <ele>6</ele>
        <time>2015-10-16T16:02:23Z</time>
      </trkpt>
      <trkpt lat="49.29355" lon="-0.12088">
        <ele>5.5</ele>
        <time>2015-10-16T16:02:24Z</time>
      </trkpt>
      <trkpt lat="49.29356" lon="-0.12086">
        <ele>5.1</ele>
        <time>2015-10-16T16:02:25Z</time>
      </trkpt>
      <trkpt lat="49.29356" lon="-0.12085">
        <ele>5</ele>
        <time>2015-10-16T16:02:26Z</time>
      </trkpt>
      <trkpt lat="49.29357" lon="-0.12084">
        <ele>4.9</ele>
        <time>2015-10-16T16:02:27Z</time>
      </trkpt>
      <trkpt lat="49.29358" lon="-0.12079">
        <ele>2.6</ele>
        <time>2015-10-16T16:02:30Z</time>
      </trkpt>
      <trkpt lat="49.29358" lon="-0.12076">
        <ele>2.4</ele>
        <time>2015-10-16T16:02:32Z</time>
      </trkpt>
      <trkpt lat="49.29364" lon="-0.12044">
        <ele>0.7</ele>
        <time>2015-10-16T16:02:51Z</time>
      </trkpt>
      <trkpt lat="49.29364" lon="-0.12042">
        <ele>1.1</ele>
        <time>2015-10-16T16:02:52Z</time>
      </trkpt>
      <trkpt lat="49.29405" lon="-0.1179">
        <ele>3.2</ele>
        <time>2015-10-16T16:05:14Z</time>
      </trkpt>
      <trkpt lat="49.29432" lon="-0.11682">
        <ele>3</ele>
        <time>2015-10-16T16:06:19Z</time>
      </trkpt>
      <trkpt lat="49.29432" lon="-0.1168">
        <ele>3</ele>
        <time>2015-10-16T16:06:20Z</time>
      </trkpt>
      <trkpt lat="49.29432" lon="-0.11678">
        <ele>3</ele>
        <time>2015-10-16T16:06:21Z</time>
      </trkpt>
      <trkpt lat="49.29432" lon="-0.11676">
        <ele>3</ele>
        <time>2015-10-16T16:06:22Z</time>
      </trkpt>
      <trkpt lat="49.29433" lon="-0.11673">
        <ele>3.4</ele>
        <time>2015-10-16T16:06:24Z</time>
      </trkpt>
      <trkpt lat="49.29435" lon="-0.11662">
        <ele>4.3</ele>
        <time>2015-10-16T16:06:31Z</time>
      </trkpt>
      <trkpt lat="49.29436" lon="-0.11659">
        <ele>4.8</ele>
        <time>2015-10-16T16:06:33Z</time>
      </trkpt>
      <trkpt lat="49.29441" lon="-0.11645">
        <ele>0.2</ele>
        <time>2015-10-16T16:06:43Z</time>
      </trkpt>
      <trkpt lat="49.29444" lon="-0.1164">
        <ele>-2.4</ele>
        <time>2015-10-16T16:06:47Z</time>
      </trkpt>
      <trkpt lat="49.29446" lon="-0.11639">
        <ele>1</ele>
        <time>2015-10-16T16:06:51Z</time>
      </trkpt>
      <trkpt lat="49.29446" lon="-0.1164">
        <ele>1.9</ele>
        <time>2015-10-16T16:06:52Z</time>
      </trkpt>
      <trkpt lat="49.29446" lon="-0.1164">
        <ele>2</ele>
        <time>2015-10-16T16:06:53Z</time>
      </trkpt>
      <trkpt lat="49.29446" lon="-0.1164">
        <ele>2.1</ele>
        <time>2015-10-16T16:06:54Z</time>
      </trkpt>
      <trkpt lat="49.29446" lon="-0.1164">
        <ele>2.1</ele>
        <time>2015-10-16T16:06:55Z</time>
      </trkpt>
      <trkpt lat="49.29447" lon="-0.11639">
        <ele>1.7</ele>
        <time>2015-10-16T16:06:56Z</time>
      </trkpt>
      <trkpt lat="49.29448" lon="-0.11634">
        <ele>1.3</ele>
        <time>2015-10-16T16:06:59Z</time>
      </trkpt>
      <trkpt lat="49.29472" lon="-0.1148">
        <ele>3.6</ele>
        <time>2015-10-16T16:08:28Z</time>
      </trkpt>
      <trkpt lat="49.29473" lon="-0.11478">
        <ele>3.2</ele>
        <time>2015-10-16T16:08:29Z</time>
      </trkpt>
      <trkpt lat="49.29472" lon="-0.11463">
        <ele>-0.1</ele>
        <time>2015-10-16T16:08:38Z</time>
      </trkpt>
      <trkpt lat="49.29472" lon="-0.11455">
        <ele>5.1</ele>
        <time>2015-10-16T16:08:43Z</time>
      </trkpt>
      <trkpt lat="49.29472" lon="-0.11454">
        <ele>2.8</ele>
        <time>2015-10-16T16:08:44Z</time>
      </trkpt>
      <trkpt lat="49.29472" lon="-0.11453">
        <ele>1.4</ele>
        <time>2015-10-16T16:08:45Z</time>
      </trkpt>
      <trkpt lat="49.29472" lon="-0.11452">
        <ele>0.7</ele>
        <time>2015-10-16T16:08:46Z</time>
      </trkpt>
      <trkpt lat="49.29474" lon="-0.11443">
        <ele>1</ele>
        <time>2015-10-16T16:08:51Z</time>
      </trkpt>
      <trkpt lat="49.29486" lon="-0.11388">
        <ele>2.6</ele>
        <time>2015-10-16T16:09:25Z</time>
      </trkpt>
      <trkpt lat="49.29536" lon="-0.11168">
        <ele>-1.2</ele>
        <time>2015-10-16T16:11:35Z</time>
      </trkpt>
      <trkpt lat="49.29537" lon="-0.11166">
        <ele>-0.7</ele>
        <time>2015-10-16T16:11:36Z</time>
      </trkpt>
      <trkpt lat="49.2955" lon="-0.111">
        <ele>2.1</ele>
        <time>2015-10-16T16:12:14Z</time>
      </trkpt>
      <trkpt lat="49.29554" lon="-0.11085">
        <ele>0.7</ele>
        <time>2015-10-16T16:12:23Z</time>
      </trkpt>
      <trkpt lat="49.29564" lon="-0.11038">
        <ele>2.3</ele>
        <time>2015-10-16T16:12:49Z</time>
      </trkpt>
      <trkpt lat="49.29565" lon="-0.11036">
        <ele>2.3</ele>
        <time>2015-10-16T16:12:50Z</time>
      </trkpt>
      <trkpt lat="49.29606" lon="-0.10831">
        <ele>3</ele>
        <time>2015-10-16T16:14:52Z</time>
      </trkpt>
      <trkpt lat="49.29646" lon="-0.10656">
        <ele>2.6</ele>
        <time>2015-10-16T16:16:37Z</time>
      </trkpt>
      <trkpt lat="49.29665" lon="-0.10588">
        <ele>2.9</ele>
        <time>2015-10-16T16:17:21Z</time>
      </trkpt>
      <trkpt lat="49.29665" lon="-0.10586">
        <ele>2.9</ele>
        <time>2015-10-16T16:17:22Z</time>
      </trkpt>
      <trkpt lat="49.29665" lon="-0.10581">
        <ele>3.4</ele>
        <time>2015-10-16T16:17:25Z</time>
      </trkpt>
      <trkpt lat="49.29667" lon="-0.10555">
        <ele>2.6</ele>
        <time>2015-10-16T16:17:39Z</time>
      </trkpt>
      <trkpt lat="49.29667" lon="-0.10553">
        <ele>2.7</ele>
        <time>2015-10-16T16:17:40Z</time>
      </trkpt>
      <trkpt lat="49.29669" lon="-0.10532">
        <ele>2.8</ele>
        <time>2015-10-16T16:17:52Z</time>
      </trkpt>
      <trkpt lat="49.29672" lon="-0.105">
        <ele>2.9</ele>
        <time>2015-10-16T16:18:09Z</time>
      </trkpt>
      <trkpt lat="49.29672" lon="-0.10486">
        <ele>2.6</ele>
        <time>2015-10-16T16:18:17Z</time>
      </trkpt>
      <trkpt lat="49.29671" lon="-0.10482">
        <ele>2.4</ele>
        <time>2015-10-16T16:18:19Z</time>
      </trkpt>
      <trkpt lat="49.2967" lon="-0.10481">
        <ele>2.4</ele>
        <time>2015-10-16T16:18:20Z</time>
      </trkpt>
      <trkpt lat="49.29669" lon="-0.10479">
        <ele>2.3</ele>
        <time>2015-10-16T16:18:21Z</time>
      </trkpt>
      <trkpt lat="49.29669" lon="-0.10478">
        <ele>2.3</ele>
        <time>2015-10-16T16:18:22Z</time>
      </trkpt>
      <trkpt lat="49.29668" lon="-0.10477">
        <ele>2.3</ele>
        <time>2015-10-16T16:18:23Z</time>
      </trkpt>
      <trkpt lat="49.29667" lon="-0.10475">
        <ele>2.5</ele>
        <time>2015-10-16T16:18:24Z</time>
      </trkpt>
      <trkpt lat="49.29666" lon="-0.10474">
        <ele>2.6</ele>
        <time>2015-10-16T16:18:25Z</time>
      </trkpt>
      <trkpt lat="49.29665" lon="-0.10472">
        <ele>2.7</ele>
        <time>2015-10-16T16:18:26Z</time>
      </trkpt>
      <trkpt lat="49.29664" lon="-0.10471">
        <ele>2.6</ele>
        <time>2015-10-16T16:18:27Z</time>
      </trkpt>
      <trkpt lat="49.29663" lon="-0.1047">
        <ele>2.5</ele>
        <time>2015-10-16T16:18:28Z</time>
      </trkpt>
      <trkpt lat="49.29662" lon="-0.1047">
        <ele>2.4</ele>
        <time>2015-10-16T16:18:29Z</time>
      </trkpt>
      <trkpt lat="49.29661" lon="-0.10468">
        <ele>2.6</ele>
        <time>2015-10-16T16:18:30Z</time>
      </trkpt>
      <trkpt lat="49.2966" lon="-0.10467">
        <ele>2.7</ele>
        <time>2015-10-16T16:18:31Z</time>
      </trkpt>
      <trkpt lat="49.29659" lon="-0.10465">
        <ele>2.9</ele>
        <time>2015-10-16T16:18:33Z</time>
      </trkpt>
      <trkpt lat="49.29657" lon="-0.10463">
        <ele>3</ele>
        <time>2015-10-16T16:18:35Z</time>
      </trkpt>
      <trkpt lat="49.29652" lon="-0.10458">
        <ele>3.8</ele>
        <time>2015-10-16T16:18:44Z</time>
      </trkpt>
      <trkpt lat="49.29652" lon="-0.10458">
        <ele>4</ele>
        <time>2015-10-16T16:18:45Z</time>
      </trkpt>
      <trkpt lat="49.29652" lon="-0.10458">
        <ele>4.2</ele>
        <time>2015-10-16T16:18:46Z</time>
      </trkpt>
      <trkpt lat="49.29652" lon="-0.10458">
        <ele>4.3</ele>
        <time>2015-10-16T16:18:47Z</time>
      </trkpt>
      <trkpt lat="49.29651" lon="-0.10458">
        <ele>4.6</ele>
        <time>2015-10-16T16:18:48Z</time>
      </trkpt>
      <trkpt lat="49.29651" lon="-0.10458">
        <ele>4.9</ele>
        <time>2015-10-16T16:18:49Z</time>
      </trkpt>
      <trkpt lat="49.2965" lon="-0.10458">
        <ele>5</ele>
        <time>2015-10-16T16:18:50Z</time>
      </trkpt>
      <trkpt lat="49.2965" lon="-0.10457">
        <ele>5.4</ele>
        <time>2015-10-16T16:18:51Z</time>
      </trkpt>
      <trkpt lat="49.29649" lon="-0.10457">
        <ele>5.6</ele>
        <time>2015-10-16T16:18:52Z</time>
      </trkpt>
      <trkpt lat="49.29649" lon="-0.10457">
        <ele>5.8</ele>
        <time>2015-10-16T16:18:53Z</time>
      </trkpt>
      <trkpt lat="49.29648" lon="-0.10456">
        <ele>6.4</ele>
        <time>2015-10-16T16:18:55Z</time>
      </trkpt>
      <trkpt lat="49.29648" lon="-0.10456">
        <ele>6.6</ele>
        <time>2015-10-16T16:18:56Z</time>
      </trkpt>
      <trkpt lat="49.29648" lon="-0.10455">
        <ele>6.8</ele>
        <time>2015-10-16T16:18:57Z</time>
      </trkpt>
      <trkpt lat="49.29648" lon="-0.10454">
        <ele>6.9</ele>
        <time>2015-10-16T16:18:58Z</time>
      </trkpt>
      <trkpt lat="49.29648" lon="-0.10452">
        <ele>7</ele>
        <time>2015-10-16T16:18:59Z</time>
      </trkpt>
      <trkpt lat="49.29648" lon="-0.10451">
        <ele>7</ele>
        <time>2015-10-16T16:19:00Z</time>
      </trkpt>
      <trkpt lat="49.2965" lon="-0.10439">
        <ele>7.3</ele>
        <time>2015-10-16T16:19:06Z</time>
      </trkpt>
      <trkpt lat="49.29651" lon="-0.10437">
        <ele>7.1</ele>
        <time>2015-10-16T16:19:07Z</time>
      </trkpt>
      <trkpt lat="49.29651" lon="-0.10435">
        <ele>6.9</ele>
        <time>2015-10-16T16:19:08Z</time>
      </trkpt>
      <trkpt lat="49.29652" lon="-0.10434">
        <ele>7</ele>
        <time>2015-10-16T16:19:09Z</time>
      </trkpt>
      <trkpt lat="49.29652" lon="-0.10432">
        <ele>7</ele>
        <time>2015-10-16T16:19:10Z</time>
      </trkpt>
      <trkpt lat="49.2966" lon="-0.10403">
        <ele>4.8</ele>
        <time>2015-10-16T16:19:32Z</time>
      </trkpt>
      <trkpt lat="49.29659" lon="-0.10403">
        <ele>5.6</ele>
        <time>2015-10-16T16:19:33Z</time>
      </trkpt>
      <trkpt lat="49.29659" lon="-0.10403">
        <ele>6.2</ele>
        <time>2015-10-16T16:19:34Z</time>
      </trkpt>
      <trkpt lat="49.29659" lon="-0.10403">
        <ele>6.7</ele>
        <time>2015-10-16T16:19:35Z</time>
      </trkpt>
      <trkpt lat="49.29659" lon="-0.10404">
        <ele>6.8</ele>
        <time>2015-10-16T16:19:36Z</time>
      </trkpt>
      <trkpt lat="49.29659" lon="-0.10404">
        <ele>6.9</ele>
        <time>2015-10-16T16:19:37Z</time>
      </trkpt>
      <trkpt lat="49.29659" lon="-0.10404">
        <ele>7</ele>
        <time>2015-10-16T16:19:38Z</time>
      </trkpt>
      <trkpt lat="49.29659" lon="-0.10404">
        <ele>6.8</ele>
        <time>2015-10-16T16:19:39Z</time>
      </trkpt>
      <trkpt lat="49.29659" lon="-0.10405">
        <ele>6.7</ele>
        <time>2015-10-16T16:19:40Z</time>
      </trkpt>
      <trkpt lat="49.2966" lon="-0.10405">
        <ele>6.6</ele>
        <time>2015-10-16T16:19:41Z</time>
      </trkpt>
      <trkpt lat="49.2966" lon="-0.10404">
        <ele>6.6</ele>
        <time>2015-10-16T16:19:42Z</time>
      </trkpt>
      <trkpt lat="49.2966" lon="-0.10404">
        <ele>6.5</ele>
        <time>2015-10-16T16:19:43Z</time>
      </trkpt>
      <trkpt lat="49.2966" lon="-0.10402">
        <ele>6.5</ele>
        <time>2015-10-16T16:19:44Z</time>
      </trkpt>
      <trkpt lat="49.29661" lon="-0.104">
        <ele>6.5</ele>
        <time>2015-10-16T16:19:45Z</time>
      </trkpt>
      <trkpt lat="49.29686" lon="-0.10264">
        <ele>7</ele>
        <time>2015-10-16T16:21:00Z</time>
      </trkpt>
      <trkpt lat="49.29686" lon="-0.10262">
        <ele>7</ele>
        <time>2015-10-16T16:21:01Z</time>
      </trkpt>
      <trkpt lat="49.29687" lon="-0.1025">
        <ele>7.3</ele>
        <time>2015-10-16T16:21:08Z</time>
      </trkpt>
      <trkpt lat="49.29687" lon="-0.10249">
        <ele>7.2</ele>
        <time>2015-10-16T16:21:09Z</time>
      </trkpt>
      <trkpt lat="49.29686" lon="-0.10231">
        <ele>6</ele>
        <time>2015-10-16T16:21:20Z</time>
      </trkpt>
      <trkpt lat="49.29686" lon="-0.10229">
        <ele>6.1</ele>
        <time>2015-10-16T16:21:21Z</time>
      </trkpt>
      <trkpt lat="49.29688" lon="-0.1022">
        <ele>6.3</ele>
        <time>2015-10-16T16:21:28Z</time>
      </trkpt>
      <trkpt lat="49.29689" lon="-0.10219">
        <ele>6.3</ele>
        <time>2015-10-16T16:21:29Z</time>
      </trkpt>
      <trkpt lat="49.29689" lon="-0.10214">
        <ele>6.6</ele>
        <time>2015-10-16T16:21:33Z</time>
      </trkpt>
      <trkpt lat="49.29688" lon="-0.10213">
        <ele>7.7</ele>
        <time>2015-10-16T16:21:36Z</time>
      </trkpt>
      <trkpt lat="49.29688" lon="-0.10213">
        <ele>7.8</ele>
        <time>2015-10-16T16:21:37Z</time>
      </trkpt>
      <trkpt lat="49.29688" lon="-0.10214">
        <ele>7.8</ele>
        <time>2015-10-16T16:21:38Z</time>
      </trkpt>
      <trkpt lat="49.29688" lon="-0.10214">
        <ele>7.9</ele>
        <time>2015-10-16T16:21:39Z</time>
      </trkpt>
      <trkpt lat="49.29688" lon="-0.10214">
        <ele>7.9</ele>
        <time>2015-10-16T16:21:40Z</time>
      </trkpt>
      <trkpt lat="49.29688" lon="-0.10215">
        <ele>8</ele>
        <time>2015-10-16T16:21:41Z</time>
      </trkpt>
      <trkpt lat="49.29688" lon="-0.10215">
        <ele>8</ele>
        <time>2015-10-16T16:21:42Z</time>
      </trkpt>
      <trkpt lat="49.29688" lon="-0.10215">
        <ele>8</ele>
        <time>2015-10-16T16:21:43Z</time>
      </trkpt>
      <trkpt lat="49.29688" lon="-0.10215">
        <ele>8</ele>
        <time>2015-10-16T16:21:44Z</time>
      </trkpt>
      <trkpt lat="49.29688" lon="-0.10215">
        <ele>7.8</ele>
        <time>2015-10-16T16:21:45Z</time>
      </trkpt>
      <trkpt lat="49.29689" lon="-0.10216">
        <ele>7.6</ele>
        <time>2015-10-16T16:21:46Z</time>
      </trkpt>
      <trkpt lat="49.29689" lon="-0.10216">
        <ele>7.5</ele>
        <time>2015-10-16T16:21:47Z</time>
      </trkpt>
      <trkpt lat="49.29689" lon="-0.10217">
        <ele>7.5</ele>
        <time>2015-10-16T16:21:48Z</time>
      </trkpt>
      <trkpt lat="49.29689" lon="-0.10217">
        <ele>7.4</ele>
        <time>2015-10-16T16:21:49Z</time>
      </trkpt>
      <trkpt lat="49.29689" lon="-0.10218">
        <ele>7.3</ele>
        <time>2015-10-16T16:21:50Z</time>
      </trkpt>
      <trkpt lat="49.29689" lon="-0.10218">
        <ele>7.3</ele>
        <time>2015-10-16T16:21:51Z</time>
      </trkpt>
      <trkpt lat="49.29689" lon="-0.10219">
        <ele>7.3</ele>
        <time>2015-10-16T16:21:52Z</time>
      </trkpt>
      <trkpt lat="49.29689" lon="-0.10219">
        <ele>7.3</ele>
        <time>2015-10-16T16:21:53Z</time>
      </trkpt>
      <trkpt lat="49.29688" lon="-0.10219">
        <ele>7.2</ele>
        <time>2015-10-16T16:21:54Z</time>
      </trkpt>
      <trkpt lat="49.29689" lon="-0.1022">
        <ele>7.2</ele>
        <time>2015-10-16T16:21:55Z</time>
      </trkpt>
      <trkpt lat="49.29689" lon="-0.1022">
        <ele>7.2</ele>
        <time>2015-10-16T16:21:56Z</time>
      </trkpt>
      <trkpt lat="49.29689" lon="-0.1022">
        <ele>7.2</ele>
        <time>2015-10-16T16:21:57Z</time>
      </trkpt>
      <trkpt lat="49.29689" lon="-0.1022">
        <ele>7.2</ele>
        <time>2015-10-16T16:21:58Z</time>
      </trkpt>
      <trkpt lat="49.29689" lon="-0.1022">
        <ele>7.2</ele>
        <time>2015-10-16T16:21:59Z</time>
      </trkpt>
      <trkpt lat="49.29689" lon="-0.1022">
        <ele>7.2</ele>
        <time>2015-10-16T16:22:00Z</time>
      </trkpt>
      <trkpt lat="49.29689" lon="-0.1022">
        <ele>7.2</ele>
        <time>2015-10-16T16:22:01Z</time>
      </trkpt>
      <trkpt lat="49.29689" lon="-0.1022">
        <ele>7.2</ele>
        <time>2015-10-16T16:22:02Z</time>
      </trkpt>
      <trkpt lat="49.29689" lon="-0.1022">
        <ele>7.2</ele>
        <time>2015-10-16T16:22:03Z</time>
      </trkpt>
      <trkpt lat="49.29689" lon="-0.1022">
        <ele>7.2</ele>
        <time>2015-10-16T16:22:04Z</time>
      </trkpt>
      <trkpt lat="49.29689" lon="-0.1022">
        <ele>7.2</ele>
        <time>2015-10-16T16:22:05Z</time>
      </trkpt>
      <trkpt lat="49.29689" lon="-0.10219">
        <ele>7.2</ele>
        <time>2015-10-16T16:22:06Z</time>
      </trkpt>
      <trkpt lat="49.29689" lon="-0.10219">
        <ele>7.2</ele>
        <time>2015-10-16T16:22:07Z</time>
      </trkpt>
      <trkpt lat="49.29688" lon="-0.10219">
        <ele>7.2</ele>
        <time>2015-10-16T16:22:09Z</time>
      </trkpt>
      <trkpt lat="49.29688" lon="-0.10219">
        <ele>7.2</ele>
        <time>2015-10-16T16:22:10Z</time>
      </trkpt>
      <trkpt lat="49.29687" lon="-0.10218">
        <ele>6.8</ele>
        <time>2015-10-16T16:22:12Z</time>
      </trkpt>
      <trkpt lat="49.29687" lon="-0.10217">
        <ele>6.5</ele>
        <time>2015-10-16T16:22:13Z</time>
      </trkpt>
      <trkpt lat="49.29679" lon="-0.1021">
        <ele>7.7</ele>
        <time>2015-10-16T16:22:22Z</time>
      </trkpt>
      <trkpt lat="49.29677" lon="-0.1021">
        <ele>7.7</ele>
        <time>2015-10-16T16:22:24Z</time>
      </trkpt>
      <trkpt lat="49.2967" lon="-0.1021">
        <ele>7.1</ele>
        <time>2015-10-16T16:22:30Z</time>
      </trkpt>
      <trkpt lat="49.2966" lon="-0.10213">
        <ele>6.6</ele>
        <time>2015-10-16T16:22:38Z</time>
      </trkpt>
      <trkpt lat="49.29654" lon="-0.10217">
        <ele>6.1</ele>
        <time>2015-10-16T16:22:44Z</time>
      </trkpt>
      <trkpt lat="49.2965" lon="-0.10222">
        <ele>5.9</ele>
        <time>2015-10-16T16:22:48Z</time>
      </trkpt>
      <trkpt lat="49.29649" lon="-0.10223">
        <ele>6</ele>
        <time>2015-10-16T16:22:49Z</time>
      </trkpt>
      <trkpt lat="49.29645" lon="-0.10232">
        <ele>5.6</ele>
        <time>2015-10-16T16:22:56Z</time>
      </trkpt>
      <trkpt lat="49.29644" lon="-0.10232">
        <ele>5.6</ele>
        <time>2015-10-16T16:22:57Z</time>
      </trkpt>
      <trkpt lat="49.29633" lon="-0.10243">
        <ele>4.8</ele>
        <time>2015-10-16T16:23:11Z</time>
      </trkpt>
      <trkpt lat="49.29633" lon="-0.10244">
        <ele>4.8</ele>
        <time>2015-10-16T16:23:12Z</time>
      </trkpt>
      <trkpt lat="49.29632" lon="-0.10245">
        <ele>4.8</ele>
        <time>2015-10-16T16:23:13Z</time>
      </trkpt>
      <trkpt lat="49.29631" lon="-0.10247">
        <ele>4.7</ele>
        <time>2015-10-16T16:23:14Z</time>
      </trkpt>
      <trkpt lat="49.29613" lon="-0.10288">
        <ele>5.5</ele>
        <time>2015-10-16T16:23:44Z</time>
      </trkpt>
      <trkpt lat="49.29612" lon="-0.10289">
        <ele>5.7</ele>
        <time>2015-10-16T16:23:45Z</time>
      </trkpt>
      <trkpt lat="49.2961" lon="-0.10291">
        <ele>5.9</ele>
        <time>2015-10-16T16:23:48Z</time>
      </trkpt>
      <trkpt lat="49.29607" lon="-0.1029">
        <ele>5.9</ele>
        <time>2015-10-16T16:23:51Z</time>
      </trkpt>
      <trkpt lat="49.29606" lon="-0.1029">
        <ele>6</ele>
        <time>2015-10-16T16:23:52Z</time>
      </trkpt>
      <trkpt lat="49.29606" lon="-0.10289">
        <ele>6.1</ele>
        <time>2015-10-16T16:23:53Z</time>
      </trkpt>
      <trkpt lat="49.29605" lon="-0.10288">
        <ele>6.2</ele>
        <time>2015-10-16T16:23:54Z</time>
      </trkpt>
      <trkpt lat="49.29604" lon="-0.10287">
        <ele>6.2</ele>
        <time>2015-10-16T16:23:55Z</time>
      </trkpt>
      <trkpt lat="49.29603" lon="-0.10286">
        <ele>6.3</ele>
        <time>2015-10-16T16:23:56Z</time>
      </trkpt>
      <trkpt lat="49.29603" lon="-0.10286">
        <ele>6.5</ele>
        <time>2015-10-16T16:23:57Z</time>
      </trkpt>
      <trkpt lat="49.29602" lon="-0.10285">
        <ele>6.7</ele>
        <time>2015-10-16T16:23:58Z</time>
      </trkpt>
      <trkpt lat="49.29602" lon="-0.10285">
        <ele>6.8</ele>
        <time>2015-10-16T16:23:59Z</time>
      </trkpt>
      <trkpt lat="49.29601" lon="-0.10284">
        <ele>6.7</ele>
        <time>2015-10-16T16:24:00Z</time>
      </trkpt>
      <trkpt lat="49.29601" lon="-0.10284">
        <ele>6.6</ele>
        <time>2015-10-16T16:24:01Z</time>
      </trkpt>
      <trkpt lat="49.296" lon="-0.10283">
        <ele>6.6</ele>
        <time>2015-10-16T16:24:02Z</time>
      </trkpt>
      <trkpt lat="49.296" lon="-0.10283">
        <ele>6.5</ele>
        <time>2015-10-16T16:24:03Z</time>
      </trkpt>
      <trkpt lat="49.296" lon="-0.10283">
        <ele>6.5</ele>
        <time>2015-10-16T16:24:04Z</time>
      </trkpt>
      <trkpt lat="49.296" lon="-0.10283">
        <ele>6.4</ele>
        <time>2015-10-16T16:24:05Z</time>
      </trkpt>
      <trkpt lat="49.296" lon="-0.10282">
        <ele>6.8</ele>
        <time>2015-10-16T16:24:06Z</time>
      </trkpt>
      <trkpt lat="49.296" lon="-0.10283">
        <ele>7.1</ele>
        <time>2015-10-16T16:24:07Z</time>
      </trkpt>
      <trkpt lat="49.296" lon="-0.10283">
        <ele>7.4</ele>
        <time>2015-10-16T16:24:08Z</time>
      </trkpt>
      <trkpt lat="49.296" lon="-0.10282">
        <ele>7.1</ele>
        <time>2015-10-16T16:24:09Z</time>
      </trkpt>
      <trkpt lat="49.29599" lon="-0.10282">
        <ele>6.9</ele>
        <time>2015-10-16T16:24:10Z</time>
      </trkpt>
      <trkpt lat="49.29599" lon="-0.10282">
        <ele>6.8</ele>
        <time>2015-10-16T16:24:11Z</time>
      </trkpt>
      <trkpt lat="49.29599" lon="-0.10282">
        <ele>6.9</ele>
        <time>2015-10-16T16:24:12Z</time>
      </trkpt>
      <trkpt lat="49.29599" lon="-0.10282">
        <ele>7</ele>
        <time>2015-10-16T16:24:13Z</time>
      </trkpt>
      <trkpt lat="49.29598" lon="-0.10281">
        <ele>7</ele>
        <time>2015-10-16T16:24:14Z</time>
      </trkpt>
      <trkpt lat="49.29598" lon="-0.10281">
        <ele>6.7</ele>
        <time>2015-10-16T16:24:15Z</time>
      </trkpt>
      <trkpt lat="49.2959" lon="-0.10272">
        <ele>7.3</ele>
        <time>2015-10-16T16:24:26Z</time>
      </trkpt>
      <trkpt lat="49.2959" lon="-0.10272">
        <ele>7.3</ele>
        <time>2015-10-16T16:24:27Z</time>
      </trkpt>
      <trkpt lat="49.29589" lon="-0.10271">
        <ele>7.3</ele>
        <time>2015-10-16T16:24:28Z</time>
      </trkpt>
      <trkpt lat="49.29589" lon="-0.10271">
        <ele>7.3</ele>
        <time>2015-10-16T16:24:29Z</time>
      </trkpt>
      <trkpt lat="49.29589" lon="-0.1027">
        <ele>7.4</ele>
        <time>2015-10-16T16:24:30Z</time>
      </trkpt>
      <trkpt lat="49.29588" lon="-0.1027">
        <ele>7.6</ele>
        <time>2015-10-16T16:24:31Z</time>
      </trkpt>
      <trkpt lat="49.29588" lon="-0.10269">
        <ele>7.7</ele>
        <time>2015-10-16T16:24:32Z</time>
      </trkpt>
      <trkpt lat="49.29588" lon="-0.10269">
        <ele>7.8</ele>
        <time>2015-10-16T16:24:33Z</time>
      </trkpt>
      <trkpt lat="49.29587" lon="-0.10269">
        <ele>7.8</ele>
        <time>2015-10-16T16:24:34Z</time>
      </trkpt>
      <trkpt lat="49.29587" lon="-0.10269">
        <ele>7.9</ele>
        <time>2015-10-16T16:24:35Z</time>
      </trkpt>
      <trkpt lat="49.29587" lon="-0.10269">
        <ele>7.9</ele>
        <time>2015-10-16T16:24:36Z</time>
      </trkpt>
      <trkpt lat="49.29587" lon="-0.10269">
        <ele>8</ele>
        <time>2015-10-16T16:24:37Z</time>
      </trkpt>
      <trkpt lat="49.29587" lon="-0.10269">
        <ele>8</ele>
        <time>2015-10-16T16:24:38Z</time>
      </trkpt>
      <trkpt lat="49.29587" lon="-0.10269">
        <ele>7.8</ele>
        <time>2015-10-16T16:24:39Z</time>
      </trkpt>
      <trkpt lat="49.29587" lon="-0.10269">
        <ele>7.6</ele>
        <time>2015-10-16T16:24:40Z</time>
      </trkpt>
      <trkpt lat="49.29587" lon="-0.10269">
        <ele>7.5</ele>
        <time>2015-10-16T16:24:41Z</time>
      </trkpt>
      <trkpt lat="49.29587" lon="-0.10269">
        <ele>7.7</ele>
        <time>2015-10-16T16:24:42Z</time>
      </trkpt>
      <trkpt lat="49.29587" lon="-0.10269">
        <ele>7.7</ele>
        <time>2015-10-16T16:24:43Z</time>
      </trkpt>
      <trkpt lat="49.29586" lon="-0.1027">
        <ele>7.8</ele>
        <time>2015-10-16T16:24:44Z</time>
      </trkpt>
      <trkpt lat="49.29586" lon="-0.1027">
        <ele>7.9</ele>
        <time>2015-10-16T16:24:45Z</time>
      </trkpt>
      <trkpt lat="49.29586" lon="-0.1027">
        <ele>7.9</ele>
        <time>2015-10-16T16:24:46Z</time>
      </trkpt>
      <trkpt lat="49.29586" lon="-0.1027">
        <ele>7.9</ele>
        <time>2015-10-16T16:24:47Z</time>
      </trkpt>
      <trkpt lat="49.29586" lon="-0.10271">
        <ele>8.2</ele>
        <time>2015-10-16T16:24:48Z</time>
      </trkpt>
      <trkpt lat="49.29585" lon="-0.10271">
        <ele>8.3</ele>
        <time>2015-10-16T16:24:49Z</time>
      </trkpt>
      <trkpt lat="49.29585" lon="-0.10271">
        <ele>8.5</ele>
        <time>2015-10-16T16:24:50Z</time>
      </trkpt>
      <trkpt lat="49.29585" lon="-0.10271">
        <ele>8.4</ele>
        <time>2015-10-16T16:24:51Z</time>
      </trkpt>
      <trkpt lat="49.29584" lon="-0.10271">
        <ele>8.3</ele>
        <time>2015-10-16T16:24:52Z</time>
      </trkpt>
      <trkpt lat="49.29579" lon="-0.10267">
        <ele>8.7</ele>
        <time>2015-10-16T16:24:59Z</time>
      </trkpt>
      <trkpt lat="49.29575" lon="-0.10263">
        <ele>8.5</ele>
        <time>2015-10-16T16:25:04Z</time>
      </trkpt>
      <trkpt lat="49.29571" lon="-0.10259">
        <ele>8.2</ele>
        <time>2015-10-16T16:25:08Z</time>
      </trkpt>
      <trkpt lat="49.29558" lon="-0.10249">
        <ele>9.1</ele>
        <time>2015-10-16T16:25:21Z</time>
      </trkpt>
      <trkpt lat="49.29557" lon="-0.10249">
        <ele>8.8</ele>
        <time>2015-10-16T16:25:22Z</time>
      </trkpt>
      <trkpt lat="49.2954" lon="-0.10234">
        <ele>8.2</ele>
        <time>2015-10-16T16:25:40Z</time>
      </trkpt>
      <trkpt lat="49.29519" lon="-0.10213">
        <ele>6.8</ele>
        <time>2015-10-16T16:25:58Z</time>
      </trkpt>
      <trkpt lat="49.29517" lon="-0.10212">
        <ele>6.7</ele>
        <time>2015-10-16T16:25:59Z</time>
      </trkpt>
      <trkpt lat="49.29504" lon="-0.10201">
        <ele>6.2</ele>
        <time>2015-10-16T16:26:11Z</time>
      </trkpt>
      <trkpt lat="49.29479" lon="-0.10182">
        <ele>5.1</ele>
        <time>2015-10-16T16:26:33Z</time>
      </trkpt>
      <trkpt lat="49.29478" lon="-0.10181">
        <ele>4.8</ele>
        <time>2015-10-16T16:26:34Z</time>
      </trkpt>
      <trkpt lat="49.29474" lon="-0.10182">
        <ele>5</ele>
        <time>2015-10-16T16:26:37Z</time>
      </trkpt>
      <trkpt lat="49.29469" lon="-0.10184">
        <ele>5.4</ele>
        <time>2015-10-16T16:26:41Z</time>
      </trkpt>
      <trkpt lat="49.29467" lon="-0.10186">
        <ele>5.1</ele>
        <time>2015-10-16T16:26:43Z</time>
      </trkpt>
      <trkpt lat="49.29465" lon="-0.10189">
        <ele>5.1</ele>
        <time>2015-10-16T16:26:45Z</time>
      </trkpt>
      <trkpt lat="49.29458" lon="-0.10203">
        <ele>4.8</ele>
        <time>2015-10-16T16:26:54Z</time>
      </trkpt>
      <trkpt lat="49.29451" lon="-0.10223">
        <ele>5.1</ele>
        <time>2015-10-16T16:27:06Z</time>
      </trkpt>
      <trkpt lat="49.2944" lon="-0.10251">
        <ele>4.6</ele>
        <time>2015-10-16T16:27:24Z</time>
      </trkpt>
      <trkpt lat="49.29435" lon="-0.10264">
        <ele>4.8</ele>
        <time>2015-10-16T16:27:32Z</time>
      </trkpt>
      <trkpt lat="49.2943" lon="-0.10275">
        <ele>4.4</ele>
        <time>2015-10-16T16:27:39Z</time>
      </trkpt>
      <trkpt lat="49.29429" lon="-0.10276">
        <ele>4.2</ele>
        <time>2015-10-16T16:27:40Z</time>
      </trkpt>
      <trkpt lat="49.29396" lon="-0.10332">
        <ele>5.4</ele>
        <time>2015-10-16T16:28:20Z</time>
      </trkpt>
      <trkpt lat="49.29395" lon="-0.10333">
        <ele>5</ele>
        <time>2015-10-16T16:28:21Z</time>
      </trkpt>
      <trkpt lat="49.29381" lon="-0.10347">
        <ele>4.2</ele>
        <time>2015-10-16T16:28:34Z</time>
      </trkpt>
      <trkpt lat="49.29378" lon="-0.10349">
        <ele>4.1</ele>
        <time>2015-10-16T16:28:36Z</time>
      </trkpt>
      <trkpt lat="49.29375" lon="-0.10351">
        <ele>4</ele>
        <time>2015-10-16T16:28:39Z</time>
      </trkpt>
      <trkpt lat="49.29358" lon="-0.10354">
        <ele>4.5</ele>
        <time>2015-10-16T16:28:52Z</time>
      </trkpt>
      <trkpt lat="49.29357" lon="-0.10354">
        <ele>4.3</ele>
        <time>2015-10-16T16:28:53Z</time>
      </trkpt>
      <trkpt lat="49.29224" lon="-0.10368">
        <ele>3.2</ele>
        <time>2015-10-16T16:30:46Z</time>
      </trkpt>
      <trkpt lat="49.29207" lon="-0.10369">
        <ele>3.4</ele>
        <time>2015-10-16T16:31:00Z</time>
      </trkpt>
      <trkpt lat="49.29199" lon="-0.1037">
        <ele>3.6</ele>
        <time>2015-10-16T16:31:05Z</time>
      </trkpt>
      <trkpt lat="49.29198" lon="-0.10371">
        <ele>3.9</ele>
        <time>2015-10-16T16:31:06Z</time>
      </trkpt>
      <trkpt lat="49.29172" lon="-0.10377">
        <ele>4.4</ele>
        <time>2015-10-16T16:31:29Z</time>
      </trkpt>
      <trkpt lat="49.29112" lon="-0.10389">
        <ele>4.4</ele>
        <time>2015-10-16T16:32:19Z</time>
      </trkpt>
      <trkpt lat="49.29111" lon="-0.1039">
        <ele>4.2</ele>
        <time>2015-10-16T16:32:20Z</time>
      </trkpt>
      <trkpt lat="49.29107" lon="-0.10392">
        <ele>4</ele>
        <time>2015-10-16T16:32:23Z</time>
      </trkpt>
      <trkpt lat="49.29102" lon="-0.10393">
        <ele>3.6</ele>
        <time>2015-10-16T16:32:27Z</time>
      </trkpt>
      <trkpt lat="49.29076" lon="-0.10401">
        <ele>5</ele>
        <time>2015-10-16T16:32:47Z</time>
      </trkpt>
      <trkpt lat="49.29075" lon="-0.10402">
        <ele>4.7</ele>
        <time>2015-10-16T16:32:48Z</time>
      </trkpt>
      <trkpt lat="49.29073" lon="-0.10403">
        <ele>4.3</ele>
        <time>2015-10-16T16:32:50Z</time>
      </trkpt>
      <trkpt lat="49.29043" lon="-0.10417">
        <ele>4.2</ele>
        <time>2015-10-16T16:33:14Z</time>
      </trkpt>
      <trkpt lat="49.29023" lon="-0.10429">
        <ele>3.8</ele>
        <time>2015-10-16T16:33:31Z</time>
      </trkpt>
      <trkpt lat="49.29022" lon="-0.10429">
        <ele>3.8</ele>
        <time>2015-10-16T16:33:32Z</time>
      </trkpt>
      <trkpt lat="49.28995" lon="-0.10456">
        <ele>4.4</ele>
        <time>2015-10-16T16:34:00Z</time>
      </trkpt>
      <trkpt lat="49.28821" lon="-0.10651">
        <ele>4</ele>
        <time>2015-10-16T16:36:55Z</time>
      </trkpt>
      <trkpt lat="49.2882" lon="-0.10652">
        <ele>3.8</ele>
        <time>2015-10-16T16:36:56Z</time>
      </trkpt>
      <trkpt lat="49.28793" lon="-0.10675">
        <ele>4.9</ele>
        <time>2015-10-16T16:37:20Z</time>
      </trkpt>
      <trkpt lat="49.28792" lon="-0.10677">
        <ele>4.6</ele>
        <time>2015-10-16T16:37:21Z</time>
      </trkpt>
      <trkpt lat="49.28791" lon="-0.10679">
        <ele>4.4</ele>
        <time>2015-10-16T16:37:22Z</time>
      </trkpt>
      <trkpt lat="49.2879" lon="-0.10681">
        <ele>4.3</ele>
        <time>2015-10-16T16:37:23Z</time>
      </trkpt>
      <trkpt lat="49.28789" lon="-0.10683">
        <ele>4.6</ele>
        <time>2015-10-16T16:37:24Z</time>
      </trkpt>
      <trkpt lat="49.28775" lon="-0.10712">
        <ele>0.6</ele>
        <time>2015-10-16T16:37:39Z</time>
      </trkpt>
      <trkpt lat="49.28691" lon="-0.10898">
        <ele>2.6</ele>
        <time>2015-10-16T16:39:33Z</time>
      </trkpt>
      <trkpt lat="49.2869" lon="-0.109">
        <ele>2.9</ele>
        <time>2015-10-16T16:39:34Z</time>
      </trkpt>
    </trkseg>
  </trk>
</gpx>